<?xml version="1.0" encoding="UTF-8" standalone="no" ?>
<gpx xmlns="http://www.topografix.com/GPX/1/1" xmlns:xsi="http://www.w3.org/2001/XMLSchema-instance" xsi:schemaLocation="http://www.topografix.com/GPX/1/1 http://www.topografix.com/GPX/1/1/gpx.xsd" version="1.1" creator="VisuGPX - https://www.visugpx.com">
  <metadata>
    <name>Canal des 2 mers : Montech - Moissac</name>
    <desc><![CDATA[Canal des 2 mers, Montech - Moissac]]></desc>
  </metadata>
  <trk>
    <name><![CDATA[Canal des 2 mers : Montech - Moissac_1]]></name>
    <trkseg>
      <trkpt lat="43.95919" lon="1.23739">
        <ele>106.1</ele>
        <time>2018-08-21T07:35:48Z</time>
      </trkpt>
      <trkpt lat="43.95919" lon="1.23739">
        <ele>106.1</ele>
        <time>2018-08-21T07:37:19Z</time>
      </trkpt>
      <trkpt lat="43.95927" lon="1.23734">
        <ele>106.8</ele>
        <time>2018-08-21T07:37:23Z</time>
      </trkpt>
      <trkpt lat="43.95936" lon="1.23736">
        <ele>107.6</ele>
        <time>2018-08-21T07:37:26Z</time>
      </trkpt>
      <trkpt lat="43.95945" lon="1.2374">
        <ele>107.8</ele>
        <time>2018-08-21T07:37:29Z</time>
      </trkpt>
      <trkpt lat="43.95953" lon="1.23742">
        <ele>107.7</ele>
        <time>2018-08-21T07:37:31Z</time>
      </trkpt>
      <trkpt lat="43.95962" lon="1.23741">
        <ele>107.6</ele>
        <time>2018-08-21T07:37:34Z</time>
      </trkpt>
      <trkpt lat="43.9597" lon="1.23736">
        <ele>108</ele>
        <time>2018-08-21T07:37:38Z</time>
      </trkpt>
      <trkpt lat="43.95978" lon="1.23727">
        <ele>105.7</ele>
        <time>2018-08-21T07:37:41Z</time>
      </trkpt>
      <trkpt lat="43.95977" lon="1.23716">
        <ele>106.7</ele>
        <time>2018-08-21T07:37:44Z</time>
      </trkpt>
      <trkpt lat="43.95979" lon="1.23704">
        <ele>107.4</ele>
        <time>2018-08-21T07:37:48Z</time>
      </trkpt>
      <trkpt lat="43.95981" lon="1.23694">
        <ele>107.5</ele>
        <time>2018-08-21T07:37:51Z</time>
      </trkpt>
      <trkpt lat="43.95985" lon="1.23685">
        <ele>108.5</ele>
        <time>2018-08-21T07:37:54Z</time>
      </trkpt>
      <trkpt lat="43.95991" lon="1.23676">
        <ele>108.7</ele>
        <time>2018-08-21T07:37:57Z</time>
      </trkpt>
      <trkpt lat="43.95998" lon="1.23669">
        <ele>109.2</ele>
        <time>2018-08-21T07:38:00Z</time>
      </trkpt>
      <trkpt lat="43.96005" lon="1.23661">
        <ele>109.8</ele>
        <time>2018-08-21T07:38:03Z</time>
      </trkpt>
      <trkpt lat="43.9601" lon="1.23653">
        <ele>110.2</ele>
        <time>2018-08-21T07:38:05Z</time>
      </trkpt>
      <trkpt lat="43.96016" lon="1.23646">
        <ele>110.1</ele>
        <time>2018-08-21T07:38:07Z</time>
      </trkpt>
      <trkpt lat="43.96022" lon="1.2364">
        <ele>109.7</ele>
        <time>2018-08-21T07:38:09Z</time>
      </trkpt>
      <trkpt lat="43.96028" lon="1.23634">
        <ele>108.8</ele>
        <time>2018-08-21T07:38:11Z</time>
      </trkpt>
      <trkpt lat="43.96034" lon="1.23628">
        <ele>107.4</ele>
        <time>2018-08-21T07:38:13Z</time>
      </trkpt>
      <trkpt lat="43.96041" lon="1.23622">
        <ele>107</ele>
        <time>2018-08-21T07:38:15Z</time>
      </trkpt>
      <trkpt lat="43.96049" lon="1.23614">
        <ele>105.4</ele>
        <time>2018-08-21T07:38:18Z</time>
      </trkpt>
      <trkpt lat="43.96058" lon="1.23608">
        <ele>104.2</ele>
        <time>2018-08-21T07:38:21Z</time>
      </trkpt>
      <trkpt lat="43.96068" lon="1.23605">
        <ele>103.4</ele>
        <time>2018-08-21T07:38:24Z</time>
      </trkpt>
      <trkpt lat="43.96078" lon="1.23606">
        <ele>103.4</ele>
        <time>2018-08-21T07:38:27Z</time>
      </trkpt>
      <trkpt lat="43.96086" lon="1.23608">
        <ele>104.4</ele>
        <time>2018-08-21T07:38:29Z</time>
      </trkpt>
      <trkpt lat="43.96094" lon="1.23612">
        <ele>105.1</ele>
        <time>2018-08-21T07:38:31Z</time>
      </trkpt>
      <trkpt lat="43.96101" lon="1.23617">
        <ele>105.6</ele>
        <time>2018-08-21T07:38:33Z</time>
      </trkpt>
      <trkpt lat="43.96108" lon="1.23621">
        <ele>106.2</ele>
        <time>2018-08-21T07:38:35Z</time>
      </trkpt>
      <trkpt lat="43.96116" lon="1.23622">
        <ele>107.4</ele>
        <time>2018-08-21T07:38:37Z</time>
      </trkpt>
      <trkpt lat="43.96124" lon="1.2362">
        <ele>107.9</ele>
        <time>2018-08-21T07:38:39Z</time>
      </trkpt>
      <trkpt lat="43.96132" lon="1.23616">
        <ele>108.4</ele>
        <time>2018-08-21T07:38:41Z</time>
      </trkpt>
      <trkpt lat="43.9614" lon="1.23612">
        <ele>108.9</ele>
        <time>2018-08-21T07:38:43Z</time>
      </trkpt>
      <trkpt lat="43.96148" lon="1.23608">
        <ele>107.5</ele>
        <time>2018-08-21T07:38:45Z</time>
      </trkpt>
      <trkpt lat="43.96156" lon="1.23604">
        <ele>106.9</ele>
        <time>2018-08-21T07:38:47Z</time>
      </trkpt>
      <trkpt lat="43.96163" lon="1.236">
        <ele>105.7</ele>
        <time>2018-08-21T07:38:49Z</time>
      </trkpt>
      <trkpt lat="43.96171" lon="1.23597">
        <ele>106.3</ele>
        <time>2018-08-21T07:38:51Z</time>
      </trkpt>
      <trkpt lat="43.96178" lon="1.23594">
        <ele>106.7</ele>
        <time>2018-08-21T07:38:53Z</time>
      </trkpt>
      <trkpt lat="43.96186" lon="1.2359">
        <ele>106.4</ele>
        <time>2018-08-21T07:38:55Z</time>
      </trkpt>
      <trkpt lat="43.96194" lon="1.23586">
        <ele>105.3</ele>
        <time>2018-08-21T07:38:57Z</time>
      </trkpt>
      <trkpt lat="43.96202" lon="1.23581">
        <ele>104.8</ele>
        <time>2018-08-21T07:38:59Z</time>
      </trkpt>
      <trkpt lat="43.9621" lon="1.23576">
        <ele>104.2</ele>
        <time>2018-08-21T07:39:01Z</time>
      </trkpt>
      <trkpt lat="43.96218" lon="1.23572">
        <ele>103.7</ele>
        <time>2018-08-21T07:39:03Z</time>
      </trkpt>
      <trkpt lat="43.96226" lon="1.23565">
        <ele>103.3</ele>
        <time>2018-08-21T07:39:05Z</time>
      </trkpt>
      <trkpt lat="43.96233" lon="1.23559">
        <ele>103.4</ele>
        <time>2018-08-21T07:39:07Z</time>
      </trkpt>
      <trkpt lat="43.96241" lon="1.23553">
        <ele>103.7</ele>
        <time>2018-08-21T07:39:09Z</time>
      </trkpt>
      <trkpt lat="43.9625" lon="1.23547">
        <ele>103.5</ele>
        <time>2018-08-21T07:39:11Z</time>
      </trkpt>
      <trkpt lat="43.96258" lon="1.23541">
        <ele>102.9</ele>
        <time>2018-08-21T07:39:13Z</time>
      </trkpt>
      <trkpt lat="43.96268" lon="1.23535">
        <ele>102.4</ele>
        <time>2018-08-21T07:39:15Z</time>
      </trkpt>
      <trkpt lat="43.96276" lon="1.23528">
        <ele>102.3</ele>
        <time>2018-08-21T07:39:17Z</time>
      </trkpt>
      <trkpt lat="43.96284" lon="1.23521">
        <ele>102.2</ele>
        <time>2018-08-21T07:39:19Z</time>
      </trkpt>
      <trkpt lat="43.96292" lon="1.23513">
        <ele>102</ele>
        <time>2018-08-21T07:39:21Z</time>
      </trkpt>
      <trkpt lat="43.96299" lon="1.23505">
        <ele>102</ele>
        <time>2018-08-21T07:39:23Z</time>
      </trkpt>
      <trkpt lat="43.96306" lon="1.23497">
        <ele>101.9</ele>
        <time>2018-08-21T07:39:25Z</time>
      </trkpt>
      <trkpt lat="43.96313" lon="1.23489">
        <ele>102</ele>
        <time>2018-08-21T07:39:27Z</time>
      </trkpt>
      <trkpt lat="43.9632" lon="1.2348">
        <ele>102.3</ele>
        <time>2018-08-21T07:39:29Z</time>
      </trkpt>
      <trkpt lat="43.96328" lon="1.23472">
        <ele>102.5</ele>
        <time>2018-08-21T07:39:31Z</time>
      </trkpt>
      <trkpt lat="43.96335" lon="1.23464">
        <ele>102.6</ele>
        <time>2018-08-21T07:39:33Z</time>
      </trkpt>
      <trkpt lat="43.96341" lon="1.23457">
        <ele>102.7</ele>
        <time>2018-08-21T07:39:35Z</time>
      </trkpt>
      <trkpt lat="43.96347" lon="1.23447">
        <ele>102.7</ele>
        <time>2018-08-21T07:39:37Z</time>
      </trkpt>
      <trkpt lat="43.96354" lon="1.23437">
        <ele>102.7</ele>
        <time>2018-08-21T07:39:39Z</time>
      </trkpt>
      <trkpt lat="43.96361" lon="1.23426">
        <ele>102.8</ele>
        <time>2018-08-21T07:39:41Z</time>
      </trkpt>
      <trkpt lat="43.96368" lon="1.23414">
        <ele>103</ele>
        <time>2018-08-21T07:39:43Z</time>
      </trkpt>
      <trkpt lat="43.96375" lon="1.23408">
        <ele>103.2</ele>
        <time>2018-08-21T07:39:44Z</time>
      </trkpt>
      <trkpt lat="43.96385" lon="1.23398">
        <ele>103.4</ele>
        <time>2018-08-21T07:39:46Z</time>
      </trkpt>
      <trkpt lat="43.96393" lon="1.23388">
        <ele>103.5</ele>
        <time>2018-08-21T07:39:48Z</time>
      </trkpt>
      <trkpt lat="43.96399" lon="1.23377">
        <ele>103.8</ele>
        <time>2018-08-21T07:39:50Z</time>
      </trkpt>
      <trkpt lat="43.96406" lon="1.23367">
        <ele>103.8</ele>
        <time>2018-08-21T07:39:53Z</time>
      </trkpt>
      <trkpt lat="43.96413" lon="1.2336">
        <ele>103.8</ele>
        <time>2018-08-21T07:39:56Z</time>
      </trkpt>
      <trkpt lat="43.96421" lon="1.23353">
        <ele>104.2</ele>
        <time>2018-08-21T07:39:59Z</time>
      </trkpt>
      <trkpt lat="43.96429" lon="1.23345">
        <ele>104.5</ele>
        <time>2018-08-21T07:40:01Z</time>
      </trkpt>
      <trkpt lat="43.96438" lon="1.23336">
        <ele>104.5</ele>
        <time>2018-08-21T07:40:03Z</time>
      </trkpt>
      <trkpt lat="43.96449" lon="1.23326">
        <ele>104.5</ele>
        <time>2018-08-21T07:40:05Z</time>
      </trkpt>
      <trkpt lat="43.96458" lon="1.23316">
        <ele>104.6</ele>
        <time>2018-08-21T07:40:07Z</time>
      </trkpt>
      <trkpt lat="43.96466" lon="1.23306">
        <ele>104.6</ele>
        <time>2018-08-21T07:40:09Z</time>
      </trkpt>
      <trkpt lat="43.96474" lon="1.23296">
        <ele>104.8</ele>
        <time>2018-08-21T07:40:11Z</time>
      </trkpt>
      <trkpt lat="43.96483" lon="1.23286">
        <ele>104.7</ele>
        <time>2018-08-21T07:40:13Z</time>
      </trkpt>
      <trkpt lat="43.96492" lon="1.23276">
        <ele>104.7</ele>
        <time>2018-08-21T07:40:16Z</time>
      </trkpt>
      <trkpt lat="43.96501" lon="1.23265">
        <ele>104.5</ele>
        <time>2018-08-21T07:40:17Z</time>
      </trkpt>
      <trkpt lat="43.9651" lon="1.23255">
        <ele>104.5</ele>
        <time>2018-08-21T07:40:19Z</time>
      </trkpt>
      <trkpt lat="43.96519" lon="1.23245">
        <ele>104.8</ele>
        <time>2018-08-21T07:40:21Z</time>
      </trkpt>
      <trkpt lat="43.96527" lon="1.23235">
        <ele>105</ele>
        <time>2018-08-21T07:40:23Z</time>
      </trkpt>
      <trkpt lat="43.96535" lon="1.23225">
        <ele>105.5</ele>
        <time>2018-08-21T07:40:25Z</time>
      </trkpt>
      <trkpt lat="43.96542" lon="1.23217">
        <ele>105.9</ele>
        <time>2018-08-21T07:40:27Z</time>
      </trkpt>
      <trkpt lat="43.96549" lon="1.23208">
        <ele>106.3</ele>
        <time>2018-08-21T07:40:29Z</time>
      </trkpt>
      <trkpt lat="43.96557" lon="1.23198">
        <ele>106.8</ele>
        <time>2018-08-21T07:40:31Z</time>
      </trkpt>
      <trkpt lat="43.96565" lon="1.23188">
        <ele>107.2</ele>
        <time>2018-08-21T07:40:33Z</time>
      </trkpt>
      <trkpt lat="43.96575" lon="1.23178">
        <ele>107.6</ele>
        <time>2018-08-21T07:40:35Z</time>
      </trkpt>
      <trkpt lat="43.96585" lon="1.23167">
        <ele>107.9</ele>
        <time>2018-08-21T07:40:37Z</time>
      </trkpt>
      <trkpt lat="43.96593" lon="1.23157">
        <ele>108.3</ele>
        <time>2018-08-21T07:40:39Z</time>
      </trkpt>
      <trkpt lat="43.96602" lon="1.23146">
        <ele>108.8</ele>
        <time>2018-08-21T07:40:41Z</time>
      </trkpt>
      <trkpt lat="43.96609" lon="1.23136">
        <ele>108.9</ele>
        <time>2018-08-21T07:40:43Z</time>
      </trkpt>
      <trkpt lat="43.96616" lon="1.23127">
        <ele>109.1</ele>
        <time>2018-08-21T07:40:45Z</time>
      </trkpt>
      <trkpt lat="43.96625" lon="1.23117">
        <ele>109.3</ele>
        <time>2018-08-21T07:40:47Z</time>
      </trkpt>
      <trkpt lat="43.96631" lon="1.23112">
        <ele>109.2</ele>
        <time>2018-08-21T07:40:48Z</time>
      </trkpt>
      <trkpt lat="43.96641" lon="1.23102">
        <ele>109.6</ele>
        <time>2018-08-21T07:40:50Z</time>
      </trkpt>
      <trkpt lat="43.9665" lon="1.23092">
        <ele>109.9</ele>
        <time>2018-08-21T07:40:52Z</time>
      </trkpt>
      <trkpt lat="43.96658" lon="1.2308">
        <ele>110.4</ele>
        <time>2018-08-21T07:40:54Z</time>
      </trkpt>
      <trkpt lat="43.96665" lon="1.23069">
        <ele>111</ele>
        <time>2018-08-21T07:40:56Z</time>
      </trkpt>
      <trkpt lat="43.96675" lon="1.2306">
        <ele>111.4</ele>
        <time>2018-08-21T07:40:58Z</time>
      </trkpt>
      <trkpt lat="43.96685" lon="1.2305">
        <ele>111.9</ele>
        <time>2018-08-21T07:41:00Z</time>
      </trkpt>
      <trkpt lat="43.96693" lon="1.23041">
        <ele>112.7</ele>
        <time>2018-08-21T07:41:02Z</time>
      </trkpt>
      <trkpt lat="43.967" lon="1.23032">
        <ele>113.4</ele>
        <time>2018-08-21T07:41:04Z</time>
      </trkpt>
      <trkpt lat="43.96708" lon="1.23022">
        <ele>113.7</ele>
        <time>2018-08-21T07:41:06Z</time>
      </trkpt>
      <trkpt lat="43.96717" lon="1.23012">
        <ele>113.9</ele>
        <time>2018-08-21T07:41:08Z</time>
      </trkpt>
      <trkpt lat="43.96727" lon="1.23">
        <ele>113.9</ele>
        <time>2018-08-21T07:41:10Z</time>
      </trkpt>
      <trkpt lat="43.96736" lon="1.22988">
        <ele>113.8</ele>
        <time>2018-08-21T07:41:12Z</time>
      </trkpt>
      <trkpt lat="43.96745" lon="1.22977">
        <ele>112.9</ele>
        <time>2018-08-21T07:41:14Z</time>
      </trkpt>
      <trkpt lat="43.96754" lon="1.22967">
        <ele>112.6</ele>
        <time>2018-08-21T07:41:16Z</time>
      </trkpt>
      <trkpt lat="43.96763" lon="1.22955">
        <ele>111.9</ele>
        <time>2018-08-21T07:41:18Z</time>
      </trkpt>
      <trkpt lat="43.96772" lon="1.22945">
        <ele>111.6</ele>
        <time>2018-08-21T07:41:20Z</time>
      </trkpt>
      <trkpt lat="43.9678" lon="1.22935">
        <ele>111.1</ele>
        <time>2018-08-21T07:41:22Z</time>
      </trkpt>
      <trkpt lat="43.96789" lon="1.22925">
        <ele>110.6</ele>
        <time>2018-08-21T07:41:24Z</time>
      </trkpt>
      <trkpt lat="43.96799" lon="1.22915">
        <ele>110.3</ele>
        <time>2018-08-21T07:41:26Z</time>
      </trkpt>
      <trkpt lat="43.96808" lon="1.22904">
        <ele>110.2</ele>
        <time>2018-08-21T07:41:28Z</time>
      </trkpt>
      <trkpt lat="43.96816" lon="1.22893">
        <ele>110.1</ele>
        <time>2018-08-21T07:41:30Z</time>
      </trkpt>
      <trkpt lat="43.96824" lon="1.22883">
        <ele>109.8</ele>
        <time>2018-08-21T07:41:33Z</time>
      </trkpt>
      <trkpt lat="43.96833" lon="1.22873">
        <ele>109.7</ele>
        <time>2018-08-21T07:41:34Z</time>
      </trkpt>
      <trkpt lat="43.96841" lon="1.22864">
        <ele>109.7</ele>
        <time>2018-08-21T07:41:36Z</time>
      </trkpt>
      <trkpt lat="43.96847" lon="1.22855">
        <ele>109.9</ele>
        <time>2018-08-21T07:41:38Z</time>
      </trkpt>
      <trkpt lat="43.96853" lon="1.22846">
        <ele>109.8</ele>
        <time>2018-08-21T07:41:40Z</time>
      </trkpt>
      <trkpt lat="43.96858" lon="1.22837">
        <ele>109.4</ele>
        <time>2018-08-21T07:41:42Z</time>
      </trkpt>
      <trkpt lat="43.96866" lon="1.22835">
        <ele>108.3</ele>
        <time>2018-08-21T07:41:45Z</time>
      </trkpt>
      <trkpt lat="43.96873" lon="1.22842">
        <ele>108.2</ele>
        <time>2018-08-21T07:41:48Z</time>
      </trkpt>
      <trkpt lat="43.96879" lon="1.22847">
        <ele>108.4</ele>
        <time>2018-08-21T07:41:50Z</time>
      </trkpt>
      <trkpt lat="43.96884" lon="1.22854">
        <ele>108.7</ele>
        <time>2018-08-21T07:41:52Z</time>
      </trkpt>
      <trkpt lat="43.96895" lon="1.2285">
        <ele>108</ele>
        <time>2018-08-21T07:41:55Z</time>
      </trkpt>
      <trkpt lat="43.96902" lon="1.2284">
        <ele>107.3</ele>
        <time>2018-08-21T07:41:57Z</time>
      </trkpt>
      <trkpt lat="43.9691" lon="1.22829">
        <ele>106.8</ele>
        <time>2018-08-21T07:41:59Z</time>
      </trkpt>
      <trkpt lat="43.96919" lon="1.22816">
        <ele>106.6</ele>
        <time>2018-08-21T07:42:01Z</time>
      </trkpt>
      <trkpt lat="43.96928" lon="1.22804">
        <ele>106.1</ele>
        <time>2018-08-21T07:42:03Z</time>
      </trkpt>
      <trkpt lat="43.96936" lon="1.22793">
        <ele>105.5</ele>
        <time>2018-08-21T07:42:05Z</time>
      </trkpt>
      <trkpt lat="43.96945" lon="1.22782">
        <ele>104.5</ele>
        <time>2018-08-21T07:42:07Z</time>
      </trkpt>
      <trkpt lat="43.96955" lon="1.22769">
        <ele>103.8</ele>
        <time>2018-08-21T07:42:09Z</time>
      </trkpt>
      <trkpt lat="43.96964" lon="1.22757">
        <ele>103.1</ele>
        <time>2018-08-21T07:42:11Z</time>
      </trkpt>
      <trkpt lat="43.96974" lon="1.22746">
        <ele>102.7</ele>
        <time>2018-08-21T07:42:13Z</time>
      </trkpt>
      <trkpt lat="43.96983" lon="1.22735">
        <ele>102.3</ele>
        <time>2018-08-21T07:42:15Z</time>
      </trkpt>
      <trkpt lat="43.96994" lon="1.22724">
        <ele>101.9</ele>
        <time>2018-08-21T07:42:17Z</time>
      </trkpt>
      <trkpt lat="43.97003" lon="1.22713">
        <ele>101</ele>
        <time>2018-08-21T07:42:19Z</time>
      </trkpt>
      <trkpt lat="43.97012" lon="1.227">
        <ele>100.6</ele>
        <time>2018-08-21T07:42:21Z</time>
      </trkpt>
      <trkpt lat="43.97021" lon="1.22688">
        <ele>100.6</ele>
        <time>2018-08-21T07:42:23Z</time>
      </trkpt>
      <trkpt lat="43.9703" lon="1.22676">
        <ele>100.5</ele>
        <time>2018-08-21T07:42:25Z</time>
      </trkpt>
      <trkpt lat="43.97036" lon="1.22664">
        <ele>100.6</ele>
        <time>2018-08-21T07:42:27Z</time>
      </trkpt>
      <trkpt lat="43.97043" lon="1.22652">
        <ele>100.5</ele>
        <time>2018-08-21T07:42:29Z</time>
      </trkpt>
      <trkpt lat="43.97051" lon="1.22642">
        <ele>100.1</ele>
        <time>2018-08-21T07:42:31Z</time>
      </trkpt>
      <trkpt lat="43.9706" lon="1.22631">
        <ele>99.7</ele>
        <time>2018-08-21T07:42:33Z</time>
      </trkpt>
      <trkpt lat="43.97069" lon="1.22622">
        <ele>99.1</ele>
        <time>2018-08-21T07:42:35Z</time>
      </trkpt>
      <trkpt lat="43.97077" lon="1.22611">
        <ele>98.8</ele>
        <time>2018-08-21T07:42:37Z</time>
      </trkpt>
      <trkpt lat="43.97084" lon="1.22602">
        <ele>98.3</ele>
        <time>2018-08-21T07:42:39Z</time>
      </trkpt>
      <trkpt lat="43.97093" lon="1.22592">
        <ele>97.7</ele>
        <time>2018-08-21T07:42:41Z</time>
      </trkpt>
      <trkpt lat="43.97103" lon="1.22584">
        <ele>96.9</ele>
        <time>2018-08-21T07:42:43Z</time>
      </trkpt>
      <trkpt lat="43.97111" lon="1.22575">
        <ele>95.9</ele>
        <time>2018-08-21T07:42:45Z</time>
      </trkpt>
      <trkpt lat="43.97117" lon="1.22567">
        <ele>95.4</ele>
        <time>2018-08-21T07:42:47Z</time>
      </trkpt>
      <trkpt lat="43.97122" lon="1.22558">
        <ele>94.9</ele>
        <time>2018-08-21T07:42:49Z</time>
      </trkpt>
      <trkpt lat="43.97126" lon="1.22547">
        <ele>95</ele>
        <time>2018-08-21T07:42:52Z</time>
      </trkpt>
      <trkpt lat="43.97133" lon="1.2254">
        <ele>95.2</ele>
        <time>2018-08-21T07:42:55Z</time>
      </trkpt>
      <trkpt lat="43.97138" lon="1.22532">
        <ele>95.6</ele>
        <time>2018-08-21T07:42:58Z</time>
      </trkpt>
      <trkpt lat="43.97142" lon="1.22524">
        <ele>96</ele>
        <time>2018-08-21T07:43:02Z</time>
      </trkpt>
      <trkpt lat="43.97146" lon="1.2252">
        <ele>95.3</ele>
        <time>2018-08-21T07:43:09Z</time>
      </trkpt>
      <trkpt lat="43.97156" lon="1.22516">
        <ele>95</ele>
        <time>2018-08-21T07:43:36Z</time>
      </trkpt>
      <trkpt lat="43.97166" lon="1.22507">
        <ele>94.8</ele>
        <time>2018-08-21T07:43:38Z</time>
      </trkpt>
      <trkpt lat="43.97174" lon="1.22499">
        <ele>94.8</ele>
        <time>2018-08-21T07:43:40Z</time>
      </trkpt>
      <trkpt lat="43.97181" lon="1.22491">
        <ele>94.9</ele>
        <time>2018-08-21T07:43:42Z</time>
      </trkpt>
      <trkpt lat="43.97187" lon="1.22484">
        <ele>94.8</ele>
        <time>2018-08-21T07:43:44Z</time>
      </trkpt>
      <trkpt lat="43.97194" lon="1.22473">
        <ele>94.5</ele>
        <time>2018-08-21T07:43:46Z</time>
      </trkpt>
      <trkpt lat="43.97201" lon="1.22463">
        <ele>94</ele>
        <time>2018-08-21T07:43:48Z</time>
      </trkpt>
      <trkpt lat="43.97208" lon="1.22453">
        <ele>94</ele>
        <time>2018-08-21T07:43:50Z</time>
      </trkpt>
      <trkpt lat="43.97214" lon="1.22444">
        <ele>93.3</ele>
        <time>2018-08-21T07:43:52Z</time>
      </trkpt>
      <trkpt lat="43.97222" lon="1.22444">
        <ele>93</ele>
        <time>2018-08-21T07:43:54Z</time>
      </trkpt>
      <trkpt lat="43.97232" lon="1.2245">
        <ele>93.3</ele>
        <time>2018-08-21T07:43:56Z</time>
      </trkpt>
      <trkpt lat="43.97243" lon="1.2246">
        <ele>94.5</ele>
        <time>2018-08-21T07:43:58Z</time>
      </trkpt>
      <trkpt lat="43.97252" lon="1.22472">
        <ele>95.6</ele>
        <time>2018-08-21T07:44:00Z</time>
      </trkpt>
      <trkpt lat="43.9726" lon="1.22485">
        <ele>97.2</ele>
        <time>2018-08-21T07:44:02Z</time>
      </trkpt>
      <trkpt lat="43.97267" lon="1.22497">
        <ele>97.8</ele>
        <time>2018-08-21T07:44:04Z</time>
      </trkpt>
      <trkpt lat="43.97276" lon="1.22507">
        <ele>98</ele>
        <time>2018-08-21T07:44:06Z</time>
      </trkpt>
      <trkpt lat="43.97287" lon="1.22511">
        <ele>96.3</ele>
        <time>2018-08-21T07:44:08Z</time>
      </trkpt>
      <trkpt lat="43.97297" lon="1.22503">
        <ele>95.6</ele>
        <time>2018-08-21T07:44:10Z</time>
      </trkpt>
      <trkpt lat="43.97305" lon="1.22496">
        <ele>95.4</ele>
        <time>2018-08-21T07:44:12Z</time>
      </trkpt>
      <trkpt lat="43.97313" lon="1.22486">
        <ele>95.4</ele>
        <time>2018-08-21T07:44:14Z</time>
      </trkpt>
      <trkpt lat="43.97319" lon="1.22475">
        <ele>94.7</ele>
        <time>2018-08-21T07:44:16Z</time>
      </trkpt>
      <trkpt lat="43.97328" lon="1.22463">
        <ele>93.8</ele>
        <time>2018-08-21T07:44:18Z</time>
      </trkpt>
      <trkpt lat="43.97337" lon="1.22452">
        <ele>93.2</ele>
        <time>2018-08-21T07:44:20Z</time>
      </trkpt>
      <trkpt lat="43.97345" lon="1.22439">
        <ele>92.3</ele>
        <time>2018-08-21T07:44:22Z</time>
      </trkpt>
      <trkpt lat="43.97352" lon="1.22426">
        <ele>91.3</ele>
        <time>2018-08-21T07:44:24Z</time>
      </trkpt>
      <trkpt lat="43.97359" lon="1.22414">
        <ele>90.3</ele>
        <time>2018-08-21T07:44:26Z</time>
      </trkpt>
      <trkpt lat="43.97367" lon="1.22402">
        <ele>89.7</ele>
        <time>2018-08-21T07:44:28Z</time>
      </trkpt>
      <trkpt lat="43.97376" lon="1.2239">
        <ele>89.4</ele>
        <time>2018-08-21T07:44:30Z</time>
      </trkpt>
      <trkpt lat="43.97384" lon="1.22377">
        <ele>88.5</ele>
        <time>2018-08-21T07:44:32Z</time>
      </trkpt>
      <trkpt lat="43.97393" lon="1.22365">
        <ele>88.1</ele>
        <time>2018-08-21T07:44:34Z</time>
      </trkpt>
      <trkpt lat="43.97403" lon="1.22354">
        <ele>87.5</ele>
        <time>2018-08-21T07:44:36Z</time>
      </trkpt>
      <trkpt lat="43.97412" lon="1.22344">
        <ele>86.4</ele>
        <time>2018-08-21T07:44:38Z</time>
      </trkpt>
      <trkpt lat="43.97421" lon="1.22333">
        <ele>85.8</ele>
        <time>2018-08-21T07:44:40Z</time>
      </trkpt>
      <trkpt lat="43.97429" lon="1.22321">
        <ele>85.7</ele>
        <time>2018-08-21T07:44:42Z</time>
      </trkpt>
      <trkpt lat="43.97439" lon="1.2231">
        <ele>85.4</ele>
        <time>2018-08-21T07:44:44Z</time>
      </trkpt>
      <trkpt lat="43.97449" lon="1.22298">
        <ele>84.5</ele>
        <time>2018-08-21T07:44:46Z</time>
      </trkpt>
      <trkpt lat="43.97458" lon="1.22286">
        <ele>84.3</ele>
        <time>2018-08-21T07:44:49Z</time>
      </trkpt>
      <trkpt lat="43.97467" lon="1.22274">
        <ele>83.9</ele>
        <time>2018-08-21T07:44:50Z</time>
      </trkpt>
      <trkpt lat="43.97476" lon="1.22262">
        <ele>83.5</ele>
        <time>2018-08-21T07:44:52Z</time>
      </trkpt>
      <trkpt lat="43.97484" lon="1.2225">
        <ele>83.4</ele>
        <time>2018-08-21T07:44:54Z</time>
      </trkpt>
      <trkpt lat="43.97493" lon="1.22238">
        <ele>83.6</ele>
        <time>2018-08-21T07:44:56Z</time>
      </trkpt>
      <trkpt lat="43.97502" lon="1.22226">
        <ele>83.4</ele>
        <time>2018-08-21T07:44:58Z</time>
      </trkpt>
      <trkpt lat="43.97511" lon="1.22215">
        <ele>83</ele>
        <time>2018-08-21T07:45:00Z</time>
      </trkpt>
      <trkpt lat="43.9752" lon="1.22202">
        <ele>82.8</ele>
        <time>2018-08-21T07:45:02Z</time>
      </trkpt>
      <trkpt lat="43.97529" lon="1.22191">
        <ele>82.8</ele>
        <time>2018-08-21T07:45:04Z</time>
      </trkpt>
      <trkpt lat="43.97538" lon="1.2218">
        <ele>82.7</ele>
        <time>2018-08-21T07:45:06Z</time>
      </trkpt>
      <trkpt lat="43.97547" lon="1.22169">
        <ele>82.9</ele>
        <time>2018-08-21T07:45:08Z</time>
      </trkpt>
      <trkpt lat="43.97558" lon="1.22158">
        <ele>83.5</ele>
        <time>2018-08-21T07:45:10Z</time>
      </trkpt>
      <trkpt lat="43.97567" lon="1.22147">
        <ele>83.8</ele>
        <time>2018-08-21T07:45:12Z</time>
      </trkpt>
      <trkpt lat="43.97577" lon="1.22136">
        <ele>84.4</ele>
        <time>2018-08-21T07:45:14Z</time>
      </trkpt>
      <trkpt lat="43.97587" lon="1.22125">
        <ele>84.6</ele>
        <time>2018-08-21T07:45:16Z</time>
      </trkpt>
      <trkpt lat="43.97596" lon="1.22112">
        <ele>85.2</ele>
        <time>2018-08-21T07:45:18Z</time>
      </trkpt>
      <trkpt lat="43.97605" lon="1.221">
        <ele>85.8</ele>
        <time>2018-08-21T07:45:20Z</time>
      </trkpt>
      <trkpt lat="43.97614" lon="1.22089">
        <ele>86.3</ele>
        <time>2018-08-21T07:45:22Z</time>
      </trkpt>
      <trkpt lat="43.97623" lon="1.22077">
        <ele>86.8</ele>
        <time>2018-08-21T07:45:24Z</time>
      </trkpt>
      <trkpt lat="43.97632" lon="1.22066">
        <ele>87</ele>
        <time>2018-08-21T07:45:26Z</time>
      </trkpt>
      <trkpt lat="43.97641" lon="1.22054">
        <ele>87.4</ele>
        <time>2018-08-21T07:45:28Z</time>
      </trkpt>
      <trkpt lat="43.97649" lon="1.22043">
        <ele>87.6</ele>
        <time>2018-08-21T07:45:30Z</time>
      </trkpt>
      <trkpt lat="43.97657" lon="1.22032">
        <ele>87.8</ele>
        <time>2018-08-21T07:45:32Z</time>
      </trkpt>
      <trkpt lat="43.97666" lon="1.2202">
        <ele>88</ele>
        <time>2018-08-21T07:45:34Z</time>
      </trkpt>
      <trkpt lat="43.97675" lon="1.22008">
        <ele>88.4</ele>
        <time>2018-08-21T07:45:36Z</time>
      </trkpt>
      <trkpt lat="43.97684" lon="1.21996">
        <ele>88.3</ele>
        <time>2018-08-21T07:45:38Z</time>
      </trkpt>
      <trkpt lat="43.97693" lon="1.21985">
        <ele>88.5</ele>
        <time>2018-08-21T07:45:40Z</time>
      </trkpt>
      <trkpt lat="43.97702" lon="1.21974">
        <ele>88.8</ele>
        <time>2018-08-21T07:45:42Z</time>
      </trkpt>
      <trkpt lat="43.97711" lon="1.21963">
        <ele>89</ele>
        <time>2018-08-21T07:45:44Z</time>
      </trkpt>
      <trkpt lat="43.9772" lon="1.21951">
        <ele>89</ele>
        <time>2018-08-21T07:45:46Z</time>
      </trkpt>
      <trkpt lat="43.97729" lon="1.21941">
        <ele>89.2</ele>
        <time>2018-08-21T07:45:48Z</time>
      </trkpt>
      <trkpt lat="43.97739" lon="1.21929">
        <ele>89.2</ele>
        <time>2018-08-21T07:45:50Z</time>
      </trkpt>
      <trkpt lat="43.97748" lon="1.21919">
        <ele>89.2</ele>
        <time>2018-08-21T07:45:52Z</time>
      </trkpt>
      <trkpt lat="43.97757" lon="1.21907">
        <ele>89.3</ele>
        <time>2018-08-21T07:45:54Z</time>
      </trkpt>
      <trkpt lat="43.97767" lon="1.21895">
        <ele>89.4</ele>
        <time>2018-08-21T07:45:56Z</time>
      </trkpt>
      <trkpt lat="43.97777" lon="1.21884">
        <ele>89.8</ele>
        <time>2018-08-21T07:45:58Z</time>
      </trkpt>
      <trkpt lat="43.97785" lon="1.21873">
        <ele>89.9</ele>
        <time>2018-08-21T07:46:00Z</time>
      </trkpt>
      <trkpt lat="43.97795" lon="1.21861">
        <ele>89.9</ele>
        <time>2018-08-21T07:46:02Z</time>
      </trkpt>
      <trkpt lat="43.97804" lon="1.2185">
        <ele>89.8</ele>
        <time>2018-08-21T07:46:04Z</time>
      </trkpt>
      <trkpt lat="43.97813" lon="1.21839">
        <ele>89.5</ele>
        <time>2018-08-21T07:46:06Z</time>
      </trkpt>
      <trkpt lat="43.97822" lon="1.21826">
        <ele>89.7</ele>
        <time>2018-08-21T07:46:08Z</time>
      </trkpt>
      <trkpt lat="43.97831" lon="1.21815">
        <ele>90</ele>
        <time>2018-08-21T07:46:10Z</time>
      </trkpt>
      <trkpt lat="43.97839" lon="1.21802">
        <ele>90.1</ele>
        <time>2018-08-21T07:46:12Z</time>
      </trkpt>
      <trkpt lat="43.97847" lon="1.21789">
        <ele>90.7</ele>
        <time>2018-08-21T07:46:14Z</time>
      </trkpt>
      <trkpt lat="43.97855" lon="1.21776">
        <ele>90.6</ele>
        <time>2018-08-21T07:46:16Z</time>
      </trkpt>
      <trkpt lat="43.97862" lon="1.21763">
        <ele>90.9</ele>
        <time>2018-08-21T07:46:18Z</time>
      </trkpt>
      <trkpt lat="43.9787" lon="1.21749">
        <ele>91</ele>
        <time>2018-08-21T07:46:20Z</time>
      </trkpt>
      <trkpt lat="43.97876" lon="1.21735">
        <ele>91.4</ele>
        <time>2018-08-21T07:46:22Z</time>
      </trkpt>
      <trkpt lat="43.97883" lon="1.21721">
        <ele>91.7</ele>
        <time>2018-08-21T07:46:24Z</time>
      </trkpt>
      <trkpt lat="43.9789" lon="1.21707">
        <ele>91.7</ele>
        <time>2018-08-21T07:46:27Z</time>
      </trkpt>
      <trkpt lat="43.97897" lon="1.21693">
        <ele>91.2</ele>
        <time>2018-08-21T07:46:28Z</time>
      </trkpt>
      <trkpt lat="43.97903" lon="1.21679">
        <ele>90.8</ele>
        <time>2018-08-21T07:46:30Z</time>
      </trkpt>
      <trkpt lat="43.97909" lon="1.21664">
        <ele>90.7</ele>
        <time>2018-08-21T07:46:32Z</time>
      </trkpt>
      <trkpt lat="43.97916" lon="1.2165">
        <ele>90.1</ele>
        <time>2018-08-21T07:46:34Z</time>
      </trkpt>
      <trkpt lat="43.97923" lon="1.21635">
        <ele>90.2</ele>
        <time>2018-08-21T07:46:36Z</time>
      </trkpt>
      <trkpt lat="43.9793" lon="1.21622">
        <ele>90.2</ele>
        <time>2018-08-21T07:46:38Z</time>
      </trkpt>
      <trkpt lat="43.97937" lon="1.21608">
        <ele>90.3</ele>
        <time>2018-08-21T07:46:40Z</time>
      </trkpt>
      <trkpt lat="43.97944" lon="1.21595">
        <ele>90.4</ele>
        <time>2018-08-21T07:46:42Z</time>
      </trkpt>
      <trkpt lat="43.97952" lon="1.21583">
        <ele>90.4</ele>
        <time>2018-08-21T07:46:44Z</time>
      </trkpt>
      <trkpt lat="43.97959" lon="1.21571">
        <ele>90.4</ele>
        <time>2018-08-21T07:46:46Z</time>
      </trkpt>
      <trkpt lat="43.97968" lon="1.21558">
        <ele>90.2</ele>
        <time>2018-08-21T07:46:48Z</time>
      </trkpt>
      <trkpt lat="43.97977" lon="1.21545">
        <ele>89.9</ele>
        <time>2018-08-21T07:46:50Z</time>
      </trkpt>
      <trkpt lat="43.97986" lon="1.21533">
        <ele>89.6</ele>
        <time>2018-08-21T07:46:52Z</time>
      </trkpt>
      <trkpt lat="43.97996" lon="1.21523">
        <ele>89.4</ele>
        <time>2018-08-21T07:46:54Z</time>
      </trkpt>
      <trkpt lat="43.98006" lon="1.21513">
        <ele>89.3</ele>
        <time>2018-08-21T07:46:56Z</time>
      </trkpt>
      <trkpt lat="43.98015" lon="1.21501">
        <ele>89.7</ele>
        <time>2018-08-21T07:46:58Z</time>
      </trkpt>
      <trkpt lat="43.98024" lon="1.2149">
        <ele>89.8</ele>
        <time>2018-08-21T07:47:00Z</time>
      </trkpt>
      <trkpt lat="43.98033" lon="1.2148">
        <ele>89.8</ele>
        <time>2018-08-21T07:47:02Z</time>
      </trkpt>
      <trkpt lat="43.98043" lon="1.21469">
        <ele>89.8</ele>
        <time>2018-08-21T07:47:04Z</time>
      </trkpt>
      <trkpt lat="43.98052" lon="1.21459">
        <ele>89.7</ele>
        <time>2018-08-21T07:47:06Z</time>
      </trkpt>
      <trkpt lat="43.98062" lon="1.21448">
        <ele>89.5</ele>
        <time>2018-08-21T07:47:08Z</time>
      </trkpt>
      <trkpt lat="43.98072" lon="1.21436">
        <ele>89.5</ele>
        <time>2018-08-21T07:47:10Z</time>
      </trkpt>
      <trkpt lat="43.9808" lon="1.21424">
        <ele>89.4</ele>
        <time>2018-08-21T07:47:12Z</time>
      </trkpt>
      <trkpt lat="43.98089" lon="1.21411">
        <ele>89.4</ele>
        <time>2018-08-21T07:47:14Z</time>
      </trkpt>
      <trkpt lat="43.98098" lon="1.21398">
        <ele>89.5</ele>
        <time>2018-08-21T07:47:16Z</time>
      </trkpt>
      <trkpt lat="43.98106" lon="1.21387">
        <ele>89.8</ele>
        <time>2018-08-21T07:47:18Z</time>
      </trkpt>
      <trkpt lat="43.98115" lon="1.21376">
        <ele>90</ele>
        <time>2018-08-21T07:47:20Z</time>
      </trkpt>
      <trkpt lat="43.98122" lon="1.21365">
        <ele>90</ele>
        <time>2018-08-21T07:47:22Z</time>
      </trkpt>
      <trkpt lat="43.9813" lon="1.21354">
        <ele>89.6</ele>
        <time>2018-08-21T07:47:24Z</time>
      </trkpt>
      <trkpt lat="43.9814" lon="1.21344">
        <ele>90.2</ele>
        <time>2018-08-21T07:47:26Z</time>
      </trkpt>
      <trkpt lat="43.9815" lon="1.21334">
        <ele>90.6</ele>
        <time>2018-08-21T07:47:28Z</time>
      </trkpt>
      <trkpt lat="43.98158" lon="1.21324">
        <ele>90.9</ele>
        <time>2018-08-21T07:47:30Z</time>
      </trkpt>
      <trkpt lat="43.98167" lon="1.21314">
        <ele>91</ele>
        <time>2018-08-21T07:47:32Z</time>
      </trkpt>
      <trkpt lat="43.98175" lon="1.21304">
        <ele>91.3</ele>
        <time>2018-08-21T07:47:34Z</time>
      </trkpt>
      <trkpt lat="43.98184" lon="1.21293">
        <ele>91.7</ele>
        <time>2018-08-21T07:47:36Z</time>
      </trkpt>
      <trkpt lat="43.98193" lon="1.21283">
        <ele>91.9</ele>
        <time>2018-08-21T07:47:38Z</time>
      </trkpt>
      <trkpt lat="43.982" lon="1.21273">
        <ele>91.6</ele>
        <time>2018-08-21T07:47:40Z</time>
      </trkpt>
      <trkpt lat="43.98209" lon="1.21262">
        <ele>91.8</ele>
        <time>2018-08-21T07:47:43Z</time>
      </trkpt>
      <trkpt lat="43.98217" lon="1.21252">
        <ele>91.7</ele>
        <time>2018-08-21T07:47:44Z</time>
      </trkpt>
      <trkpt lat="43.98227" lon="1.21242">
        <ele>91.6</ele>
        <time>2018-08-21T07:47:46Z</time>
      </trkpt>
      <trkpt lat="43.98238" lon="1.21232">
        <ele>92.1</ele>
        <time>2018-08-21T07:47:48Z</time>
      </trkpt>
      <trkpt lat="43.98248" lon="1.21222">
        <ele>92.4</ele>
        <time>2018-08-21T07:47:50Z</time>
      </trkpt>
      <trkpt lat="43.98257" lon="1.21213">
        <ele>92.5</ele>
        <time>2018-08-21T07:47:52Z</time>
      </trkpt>
      <trkpt lat="43.98267" lon="1.21203">
        <ele>92.6</ele>
        <time>2018-08-21T07:47:54Z</time>
      </trkpt>
      <trkpt lat="43.98275" lon="1.21193">
        <ele>93.1</ele>
        <time>2018-08-21T07:47:56Z</time>
      </trkpt>
      <trkpt lat="43.98283" lon="1.21182">
        <ele>94</ele>
        <time>2018-08-21T07:47:58Z</time>
      </trkpt>
      <trkpt lat="43.98292" lon="1.21171">
        <ele>94.6</ele>
        <time>2018-08-21T07:48:00Z</time>
      </trkpt>
      <trkpt lat="43.98298" lon="1.21161">
        <ele>95.1</ele>
        <time>2018-08-21T07:48:02Z</time>
      </trkpt>
      <trkpt lat="43.98307" lon="1.21151">
        <ele>95.5</ele>
        <time>2018-08-21T07:48:04Z</time>
      </trkpt>
      <trkpt lat="43.98315" lon="1.21141">
        <ele>95.7</ele>
        <time>2018-08-21T07:48:06Z</time>
      </trkpt>
      <trkpt lat="43.98322" lon="1.2113">
        <ele>95.3</ele>
        <time>2018-08-21T07:48:08Z</time>
      </trkpt>
      <trkpt lat="43.98331" lon="1.21121">
        <ele>94.8</ele>
        <time>2018-08-21T07:48:10Z</time>
      </trkpt>
      <trkpt lat="43.98339" lon="1.21112">
        <ele>94.4</ele>
        <time>2018-08-21T07:48:12Z</time>
      </trkpt>
      <trkpt lat="43.98348" lon="1.21102">
        <ele>94.2</ele>
        <time>2018-08-21T07:48:14Z</time>
      </trkpt>
      <trkpt lat="43.98357" lon="1.21091">
        <ele>94</ele>
        <time>2018-08-21T07:48:16Z</time>
      </trkpt>
      <trkpt lat="43.98365" lon="1.21082">
        <ele>93.8</ele>
        <time>2018-08-21T07:48:18Z</time>
      </trkpt>
      <trkpt lat="43.98374" lon="1.21071">
        <ele>93.4</ele>
        <time>2018-08-21T07:48:20Z</time>
      </trkpt>
      <trkpt lat="43.98384" lon="1.21062">
        <ele>92.8</ele>
        <time>2018-08-21T07:48:22Z</time>
      </trkpt>
      <trkpt lat="43.98393" lon="1.21052">
        <ele>92.3</ele>
        <time>2018-08-21T07:48:24Z</time>
      </trkpt>
      <trkpt lat="43.98402" lon="1.2104">
        <ele>92.1</ele>
        <time>2018-08-21T07:48:26Z</time>
      </trkpt>
      <trkpt lat="43.98411" lon="1.2103">
        <ele>91.8</ele>
        <time>2018-08-21T07:48:28Z</time>
      </trkpt>
      <trkpt lat="43.98421" lon="1.2102">
        <ele>91.5</ele>
        <time>2018-08-21T07:48:30Z</time>
      </trkpt>
      <trkpt lat="43.98429" lon="1.21009">
        <ele>91.1</ele>
        <time>2018-08-21T07:48:32Z</time>
      </trkpt>
      <trkpt lat="43.98438" lon="1.20998">
        <ele>91.1</ele>
        <time>2018-08-21T07:48:34Z</time>
      </trkpt>
      <trkpt lat="43.98447" lon="1.20988">
        <ele>91.1</ele>
        <time>2018-08-21T07:48:36Z</time>
      </trkpt>
      <trkpt lat="43.98455" lon="1.20978">
        <ele>91.1</ele>
        <time>2018-08-21T07:48:38Z</time>
      </trkpt>
      <trkpt lat="43.98463" lon="1.20967">
        <ele>91.1</ele>
        <time>2018-08-21T07:48:40Z</time>
      </trkpt>
      <trkpt lat="43.98472" lon="1.20958">
        <ele>91.1</ele>
        <time>2018-08-21T07:48:42Z</time>
      </trkpt>
      <trkpt lat="43.98481" lon="1.20947">
        <ele>91.2</ele>
        <time>2018-08-21T07:48:44Z</time>
      </trkpt>
      <trkpt lat="43.98489" lon="1.20938">
        <ele>90.8</ele>
        <time>2018-08-21T07:48:46Z</time>
      </trkpt>
      <trkpt lat="43.98497" lon="1.20928">
        <ele>90.6</ele>
        <time>2018-08-21T07:48:48Z</time>
      </trkpt>
      <trkpt lat="43.98505" lon="1.20918">
        <ele>90.6</ele>
        <time>2018-08-21T07:48:50Z</time>
      </trkpt>
      <trkpt lat="43.98513" lon="1.20908">
        <ele>90.8</ele>
        <time>2018-08-21T07:48:53Z</time>
      </trkpt>
      <trkpt lat="43.9852" lon="1.20898">
        <ele>91.1</ele>
        <time>2018-08-21T07:48:54Z</time>
      </trkpt>
      <trkpt lat="43.98528" lon="1.20888">
        <ele>91.1</ele>
        <time>2018-08-21T07:48:56Z</time>
      </trkpt>
      <trkpt lat="43.98538" lon="1.20878">
        <ele>91</ele>
        <time>2018-08-21T07:48:58Z</time>
      </trkpt>
      <trkpt lat="43.98547" lon="1.20868">
        <ele>91.4</ele>
        <time>2018-08-21T07:49:00Z</time>
      </trkpt>
      <trkpt lat="43.98555" lon="1.20859">
        <ele>91.5</ele>
        <time>2018-08-21T07:49:02Z</time>
      </trkpt>
      <trkpt lat="43.98563" lon="1.20849">
        <ele>91.6</ele>
        <time>2018-08-21T07:49:04Z</time>
      </trkpt>
      <trkpt lat="43.98571" lon="1.20839">
        <ele>91.9</ele>
        <time>2018-08-21T07:49:06Z</time>
      </trkpt>
      <trkpt lat="43.98579" lon="1.2083">
        <ele>91.9</ele>
        <time>2018-08-21T07:49:08Z</time>
      </trkpt>
      <trkpt lat="43.98587" lon="1.2082">
        <ele>90.9</ele>
        <time>2018-08-21T07:49:10Z</time>
      </trkpt>
      <trkpt lat="43.98595" lon="1.20811">
        <ele>90.6</ele>
        <time>2018-08-21T07:49:12Z</time>
      </trkpt>
      <trkpt lat="43.98604" lon="1.20801">
        <ele>90.4</ele>
        <time>2018-08-21T07:49:14Z</time>
      </trkpt>
      <trkpt lat="43.98611" lon="1.20791">
        <ele>90.5</ele>
        <time>2018-08-21T07:49:16Z</time>
      </trkpt>
      <trkpt lat="43.9862" lon="1.20781">
        <ele>90.6</ele>
        <time>2018-08-21T07:49:18Z</time>
      </trkpt>
      <trkpt lat="43.98628" lon="1.20771">
        <ele>90.8</ele>
        <time>2018-08-21T07:49:20Z</time>
      </trkpt>
      <trkpt lat="43.98637" lon="1.2076">
        <ele>91</ele>
        <time>2018-08-21T07:49:22Z</time>
      </trkpt>
      <trkpt lat="43.98645" lon="1.2075">
        <ele>91.2</ele>
        <time>2018-08-21T07:49:24Z</time>
      </trkpt>
      <trkpt lat="43.98654" lon="1.2074">
        <ele>91.9</ele>
        <time>2018-08-21T07:49:26Z</time>
      </trkpt>
      <trkpt lat="43.98662" lon="1.20731">
        <ele>92.4</ele>
        <time>2018-08-21T07:49:28Z</time>
      </trkpt>
      <trkpt lat="43.9867" lon="1.20721">
        <ele>92.8</ele>
        <time>2018-08-21T07:49:30Z</time>
      </trkpt>
      <trkpt lat="43.98678" lon="1.20712">
        <ele>92.8</ele>
        <time>2018-08-21T07:49:32Z</time>
      </trkpt>
      <trkpt lat="43.98686" lon="1.20701">
        <ele>93</ele>
        <time>2018-08-21T07:49:34Z</time>
      </trkpt>
      <trkpt lat="43.98694" lon="1.20691">
        <ele>93.1</ele>
        <time>2018-08-21T07:49:36Z</time>
      </trkpt>
      <trkpt lat="43.98702" lon="1.20681">
        <ele>93.2</ele>
        <time>2018-08-21T07:49:38Z</time>
      </trkpt>
      <trkpt lat="43.98711" lon="1.20671">
        <ele>93.2</ele>
        <time>2018-08-21T07:49:40Z</time>
      </trkpt>
      <trkpt lat="43.9872" lon="1.20661">
        <ele>93.4</ele>
        <time>2018-08-21T07:49:42Z</time>
      </trkpt>
      <trkpt lat="43.98728" lon="1.2065">
        <ele>93.5</ele>
        <time>2018-08-21T07:49:44Z</time>
      </trkpt>
      <trkpt lat="43.98736" lon="1.2064">
        <ele>93.2</ele>
        <time>2018-08-21T07:49:46Z</time>
      </trkpt>
      <trkpt lat="43.98745" lon="1.2063">
        <ele>93.2</ele>
        <time>2018-08-21T07:49:48Z</time>
      </trkpt>
      <trkpt lat="43.98753" lon="1.2062">
        <ele>93.2</ele>
        <time>2018-08-21T07:49:50Z</time>
      </trkpt>
      <trkpt lat="43.98761" lon="1.20609">
        <ele>93.3</ele>
        <time>2018-08-21T07:49:52Z</time>
      </trkpt>
      <trkpt lat="43.9877" lon="1.20599">
        <ele>93.5</ele>
        <time>2018-08-21T07:49:54Z</time>
      </trkpt>
      <trkpt lat="43.98778" lon="1.2059">
        <ele>93.4</ele>
        <time>2018-08-21T07:49:56Z</time>
      </trkpt>
      <trkpt lat="43.98787" lon="1.2058">
        <ele>92.7</ele>
        <time>2018-08-21T07:49:58Z</time>
      </trkpt>
      <trkpt lat="43.98796" lon="1.20571">
        <ele>92.9</ele>
        <time>2018-08-21T07:50:00Z</time>
      </trkpt>
      <trkpt lat="43.98805" lon="1.2056">
        <ele>92.3</ele>
        <time>2018-08-21T07:50:02Z</time>
      </trkpt>
      <trkpt lat="43.98813" lon="1.2055">
        <ele>92.5</ele>
        <time>2018-08-21T07:50:04Z</time>
      </trkpt>
      <trkpt lat="43.98822" lon="1.2054">
        <ele>92.5</ele>
        <time>2018-08-21T07:50:07Z</time>
      </trkpt>
      <trkpt lat="43.98831" lon="1.20529">
        <ele>92.1</ele>
        <time>2018-08-21T07:50:08Z</time>
      </trkpt>
      <trkpt lat="43.98839" lon="1.20519">
        <ele>91.8</ele>
        <time>2018-08-21T07:50:10Z</time>
      </trkpt>
      <trkpt lat="43.98848" lon="1.20509">
        <ele>91.3</ele>
        <time>2018-08-21T07:50:12Z</time>
      </trkpt>
      <trkpt lat="43.98857" lon="1.20499">
        <ele>91.6</ele>
        <time>2018-08-21T07:50:14Z</time>
      </trkpt>
      <trkpt lat="43.98866" lon="1.20488">
        <ele>91.5</ele>
        <time>2018-08-21T07:50:16Z</time>
      </trkpt>
      <trkpt lat="43.98874" lon="1.20477">
        <ele>91.6</ele>
        <time>2018-08-21T07:50:18Z</time>
      </trkpt>
      <trkpt lat="43.98883" lon="1.20467">
        <ele>91.7</ele>
        <time>2018-08-21T07:50:20Z</time>
      </trkpt>
      <trkpt lat="43.98891" lon="1.20457">
        <ele>91.6</ele>
        <time>2018-08-21T07:50:22Z</time>
      </trkpt>
      <trkpt lat="43.98899" lon="1.20447">
        <ele>91.5</ele>
        <time>2018-08-21T07:50:24Z</time>
      </trkpt>
      <trkpt lat="43.98908" lon="1.20437">
        <ele>92</ele>
        <time>2018-08-21T07:50:26Z</time>
      </trkpt>
      <trkpt lat="43.98916" lon="1.20426">
        <ele>92.1</ele>
        <time>2018-08-21T07:50:28Z</time>
      </trkpt>
      <trkpt lat="43.98925" lon="1.20417">
        <ele>92.2</ele>
        <time>2018-08-21T07:50:30Z</time>
      </trkpt>
      <trkpt lat="43.98933" lon="1.20407">
        <ele>92.6</ele>
        <time>2018-08-21T07:50:32Z</time>
      </trkpt>
      <trkpt lat="43.98942" lon="1.20397">
        <ele>92.7</ele>
        <time>2018-08-21T07:50:34Z</time>
      </trkpt>
      <trkpt lat="43.9895" lon="1.20387">
        <ele>92.9</ele>
        <time>2018-08-21T07:50:37Z</time>
      </trkpt>
      <trkpt lat="43.98959" lon="1.20376">
        <ele>93</ele>
        <time>2018-08-21T07:50:38Z</time>
      </trkpt>
      <trkpt lat="43.98967" lon="1.20366">
        <ele>93.2</ele>
        <time>2018-08-21T07:50:40Z</time>
      </trkpt>
      <trkpt lat="43.98975" lon="1.20355">
        <ele>93.3</ele>
        <time>2018-08-21T07:50:42Z</time>
      </trkpt>
      <trkpt lat="43.98984" lon="1.20345">
        <ele>93.2</ele>
        <time>2018-08-21T07:50:44Z</time>
      </trkpt>
      <trkpt lat="43.98992" lon="1.20335">
        <ele>93</ele>
        <time>2018-08-21T07:50:46Z</time>
      </trkpt>
      <trkpt lat="43.99" lon="1.20325">
        <ele>92.6</ele>
        <time>2018-08-21T07:50:48Z</time>
      </trkpt>
      <trkpt lat="43.99008" lon="1.20315">
        <ele>92.4</ele>
        <time>2018-08-21T07:50:50Z</time>
      </trkpt>
      <trkpt lat="43.99015" lon="1.20305">
        <ele>92.2</ele>
        <time>2018-08-21T07:50:52Z</time>
      </trkpt>
      <trkpt lat="43.99023" lon="1.20296">
        <ele>92</ele>
        <time>2018-08-21T07:50:54Z</time>
      </trkpt>
      <trkpt lat="43.99032" lon="1.20287">
        <ele>91.9</ele>
        <time>2018-08-21T07:50:56Z</time>
      </trkpt>
      <trkpt lat="43.99041" lon="1.20276">
        <ele>91.6</ele>
        <time>2018-08-21T07:50:58Z</time>
      </trkpt>
      <trkpt lat="43.99049" lon="1.20267">
        <ele>91.3</ele>
        <time>2018-08-21T07:51:00Z</time>
      </trkpt>
      <trkpt lat="43.99057" lon="1.20258">
        <ele>91.4</ele>
        <time>2018-08-21T07:51:02Z</time>
      </trkpt>
      <trkpt lat="43.99065" lon="1.20248">
        <ele>91.4</ele>
        <time>2018-08-21T07:51:04Z</time>
      </trkpt>
      <trkpt lat="43.99073" lon="1.20239">
        <ele>91.4</ele>
        <time>2018-08-21T07:51:06Z</time>
      </trkpt>
      <trkpt lat="43.99081" lon="1.20228">
        <ele>91.3</ele>
        <time>2018-08-21T07:51:08Z</time>
      </trkpt>
      <trkpt lat="43.99089" lon="1.20218">
        <ele>91</ele>
        <time>2018-08-21T07:51:10Z</time>
      </trkpt>
      <trkpt lat="43.99098" lon="1.20209">
        <ele>90.7</ele>
        <time>2018-08-21T07:51:12Z</time>
      </trkpt>
      <trkpt lat="43.99107" lon="1.20199">
        <ele>91</ele>
        <time>2018-08-21T07:51:15Z</time>
      </trkpt>
      <trkpt lat="43.99115" lon="1.20188">
        <ele>91.3</ele>
        <time>2018-08-21T07:51:16Z</time>
      </trkpt>
      <trkpt lat="43.99123" lon="1.20178">
        <ele>91.8</ele>
        <time>2018-08-21T07:51:18Z</time>
      </trkpt>
      <trkpt lat="43.99131" lon="1.20167">
        <ele>92</ele>
        <time>2018-08-21T07:51:20Z</time>
      </trkpt>
      <trkpt lat="43.99139" lon="1.20158">
        <ele>92.1</ele>
        <time>2018-08-21T07:51:22Z</time>
      </trkpt>
      <trkpt lat="43.99148" lon="1.20148">
        <ele>92</ele>
        <time>2018-08-21T07:51:24Z</time>
      </trkpt>
      <trkpt lat="43.99156" lon="1.20139">
        <ele>92</ele>
        <time>2018-08-21T07:51:26Z</time>
      </trkpt>
      <trkpt lat="43.99164" lon="1.20128">
        <ele>91.9</ele>
        <time>2018-08-21T07:51:28Z</time>
      </trkpt>
      <trkpt lat="43.99172" lon="1.20119">
        <ele>92</ele>
        <time>2018-08-21T07:51:30Z</time>
      </trkpt>
      <trkpt lat="43.99181" lon="1.20108">
        <ele>92.1</ele>
        <time>2018-08-21T07:51:32Z</time>
      </trkpt>
      <trkpt lat="43.99189" lon="1.20098">
        <ele>92.3</ele>
        <time>2018-08-21T07:51:34Z</time>
      </trkpt>
      <trkpt lat="43.99197" lon="1.20088">
        <ele>92.3</ele>
        <time>2018-08-21T07:51:36Z</time>
      </trkpt>
      <trkpt lat="43.99205" lon="1.20078">
        <ele>92.1</ele>
        <time>2018-08-21T07:51:38Z</time>
      </trkpt>
      <trkpt lat="43.99213" lon="1.20069">
        <ele>92.2</ele>
        <time>2018-08-21T07:51:40Z</time>
      </trkpt>
      <trkpt lat="43.99221" lon="1.20059">
        <ele>92.2</ele>
        <time>2018-08-21T07:51:42Z</time>
      </trkpt>
      <trkpt lat="43.99229" lon="1.20049">
        <ele>91.9</ele>
        <time>2018-08-21T07:51:44Z</time>
      </trkpt>
      <trkpt lat="43.99237" lon="1.2004">
        <ele>92.1</ele>
        <time>2018-08-21T07:51:46Z</time>
      </trkpt>
      <trkpt lat="43.99245" lon="1.20031">
        <ele>92.1</ele>
        <time>2018-08-21T07:51:48Z</time>
      </trkpt>
      <trkpt lat="43.99254" lon="1.20021">
        <ele>92.3</ele>
        <time>2018-08-21T07:51:50Z</time>
      </trkpt>
      <trkpt lat="43.99262" lon="1.20011">
        <ele>92.3</ele>
        <time>2018-08-21T07:51:52Z</time>
      </trkpt>
      <trkpt lat="43.99269" lon="1.20002">
        <ele>91.8</ele>
        <time>2018-08-21T07:51:54Z</time>
      </trkpt>
      <trkpt lat="43.99278" lon="1.19991">
        <ele>91.6</ele>
        <time>2018-08-21T07:51:56Z</time>
      </trkpt>
      <trkpt lat="43.99286" lon="1.19982">
        <ele>91.4</ele>
        <time>2018-08-21T07:51:58Z</time>
      </trkpt>
      <trkpt lat="43.99295" lon="1.19973">
        <ele>91.4</ele>
        <time>2018-08-21T07:52:00Z</time>
      </trkpt>
      <trkpt lat="43.99305" lon="1.19963">
        <ele>91.6</ele>
        <time>2018-08-21T07:52:02Z</time>
      </trkpt>
      <trkpt lat="43.99312" lon="1.19954">
        <ele>91.5</ele>
        <time>2018-08-21T07:52:04Z</time>
      </trkpt>
      <trkpt lat="43.99321" lon="1.19944">
        <ele>91.5</ele>
        <time>2018-08-21T07:52:06Z</time>
      </trkpt>
      <trkpt lat="43.99328" lon="1.19932">
        <ele>91.7</ele>
        <time>2018-08-21T07:52:08Z</time>
      </trkpt>
      <trkpt lat="43.99335" lon="1.19921">
        <ele>92.1</ele>
        <time>2018-08-21T07:52:10Z</time>
      </trkpt>
      <trkpt lat="43.99343" lon="1.19914">
        <ele>92.3</ele>
        <time>2018-08-21T07:52:13Z</time>
      </trkpt>
      <trkpt lat="43.9935" lon="1.19907">
        <ele>92.4</ele>
        <time>2018-08-21T07:52:14Z</time>
      </trkpt>
      <trkpt lat="43.99356" lon="1.199">
        <ele>92.6</ele>
        <time>2018-08-21T07:52:17Z</time>
      </trkpt>
      <trkpt lat="43.99362" lon="1.19894">
        <ele>93</ele>
        <time>2018-08-21T07:52:19Z</time>
      </trkpt>
      <trkpt lat="43.99369" lon="1.19887">
        <ele>92.6</ele>
        <time>2018-08-21T07:52:21Z</time>
      </trkpt>
      <trkpt lat="43.99378" lon="1.19876">
        <ele>91.8</ele>
        <time>2018-08-21T07:52:23Z</time>
      </trkpt>
      <trkpt lat="43.99383" lon="1.19869">
        <ele>91.2</ele>
        <time>2018-08-21T07:52:24Z</time>
      </trkpt>
      <trkpt lat="43.99389" lon="1.19863">
        <ele>90.9</ele>
        <time>2018-08-21T07:52:25Z</time>
      </trkpt>
      <trkpt lat="43.99395" lon="1.19856">
        <ele>90.4</ele>
        <time>2018-08-21T07:52:26Z</time>
      </trkpt>
      <trkpt lat="43.994" lon="1.19849">
        <ele>90.1</ele>
        <time>2018-08-21T07:52:27Z</time>
      </trkpt>
      <trkpt lat="43.99406" lon="1.19842">
        <ele>89.8</ele>
        <time>2018-08-21T07:52:28Z</time>
      </trkpt>
      <trkpt lat="43.99416" lon="1.1983">
        <ele>89.2</ele>
        <time>2018-08-21T07:52:30Z</time>
      </trkpt>
      <trkpt lat="43.99426" lon="1.19817">
        <ele>88.6</ele>
        <time>2018-08-21T07:52:32Z</time>
      </trkpt>
      <trkpt lat="43.99436" lon="1.19805">
        <ele>88.1</ele>
        <time>2018-08-21T07:52:34Z</time>
      </trkpt>
      <trkpt lat="43.99447" lon="1.19793">
        <ele>87.9</ele>
        <time>2018-08-21T07:52:36Z</time>
      </trkpt>
      <trkpt lat="43.99457" lon="1.1978">
        <ele>87.7</ele>
        <time>2018-08-21T07:52:38Z</time>
      </trkpt>
      <trkpt lat="43.99467" lon="1.19768">
        <ele>87.6</ele>
        <time>2018-08-21T07:52:40Z</time>
      </trkpt>
      <trkpt lat="43.99478" lon="1.19756">
        <ele>87.6</ele>
        <time>2018-08-21T07:52:42Z</time>
      </trkpt>
      <trkpt lat="43.99483" lon="1.1975">
        <ele>87.7</ele>
        <time>2018-08-21T07:52:43Z</time>
      </trkpt>
      <trkpt lat="43.99494" lon="1.19738">
        <ele>87.4</ele>
        <time>2018-08-21T07:52:45Z</time>
      </trkpt>
      <trkpt lat="43.99504" lon="1.19726">
        <ele>87</ele>
        <time>2018-08-21T07:52:47Z</time>
      </trkpt>
      <trkpt lat="43.99514" lon="1.19714">
        <ele>86.8</ele>
        <time>2018-08-21T07:52:49Z</time>
      </trkpt>
      <trkpt lat="43.99524" lon="1.19703">
        <ele>86.6</ele>
        <time>2018-08-21T07:52:51Z</time>
      </trkpt>
      <trkpt lat="43.99533" lon="1.19691">
        <ele>86.7</ele>
        <time>2018-08-21T07:52:53Z</time>
      </trkpt>
      <trkpt lat="43.99542" lon="1.19679">
        <ele>86.7</ele>
        <time>2018-08-21T07:52:55Z</time>
      </trkpt>
      <trkpt lat="43.99551" lon="1.19668">
        <ele>86.8</ele>
        <time>2018-08-21T07:52:57Z</time>
      </trkpt>
      <trkpt lat="43.9956" lon="1.19657">
        <ele>86.7</ele>
        <time>2018-08-21T07:52:59Z</time>
      </trkpt>
      <trkpt lat="43.99569" lon="1.19646">
        <ele>86.5</ele>
        <time>2018-08-21T07:53:01Z</time>
      </trkpt>
      <trkpt lat="43.99578" lon="1.19635">
        <ele>86.5</ele>
        <time>2018-08-21T07:53:03Z</time>
      </trkpt>
      <trkpt lat="43.99587" lon="1.19625">
        <ele>86.5</ele>
        <time>2018-08-21T07:53:05Z</time>
      </trkpt>
      <trkpt lat="43.99595" lon="1.19615">
        <ele>86.5</ele>
        <time>2018-08-21T07:53:07Z</time>
      </trkpt>
      <trkpt lat="43.99604" lon="1.19605">
        <ele>86.5</ele>
        <time>2018-08-21T07:53:09Z</time>
      </trkpt>
      <trkpt lat="43.99612" lon="1.19595">
        <ele>86.7</ele>
        <time>2018-08-21T07:53:11Z</time>
      </trkpt>
      <trkpt lat="43.99621" lon="1.19585">
        <ele>86.9</ele>
        <time>2018-08-21T07:53:13Z</time>
      </trkpt>
      <trkpt lat="43.9963" lon="1.19574">
        <ele>86.7</ele>
        <time>2018-08-21T07:53:15Z</time>
      </trkpt>
      <trkpt lat="43.99639" lon="1.19564">
        <ele>86.9</ele>
        <time>2018-08-21T07:53:17Z</time>
      </trkpt>
      <trkpt lat="43.99648" lon="1.19553">
        <ele>87</ele>
        <time>2018-08-21T07:53:19Z</time>
      </trkpt>
      <trkpt lat="43.99657" lon="1.19542">
        <ele>87.2</ele>
        <time>2018-08-21T07:53:21Z</time>
      </trkpt>
      <trkpt lat="43.99666" lon="1.1953">
        <ele>87.5</ele>
        <time>2018-08-21T07:53:23Z</time>
      </trkpt>
      <trkpt lat="43.99675" lon="1.19519">
        <ele>87.7</ele>
        <time>2018-08-21T07:53:25Z</time>
      </trkpt>
      <trkpt lat="43.99685" lon="1.19509">
        <ele>87.4</ele>
        <time>2018-08-21T07:53:27Z</time>
      </trkpt>
      <trkpt lat="43.99694" lon="1.19499">
        <ele>87.6</ele>
        <time>2018-08-21T07:53:29Z</time>
      </trkpt>
      <trkpt lat="43.99703" lon="1.19488">
        <ele>87.3</ele>
        <time>2018-08-21T07:53:31Z</time>
      </trkpt>
      <trkpt lat="43.99711" lon="1.19477">
        <ele>87.4</ele>
        <time>2018-08-21T07:53:33Z</time>
      </trkpt>
      <trkpt lat="43.99719" lon="1.19466">
        <ele>87.4</ele>
        <time>2018-08-21T07:53:35Z</time>
      </trkpt>
      <trkpt lat="43.99728" lon="1.19456">
        <ele>87</ele>
        <time>2018-08-21T07:53:37Z</time>
      </trkpt>
      <trkpt lat="43.99738" lon="1.19445">
        <ele>86.7</ele>
        <time>2018-08-21T07:53:39Z</time>
      </trkpt>
      <trkpt lat="43.99746" lon="1.19434">
        <ele>86.5</ele>
        <time>2018-08-21T07:53:41Z</time>
      </trkpt>
      <trkpt lat="43.99755" lon="1.19422">
        <ele>86.4</ele>
        <time>2018-08-21T07:53:43Z</time>
      </trkpt>
      <trkpt lat="43.99764" lon="1.19412">
        <ele>86.4</ele>
        <time>2018-08-21T07:53:45Z</time>
      </trkpt>
      <trkpt lat="43.99774" lon="1.19402">
        <ele>86.2</ele>
        <time>2018-08-21T07:53:47Z</time>
      </trkpt>
      <trkpt lat="43.99783" lon="1.19391">
        <ele>85.9</ele>
        <time>2018-08-21T07:53:49Z</time>
      </trkpt>
      <trkpt lat="43.99792" lon="1.19381">
        <ele>85.3</ele>
        <time>2018-08-21T07:53:51Z</time>
      </trkpt>
      <trkpt lat="43.99801" lon="1.19371">
        <ele>85.3</ele>
        <time>2018-08-21T07:53:53Z</time>
      </trkpt>
      <trkpt lat="43.99809" lon="1.1936">
        <ele>85.2</ele>
        <time>2018-08-21T07:53:55Z</time>
      </trkpt>
      <trkpt lat="43.99817" lon="1.1935">
        <ele>85.1</ele>
        <time>2018-08-21T07:53:57Z</time>
      </trkpt>
      <trkpt lat="43.99825" lon="1.1934">
        <ele>85.7</ele>
        <time>2018-08-21T07:54:00Z</time>
      </trkpt>
      <trkpt lat="43.99834" lon="1.19329">
        <ele>86.6</ele>
        <time>2018-08-21T07:54:01Z</time>
      </trkpt>
      <trkpt lat="43.99842" lon="1.19318">
        <ele>87.4</ele>
        <time>2018-08-21T07:54:03Z</time>
      </trkpt>
      <trkpt lat="43.9985" lon="1.19308">
        <ele>87.7</ele>
        <time>2018-08-21T07:54:05Z</time>
      </trkpt>
      <trkpt lat="43.99859" lon="1.19298">
        <ele>88.3</ele>
        <time>2018-08-21T07:54:07Z</time>
      </trkpt>
      <trkpt lat="43.99868" lon="1.19288">
        <ele>88.2</ele>
        <time>2018-08-21T07:54:09Z</time>
      </trkpt>
      <trkpt lat="43.99877" lon="1.19278">
        <ele>89</ele>
        <time>2018-08-21T07:54:11Z</time>
      </trkpt>
      <trkpt lat="43.99886" lon="1.19268">
        <ele>89.4</ele>
        <time>2018-08-21T07:54:13Z</time>
      </trkpt>
      <trkpt lat="43.99893" lon="1.19258">
        <ele>89.4</ele>
        <time>2018-08-21T07:54:15Z</time>
      </trkpt>
      <trkpt lat="43.99901" lon="1.19247">
        <ele>89</ele>
        <time>2018-08-21T07:54:17Z</time>
      </trkpt>
      <trkpt lat="43.99909" lon="1.19238">
        <ele>88.6</ele>
        <time>2018-08-21T07:54:19Z</time>
      </trkpt>
      <trkpt lat="43.99917" lon="1.19228">
        <ele>89.2</ele>
        <time>2018-08-21T07:54:21Z</time>
      </trkpt>
      <trkpt lat="43.99925" lon="1.19218">
        <ele>89.4</ele>
        <time>2018-08-21T07:54:23Z</time>
      </trkpt>
      <trkpt lat="43.99933" lon="1.19209">
        <ele>89.4</ele>
        <time>2018-08-21T07:54:25Z</time>
      </trkpt>
      <trkpt lat="43.99941" lon="1.19199">
        <ele>89.2</ele>
        <time>2018-08-21T07:54:27Z</time>
      </trkpt>
      <trkpt lat="43.99949" lon="1.19191">
        <ele>89.7</ele>
        <time>2018-08-21T07:54:29Z</time>
      </trkpt>
      <trkpt lat="43.99958" lon="1.19181">
        <ele>89.8</ele>
        <time>2018-08-21T07:54:31Z</time>
      </trkpt>
      <trkpt lat="43.99967" lon="1.1917">
        <ele>89.8</ele>
        <time>2018-08-21T07:54:33Z</time>
      </trkpt>
      <trkpt lat="43.99976" lon="1.19161">
        <ele>89.6</ele>
        <time>2018-08-21T07:54:35Z</time>
      </trkpt>
      <trkpt lat="43.99983" lon="1.19151">
        <ele>89.6</ele>
        <time>2018-08-21T07:54:37Z</time>
      </trkpt>
      <trkpt lat="43.99991" lon="1.19142">
        <ele>89.2</ele>
        <time>2018-08-21T07:54:39Z</time>
      </trkpt>
      <trkpt lat="43.99999" lon="1.19133">
        <ele>89.3</ele>
        <time>2018-08-21T07:54:41Z</time>
      </trkpt>
      <trkpt lat="44.00007" lon="1.19124">
        <ele>89.5</ele>
        <time>2018-08-21T07:54:43Z</time>
      </trkpt>
      <trkpt lat="44.00015" lon="1.19115">
        <ele>89.8</ele>
        <time>2018-08-21T07:54:45Z</time>
      </trkpt>
      <trkpt lat="44.00023" lon="1.19106">
        <ele>89.9</ele>
        <time>2018-08-21T07:54:47Z</time>
      </trkpt>
      <trkpt lat="44.0003" lon="1.19099">
        <ele>89.6</ele>
        <time>2018-08-21T07:54:49Z</time>
      </trkpt>
      <trkpt lat="44.00038" lon="1.19089">
        <ele>89.6</ele>
        <time>2018-08-21T07:54:51Z</time>
      </trkpt>
      <trkpt lat="44.00045" lon="1.19079">
        <ele>89.2</ele>
        <time>2018-08-21T07:54:53Z</time>
      </trkpt>
      <trkpt lat="44.00054" lon="1.19069">
        <ele>89.1</ele>
        <time>2018-08-21T07:54:55Z</time>
      </trkpt>
      <trkpt lat="44.00062" lon="1.19058">
        <ele>89.2</ele>
        <time>2018-08-21T07:54:57Z</time>
      </trkpt>
      <trkpt lat="44.00069" lon="1.19048">
        <ele>89.9</ele>
        <time>2018-08-21T07:54:59Z</time>
      </trkpt>
      <trkpt lat="44.00076" lon="1.19039">
        <ele>90</ele>
        <time>2018-08-21T07:55:01Z</time>
      </trkpt>
      <trkpt lat="44.00085" lon="1.19029">
        <ele>89.9</ele>
        <time>2018-08-21T07:55:03Z</time>
      </trkpt>
      <trkpt lat="44.00094" lon="1.19019">
        <ele>90</ele>
        <time>2018-08-21T07:55:05Z</time>
      </trkpt>
      <trkpt lat="44.00103" lon="1.19009">
        <ele>90</ele>
        <time>2018-08-21T07:55:07Z</time>
      </trkpt>
      <trkpt lat="44.0011" lon="1.19">
        <ele>90.5</ele>
        <time>2018-08-21T07:55:09Z</time>
      </trkpt>
      <trkpt lat="44.00118" lon="1.1899">
        <ele>90.6</ele>
        <time>2018-08-21T07:55:11Z</time>
      </trkpt>
      <trkpt lat="44.00126" lon="1.18979">
        <ele>90.1</ele>
        <time>2018-08-21T07:55:13Z</time>
      </trkpt>
      <trkpt lat="44.00134" lon="1.18968">
        <ele>90.3</ele>
        <time>2018-08-21T07:55:15Z</time>
      </trkpt>
      <trkpt lat="44.00142" lon="1.18959">
        <ele>90.4</ele>
        <time>2018-08-21T07:55:17Z</time>
      </trkpt>
      <trkpt lat="44.0015" lon="1.18949">
        <ele>90.9</ele>
        <time>2018-08-21T07:55:19Z</time>
      </trkpt>
      <trkpt lat="44.00159" lon="1.18939">
        <ele>90.7</ele>
        <time>2018-08-21T07:55:21Z</time>
      </trkpt>
      <trkpt lat="44.00167" lon="1.18929">
        <ele>90.7</ele>
        <time>2018-08-21T07:55:23Z</time>
      </trkpt>
      <trkpt lat="44.00176" lon="1.18919">
        <ele>90.6</ele>
        <time>2018-08-21T07:55:25Z</time>
      </trkpt>
      <trkpt lat="44.00184" lon="1.1891">
        <ele>90.5</ele>
        <time>2018-08-21T07:55:27Z</time>
      </trkpt>
      <trkpt lat="44.00192" lon="1.189">
        <ele>90.5</ele>
        <time>2018-08-21T07:55:30Z</time>
      </trkpt>
      <trkpt lat="44.002" lon="1.18892">
        <ele>90.5</ele>
        <time>2018-08-21T07:55:31Z</time>
      </trkpt>
      <trkpt lat="44.00209" lon="1.18883">
        <ele>90.4</ele>
        <time>2018-08-21T07:55:33Z</time>
      </trkpt>
      <trkpt lat="44.00218" lon="1.18872">
        <ele>90.2</ele>
        <time>2018-08-21T07:55:35Z</time>
      </trkpt>
      <trkpt lat="44.00226" lon="1.18862">
        <ele>90.1</ele>
        <time>2018-08-21T07:55:37Z</time>
      </trkpt>
      <trkpt lat="44.00235" lon="1.18851">
        <ele>90.2</ele>
        <time>2018-08-21T07:55:39Z</time>
      </trkpt>
      <trkpt lat="44.00244" lon="1.18841">
        <ele>90</ele>
        <time>2018-08-21T07:55:41Z</time>
      </trkpt>
      <trkpt lat="44.00253" lon="1.18831">
        <ele>89.9</ele>
        <time>2018-08-21T07:55:43Z</time>
      </trkpt>
      <trkpt lat="44.00261" lon="1.1882">
        <ele>89.8</ele>
        <time>2018-08-21T07:55:45Z</time>
      </trkpt>
      <trkpt lat="44.00269" lon="1.1881">
        <ele>89.5</ele>
        <time>2018-08-21T07:55:47Z</time>
      </trkpt>
      <trkpt lat="44.00278" lon="1.188">
        <ele>89</ele>
        <time>2018-08-21T07:55:49Z</time>
      </trkpt>
      <trkpt lat="44.00287" lon="1.18791">
        <ele>88.7</ele>
        <time>2018-08-21T07:55:52Z</time>
      </trkpt>
      <trkpt lat="44.00297" lon="1.18781">
        <ele>88.4</ele>
        <time>2018-08-21T07:55:53Z</time>
      </trkpt>
      <trkpt lat="44.00305" lon="1.1877">
        <ele>88.7</ele>
        <time>2018-08-21T07:55:55Z</time>
      </trkpt>
      <trkpt lat="44.00314" lon="1.18759">
        <ele>88.8</ele>
        <time>2018-08-21T07:55:57Z</time>
      </trkpt>
      <trkpt lat="44.00322" lon="1.18749">
        <ele>89.1</ele>
        <time>2018-08-21T07:55:59Z</time>
      </trkpt>
      <trkpt lat="44.0033" lon="1.18739">
        <ele>89.8</ele>
        <time>2018-08-21T07:56:01Z</time>
      </trkpt>
      <trkpt lat="44.00337" lon="1.1873">
        <ele>90</ele>
        <time>2018-08-21T07:56:03Z</time>
      </trkpt>
      <trkpt lat="44.00346" lon="1.18719">
        <ele>90.9</ele>
        <time>2018-08-21T07:56:05Z</time>
      </trkpt>
      <trkpt lat="44.00354" lon="1.1871">
        <ele>91</ele>
        <time>2018-08-21T07:56:07Z</time>
      </trkpt>
      <trkpt lat="44.00364" lon="1.187">
        <ele>90.9</ele>
        <time>2018-08-21T07:56:09Z</time>
      </trkpt>
      <trkpt lat="44.00372" lon="1.18688">
        <ele>91.2</ele>
        <time>2018-08-21T07:56:11Z</time>
      </trkpt>
      <trkpt lat="44.0038" lon="1.18677">
        <ele>91.4</ele>
        <time>2018-08-21T07:56:13Z</time>
      </trkpt>
      <trkpt lat="44.00389" lon="1.18667">
        <ele>91.9</ele>
        <time>2018-08-21T07:56:15Z</time>
      </trkpt>
      <trkpt lat="44.00396" lon="1.18657">
        <ele>91.7</ele>
        <time>2018-08-21T07:56:17Z</time>
      </trkpt>
      <trkpt lat="44.00405" lon="1.18646">
        <ele>91.5</ele>
        <time>2018-08-21T07:56:19Z</time>
      </trkpt>
      <trkpt lat="44.00413" lon="1.18636">
        <ele>91.3</ele>
        <time>2018-08-21T07:56:22Z</time>
      </trkpt>
      <trkpt lat="44.00422" lon="1.18626">
        <ele>91.2</ele>
        <time>2018-08-21T07:56:23Z</time>
      </trkpt>
      <trkpt lat="44.00431" lon="1.18616">
        <ele>91.3</ele>
        <time>2018-08-21T07:56:25Z</time>
      </trkpt>
      <trkpt lat="44.0044" lon="1.18606">
        <ele>91.1</ele>
        <time>2018-08-21T07:56:27Z</time>
      </trkpt>
      <trkpt lat="44.00448" lon="1.18595">
        <ele>91.5</ele>
        <time>2018-08-21T07:56:29Z</time>
      </trkpt>
      <trkpt lat="44.00456" lon="1.18586">
        <ele>91.9</ele>
        <time>2018-08-21T07:56:31Z</time>
      </trkpt>
      <trkpt lat="44.00464" lon="1.18577">
        <ele>92</ele>
        <time>2018-08-21T07:56:33Z</time>
      </trkpt>
      <trkpt lat="44.00472" lon="1.18568">
        <ele>91.7</ele>
        <time>2018-08-21T07:56:35Z</time>
      </trkpt>
      <trkpt lat="44.0048" lon="1.18559">
        <ele>91.6</ele>
        <time>2018-08-21T07:56:37Z</time>
      </trkpt>
      <trkpt lat="44.00487" lon="1.18551">
        <ele>92</ele>
        <time>2018-08-21T07:56:39Z</time>
      </trkpt>
      <trkpt lat="44.00495" lon="1.18541">
        <ele>92.1</ele>
        <time>2018-08-21T07:56:41Z</time>
      </trkpt>
      <trkpt lat="44.00503" lon="1.1853">
        <ele>92.1</ele>
        <time>2018-08-21T07:56:43Z</time>
      </trkpt>
      <trkpt lat="44.00512" lon="1.1852">
        <ele>91.5</ele>
        <time>2018-08-21T07:56:45Z</time>
      </trkpt>
      <trkpt lat="44.0052" lon="1.18511">
        <ele>90.9</ele>
        <time>2018-08-21T07:56:47Z</time>
      </trkpt>
      <trkpt lat="44.00529" lon="1.18499">
        <ele>90.9</ele>
        <time>2018-08-21T07:56:49Z</time>
      </trkpt>
      <trkpt lat="44.00537" lon="1.18488">
        <ele>90.7</ele>
        <time>2018-08-21T07:56:51Z</time>
      </trkpt>
      <trkpt lat="44.00546" lon="1.18476">
        <ele>90.7</ele>
        <time>2018-08-21T07:56:53Z</time>
      </trkpt>
      <trkpt lat="44.00553" lon="1.18464">
        <ele>90.6</ele>
        <time>2018-08-21T07:56:55Z</time>
      </trkpt>
      <trkpt lat="44.00562" lon="1.18453">
        <ele>90.3</ele>
        <time>2018-08-21T07:56:57Z</time>
      </trkpt>
      <trkpt lat="44.00572" lon="1.18445">
        <ele>90.1</ele>
        <time>2018-08-21T07:56:59Z</time>
      </trkpt>
      <trkpt lat="44.00581" lon="1.18435">
        <ele>90.4</ele>
        <time>2018-08-21T07:57:01Z</time>
      </trkpt>
      <trkpt lat="44.00589" lon="1.18426">
        <ele>89.7</ele>
        <time>2018-08-21T07:57:03Z</time>
      </trkpt>
      <trkpt lat="44.00597" lon="1.18418">
        <ele>89.3</ele>
        <time>2018-08-21T07:57:05Z</time>
      </trkpt>
      <trkpt lat="44.00606" lon="1.18408">
        <ele>89.3</ele>
        <time>2018-08-21T07:57:07Z</time>
      </trkpt>
      <trkpt lat="44.00614" lon="1.18398">
        <ele>89.2</ele>
        <time>2018-08-21T07:57:09Z</time>
      </trkpt>
      <trkpt lat="44.00621" lon="1.18389">
        <ele>88.9</ele>
        <time>2018-08-21T07:57:11Z</time>
      </trkpt>
      <trkpt lat="44.00629" lon="1.18379">
        <ele>88.9</ele>
        <time>2018-08-21T07:57:13Z</time>
      </trkpt>
      <trkpt lat="44.00637" lon="1.18369">
        <ele>88.5</ele>
        <time>2018-08-21T07:57:15Z</time>
      </trkpt>
      <trkpt lat="44.00645" lon="1.1836">
        <ele>88.2</ele>
        <time>2018-08-21T07:57:17Z</time>
      </trkpt>
      <trkpt lat="44.00653" lon="1.1835">
        <ele>88.3</ele>
        <time>2018-08-21T07:57:19Z</time>
      </trkpt>
      <trkpt lat="44.00662" lon="1.1834">
        <ele>88.3</ele>
        <time>2018-08-21T07:57:21Z</time>
      </trkpt>
      <trkpt lat="44.0067" lon="1.1833">
        <ele>88.1</ele>
        <time>2018-08-21T07:57:23Z</time>
      </trkpt>
      <trkpt lat="44.00678" lon="1.18319">
        <ele>87.9</ele>
        <time>2018-08-21T07:57:25Z</time>
      </trkpt>
      <trkpt lat="44.00686" lon="1.18309">
        <ele>87.5</ele>
        <time>2018-08-21T07:57:27Z</time>
      </trkpt>
      <trkpt lat="44.00694" lon="1.18298">
        <ele>87.4</ele>
        <time>2018-08-21T07:57:29Z</time>
      </trkpt>
      <trkpt lat="44.00703" lon="1.18288">
        <ele>87.1</ele>
        <time>2018-08-21T07:57:31Z</time>
      </trkpt>
      <trkpt lat="44.00712" lon="1.18279">
        <ele>86.9</ele>
        <time>2018-08-21T07:57:33Z</time>
      </trkpt>
      <trkpt lat="44.0072" lon="1.18269">
        <ele>86.8</ele>
        <time>2018-08-21T07:57:35Z</time>
      </trkpt>
      <trkpt lat="44.00729" lon="1.18259">
        <ele>87</ele>
        <time>2018-08-21T07:57:37Z</time>
      </trkpt>
      <trkpt lat="44.00738" lon="1.18249">
        <ele>86.8</ele>
        <time>2018-08-21T07:57:39Z</time>
      </trkpt>
      <trkpt lat="44.00746" lon="1.18239">
        <ele>86.5</ele>
        <time>2018-08-21T07:57:41Z</time>
      </trkpt>
      <trkpt lat="44.00754" lon="1.18229">
        <ele>87.4</ele>
        <time>2018-08-21T07:57:43Z</time>
      </trkpt>
      <trkpt lat="44.00762" lon="1.1822">
        <ele>87.6</ele>
        <time>2018-08-21T07:57:45Z</time>
      </trkpt>
      <trkpt lat="44.00771" lon="1.1821">
        <ele>88</ele>
        <time>2018-08-21T07:57:47Z</time>
      </trkpt>
      <trkpt lat="44.00779" lon="1.18198">
        <ele>88.1</ele>
        <time>2018-08-21T07:57:49Z</time>
      </trkpt>
      <trkpt lat="44.00788" lon="1.18188">
        <ele>88.2</ele>
        <time>2018-08-21T07:57:51Z</time>
      </trkpt>
      <trkpt lat="44.00796" lon="1.18178">
        <ele>87.6</ele>
        <time>2018-08-21T07:57:53Z</time>
      </trkpt>
      <trkpt lat="44.00805" lon="1.18168">
        <ele>87.6</ele>
        <time>2018-08-21T07:57:55Z</time>
      </trkpt>
      <trkpt lat="44.00813" lon="1.18158">
        <ele>87.8</ele>
        <time>2018-08-21T07:57:57Z</time>
      </trkpt>
      <trkpt lat="44.00822" lon="1.18148">
        <ele>87.8</ele>
        <time>2018-08-21T07:57:59Z</time>
      </trkpt>
      <trkpt lat="44.0083" lon="1.18137">
        <ele>87.9</ele>
        <time>2018-08-21T07:58:01Z</time>
      </trkpt>
      <trkpt lat="44.00838" lon="1.18127">
        <ele>87.8</ele>
        <time>2018-08-21T07:58:03Z</time>
      </trkpt>
      <trkpt lat="44.00847" lon="1.18117">
        <ele>88.4</ele>
        <time>2018-08-21T07:58:05Z</time>
      </trkpt>
      <trkpt lat="44.00855" lon="1.18107">
        <ele>88.4</ele>
        <time>2018-08-21T07:58:07Z</time>
      </trkpt>
      <trkpt lat="44.00864" lon="1.18097">
        <ele>88.3</ele>
        <time>2018-08-21T07:58:09Z</time>
      </trkpt>
      <trkpt lat="44.00873" lon="1.18086">
        <ele>88.1</ele>
        <time>2018-08-21T07:58:11Z</time>
      </trkpt>
      <trkpt lat="44.00882" lon="1.18076">
        <ele>87.6</ele>
        <time>2018-08-21T07:58:13Z</time>
      </trkpt>
      <trkpt lat="44.0089" lon="1.18066">
        <ele>87.6</ele>
        <time>2018-08-21T07:58:15Z</time>
      </trkpt>
      <trkpt lat="44.00899" lon="1.18055">
        <ele>87.1</ele>
        <time>2018-08-21T07:58:17Z</time>
      </trkpt>
      <trkpt lat="44.00907" lon="1.18045">
        <ele>86.9</ele>
        <time>2018-08-21T07:58:19Z</time>
      </trkpt>
      <trkpt lat="44.00915" lon="1.18035">
        <ele>87.3</ele>
        <time>2018-08-21T07:58:21Z</time>
      </trkpt>
      <trkpt lat="44.00924" lon="1.18026">
        <ele>88.5</ele>
        <time>2018-08-21T07:58:23Z</time>
      </trkpt>
      <trkpt lat="44.00932" lon="1.18016">
        <ele>88.3</ele>
        <time>2018-08-21T07:58:25Z</time>
      </trkpt>
      <trkpt lat="44.0094" lon="1.18005">
        <ele>88.3</ele>
        <time>2018-08-21T07:58:27Z</time>
      </trkpt>
      <trkpt lat="44.00948" lon="1.17994">
        <ele>88.3</ele>
        <time>2018-08-21T07:58:29Z</time>
      </trkpt>
      <trkpt lat="44.00956" lon="1.17983">
        <ele>88.4</ele>
        <time>2018-08-21T07:58:31Z</time>
      </trkpt>
      <trkpt lat="44.00965" lon="1.17975">
        <ele>88.1</ele>
        <time>2018-08-21T07:58:33Z</time>
      </trkpt>
      <trkpt lat="44.00974" lon="1.17966">
        <ele>88.6</ele>
        <time>2018-08-21T07:58:35Z</time>
      </trkpt>
      <trkpt lat="44.00981" lon="1.17957">
        <ele>88.9</ele>
        <time>2018-08-21T07:58:38Z</time>
      </trkpt>
      <trkpt lat="44.00989" lon="1.17949">
        <ele>89.3</ele>
        <time>2018-08-21T07:58:40Z</time>
      </trkpt>
      <trkpt lat="44.00996" lon="1.1794">
        <ele>89.4</ele>
        <time>2018-08-21T07:58:41Z</time>
      </trkpt>
      <trkpt lat="44.01003" lon="1.17931">
        <ele>89.7</ele>
        <time>2018-08-21T07:58:43Z</time>
      </trkpt>
      <trkpt lat="44.0101" lon="1.17922">
        <ele>89.6</ele>
        <time>2018-08-21T07:58:45Z</time>
      </trkpt>
      <trkpt lat="44.01017" lon="1.17913">
        <ele>89.6</ele>
        <time>2018-08-21T07:58:47Z</time>
      </trkpt>
      <trkpt lat="44.01025" lon="1.17904">
        <ele>89.6</ele>
        <time>2018-08-21T07:58:49Z</time>
      </trkpt>
      <trkpt lat="44.01033" lon="1.17896">
        <ele>89.5</ele>
        <time>2018-08-21T07:58:51Z</time>
      </trkpt>
      <trkpt lat="44.01042" lon="1.17886">
        <ele>89.2</ele>
        <time>2018-08-21T07:58:53Z</time>
      </trkpt>
      <trkpt lat="44.01049" lon="1.17876">
        <ele>89.1</ele>
        <time>2018-08-21T07:58:55Z</time>
      </trkpt>
      <trkpt lat="44.01057" lon="1.17866">
        <ele>89.1</ele>
        <time>2018-08-21T07:58:57Z</time>
      </trkpt>
      <trkpt lat="44.01066" lon="1.17856">
        <ele>88.9</ele>
        <time>2018-08-21T07:58:59Z</time>
      </trkpt>
      <trkpt lat="44.01074" lon="1.17846">
        <ele>88.9</ele>
        <time>2018-08-21T07:59:01Z</time>
      </trkpt>
      <trkpt lat="44.01083" lon="1.17836">
        <ele>88.6</ele>
        <time>2018-08-21T07:59:03Z</time>
      </trkpt>
      <trkpt lat="44.01091" lon="1.17826">
        <ele>88.5</ele>
        <time>2018-08-21T07:59:05Z</time>
      </trkpt>
      <trkpt lat="44.011" lon="1.17817">
        <ele>88.4</ele>
        <time>2018-08-21T07:59:07Z</time>
      </trkpt>
      <trkpt lat="44.01107" lon="1.17808">
        <ele>88.3</ele>
        <time>2018-08-21T07:59:09Z</time>
      </trkpt>
      <trkpt lat="44.01115" lon="1.17797">
        <ele>88.3</ele>
        <time>2018-08-21T07:59:11Z</time>
      </trkpt>
      <trkpt lat="44.01124" lon="1.17787">
        <ele>88.7</ele>
        <time>2018-08-21T07:59:13Z</time>
      </trkpt>
      <trkpt lat="44.01133" lon="1.17777">
        <ele>88.4</ele>
        <time>2018-08-21T07:59:15Z</time>
      </trkpt>
      <trkpt lat="44.01141" lon="1.17767">
        <ele>88.2</ele>
        <time>2018-08-21T07:59:17Z</time>
      </trkpt>
      <trkpt lat="44.01149" lon="1.17757">
        <ele>87.9</ele>
        <time>2018-08-21T07:59:19Z</time>
      </trkpt>
      <trkpt lat="44.01157" lon="1.17747">
        <ele>87.6</ele>
        <time>2018-08-21T07:59:21Z</time>
      </trkpt>
      <trkpt lat="44.01165" lon="1.17737">
        <ele>87.5</ele>
        <time>2018-08-21T07:59:23Z</time>
      </trkpt>
      <trkpt lat="44.01173" lon="1.17727">
        <ele>87.3</ele>
        <time>2018-08-21T07:59:25Z</time>
      </trkpt>
      <trkpt lat="44.01182" lon="1.17717">
        <ele>87.3</ele>
        <time>2018-08-21T07:59:27Z</time>
      </trkpt>
      <trkpt lat="44.0119" lon="1.17707">
        <ele>87.5</ele>
        <time>2018-08-21T07:59:29Z</time>
      </trkpt>
      <trkpt lat="44.01198" lon="1.17698">
        <ele>87.6</ele>
        <time>2018-08-21T07:59:31Z</time>
      </trkpt>
      <trkpt lat="44.01206" lon="1.17688">
        <ele>87.6</ele>
        <time>2018-08-21T07:59:33Z</time>
      </trkpt>
      <trkpt lat="44.01215" lon="1.17679">
        <ele>87.3</ele>
        <time>2018-08-21T07:59:35Z</time>
      </trkpt>
      <trkpt lat="44.01222" lon="1.17669">
        <ele>87.1</ele>
        <time>2018-08-21T07:59:37Z</time>
      </trkpt>
      <trkpt lat="44.01228" lon="1.17659">
        <ele>86.7</ele>
        <time>2018-08-21T07:59:39Z</time>
      </trkpt>
      <trkpt lat="44.01236" lon="1.1765">
        <ele>86.3</ele>
        <time>2018-08-21T07:59:41Z</time>
      </trkpt>
      <trkpt lat="44.01245" lon="1.17639">
        <ele>86.3</ele>
        <time>2018-08-21T07:59:43Z</time>
      </trkpt>
      <trkpt lat="44.01253" lon="1.17629">
        <ele>86.1</ele>
        <time>2018-08-21T07:59:45Z</time>
      </trkpt>
      <trkpt lat="44.01262" lon="1.17619">
        <ele>86</ele>
        <time>2018-08-21T07:59:47Z</time>
      </trkpt>
      <trkpt lat="44.01271" lon="1.17608">
        <ele>86.1</ele>
        <time>2018-08-21T07:59:49Z</time>
      </trkpt>
      <trkpt lat="44.01281" lon="1.17595">
        <ele>86.3</ele>
        <time>2018-08-21T07:59:51Z</time>
      </trkpt>
      <trkpt lat="44.0129" lon="1.17585">
        <ele>86.3</ele>
        <time>2018-08-21T07:59:54Z</time>
      </trkpt>
      <trkpt lat="44.01298" lon="1.17576">
        <ele>86.3</ele>
        <time>2018-08-21T07:59:55Z</time>
      </trkpt>
      <trkpt lat="44.01305" lon="1.17565">
        <ele>86.5</ele>
        <time>2018-08-21T07:59:57Z</time>
      </trkpt>
      <trkpt lat="44.01313" lon="1.17556">
        <ele>86.5</ele>
        <time>2018-08-21T07:59:59Z</time>
      </trkpt>
      <trkpt lat="44.0132" lon="1.17548">
        <ele>86.5</ele>
        <time>2018-08-21T08:00:01Z</time>
      </trkpt>
      <trkpt lat="44.01329" lon="1.17538">
        <ele>86.6</ele>
        <time>2018-08-21T08:00:03Z</time>
      </trkpt>
      <trkpt lat="44.01338" lon="1.17527">
        <ele>86.7</ele>
        <time>2018-08-21T08:00:05Z</time>
      </trkpt>
      <trkpt lat="44.01347" lon="1.17515">
        <ele>86.7</ele>
        <time>2018-08-21T08:00:07Z</time>
      </trkpt>
      <trkpt lat="44.01357" lon="1.17505">
        <ele>86.9</ele>
        <time>2018-08-21T08:00:09Z</time>
      </trkpt>
      <trkpt lat="44.01365" lon="1.17494">
        <ele>87</ele>
        <time>2018-08-21T08:00:12Z</time>
      </trkpt>
      <trkpt lat="44.01373" lon="1.17484">
        <ele>87</ele>
        <time>2018-08-21T08:00:13Z</time>
      </trkpt>
      <trkpt lat="44.01383" lon="1.17473">
        <ele>87.2</ele>
        <time>2018-08-21T08:00:15Z</time>
      </trkpt>
      <trkpt lat="44.01391" lon="1.17462">
        <ele>87</ele>
        <time>2018-08-21T08:00:17Z</time>
      </trkpt>
      <trkpt lat="44.01399" lon="1.17453">
        <ele>87.1</ele>
        <time>2018-08-21T08:00:19Z</time>
      </trkpt>
      <trkpt lat="44.01407" lon="1.17444">
        <ele>87.3</ele>
        <time>2018-08-21T08:00:21Z</time>
      </trkpt>
      <trkpt lat="44.01415" lon="1.17435">
        <ele>87.4</ele>
        <time>2018-08-21T08:00:24Z</time>
      </trkpt>
      <trkpt lat="44.01423" lon="1.17425">
        <ele>87.5</ele>
        <time>2018-08-21T08:00:25Z</time>
      </trkpt>
      <trkpt lat="44.01432" lon="1.17415">
        <ele>87.5</ele>
        <time>2018-08-21T08:00:27Z</time>
      </trkpt>
      <trkpt lat="44.01441" lon="1.17405">
        <ele>87.7</ele>
        <time>2018-08-21T08:00:29Z</time>
      </trkpt>
      <trkpt lat="44.01449" lon="1.17395">
        <ele>87.8</ele>
        <time>2018-08-21T08:00:31Z</time>
      </trkpt>
      <trkpt lat="44.01457" lon="1.17385">
        <ele>87.8</ele>
        <time>2018-08-21T08:00:33Z</time>
      </trkpt>
      <trkpt lat="44.01465" lon="1.17375">
        <ele>87.7</ele>
        <time>2018-08-21T08:00:35Z</time>
      </trkpt>
      <trkpt lat="44.01473" lon="1.17366">
        <ele>87.6</ele>
        <time>2018-08-21T08:00:37Z</time>
      </trkpt>
      <trkpt lat="44.0148" lon="1.17356">
        <ele>87.5</ele>
        <time>2018-08-21T08:00:39Z</time>
      </trkpt>
      <trkpt lat="44.01488" lon="1.17347">
        <ele>87.4</ele>
        <time>2018-08-21T08:00:41Z</time>
      </trkpt>
      <trkpt lat="44.01494" lon="1.17337">
        <ele>87.1</ele>
        <time>2018-08-21T08:00:43Z</time>
      </trkpt>
      <trkpt lat="44.01496" lon="1.17324">
        <ele>87.1</ele>
        <time>2018-08-21T08:00:46Z</time>
      </trkpt>
      <trkpt lat="44.01505" lon="1.17318">
        <ele>87.5</ele>
        <time>2018-08-21T08:00:50Z</time>
      </trkpt>
      <trkpt lat="44.01514" lon="1.17316">
        <ele>88.2</ele>
        <time>2018-08-21T08:00:52Z</time>
      </trkpt>
      <trkpt lat="44.01522" lon="1.17309">
        <ele>89.4</ele>
        <time>2018-08-21T08:00:54Z</time>
      </trkpt>
      <trkpt lat="44.01527" lon="1.17302">
        <ele>89.4</ele>
        <time>2018-08-21T08:00:56Z</time>
      </trkpt>
      <trkpt lat="44.01534" lon="1.17294">
        <ele>89.7</ele>
        <time>2018-08-21T08:00:58Z</time>
      </trkpt>
      <trkpt lat="44.0154" lon="1.17286">
        <ele>89.7</ele>
        <time>2018-08-21T08:01:00Z</time>
      </trkpt>
      <trkpt lat="44.01548" lon="1.17277">
        <ele>89.8</ele>
        <time>2018-08-21T08:01:02Z</time>
      </trkpt>
      <trkpt lat="44.01556" lon="1.17269">
        <ele>89.9</ele>
        <time>2018-08-21T08:01:04Z</time>
      </trkpt>
      <trkpt lat="44.01563" lon="1.1726">
        <ele>89.9</ele>
        <time>2018-08-21T08:01:06Z</time>
      </trkpt>
      <trkpt lat="44.0157" lon="1.17251">
        <ele>89.7</ele>
        <time>2018-08-21T08:01:08Z</time>
      </trkpt>
      <trkpt lat="44.01578" lon="1.17242">
        <ele>89.8</ele>
        <time>2018-08-21T08:01:10Z</time>
      </trkpt>
      <trkpt lat="44.01587" lon="1.17233">
        <ele>89.5</ele>
        <time>2018-08-21T08:01:12Z</time>
      </trkpt>
      <trkpt lat="44.01594" lon="1.17225">
        <ele>89.3</ele>
        <time>2018-08-21T08:01:14Z</time>
      </trkpt>
      <trkpt lat="44.01602" lon="1.17215">
        <ele>89.3</ele>
        <time>2018-08-21T08:01:16Z</time>
      </trkpt>
      <trkpt lat="44.01609" lon="1.17206">
        <ele>89.1</ele>
        <time>2018-08-21T08:01:19Z</time>
      </trkpt>
      <trkpt lat="44.01616" lon="1.17198">
        <ele>89.1</ele>
        <time>2018-08-21T08:01:20Z</time>
      </trkpt>
      <trkpt lat="44.01623" lon="1.1719">
        <ele>88.7</ele>
        <time>2018-08-21T08:01:22Z</time>
      </trkpt>
      <trkpt lat="44.0163" lon="1.17181">
        <ele>88.6</ele>
        <time>2018-08-21T08:01:24Z</time>
      </trkpt>
      <trkpt lat="44.01638" lon="1.17173">
        <ele>88.6</ele>
        <time>2018-08-21T08:01:26Z</time>
      </trkpt>
      <trkpt lat="44.01646" lon="1.17163">
        <ele>88.5</ele>
        <time>2018-08-21T08:01:28Z</time>
      </trkpt>
      <trkpt lat="44.01654" lon="1.17154">
        <ele>88.5</ele>
        <time>2018-08-21T08:01:30Z</time>
      </trkpt>
      <trkpt lat="44.01661" lon="1.17145">
        <ele>88.5</ele>
        <time>2018-08-21T08:01:32Z</time>
      </trkpt>
      <trkpt lat="44.01669" lon="1.17136">
        <ele>88.5</ele>
        <time>2018-08-21T08:01:34Z</time>
      </trkpt>
      <trkpt lat="44.01676" lon="1.17127">
        <ele>88.4</ele>
        <time>2018-08-21T08:01:36Z</time>
      </trkpt>
      <trkpt lat="44.01683" lon="1.17118">
        <ele>88.5</ele>
        <time>2018-08-21T08:01:38Z</time>
      </trkpt>
      <trkpt lat="44.01691" lon="1.17109">
        <ele>88.4</ele>
        <time>2018-08-21T08:01:40Z</time>
      </trkpt>
      <trkpt lat="44.01699" lon="1.171">
        <ele>88.4</ele>
        <time>2018-08-21T08:01:42Z</time>
      </trkpt>
      <trkpt lat="44.01706" lon="1.17091">
        <ele>88.4</ele>
        <time>2018-08-21T08:01:44Z</time>
      </trkpt>
      <trkpt lat="44.01713" lon="1.17083">
        <ele>88.4</ele>
        <time>2018-08-21T08:01:46Z</time>
      </trkpt>
      <trkpt lat="44.01721" lon="1.17073">
        <ele>88.3</ele>
        <time>2018-08-21T08:01:48Z</time>
      </trkpt>
      <trkpt lat="44.01728" lon="1.17064">
        <ele>88.4</ele>
        <time>2018-08-21T08:01:50Z</time>
      </trkpt>
      <trkpt lat="44.01736" lon="1.17055">
        <ele>88.3</ele>
        <time>2018-08-21T08:01:52Z</time>
      </trkpt>
      <trkpt lat="44.01743" lon="1.17046">
        <ele>88.1</ele>
        <time>2018-08-21T08:01:54Z</time>
      </trkpt>
      <trkpt lat="44.01751" lon="1.17036">
        <ele>88.1</ele>
        <time>2018-08-21T08:01:56Z</time>
      </trkpt>
      <trkpt lat="44.01758" lon="1.17027">
        <ele>88.1</ele>
        <time>2018-08-21T08:01:58Z</time>
      </trkpt>
      <trkpt lat="44.01766" lon="1.17018">
        <ele>87.7</ele>
        <time>2018-08-21T08:02:00Z</time>
      </trkpt>
      <trkpt lat="44.01772" lon="1.17009">
        <ele>87.6</ele>
        <time>2018-08-21T08:02:02Z</time>
      </trkpt>
      <trkpt lat="44.0178" lon="1.17">
        <ele>87.5</ele>
        <time>2018-08-21T08:02:04Z</time>
      </trkpt>
      <trkpt lat="44.01787" lon="1.16989">
        <ele>87.4</ele>
        <time>2018-08-21T08:02:07Z</time>
      </trkpt>
      <trkpt lat="44.01794" lon="1.1698">
        <ele>87.4</ele>
        <time>2018-08-21T08:02:08Z</time>
      </trkpt>
      <trkpt lat="44.01803" lon="1.1697">
        <ele>87.4</ele>
        <time>2018-08-21T08:02:10Z</time>
      </trkpt>
      <trkpt lat="44.01812" lon="1.16959">
        <ele>87.7</ele>
        <time>2018-08-21T08:02:12Z</time>
      </trkpt>
      <trkpt lat="44.01821" lon="1.16949">
        <ele>87.7</ele>
        <time>2018-08-21T08:02:14Z</time>
      </trkpt>
      <trkpt lat="44.0183" lon="1.1694">
        <ele>87.3</ele>
        <time>2018-08-21T08:02:16Z</time>
      </trkpt>
      <trkpt lat="44.01838" lon="1.16929">
        <ele>86.9</ele>
        <time>2018-08-21T08:02:18Z</time>
      </trkpt>
      <trkpt lat="44.01847" lon="1.16919">
        <ele>86.5</ele>
        <time>2018-08-21T08:02:20Z</time>
      </trkpt>
      <trkpt lat="44.01856" lon="1.16909">
        <ele>86.6</ele>
        <time>2018-08-21T08:02:22Z</time>
      </trkpt>
      <trkpt lat="44.01865" lon="1.16898">
        <ele>86.7</ele>
        <time>2018-08-21T08:02:24Z</time>
      </trkpt>
      <trkpt lat="44.01874" lon="1.16889">
        <ele>86.8</ele>
        <time>2018-08-21T08:02:26Z</time>
      </trkpt>
      <trkpt lat="44.01883" lon="1.16879">
        <ele>86.8</ele>
        <time>2018-08-21T08:02:28Z</time>
      </trkpt>
      <trkpt lat="44.01892" lon="1.16868">
        <ele>86.7</ele>
        <time>2018-08-21T08:02:30Z</time>
      </trkpt>
      <trkpt lat="44.019" lon="1.16858">
        <ele>86.7</ele>
        <time>2018-08-21T08:02:32Z</time>
      </trkpt>
      <trkpt lat="44.01909" lon="1.16847">
        <ele>86.5</ele>
        <time>2018-08-21T08:02:34Z</time>
      </trkpt>
      <trkpt lat="44.01917" lon="1.16837">
        <ele>86.4</ele>
        <time>2018-08-21T08:02:37Z</time>
      </trkpt>
      <trkpt lat="44.01926" lon="1.16827">
        <ele>86.5</ele>
        <time>2018-08-21T08:02:38Z</time>
      </trkpt>
      <trkpt lat="44.01934" lon="1.16817">
        <ele>86.2</ele>
        <time>2018-08-21T08:02:40Z</time>
      </trkpt>
      <trkpt lat="44.01943" lon="1.16806">
        <ele>86.2</ele>
        <time>2018-08-21T08:02:42Z</time>
      </trkpt>
      <trkpt lat="44.0195" lon="1.16797">
        <ele>86.2</ele>
        <time>2018-08-21T08:02:44Z</time>
      </trkpt>
      <trkpt lat="44.01958" lon="1.16786">
        <ele>86.3</ele>
        <time>2018-08-21T08:02:46Z</time>
      </trkpt>
      <trkpt lat="44.01966" lon="1.16776">
        <ele>86.3</ele>
        <time>2018-08-21T08:02:48Z</time>
      </trkpt>
      <trkpt lat="44.01975" lon="1.16766">
        <ele>86.1</ele>
        <time>2018-08-21T08:02:50Z</time>
      </trkpt>
      <trkpt lat="44.01984" lon="1.16756">
        <ele>86.1</ele>
        <time>2018-08-21T08:02:52Z</time>
      </trkpt>
      <trkpt lat="44.01993" lon="1.16746">
        <ele>85.7</ele>
        <time>2018-08-21T08:02:54Z</time>
      </trkpt>
      <trkpt lat="44.02001" lon="1.16735">
        <ele>85.5</ele>
        <time>2018-08-21T08:02:56Z</time>
      </trkpt>
      <trkpt lat="44.0201" lon="1.16725">
        <ele>85.7</ele>
        <time>2018-08-21T08:02:58Z</time>
      </trkpt>
      <trkpt lat="44.02019" lon="1.16714">
        <ele>85.5</ele>
        <time>2018-08-21T08:03:00Z</time>
      </trkpt>
      <trkpt lat="44.02027" lon="1.16704">
        <ele>85.4</ele>
        <time>2018-08-21T08:03:02Z</time>
      </trkpt>
      <trkpt lat="44.02035" lon="1.16695">
        <ele>85.5</ele>
        <time>2018-08-21T08:03:05Z</time>
      </trkpt>
      <trkpt lat="44.02044" lon="1.16685">
        <ele>85.4</ele>
        <time>2018-08-21T08:03:06Z</time>
      </trkpt>
      <trkpt lat="44.02052" lon="1.16675">
        <ele>85.7</ele>
        <time>2018-08-21T08:03:08Z</time>
      </trkpt>
      <trkpt lat="44.02062" lon="1.16664">
        <ele>85.8</ele>
        <time>2018-08-21T08:03:10Z</time>
      </trkpt>
      <trkpt lat="44.02071" lon="1.16654">
        <ele>85.5</ele>
        <time>2018-08-21T08:03:13Z</time>
      </trkpt>
      <trkpt lat="44.02079" lon="1.16644">
        <ele>85.9</ele>
        <time>2018-08-21T08:03:14Z</time>
      </trkpt>
      <trkpt lat="44.02088" lon="1.16634">
        <ele>86.2</ele>
        <time>2018-08-21T08:03:16Z</time>
      </trkpt>
      <trkpt lat="44.02096" lon="1.16623">
        <ele>86.1</ele>
        <time>2018-08-21T08:03:18Z</time>
      </trkpt>
      <trkpt lat="44.02105" lon="1.16614">
        <ele>86.3</ele>
        <time>2018-08-21T08:03:20Z</time>
      </trkpt>
      <trkpt lat="44.02113" lon="1.16603">
        <ele>86.1</ele>
        <time>2018-08-21T08:03:22Z</time>
      </trkpt>
      <trkpt lat="44.02122" lon="1.16592">
        <ele>86</ele>
        <time>2018-08-21T08:03:24Z</time>
      </trkpt>
      <trkpt lat="44.0213" lon="1.16583">
        <ele>86</ele>
        <time>2018-08-21T08:03:26Z</time>
      </trkpt>
      <trkpt lat="44.02138" lon="1.16572">
        <ele>86</ele>
        <time>2018-08-21T08:03:28Z</time>
      </trkpt>
      <trkpt lat="44.02147" lon="1.16562">
        <ele>85.7</ele>
        <time>2018-08-21T08:03:30Z</time>
      </trkpt>
      <trkpt lat="44.02155" lon="1.16552">
        <ele>85.1</ele>
        <time>2018-08-21T08:03:32Z</time>
      </trkpt>
      <trkpt lat="44.02165" lon="1.16542">
        <ele>84.8</ele>
        <time>2018-08-21T08:03:34Z</time>
      </trkpt>
      <trkpt lat="44.02173" lon="1.16533">
        <ele>84.8</ele>
        <time>2018-08-21T08:03:36Z</time>
      </trkpt>
      <trkpt lat="44.02182" lon="1.16523">
        <ele>84.4</ele>
        <time>2018-08-21T08:03:38Z</time>
      </trkpt>
      <trkpt lat="44.0219" lon="1.16513">
        <ele>84</ele>
        <time>2018-08-21T08:03:40Z</time>
      </trkpt>
      <trkpt lat="44.02199" lon="1.16503">
        <ele>83.7</ele>
        <time>2018-08-21T08:03:42Z</time>
      </trkpt>
      <trkpt lat="44.02207" lon="1.16493">
        <ele>83.3</ele>
        <time>2018-08-21T08:03:44Z</time>
      </trkpt>
      <trkpt lat="44.02215" lon="1.16483">
        <ele>83.2</ele>
        <time>2018-08-21T08:03:46Z</time>
      </trkpt>
      <trkpt lat="44.02222" lon="1.16474">
        <ele>83.2</ele>
        <time>2018-08-21T08:03:48Z</time>
      </trkpt>
      <trkpt lat="44.02231" lon="1.16464">
        <ele>83.1</ele>
        <time>2018-08-21T08:03:50Z</time>
      </trkpt>
      <trkpt lat="44.02239" lon="1.16452">
        <ele>83</ele>
        <time>2018-08-21T08:03:52Z</time>
      </trkpt>
      <trkpt lat="44.02248" lon="1.16441">
        <ele>82.3</ele>
        <time>2018-08-21T08:03:54Z</time>
      </trkpt>
      <trkpt lat="44.02255" lon="1.1643">
        <ele>82.7</ele>
        <time>2018-08-21T08:03:56Z</time>
      </trkpt>
      <trkpt lat="44.02262" lon="1.16421">
        <ele>82.7</ele>
        <time>2018-08-21T08:03:58Z</time>
      </trkpt>
      <trkpt lat="44.0227" lon="1.1641">
        <ele>84.2</ele>
        <time>2018-08-21T08:04:00Z</time>
      </trkpt>
      <trkpt lat="44.02277" lon="1.16398">
        <ele>84.4</ele>
        <time>2018-08-21T08:04:02Z</time>
      </trkpt>
      <trkpt lat="44.02284" lon="1.16387">
        <ele>85</ele>
        <time>2018-08-21T08:04:04Z</time>
      </trkpt>
      <trkpt lat="44.0229" lon="1.16375">
        <ele>85.4</ele>
        <time>2018-08-21T08:04:06Z</time>
      </trkpt>
      <trkpt lat="44.02297" lon="1.16363">
        <ele>85.8</ele>
        <time>2018-08-21T08:04:08Z</time>
      </trkpt>
      <trkpt lat="44.02303" lon="1.1635">
        <ele>86.3</ele>
        <time>2018-08-21T08:04:10Z</time>
      </trkpt>
      <trkpt lat="44.02309" lon="1.16338">
        <ele>87.1</ele>
        <time>2018-08-21T08:04:12Z</time>
      </trkpt>
      <trkpt lat="44.02315" lon="1.16325">
        <ele>87.8</ele>
        <time>2018-08-21T08:04:14Z</time>
      </trkpt>
      <trkpt lat="44.02321" lon="1.16312">
        <ele>88.4</ele>
        <time>2018-08-21T08:04:16Z</time>
      </trkpt>
      <trkpt lat="44.02325" lon="1.16299">
        <ele>88.4</ele>
        <time>2018-08-21T08:04:18Z</time>
      </trkpt>
      <trkpt lat="44.02329" lon="1.16287">
        <ele>88.2</ele>
        <time>2018-08-21T08:04:20Z</time>
      </trkpt>
      <trkpt lat="44.02334" lon="1.16276">
        <ele>88.7</ele>
        <time>2018-08-21T08:04:22Z</time>
      </trkpt>
      <trkpt lat="44.02338" lon="1.16266">
        <ele>88.9</ele>
        <time>2018-08-21T08:04:24Z</time>
      </trkpt>
      <trkpt lat="44.02341" lon="1.16255">
        <ele>89.4</ele>
        <time>2018-08-21T08:04:26Z</time>
      </trkpt>
      <trkpt lat="44.02343" lon="1.16244">
        <ele>90.2</ele>
        <time>2018-08-21T08:04:28Z</time>
      </trkpt>
      <trkpt lat="44.02343" lon="1.16233">
        <ele>90.2</ele>
        <time>2018-08-21T08:04:30Z</time>
      </trkpt>
      <trkpt lat="44.02344" lon="1.16222">
        <ele>89.6</ele>
        <time>2018-08-21T08:04:32Z</time>
      </trkpt>
      <trkpt lat="44.02349" lon="1.1621">
        <ele>89.5</ele>
        <time>2018-08-21T08:04:35Z</time>
      </trkpt>
      <trkpt lat="44.02353" lon="1.16203">
        <ele>89.8</ele>
        <time>2018-08-21T08:04:38Z</time>
      </trkpt>
      <trkpt lat="44.02359" lon="1.16194">
        <ele>89.7</ele>
        <time>2018-08-21T08:04:42Z</time>
      </trkpt>
      <trkpt lat="44.02363" lon="1.16181">
        <ele>89.1</ele>
        <time>2018-08-21T08:04:46Z</time>
      </trkpt>
      <trkpt lat="44.02368" lon="1.16165">
        <ele>88.9</ele>
        <time>2018-08-21T08:04:48Z</time>
      </trkpt>
      <trkpt lat="44.02373" lon="1.16148">
        <ele>88.4</ele>
        <time>2018-08-21T08:04:50Z</time>
      </trkpt>
      <trkpt lat="44.02379" lon="1.1613">
        <ele>88.4</ele>
        <time>2018-08-21T08:04:52Z</time>
      </trkpt>
      <trkpt lat="44.02384" lon="1.16113">
        <ele>88.4</ele>
        <time>2018-08-21T08:04:54Z</time>
      </trkpt>
      <trkpt lat="44.02389" lon="1.16097">
        <ele>88.2</ele>
        <time>2018-08-21T08:04:56Z</time>
      </trkpt>
      <trkpt lat="44.02393" lon="1.16081">
        <ele>88</ele>
        <time>2018-08-21T08:04:58Z</time>
      </trkpt>
      <trkpt lat="44.02398" lon="1.16066">
        <ele>87.9</ele>
        <time>2018-08-21T08:05:00Z</time>
      </trkpt>
      <trkpt lat="44.02402" lon="1.16051">
        <ele>87.7</ele>
        <time>2018-08-21T08:05:02Z</time>
      </trkpt>
      <trkpt lat="44.02406" lon="1.16037">
        <ele>87.6</ele>
        <time>2018-08-21T08:05:05Z</time>
      </trkpt>
      <trkpt lat="44.02411" lon="1.16023">
        <ele>87.6</ele>
        <time>2018-08-21T08:05:06Z</time>
      </trkpt>
      <trkpt lat="44.02416" lon="1.16008">
        <ele>87.8</ele>
        <time>2018-08-21T08:05:08Z</time>
      </trkpt>
      <trkpt lat="44.02421" lon="1.15994">
        <ele>87.8</ele>
        <time>2018-08-21T08:05:10Z</time>
      </trkpt>
      <trkpt lat="44.02425" lon="1.15981">
        <ele>88</ele>
        <time>2018-08-21T08:05:12Z</time>
      </trkpt>
      <trkpt lat="44.02428" lon="1.15967">
        <ele>87.6</ele>
        <time>2018-08-21T08:05:14Z</time>
      </trkpt>
      <trkpt lat="44.02432" lon="1.15954">
        <ele>87.3</ele>
        <time>2018-08-21T08:05:16Z</time>
      </trkpt>
      <trkpt lat="44.02436" lon="1.1594">
        <ele>87.5</ele>
        <time>2018-08-21T08:05:18Z</time>
      </trkpt>
      <trkpt lat="44.0244" lon="1.15926">
        <ele>87.2</ele>
        <time>2018-08-21T08:05:20Z</time>
      </trkpt>
      <trkpt lat="44.02445" lon="1.15913">
        <ele>87</ele>
        <time>2018-08-21T08:05:22Z</time>
      </trkpt>
      <trkpt lat="44.02449" lon="1.159">
        <ele>87</ele>
        <time>2018-08-21T08:05:24Z</time>
      </trkpt>
      <trkpt lat="44.02454" lon="1.15886">
        <ele>86.7</ele>
        <time>2018-08-21T08:05:26Z</time>
      </trkpt>
      <trkpt lat="44.02458" lon="1.15873">
        <ele>86.6</ele>
        <time>2018-08-21T08:05:28Z</time>
      </trkpt>
      <trkpt lat="44.02462" lon="1.15859">
        <ele>86.4</ele>
        <time>2018-08-21T08:05:30Z</time>
      </trkpt>
      <trkpt lat="44.02466" lon="1.15844">
        <ele>86.3</ele>
        <time>2018-08-21T08:05:32Z</time>
      </trkpt>
      <trkpt lat="44.02471" lon="1.1583">
        <ele>86.2</ele>
        <time>2018-08-21T08:05:34Z</time>
      </trkpt>
      <trkpt lat="44.02475" lon="1.15816">
        <ele>86.2</ele>
        <time>2018-08-21T08:05:36Z</time>
      </trkpt>
      <trkpt lat="44.0248" lon="1.15802">
        <ele>85.8</ele>
        <time>2018-08-21T08:05:38Z</time>
      </trkpt>
      <trkpt lat="44.02484" lon="1.15787">
        <ele>85.9</ele>
        <time>2018-08-21T08:05:40Z</time>
      </trkpt>
      <trkpt lat="44.02489" lon="1.15773">
        <ele>86</ele>
        <time>2018-08-21T08:05:42Z</time>
      </trkpt>
      <trkpt lat="44.02493" lon="1.15758">
        <ele>86.2</ele>
        <time>2018-08-21T08:05:44Z</time>
      </trkpt>
      <trkpt lat="44.02497" lon="1.15744">
        <ele>86.3</ele>
        <time>2018-08-21T08:05:46Z</time>
      </trkpt>
      <trkpt lat="44.02502" lon="1.1573">
        <ele>86.5</ele>
        <time>2018-08-21T08:05:48Z</time>
      </trkpt>
      <trkpt lat="44.02506" lon="1.15716">
        <ele>86.1</ele>
        <time>2018-08-21T08:05:50Z</time>
      </trkpt>
      <trkpt lat="44.0251" lon="1.15703">
        <ele>86</ele>
        <time>2018-08-21T08:05:52Z</time>
      </trkpt>
      <trkpt lat="44.02514" lon="1.15689">
        <ele>85.6</ele>
        <time>2018-08-21T08:05:54Z</time>
      </trkpt>
      <trkpt lat="44.02519" lon="1.15675">
        <ele>85.5</ele>
        <time>2018-08-21T08:05:56Z</time>
      </trkpt>
      <trkpt lat="44.02523" lon="1.15661">
        <ele>85.5</ele>
        <time>2018-08-21T08:05:58Z</time>
      </trkpt>
      <trkpt lat="44.02527" lon="1.15647">
        <ele>85.4</ele>
        <time>2018-08-21T08:06:01Z</time>
      </trkpt>
      <trkpt lat="44.02532" lon="1.15634">
        <ele>85.8</ele>
        <time>2018-08-21T08:06:02Z</time>
      </trkpt>
      <trkpt lat="44.02535" lon="1.15619">
        <ele>85.7</ele>
        <time>2018-08-21T08:06:04Z</time>
      </trkpt>
      <trkpt lat="44.0254" lon="1.15605">
        <ele>85.9</ele>
        <time>2018-08-21T08:06:06Z</time>
      </trkpt>
      <trkpt lat="44.02543" lon="1.15592">
        <ele>86.1</ele>
        <time>2018-08-21T08:06:08Z</time>
      </trkpt>
      <trkpt lat="44.02548" lon="1.15578">
        <ele>86.3</ele>
        <time>2018-08-21T08:06:10Z</time>
      </trkpt>
      <trkpt lat="44.02552" lon="1.15564">
        <ele>86.5</ele>
        <time>2018-08-21T08:06:12Z</time>
      </trkpt>
      <trkpt lat="44.02557" lon="1.1555">
        <ele>86.5</ele>
        <time>2018-08-21T08:06:14Z</time>
      </trkpt>
      <trkpt lat="44.02561" lon="1.15536">
        <ele>86.3</ele>
        <time>2018-08-21T08:06:16Z</time>
      </trkpt>
      <trkpt lat="44.02564" lon="1.15522">
        <ele>86.2</ele>
        <time>2018-08-21T08:06:18Z</time>
      </trkpt>
      <trkpt lat="44.02568" lon="1.15509">
        <ele>85.9</ele>
        <time>2018-08-21T08:06:20Z</time>
      </trkpt>
      <trkpt lat="44.02573" lon="1.15497">
        <ele>86.3</ele>
        <time>2018-08-21T08:06:22Z</time>
      </trkpt>
      <trkpt lat="44.02577" lon="1.15483">
        <ele>86.3</ele>
        <time>2018-08-21T08:06:24Z</time>
      </trkpt>
      <trkpt lat="44.02582" lon="1.1547">
        <ele>86.3</ele>
        <time>2018-08-21T08:06:26Z</time>
      </trkpt>
      <trkpt lat="44.02587" lon="1.1546">
        <ele>86.5</ele>
        <time>2018-08-21T08:06:29Z</time>
      </trkpt>
      <trkpt lat="44.02592" lon="1.15451">
        <ele>86.6</ele>
        <time>2018-08-21T08:06:31Z</time>
      </trkpt>
      <trkpt lat="44.02597" lon="1.15443">
        <ele>87.5</ele>
        <time>2018-08-21T08:06:36Z</time>
      </trkpt>
      <trkpt lat="44.02599" lon="1.15432">
        <ele>90</ele>
        <time>2018-08-21T08:06:39Z</time>
      </trkpt>
      <trkpt lat="44.02599" lon="1.15422">
        <ele>91.2</ele>
        <time>2018-08-21T08:06:41Z</time>
      </trkpt>
      <trkpt lat="44.02603" lon="1.15407">
        <ele>92</ele>
        <time>2018-08-21T08:06:43Z</time>
      </trkpt>
      <trkpt lat="44.02607" lon="1.1539">
        <ele>92.4</ele>
        <time>2018-08-21T08:06:45Z</time>
      </trkpt>
      <trkpt lat="44.02611" lon="1.15373">
        <ele>92.3</ele>
        <time>2018-08-21T08:06:47Z</time>
      </trkpt>
      <trkpt lat="44.02617" lon="1.15357">
        <ele>92.2</ele>
        <time>2018-08-21T08:06:49Z</time>
      </trkpt>
      <trkpt lat="44.02622" lon="1.15341">
        <ele>92</ele>
        <time>2018-08-21T08:06:51Z</time>
      </trkpt>
      <trkpt lat="44.02626" lon="1.15325">
        <ele>91.6</ele>
        <time>2018-08-21T08:06:53Z</time>
      </trkpt>
      <trkpt lat="44.02631" lon="1.1531">
        <ele>91.8</ele>
        <time>2018-08-21T08:06:55Z</time>
      </trkpt>
      <trkpt lat="44.02635" lon="1.15295">
        <ele>92</ele>
        <time>2018-08-21T08:06:57Z</time>
      </trkpt>
      <trkpt lat="44.0264" lon="1.1528">
        <ele>92</ele>
        <time>2018-08-21T08:06:59Z</time>
      </trkpt>
      <trkpt lat="44.02644" lon="1.15266">
        <ele>91.4</ele>
        <time>2018-08-21T08:07:01Z</time>
      </trkpt>
      <trkpt lat="44.02649" lon="1.15252">
        <ele>91.5</ele>
        <time>2018-08-21T08:07:03Z</time>
      </trkpt>
      <trkpt lat="44.02653" lon="1.15237">
        <ele>91.7</ele>
        <time>2018-08-21T08:07:05Z</time>
      </trkpt>
      <trkpt lat="44.02656" lon="1.15224">
        <ele>91.4</ele>
        <time>2018-08-21T08:07:07Z</time>
      </trkpt>
      <trkpt lat="44.02661" lon="1.1521">
        <ele>91.2</ele>
        <time>2018-08-21T08:07:09Z</time>
      </trkpt>
      <trkpt lat="44.02666" lon="1.15196">
        <ele>91.6</ele>
        <time>2018-08-21T08:07:11Z</time>
      </trkpt>
      <trkpt lat="44.02669" lon="1.15182">
        <ele>91.8</ele>
        <time>2018-08-21T08:07:13Z</time>
      </trkpt>
      <trkpt lat="44.02674" lon="1.15168">
        <ele>91.5</ele>
        <time>2018-08-21T08:07:15Z</time>
      </trkpt>
      <trkpt lat="44.02678" lon="1.15152">
        <ele>91.8</ele>
        <time>2018-08-21T08:07:17Z</time>
      </trkpt>
      <trkpt lat="44.02682" lon="1.15137">
        <ele>91.6</ele>
        <time>2018-08-21T08:07:19Z</time>
      </trkpt>
      <trkpt lat="44.02687" lon="1.15122">
        <ele>91.3</ele>
        <time>2018-08-21T08:07:22Z</time>
      </trkpt>
      <trkpt lat="44.02693" lon="1.15106">
        <ele>91.3</ele>
        <time>2018-08-21T08:07:23Z</time>
      </trkpt>
      <trkpt lat="44.02698" lon="1.15091">
        <ele>91</ele>
        <time>2018-08-21T08:07:25Z</time>
      </trkpt>
      <trkpt lat="44.02702" lon="1.15076">
        <ele>90.6</ele>
        <time>2018-08-21T08:07:27Z</time>
      </trkpt>
      <trkpt lat="44.02708" lon="1.15061">
        <ele>90.3</ele>
        <time>2018-08-21T08:07:29Z</time>
      </trkpt>
      <trkpt lat="44.02712" lon="1.15047">
        <ele>90</ele>
        <time>2018-08-21T08:07:31Z</time>
      </trkpt>
      <trkpt lat="44.02717" lon="1.15032">
        <ele>89.8</ele>
        <time>2018-08-21T08:07:33Z</time>
      </trkpt>
      <trkpt lat="44.02721" lon="1.15016">
        <ele>89.7</ele>
        <time>2018-08-21T08:07:35Z</time>
      </trkpt>
      <trkpt lat="44.02725" lon="1.15002">
        <ele>89.5</ele>
        <time>2018-08-21T08:07:37Z</time>
      </trkpt>
      <trkpt lat="44.0273" lon="1.14987">
        <ele>89.5</ele>
        <time>2018-08-21T08:07:39Z</time>
      </trkpt>
      <trkpt lat="44.02734" lon="1.14973">
        <ele>89.3</ele>
        <time>2018-08-21T08:07:41Z</time>
      </trkpt>
      <trkpt lat="44.02739" lon="1.14959">
        <ele>89.1</ele>
        <time>2018-08-21T08:07:43Z</time>
      </trkpt>
      <trkpt lat="44.02743" lon="1.14945">
        <ele>89.1</ele>
        <time>2018-08-21T08:07:45Z</time>
      </trkpt>
      <trkpt lat="44.02747" lon="1.14931">
        <ele>89.2</ele>
        <time>2018-08-21T08:07:47Z</time>
      </trkpt>
      <trkpt lat="44.02751" lon="1.14917">
        <ele>89.1</ele>
        <time>2018-08-21T08:07:49Z</time>
      </trkpt>
      <trkpt lat="44.02755" lon="1.14903">
        <ele>89.1</ele>
        <time>2018-08-21T08:07:51Z</time>
      </trkpt>
      <trkpt lat="44.0276" lon="1.14889">
        <ele>89.1</ele>
        <time>2018-08-21T08:07:54Z</time>
      </trkpt>
      <trkpt lat="44.02765" lon="1.14876">
        <ele>89</ele>
        <time>2018-08-21T08:07:55Z</time>
      </trkpt>
      <trkpt lat="44.0277" lon="1.14862">
        <ele>89.1</ele>
        <time>2018-08-21T08:07:57Z</time>
      </trkpt>
      <trkpt lat="44.02775" lon="1.14847">
        <ele>88.8</ele>
        <time>2018-08-21T08:07:59Z</time>
      </trkpt>
      <trkpt lat="44.0278" lon="1.14834">
        <ele>88.9</ele>
        <time>2018-08-21T08:08:01Z</time>
      </trkpt>
      <trkpt lat="44.02784" lon="1.1482">
        <ele>89.1</ele>
        <time>2018-08-21T08:08:03Z</time>
      </trkpt>
      <trkpt lat="44.02788" lon="1.14805">
        <ele>89.2</ele>
        <time>2018-08-21T08:08:05Z</time>
      </trkpt>
      <trkpt lat="44.02793" lon="1.14791">
        <ele>88.9</ele>
        <time>2018-08-21T08:08:07Z</time>
      </trkpt>
      <trkpt lat="44.02797" lon="1.14777">
        <ele>88.6</ele>
        <time>2018-08-21T08:08:09Z</time>
      </trkpt>
      <trkpt lat="44.02801" lon="1.14762">
        <ele>88.5</ele>
        <time>2018-08-21T08:08:11Z</time>
      </trkpt>
      <trkpt lat="44.02805" lon="1.14747">
        <ele>88.4</ele>
        <time>2018-08-21T08:08:13Z</time>
      </trkpt>
      <trkpt lat="44.02809" lon="1.14734">
        <ele>88</ele>
        <time>2018-08-21T08:08:15Z</time>
      </trkpt>
      <trkpt lat="44.02814" lon="1.1472">
        <ele>87.9</ele>
        <time>2018-08-21T08:08:17Z</time>
      </trkpt>
      <trkpt lat="44.02818" lon="1.14706">
        <ele>88</ele>
        <time>2018-08-21T08:08:20Z</time>
      </trkpt>
      <trkpt lat="44.02822" lon="1.14693">
        <ele>87.3</ele>
        <time>2018-08-21T08:08:21Z</time>
      </trkpt>
      <trkpt lat="44.02826" lon="1.14678">
        <ele>87.8</ele>
        <time>2018-08-21T08:08:24Z</time>
      </trkpt>
      <trkpt lat="44.0283" lon="1.14664">
        <ele>87.9</ele>
        <time>2018-08-21T08:08:25Z</time>
      </trkpt>
      <trkpt lat="44.02835" lon="1.1465">
        <ele>88</ele>
        <time>2018-08-21T08:08:27Z</time>
      </trkpt>
      <trkpt lat="44.02839" lon="1.14636">
        <ele>87.9</ele>
        <time>2018-08-21T08:08:29Z</time>
      </trkpt>
      <trkpt lat="44.02844" lon="1.14622">
        <ele>87.6</ele>
        <time>2018-08-21T08:08:31Z</time>
      </trkpt>
      <trkpt lat="44.02848" lon="1.14609">
        <ele>88.1</ele>
        <time>2018-08-21T08:08:33Z</time>
      </trkpt>
      <trkpt lat="44.02852" lon="1.14595">
        <ele>88.4</ele>
        <time>2018-08-21T08:08:35Z</time>
      </trkpt>
      <trkpt lat="44.02856" lon="1.14582">
        <ele>88.2</ele>
        <time>2018-08-21T08:08:37Z</time>
      </trkpt>
      <trkpt lat="44.0286" lon="1.14569">
        <ele>88.2</ele>
        <time>2018-08-21T08:08:39Z</time>
      </trkpt>
      <trkpt lat="44.02864" lon="1.14557">
        <ele>88.2</ele>
        <time>2018-08-21T08:08:41Z</time>
      </trkpt>
      <trkpt lat="44.02868" lon="1.14545">
        <ele>88.6</ele>
        <time>2018-08-21T08:08:43Z</time>
      </trkpt>
      <trkpt lat="44.02871" lon="1.14534">
        <ele>88.3</ele>
        <time>2018-08-21T08:08:45Z</time>
      </trkpt>
      <trkpt lat="44.02874" lon="1.14523">
        <ele>88.3</ele>
        <time>2018-08-21T08:08:47Z</time>
      </trkpt>
      <trkpt lat="44.02877" lon="1.14513">
        <ele>88.1</ele>
        <time>2018-08-21T08:08:49Z</time>
      </trkpt>
      <trkpt lat="44.02881" lon="1.14502">
        <ele>87.6</ele>
        <time>2018-08-21T08:08:51Z</time>
      </trkpt>
      <trkpt lat="44.02884" lon="1.1449">
        <ele>87.7</ele>
        <time>2018-08-21T08:08:53Z</time>
      </trkpt>
      <trkpt lat="44.02888" lon="1.14479">
        <ele>87.5</ele>
        <time>2018-08-21T08:08:55Z</time>
      </trkpt>
      <trkpt lat="44.02891" lon="1.14468">
        <ele>87.4</ele>
        <time>2018-08-21T08:08:57Z</time>
      </trkpt>
      <trkpt lat="44.02895" lon="1.14457">
        <ele>87</ele>
        <time>2018-08-21T08:08:59Z</time>
      </trkpt>
      <trkpt lat="44.02899" lon="1.14445">
        <ele>86.6</ele>
        <time>2018-08-21T08:09:01Z</time>
      </trkpt>
      <trkpt lat="44.02904" lon="1.14433">
        <ele>86.5</ele>
        <time>2018-08-21T08:09:03Z</time>
      </trkpt>
      <trkpt lat="44.02907" lon="1.1442">
        <ele>86.3</ele>
        <time>2018-08-21T08:09:05Z</time>
      </trkpt>
      <trkpt lat="44.0291" lon="1.14407">
        <ele>86</ele>
        <time>2018-08-21T08:09:07Z</time>
      </trkpt>
      <trkpt lat="44.02913" lon="1.14392">
        <ele>85.9</ele>
        <time>2018-08-21T08:09:09Z</time>
      </trkpt>
      <trkpt lat="44.02916" lon="1.1438">
        <ele>85.6</ele>
        <time>2018-08-21T08:09:11Z</time>
      </trkpt>
      <trkpt lat="44.0292" lon="1.14368">
        <ele>85.5</ele>
        <time>2018-08-21T08:09:13Z</time>
      </trkpt>
      <trkpt lat="44.02925" lon="1.14357">
        <ele>85.7</ele>
        <time>2018-08-21T08:09:15Z</time>
      </trkpt>
      <trkpt lat="44.02928" lon="1.14344">
        <ele>85.9</ele>
        <time>2018-08-21T08:09:17Z</time>
      </trkpt>
      <trkpt lat="44.02931" lon="1.14331">
        <ele>86.4</ele>
        <time>2018-08-21T08:09:19Z</time>
      </trkpt>
      <trkpt lat="44.02935" lon="1.14317">
        <ele>86.3</ele>
        <time>2018-08-21T08:09:21Z</time>
      </trkpt>
      <trkpt lat="44.02939" lon="1.14304">
        <ele>86.3</ele>
        <time>2018-08-21T08:09:23Z</time>
      </trkpt>
      <trkpt lat="44.02942" lon="1.14289">
        <ele>86.1</ele>
        <time>2018-08-21T08:09:25Z</time>
      </trkpt>
      <trkpt lat="44.02946" lon="1.14276">
        <ele>85.8</ele>
        <time>2018-08-21T08:09:27Z</time>
      </trkpt>
      <trkpt lat="44.0295" lon="1.14261">
        <ele>85.5</ele>
        <time>2018-08-21T08:09:29Z</time>
      </trkpt>
      <trkpt lat="44.02954" lon="1.14248">
        <ele>85.4</ele>
        <time>2018-08-21T08:09:31Z</time>
      </trkpt>
      <trkpt lat="44.02958" lon="1.14234">
        <ele>85.2</ele>
        <time>2018-08-21T08:09:33Z</time>
      </trkpt>
      <trkpt lat="44.02963" lon="1.1422">
        <ele>85.1</ele>
        <time>2018-08-21T08:09:35Z</time>
      </trkpt>
      <trkpt lat="44.02966" lon="1.14206">
        <ele>85.7</ele>
        <time>2018-08-21T08:09:37Z</time>
      </trkpt>
      <trkpt lat="44.02967" lon="1.14193">
        <ele>85.8</ele>
        <time>2018-08-21T08:09:39Z</time>
      </trkpt>
      <trkpt lat="44.02967" lon="1.14182">
        <ele>86</ele>
        <time>2018-08-21T08:09:41Z</time>
      </trkpt>
      <trkpt lat="44.02972" lon="1.14171">
        <ele>86.5</ele>
        <time>2018-08-21T08:09:44Z</time>
      </trkpt>
      <trkpt lat="44.0298" lon="1.14163">
        <ele>86.5</ele>
        <time>2018-08-21T08:09:47Z</time>
      </trkpt>
      <trkpt lat="44.02986" lon="1.14151">
        <ele>86.6</ele>
        <time>2018-08-21T08:09:50Z</time>
      </trkpt>
      <trkpt lat="44.02989" lon="1.14141">
        <ele>86.5</ele>
        <time>2018-08-21T08:09:52Z</time>
      </trkpt>
      <trkpt lat="44.02993" lon="1.14129">
        <ele>86.6</ele>
        <time>2018-08-21T08:09:54Z</time>
      </trkpt>
      <trkpt lat="44.02998" lon="1.14117">
        <ele>86.7</ele>
        <time>2018-08-21T08:09:56Z</time>
      </trkpt>
      <trkpt lat="44.03002" lon="1.14104">
        <ele>86.9</ele>
        <time>2018-08-21T08:09:58Z</time>
      </trkpt>
      <trkpt lat="44.03007" lon="1.14091">
        <ele>87.8</ele>
        <time>2018-08-21T08:10:00Z</time>
      </trkpt>
      <trkpt lat="44.03012" lon="1.14077">
        <ele>87.8</ele>
        <time>2018-08-21T08:10:02Z</time>
      </trkpt>
      <trkpt lat="44.03016" lon="1.14063">
        <ele>87.8</ele>
        <time>2018-08-21T08:10:04Z</time>
      </trkpt>
      <trkpt lat="44.03019" lon="1.1405">
        <ele>88.4</ele>
        <time>2018-08-21T08:10:06Z</time>
      </trkpt>
      <trkpt lat="44.03023" lon="1.14037">
        <ele>88.2</ele>
        <time>2018-08-21T08:10:08Z</time>
      </trkpt>
      <trkpt lat="44.03027" lon="1.14024">
        <ele>88.1</ele>
        <time>2018-08-21T08:10:10Z</time>
      </trkpt>
      <trkpt lat="44.03032" lon="1.14011">
        <ele>88.4</ele>
        <time>2018-08-21T08:10:12Z</time>
      </trkpt>
      <trkpt lat="44.03035" lon="1.13998">
        <ele>88.5</ele>
        <time>2018-08-21T08:10:14Z</time>
      </trkpt>
      <trkpt lat="44.0304" lon="1.13984">
        <ele>89</ele>
        <time>2018-08-21T08:10:16Z</time>
      </trkpt>
      <trkpt lat="44.03043" lon="1.13971">
        <ele>88.4</ele>
        <time>2018-08-21T08:10:18Z</time>
      </trkpt>
      <trkpt lat="44.03048" lon="1.13958">
        <ele>88</ele>
        <time>2018-08-21T08:10:20Z</time>
      </trkpt>
      <trkpt lat="44.03052" lon="1.13944">
        <ele>87.7</ele>
        <time>2018-08-21T08:10:22Z</time>
      </trkpt>
      <trkpt lat="44.03056" lon="1.13931">
        <ele>87.4</ele>
        <time>2018-08-21T08:10:24Z</time>
      </trkpt>
      <trkpt lat="44.03061" lon="1.13917">
        <ele>87.4</ele>
        <time>2018-08-21T08:10:26Z</time>
      </trkpt>
      <trkpt lat="44.03065" lon="1.13903">
        <ele>87.1</ele>
        <time>2018-08-21T08:10:28Z</time>
      </trkpt>
      <trkpt lat="44.03069" lon="1.13888">
        <ele>86.8</ele>
        <time>2018-08-21T08:10:30Z</time>
      </trkpt>
      <trkpt lat="44.03073" lon="1.13874">
        <ele>87.3</ele>
        <time>2018-08-21T08:10:32Z</time>
      </trkpt>
      <trkpt lat="44.03077" lon="1.1386">
        <ele>87.4</ele>
        <time>2018-08-21T08:10:34Z</time>
      </trkpt>
      <trkpt lat="44.03081" lon="1.13847">
        <ele>87.5</ele>
        <time>2018-08-21T08:10:36Z</time>
      </trkpt>
      <trkpt lat="44.03086" lon="1.13833">
        <ele>87.3</ele>
        <time>2018-08-21T08:10:38Z</time>
      </trkpt>
      <trkpt lat="44.0309" lon="1.13819">
        <ele>87.6</ele>
        <time>2018-08-21T08:10:40Z</time>
      </trkpt>
      <trkpt lat="44.03095" lon="1.13805">
        <ele>87.1</ele>
        <time>2018-08-21T08:10:42Z</time>
      </trkpt>
      <trkpt lat="44.03099" lon="1.13791">
        <ele>87</ele>
        <time>2018-08-21T08:10:44Z</time>
      </trkpt>
      <trkpt lat="44.03104" lon="1.13777">
        <ele>87.1</ele>
        <time>2018-08-21T08:10:47Z</time>
      </trkpt>
      <trkpt lat="44.03108" lon="1.13764">
        <ele>87.1</ele>
        <time>2018-08-21T08:10:48Z</time>
      </trkpt>
      <trkpt lat="44.03112" lon="1.13751">
        <ele>87</ele>
        <time>2018-08-21T08:10:50Z</time>
      </trkpt>
      <trkpt lat="44.03116" lon="1.13737">
        <ele>87.4</ele>
        <time>2018-08-21T08:10:52Z</time>
      </trkpt>
      <trkpt lat="44.03121" lon="1.13723">
        <ele>86.9</ele>
        <time>2018-08-21T08:10:54Z</time>
      </trkpt>
      <trkpt lat="44.03125" lon="1.1371">
        <ele>86.9</ele>
        <time>2018-08-21T08:10:56Z</time>
      </trkpt>
      <trkpt lat="44.03129" lon="1.13697">
        <ele>86.7</ele>
        <time>2018-08-21T08:10:58Z</time>
      </trkpt>
      <trkpt lat="44.03133" lon="1.13684">
        <ele>86.4</ele>
        <time>2018-08-21T08:11:00Z</time>
      </trkpt>
      <trkpt lat="44.03137" lon="1.1367">
        <ele>85.8</ele>
        <time>2018-08-21T08:11:02Z</time>
      </trkpt>
      <trkpt lat="44.03142" lon="1.13656">
        <ele>85.7</ele>
        <time>2018-08-21T08:11:04Z</time>
      </trkpt>
      <trkpt lat="44.03146" lon="1.13642">
        <ele>86</ele>
        <time>2018-08-21T08:11:07Z</time>
      </trkpt>
      <trkpt lat="44.0315" lon="1.13627">
        <ele>85.7</ele>
        <time>2018-08-21T08:11:08Z</time>
      </trkpt>
      <trkpt lat="44.03155" lon="1.13613">
        <ele>85.9</ele>
        <time>2018-08-21T08:11:10Z</time>
      </trkpt>
      <trkpt lat="44.03158" lon="1.13598">
        <ele>85.9</ele>
        <time>2018-08-21T08:11:12Z</time>
      </trkpt>
      <trkpt lat="44.03163" lon="1.13584">
        <ele>86.4</ele>
        <time>2018-08-21T08:11:15Z</time>
      </trkpt>
      <trkpt lat="44.03167" lon="1.13571">
        <ele>86.7</ele>
        <time>2018-08-21T08:11:16Z</time>
      </trkpt>
      <trkpt lat="44.03171" lon="1.13557">
        <ele>87.1</ele>
        <time>2018-08-21T08:11:18Z</time>
      </trkpt>
      <trkpt lat="44.03176" lon="1.13544">
        <ele>87.4</ele>
        <time>2018-08-21T08:11:20Z</time>
      </trkpt>
      <trkpt lat="44.0318" lon="1.1353">
        <ele>87.4</ele>
        <time>2018-08-21T08:11:22Z</time>
      </trkpt>
      <trkpt lat="44.03185" lon="1.13515">
        <ele>87.4</ele>
        <time>2018-08-21T08:11:24Z</time>
      </trkpt>
      <trkpt lat="44.03189" lon="1.13502">
        <ele>87.4</ele>
        <time>2018-08-21T08:11:26Z</time>
      </trkpt>
      <trkpt lat="44.03193" lon="1.13487">
        <ele>87.4</ele>
        <time>2018-08-21T08:11:28Z</time>
      </trkpt>
      <trkpt lat="44.03197" lon="1.13472">
        <ele>87.3</ele>
        <time>2018-08-21T08:11:30Z</time>
      </trkpt>
      <trkpt lat="44.03202" lon="1.13457">
        <ele>86.1</ele>
        <time>2018-08-21T08:11:32Z</time>
      </trkpt>
      <trkpt lat="44.03206" lon="1.13444">
        <ele>85.3</ele>
        <time>2018-08-21T08:11:34Z</time>
      </trkpt>
      <trkpt lat="44.0321" lon="1.1343">
        <ele>85.3</ele>
        <time>2018-08-21T08:11:36Z</time>
      </trkpt>
      <trkpt lat="44.03215" lon="1.13416">
        <ele>84.4</ele>
        <time>2018-08-21T08:11:38Z</time>
      </trkpt>
      <trkpt lat="44.03218" lon="1.13402">
        <ele>83.7</ele>
        <time>2018-08-21T08:11:40Z</time>
      </trkpt>
      <trkpt lat="44.03223" lon="1.13388">
        <ele>84.4</ele>
        <time>2018-08-21T08:11:43Z</time>
      </trkpt>
      <trkpt lat="44.03227" lon="1.13372">
        <ele>84.4</ele>
        <time>2018-08-21T08:11:44Z</time>
      </trkpt>
      <trkpt lat="44.03231" lon="1.13358">
        <ele>84.3</ele>
        <time>2018-08-21T08:11:46Z</time>
      </trkpt>
      <trkpt lat="44.03236" lon="1.13344">
        <ele>84.3</ele>
        <time>2018-08-21T08:11:48Z</time>
      </trkpt>
      <trkpt lat="44.0324" lon="1.13329">
        <ele>84.4</ele>
        <time>2018-08-21T08:11:50Z</time>
      </trkpt>
      <trkpt lat="44.03245" lon="1.13315">
        <ele>84.5</ele>
        <time>2018-08-21T08:11:52Z</time>
      </trkpt>
      <trkpt lat="44.0325" lon="1.13301">
        <ele>85.1</ele>
        <time>2018-08-21T08:11:54Z</time>
      </trkpt>
      <trkpt lat="44.03254" lon="1.13287">
        <ele>84.9</ele>
        <time>2018-08-21T08:11:56Z</time>
      </trkpt>
      <trkpt lat="44.03259" lon="1.13273">
        <ele>85.1</ele>
        <time>2018-08-21T08:11:58Z</time>
      </trkpt>
      <trkpt lat="44.03263" lon="1.13259">
        <ele>85.5</ele>
        <time>2018-08-21T08:12:00Z</time>
      </trkpt>
      <trkpt lat="44.03268" lon="1.13245">
        <ele>85.5</ele>
        <time>2018-08-21T08:12:02Z</time>
      </trkpt>
      <trkpt lat="44.03272" lon="1.13232">
        <ele>85.9</ele>
        <time>2018-08-21T08:12:04Z</time>
      </trkpt>
      <trkpt lat="44.03277" lon="1.13219">
        <ele>86</ele>
        <time>2018-08-21T08:12:06Z</time>
      </trkpt>
      <trkpt lat="44.03281" lon="1.13205">
        <ele>85.9</ele>
        <time>2018-08-21T08:12:08Z</time>
      </trkpt>
      <trkpt lat="44.03284" lon="1.13192">
        <ele>85.8</ele>
        <time>2018-08-21T08:12:10Z</time>
      </trkpt>
      <trkpt lat="44.03289" lon="1.13178">
        <ele>86.2</ele>
        <time>2018-08-21T08:12:12Z</time>
      </trkpt>
      <trkpt lat="44.03292" lon="1.13163">
        <ele>86.6</ele>
        <time>2018-08-21T08:12:14Z</time>
      </trkpt>
      <trkpt lat="44.03297" lon="1.13149">
        <ele>87.1</ele>
        <time>2018-08-21T08:12:16Z</time>
      </trkpt>
      <trkpt lat="44.03301" lon="1.13136">
        <ele>87</ele>
        <time>2018-08-21T08:12:18Z</time>
      </trkpt>
      <trkpt lat="44.03306" lon="1.13122">
        <ele>86.6</ele>
        <time>2018-08-21T08:12:20Z</time>
      </trkpt>
      <trkpt lat="44.03311" lon="1.13108">
        <ele>86.3</ele>
        <time>2018-08-21T08:12:22Z</time>
      </trkpt>
      <trkpt lat="44.03315" lon="1.13093">
        <ele>86.8</ele>
        <time>2018-08-21T08:12:24Z</time>
      </trkpt>
      <trkpt lat="44.03319" lon="1.13079">
        <ele>86.9</ele>
        <time>2018-08-21T08:12:26Z</time>
      </trkpt>
      <trkpt lat="44.03323" lon="1.13065">
        <ele>86.6</ele>
        <time>2018-08-21T08:12:28Z</time>
      </trkpt>
      <trkpt lat="44.03328" lon="1.13052">
        <ele>86.5</ele>
        <time>2018-08-21T08:12:30Z</time>
      </trkpt>
      <trkpt lat="44.03331" lon="1.13037">
        <ele>87</ele>
        <time>2018-08-21T08:12:32Z</time>
      </trkpt>
      <trkpt lat="44.03336" lon="1.13024">
        <ele>86.5</ele>
        <time>2018-08-21T08:12:34Z</time>
      </trkpt>
      <trkpt lat="44.0334" lon="1.13009">
        <ele>86.4</ele>
        <time>2018-08-21T08:12:36Z</time>
      </trkpt>
      <trkpt lat="44.03345" lon="1.12995">
        <ele>86.5</ele>
        <time>2018-08-21T08:12:38Z</time>
      </trkpt>
      <trkpt lat="44.0335" lon="1.1298">
        <ele>87.1</ele>
        <time>2018-08-21T08:12:40Z</time>
      </trkpt>
      <trkpt lat="44.03354" lon="1.12965">
        <ele>87.1</ele>
        <time>2018-08-21T08:12:42Z</time>
      </trkpt>
      <trkpt lat="44.03358" lon="1.12951">
        <ele>87.2</ele>
        <time>2018-08-21T08:12:44Z</time>
      </trkpt>
      <trkpt lat="44.03363" lon="1.12936">
        <ele>87.6</ele>
        <time>2018-08-21T08:12:46Z</time>
      </trkpt>
      <trkpt lat="44.03368" lon="1.12922">
        <ele>88</ele>
        <time>2018-08-21T08:12:48Z</time>
      </trkpt>
      <trkpt lat="44.03372" lon="1.12907">
        <ele>88.2</ele>
        <time>2018-08-21T08:12:50Z</time>
      </trkpt>
      <trkpt lat="44.03377" lon="1.12892">
        <ele>88.2</ele>
        <time>2018-08-21T08:12:52Z</time>
      </trkpt>
      <trkpt lat="44.03381" lon="1.12878">
        <ele>88.3</ele>
        <time>2018-08-21T08:12:54Z</time>
      </trkpt>
      <trkpt lat="44.03385" lon="1.12863">
        <ele>88.3</ele>
        <time>2018-08-21T08:12:56Z</time>
      </trkpt>
      <trkpt lat="44.0339" lon="1.12847">
        <ele>88.5</ele>
        <time>2018-08-21T08:12:58Z</time>
      </trkpt>
      <trkpt lat="44.03394" lon="1.12833">
        <ele>88.5</ele>
        <time>2018-08-21T08:13:00Z</time>
      </trkpt>
      <trkpt lat="44.03399" lon="1.12819">
        <ele>88.3</ele>
        <time>2018-08-21T08:13:02Z</time>
      </trkpt>
      <trkpt lat="44.03403" lon="1.12804">
        <ele>88.3</ele>
        <time>2018-08-21T08:13:04Z</time>
      </trkpt>
      <trkpt lat="44.03408" lon="1.1279">
        <ele>88.4</ele>
        <time>2018-08-21T08:13:06Z</time>
      </trkpt>
      <trkpt lat="44.03412" lon="1.12776">
        <ele>88.3</ele>
        <time>2018-08-21T08:13:08Z</time>
      </trkpt>
      <trkpt lat="44.03416" lon="1.12762">
        <ele>88</ele>
        <time>2018-08-21T08:13:10Z</time>
      </trkpt>
      <trkpt lat="44.0342" lon="1.12748">
        <ele>87.8</ele>
        <time>2018-08-21T08:13:12Z</time>
      </trkpt>
      <trkpt lat="44.03424" lon="1.12734">
        <ele>87.8</ele>
        <time>2018-08-21T08:13:14Z</time>
      </trkpt>
      <trkpt lat="44.03429" lon="1.12719">
        <ele>87.6</ele>
        <time>2018-08-21T08:13:16Z</time>
      </trkpt>
      <trkpt lat="44.03433" lon="1.12704">
        <ele>87.2</ele>
        <time>2018-08-21T08:13:18Z</time>
      </trkpt>
      <trkpt lat="44.03437" lon="1.1269">
        <ele>87.5</ele>
        <time>2018-08-21T08:13:20Z</time>
      </trkpt>
      <trkpt lat="44.03442" lon="1.12676">
        <ele>87.1</ele>
        <time>2018-08-21T08:13:22Z</time>
      </trkpt>
      <trkpt lat="44.03446" lon="1.12662">
        <ele>87</ele>
        <time>2018-08-21T08:13:24Z</time>
      </trkpt>
      <trkpt lat="44.0345" lon="1.12648">
        <ele>86.4</ele>
        <time>2018-08-21T08:13:27Z</time>
      </trkpt>
      <trkpt lat="44.03455" lon="1.12635">
        <ele>86.6</ele>
        <time>2018-08-21T08:13:28Z</time>
      </trkpt>
      <trkpt lat="44.03459" lon="1.1262">
        <ele>86.6</ele>
        <time>2018-08-21T08:13:30Z</time>
      </trkpt>
      <trkpt lat="44.03463" lon="1.12606">
        <ele>86.3</ele>
        <time>2018-08-21T08:13:32Z</time>
      </trkpt>
      <trkpt lat="44.03468" lon="1.12592">
        <ele>86.7</ele>
        <time>2018-08-21T08:13:34Z</time>
      </trkpt>
      <trkpt lat="44.03472" lon="1.12577">
        <ele>87</ele>
        <time>2018-08-21T08:13:36Z</time>
      </trkpt>
      <trkpt lat="44.03477" lon="1.12562">
        <ele>86.7</ele>
        <time>2018-08-21T08:13:38Z</time>
      </trkpt>
      <trkpt lat="44.03481" lon="1.12548">
        <ele>86.5</ele>
        <time>2018-08-21T08:13:40Z</time>
      </trkpt>
      <trkpt lat="44.03485" lon="1.12533">
        <ele>85.7</ele>
        <time>2018-08-21T08:13:42Z</time>
      </trkpt>
      <trkpt lat="44.03489" lon="1.12519">
        <ele>85</ele>
        <time>2018-08-21T08:13:44Z</time>
      </trkpt>
      <trkpt lat="44.03494" lon="1.12504">
        <ele>85.1</ele>
        <time>2018-08-21T08:13:46Z</time>
      </trkpt>
      <trkpt lat="44.03499" lon="1.12488">
        <ele>85.2</ele>
        <time>2018-08-21T08:13:48Z</time>
      </trkpt>
      <trkpt lat="44.03504" lon="1.12474">
        <ele>85.3</ele>
        <time>2018-08-21T08:13:50Z</time>
      </trkpt>
      <trkpt lat="44.03509" lon="1.12459">
        <ele>85</ele>
        <time>2018-08-21T08:13:52Z</time>
      </trkpt>
      <trkpt lat="44.03513" lon="1.12444">
        <ele>85.2</ele>
        <time>2018-08-21T08:13:54Z</time>
      </trkpt>
      <trkpt lat="44.03518" lon="1.12429">
        <ele>85.4</ele>
        <time>2018-08-21T08:13:56Z</time>
      </trkpt>
      <trkpt lat="44.03522" lon="1.12414">
        <ele>85.3</ele>
        <time>2018-08-21T08:13:58Z</time>
      </trkpt>
      <trkpt lat="44.03527" lon="1.12399">
        <ele>85.4</ele>
        <time>2018-08-21T08:14:00Z</time>
      </trkpt>
      <trkpt lat="44.03532" lon="1.12384">
        <ele>85.7</ele>
        <time>2018-08-21T08:14:02Z</time>
      </trkpt>
      <trkpt lat="44.03537" lon="1.12369">
        <ele>86</ele>
        <time>2018-08-21T08:14:04Z</time>
      </trkpt>
      <trkpt lat="44.03541" lon="1.12355">
        <ele>85.9</ele>
        <time>2018-08-21T08:14:06Z</time>
      </trkpt>
      <trkpt lat="44.03546" lon="1.1234">
        <ele>86.1</ele>
        <time>2018-08-21T08:14:08Z</time>
      </trkpt>
      <trkpt lat="44.03549" lon="1.12325">
        <ele>86.3</ele>
        <time>2018-08-21T08:14:10Z</time>
      </trkpt>
      <trkpt lat="44.03553" lon="1.1231">
        <ele>86.5</ele>
        <time>2018-08-21T08:14:12Z</time>
      </trkpt>
      <trkpt lat="44.03556" lon="1.12297">
        <ele>87</ele>
        <time>2018-08-21T08:14:14Z</time>
      </trkpt>
      <trkpt lat="44.03559" lon="1.12286">
        <ele>87.2</ele>
        <time>2018-08-21T08:14:16Z</time>
      </trkpt>
      <trkpt lat="44.03563" lon="1.12275">
        <ele>88</ele>
        <time>2018-08-21T08:14:18Z</time>
      </trkpt>
      <trkpt lat="44.03568" lon="1.12263">
        <ele>87.9</ele>
        <time>2018-08-21T08:14:20Z</time>
      </trkpt>
      <trkpt lat="44.03572" lon="1.1225">
        <ele>88.1</ele>
        <time>2018-08-21T08:14:22Z</time>
      </trkpt>
      <trkpt lat="44.03577" lon="1.12235">
        <ele>87.5</ele>
        <time>2018-08-21T08:14:24Z</time>
      </trkpt>
      <trkpt lat="44.03582" lon="1.12219">
        <ele>87</ele>
        <time>2018-08-21T08:14:26Z</time>
      </trkpt>
      <trkpt lat="44.03587" lon="1.12202">
        <ele>86.7</ele>
        <time>2018-08-21T08:14:28Z</time>
      </trkpt>
      <trkpt lat="44.03592" lon="1.12187">
        <ele>85.8</ele>
        <time>2018-08-21T08:14:30Z</time>
      </trkpt>
      <trkpt lat="44.03597" lon="1.12173">
        <ele>86.6</ele>
        <time>2018-08-21T08:14:32Z</time>
      </trkpt>
      <trkpt lat="44.03602" lon="1.12158">
        <ele>86.2</ele>
        <time>2018-08-21T08:14:34Z</time>
      </trkpt>
      <trkpt lat="44.03607" lon="1.12144">
        <ele>85.7</ele>
        <time>2018-08-21T08:14:36Z</time>
      </trkpt>
      <trkpt lat="44.03611" lon="1.12129">
        <ele>85.2</ele>
        <time>2018-08-21T08:14:38Z</time>
      </trkpt>
      <trkpt lat="44.03616" lon="1.12114">
        <ele>85.2</ele>
        <time>2018-08-21T08:14:40Z</time>
      </trkpt>
      <trkpt lat="44.0362" lon="1.12098">
        <ele>85</ele>
        <time>2018-08-21T08:14:42Z</time>
      </trkpt>
      <trkpt lat="44.03624" lon="1.12084">
        <ele>84.9</ele>
        <time>2018-08-21T08:14:44Z</time>
      </trkpt>
      <trkpt lat="44.03629" lon="1.12069">
        <ele>84.9</ele>
        <time>2018-08-21T08:14:46Z</time>
      </trkpt>
      <trkpt lat="44.03633" lon="1.12054">
        <ele>84.8</ele>
        <time>2018-08-21T08:14:48Z</time>
      </trkpt>
      <trkpt lat="44.03638" lon="1.12039">
        <ele>84.8</ele>
        <time>2018-08-21T08:14:50Z</time>
      </trkpt>
      <trkpt lat="44.03642" lon="1.12025">
        <ele>84.8</ele>
        <time>2018-08-21T08:14:52Z</time>
      </trkpt>
      <trkpt lat="44.03647" lon="1.12011">
        <ele>84.7</ele>
        <time>2018-08-21T08:14:54Z</time>
      </trkpt>
      <trkpt lat="44.03651" lon="1.11996">
        <ele>84.9</ele>
        <time>2018-08-21T08:14:56Z</time>
      </trkpt>
      <trkpt lat="44.03656" lon="1.11982">
        <ele>84.7</ele>
        <time>2018-08-21T08:14:58Z</time>
      </trkpt>
      <trkpt lat="44.0366" lon="1.11968">
        <ele>84.7</ele>
        <time>2018-08-21T08:15:00Z</time>
      </trkpt>
      <trkpt lat="44.03664" lon="1.11954">
        <ele>84.6</ele>
        <time>2018-08-21T08:15:02Z</time>
      </trkpt>
      <trkpt lat="44.03668" lon="1.11941">
        <ele>84.6</ele>
        <time>2018-08-21T08:15:04Z</time>
      </trkpt>
      <trkpt lat="44.03672" lon="1.11928">
        <ele>84.7</ele>
        <time>2018-08-21T08:15:06Z</time>
      </trkpt>
      <trkpt lat="44.03677" lon="1.11915">
        <ele>83.7</ele>
        <time>2018-08-21T08:15:08Z</time>
      </trkpt>
      <trkpt lat="44.03681" lon="1.11902">
        <ele>83.8</ele>
        <time>2018-08-21T08:15:10Z</time>
      </trkpt>
      <trkpt lat="44.03684" lon="1.11889">
        <ele>83.7</ele>
        <time>2018-08-21T08:15:12Z</time>
      </trkpt>
      <trkpt lat="44.03689" lon="1.11876">
        <ele>83.6</ele>
        <time>2018-08-21T08:15:14Z</time>
      </trkpt>
      <trkpt lat="44.03693" lon="1.11862">
        <ele>83.5</ele>
        <time>2018-08-21T08:15:17Z</time>
      </trkpt>
      <trkpt lat="44.03698" lon="1.11849">
        <ele>83.8</ele>
        <time>2018-08-21T08:15:18Z</time>
      </trkpt>
      <trkpt lat="44.03702" lon="1.11836">
        <ele>84</ele>
        <time>2018-08-21T08:15:20Z</time>
      </trkpt>
      <trkpt lat="44.03705" lon="1.11822">
        <ele>84</ele>
        <time>2018-08-21T08:15:22Z</time>
      </trkpt>
      <trkpt lat="44.03709" lon="1.11809">
        <ele>84</ele>
        <time>2018-08-21T08:15:24Z</time>
      </trkpt>
      <trkpt lat="44.03712" lon="1.11796">
        <ele>84.2</ele>
        <time>2018-08-21T08:15:26Z</time>
      </trkpt>
      <trkpt lat="44.03716" lon="1.11783">
        <ele>84.5</ele>
        <time>2018-08-21T08:15:28Z</time>
      </trkpt>
      <trkpt lat="44.0372" lon="1.1177">
        <ele>84.4</ele>
        <time>2018-08-21T08:15:30Z</time>
      </trkpt>
      <trkpt lat="44.03723" lon="1.11757">
        <ele>84.8</ele>
        <time>2018-08-21T08:15:32Z</time>
      </trkpt>
      <trkpt lat="44.03726" lon="1.11743">
        <ele>85.4</ele>
        <time>2018-08-21T08:15:34Z</time>
      </trkpt>
      <trkpt lat="44.0373" lon="1.1173">
        <ele>85</ele>
        <time>2018-08-21T08:15:36Z</time>
      </trkpt>
      <trkpt lat="44.03734" lon="1.11717">
        <ele>84.7</ele>
        <time>2018-08-21T08:15:38Z</time>
      </trkpt>
      <trkpt lat="44.03738" lon="1.11704">
        <ele>84.9</ele>
        <time>2018-08-21T08:15:40Z</time>
      </trkpt>
      <trkpt lat="44.03741" lon="1.11691">
        <ele>85.3</ele>
        <time>2018-08-21T08:15:42Z</time>
      </trkpt>
      <trkpt lat="44.03746" lon="1.11677">
        <ele>85.4</ele>
        <time>2018-08-21T08:15:45Z</time>
      </trkpt>
      <trkpt lat="44.0375" lon="1.11665">
        <ele>85.1</ele>
        <time>2018-08-21T08:15:46Z</time>
      </trkpt>
      <trkpt lat="44.03755" lon="1.11651">
        <ele>85</ele>
        <time>2018-08-21T08:15:48Z</time>
      </trkpt>
      <trkpt lat="44.03759" lon="1.11637">
        <ele>85.1</ele>
        <time>2018-08-21T08:15:50Z</time>
      </trkpt>
      <trkpt lat="44.03765" lon="1.11623">
        <ele>85.1</ele>
        <time>2018-08-21T08:15:52Z</time>
      </trkpt>
      <trkpt lat="44.0377" lon="1.1161">
        <ele>86.2</ele>
        <time>2018-08-21T08:15:54Z</time>
      </trkpt>
      <trkpt lat="44.03775" lon="1.11598">
        <ele>87.1</ele>
        <time>2018-08-21T08:15:56Z</time>
      </trkpt>
      <trkpt lat="44.03781" lon="1.11587">
        <ele>86.7</ele>
        <time>2018-08-21T08:15:58Z</time>
      </trkpt>
      <trkpt lat="44.03786" lon="1.11576">
        <ele>86.5</ele>
        <time>2018-08-21T08:16:01Z</time>
      </trkpt>
      <trkpt lat="44.03791" lon="1.11566">
        <ele>86.3</ele>
        <time>2018-08-21T08:16:02Z</time>
      </trkpt>
      <trkpt lat="44.03795" lon="1.11557">
        <ele>85.9</ele>
        <time>2018-08-21T08:16:04Z</time>
      </trkpt>
      <trkpt lat="44.038" lon="1.11546">
        <ele>86.8</ele>
        <time>2018-08-21T08:16:07Z</time>
      </trkpt>
      <trkpt lat="44.03808" lon="1.11535">
        <ele>86.6</ele>
        <time>2018-08-21T08:16:10Z</time>
      </trkpt>
      <trkpt lat="44.03814" lon="1.11528">
        <ele>86.1</ele>
        <time>2018-08-21T08:16:12Z</time>
      </trkpt>
      <trkpt lat="44.0382" lon="1.1152">
        <ele>86.2</ele>
        <time>2018-08-21T08:16:14Z</time>
      </trkpt>
      <trkpt lat="44.03827" lon="1.11512">
        <ele>86.2</ele>
        <time>2018-08-21T08:16:16Z</time>
      </trkpt>
      <trkpt lat="44.03836" lon="1.11508">
        <ele>86</ele>
        <time>2018-08-21T08:16:19Z</time>
      </trkpt>
      <trkpt lat="44.03845" lon="1.11507">
        <ele>85.5</ele>
        <time>2018-08-21T08:16:22Z</time>
      </trkpt>
      <trkpt lat="44.03853" lon="1.11497">
        <ele>85.7</ele>
        <time>2018-08-21T08:16:25Z</time>
      </trkpt>
      <trkpt lat="44.03856" lon="1.11487">
        <ele>86.1</ele>
        <time>2018-08-21T08:16:27Z</time>
      </trkpt>
      <trkpt lat="44.03858" lon="1.11477">
        <ele>86.5</ele>
        <time>2018-08-21T08:16:29Z</time>
      </trkpt>
      <trkpt lat="44.03861" lon="1.11463">
        <ele>86.8</ele>
        <time>2018-08-21T08:16:32Z</time>
      </trkpt>
      <trkpt lat="44.03864" lon="1.11452">
        <ele>86.7</ele>
        <time>2018-08-21T08:16:35Z</time>
      </trkpt>
      <trkpt lat="44.03868" lon="1.11443">
        <ele>86.5</ele>
        <time>2018-08-21T08:16:39Z</time>
      </trkpt>
      <trkpt lat="44.03867" lon="1.11442">
        <ele>86.3</ele>
        <time>2018-08-21T08:16:47Z</time>
      </trkpt>
      <trkpt lat="44.03873" lon="1.11434">
        <ele>88.2</ele>
        <time>2018-08-21T08:16:59Z</time>
      </trkpt>
      <trkpt lat="44.03881" lon="1.11429">
        <ele>88.7</ele>
        <time>2018-08-21T08:17:03Z</time>
      </trkpt>
      <trkpt lat="44.03887" lon="1.11423">
        <ele>89.4</ele>
        <time>2018-08-21T08:17:06Z</time>
      </trkpt>
      <trkpt lat="44.03893" lon="1.11414">
        <ele>89.4</ele>
        <time>2018-08-21T08:17:09Z</time>
      </trkpt>
      <trkpt lat="44.03899" lon="1.11407">
        <ele>89.1</ele>
        <time>2018-08-21T08:17:11Z</time>
      </trkpt>
      <trkpt lat="44.03906" lon="1.11397">
        <ele>89.3</ele>
        <time>2018-08-21T08:17:14Z</time>
      </trkpt>
      <trkpt lat="44.03912" lon="1.11391">
        <ele>89.1</ele>
        <time>2018-08-21T08:17:16Z</time>
      </trkpt>
      <trkpt lat="44.03919" lon="1.1138">
        <ele>89.5</ele>
        <time>2018-08-21T08:17:19Z</time>
      </trkpt>
      <trkpt lat="44.03925" lon="1.11373">
        <ele>89.3</ele>
        <time>2018-08-21T08:17:21Z</time>
      </trkpt>
      <trkpt lat="44.03933" lon="1.11365">
        <ele>88.3</ele>
        <time>2018-08-21T08:17:24Z</time>
      </trkpt>
      <trkpt lat="44.03941" lon="1.11356">
        <ele>87.7</ele>
        <time>2018-08-21T08:17:27Z</time>
      </trkpt>
      <trkpt lat="44.03948" lon="1.11346">
        <ele>87.8</ele>
        <time>2018-08-21T08:17:30Z</time>
      </trkpt>
      <trkpt lat="44.03955" lon="1.11338">
        <ele>87.5</ele>
        <time>2018-08-21T08:17:33Z</time>
      </trkpt>
      <trkpt lat="44.03962" lon="1.1133">
        <ele>88</ele>
        <time>2018-08-21T08:17:36Z</time>
      </trkpt>
      <trkpt lat="44.03966" lon="1.11321">
        <ele>88.7</ele>
        <time>2018-08-21T08:17:40Z</time>
      </trkpt>
      <trkpt lat="44.03973" lon="1.11313">
        <ele>88.2</ele>
        <time>2018-08-21T08:17:43Z</time>
      </trkpt>
      <trkpt lat="44.03979" lon="1.11306">
        <ele>87.1</ele>
        <time>2018-08-21T08:17:47Z</time>
      </trkpt>
      <trkpt lat="44.0398" lon="1.11304">
        <ele>86.6</ele>
        <time>2018-08-21T08:17:55Z</time>
      </trkpt>
      <trkpt lat="44.03982" lon="1.11304">
        <ele>86.6</ele>
        <time>2018-08-21T08:18:11Z</time>
      </trkpt>
      <trkpt lat="44.03983" lon="1.11304">
        <ele>86.5</ele>
        <time>2018-08-21T08:18:18Z</time>
      </trkpt>
      <trkpt lat="44.03991" lon="1.11298">
        <ele>86.2</ele>
        <time>2018-08-21T08:18:22Z</time>
      </trkpt>
      <trkpt lat="44.03998" lon="1.1129">
        <ele>85.8</ele>
        <time>2018-08-21T08:18:25Z</time>
      </trkpt>
      <trkpt lat="44.04005" lon="1.11279">
        <ele>85.6</ele>
        <time>2018-08-21T08:18:28Z</time>
      </trkpt>
      <trkpt lat="44.04011" lon="1.11272">
        <ele>85.2</ele>
        <time>2018-08-21T08:18:30Z</time>
      </trkpt>
      <trkpt lat="44.04017" lon="1.11265">
        <ele>85</ele>
        <time>2018-08-21T08:18:32Z</time>
      </trkpt>
      <trkpt lat="44.04023" lon="1.11258">
        <ele>84.9</ele>
        <time>2018-08-21T08:18:34Z</time>
      </trkpt>
      <trkpt lat="44.04028" lon="1.11251">
        <ele>84.7</ele>
        <time>2018-08-21T08:18:36Z</time>
      </trkpt>
      <trkpt lat="44.04035" lon="1.11241">
        <ele>84.5</ele>
        <time>2018-08-21T08:18:39Z</time>
      </trkpt>
      <trkpt lat="44.04043" lon="1.11232">
        <ele>84.3</ele>
        <time>2018-08-21T08:18:42Z</time>
      </trkpt>
      <trkpt lat="44.04048" lon="1.11225">
        <ele>84.1</ele>
        <time>2018-08-21T08:18:44Z</time>
      </trkpt>
      <trkpt lat="44.04054" lon="1.11218">
        <ele>83.7</ele>
        <time>2018-08-21T08:18:46Z</time>
      </trkpt>
      <trkpt lat="44.04059" lon="1.1121">
        <ele>83.4</ele>
        <time>2018-08-21T08:18:48Z</time>
      </trkpt>
      <trkpt lat="44.04065" lon="1.11202">
        <ele>83.9</ele>
        <time>2018-08-21T08:18:50Z</time>
      </trkpt>
      <trkpt lat="44.04072" lon="1.11194">
        <ele>83.9</ele>
        <time>2018-08-21T08:18:52Z</time>
      </trkpt>
      <trkpt lat="44.04078" lon="1.11186">
        <ele>83.8</ele>
        <time>2018-08-21T08:18:54Z</time>
      </trkpt>
      <trkpt lat="44.04085" lon="1.11178">
        <ele>84</ele>
        <time>2018-08-21T08:18:56Z</time>
      </trkpt>
      <trkpt lat="44.04091" lon="1.11169">
        <ele>83.4</ele>
        <time>2018-08-21T08:18:58Z</time>
      </trkpt>
      <trkpt lat="44.04097" lon="1.11162">
        <ele>82.9</ele>
        <time>2018-08-21T08:19:00Z</time>
      </trkpt>
      <trkpt lat="44.04104" lon="1.11155">
        <ele>82.7</ele>
        <time>2018-08-21T08:19:02Z</time>
      </trkpt>
      <trkpt lat="44.0411" lon="1.11147">
        <ele>82.5</ele>
        <time>2018-08-21T08:19:04Z</time>
      </trkpt>
      <trkpt lat="44.04117" lon="1.1114">
        <ele>82.5</ele>
        <time>2018-08-21T08:19:06Z</time>
      </trkpt>
      <trkpt lat="44.04124" lon="1.11132">
        <ele>82.4</ele>
        <time>2018-08-21T08:19:08Z</time>
      </trkpt>
      <trkpt lat="44.0413" lon="1.11125">
        <ele>82.5</ele>
        <time>2018-08-21T08:19:10Z</time>
      </trkpt>
      <trkpt lat="44.04137" lon="1.11117">
        <ele>82.6</ele>
        <time>2018-08-21T08:19:12Z</time>
      </trkpt>
      <trkpt lat="44.04146" lon="1.11109">
        <ele>83.1</ele>
        <time>2018-08-21T08:19:15Z</time>
      </trkpt>
      <trkpt lat="44.04154" lon="1.11101">
        <ele>83.5</ele>
        <time>2018-08-21T08:19:18Z</time>
      </trkpt>
      <trkpt lat="44.04161" lon="1.11093">
        <ele>83.9</ele>
        <time>2018-08-21T08:19:21Z</time>
      </trkpt>
      <trkpt lat="44.04166" lon="1.11086">
        <ele>84.3</ele>
        <time>2018-08-21T08:19:24Z</time>
      </trkpt>
      <trkpt lat="44.04172" lon="1.11078">
        <ele>83.9</ele>
        <time>2018-08-21T08:19:29Z</time>
      </trkpt>
      <trkpt lat="44.04177" lon="1.1107">
        <ele>83.8</ele>
        <time>2018-08-21T08:19:33Z</time>
      </trkpt>
      <trkpt lat="44.04175" lon="1.11068">
        <ele>84.5</ele>
        <time>2018-08-21T08:19:40Z</time>
      </trkpt>
      <trkpt lat="44.04175" lon="1.11069">
        <ele>84.8</ele>
        <time>2018-08-21T08:19:47Z</time>
      </trkpt>
      <trkpt lat="44.04168" lon="1.11064">
        <ele>86.9</ele>
        <time>2018-08-21T08:19:56Z</time>
      </trkpt>
      <trkpt lat="44.04162" lon="1.11055">
        <ele>87.3</ele>
        <time>2018-08-21T08:19:59Z</time>
      </trkpt>
      <trkpt lat="44.04156" lon="1.11047">
        <ele>87.4</ele>
        <time>2018-08-21T08:20:01Z</time>
      </trkpt>
      <trkpt lat="44.0415" lon="1.11037">
        <ele>87.6</ele>
        <time>2018-08-21T08:20:03Z</time>
      </trkpt>
      <trkpt lat="44.04142" lon="1.11027">
        <ele>87.8</ele>
        <time>2018-08-21T08:20:05Z</time>
      </trkpt>
      <trkpt lat="44.04135" lon="1.11016">
        <ele>88.2</ele>
        <time>2018-08-21T08:20:07Z</time>
      </trkpt>
      <trkpt lat="44.04128" lon="1.11007">
        <ele>88.7</ele>
        <time>2018-08-21T08:20:09Z</time>
      </trkpt>
      <trkpt lat="44.04138" lon="1.11006">
        <ele>88.8</ele>
        <time>2018-08-21T08:20:14Z</time>
      </trkpt>
      <trkpt lat="44.04144" lon="1.11011">
        <ele>89.1</ele>
        <time>2018-08-21T08:20:16Z</time>
      </trkpt>
      <trkpt lat="44.04151" lon="1.11017">
        <ele>89.4</ele>
        <time>2018-08-21T08:20:18Z</time>
      </trkpt>
      <trkpt lat="44.04156" lon="1.11025">
        <ele>89.8</ele>
        <time>2018-08-21T08:20:20Z</time>
      </trkpt>
      <trkpt lat="44.04164" lon="1.11032">
        <ele>90.7</ele>
        <time>2018-08-21T08:20:23Z</time>
      </trkpt>
      <trkpt lat="44.04172" lon="1.11026">
        <ele>92.9</ele>
        <time>2018-08-21T08:20:28Z</time>
      </trkpt>
      <trkpt lat="44.04178" lon="1.11018">
        <ele>92.8</ele>
        <time>2018-08-21T08:20:31Z</time>
      </trkpt>
      <trkpt lat="44.04184" lon="1.11011">
        <ele>92.3</ele>
        <time>2018-08-21T08:20:33Z</time>
      </trkpt>
      <trkpt lat="44.04191" lon="1.11003">
        <ele>91.9</ele>
        <time>2018-08-21T08:20:35Z</time>
      </trkpt>
      <trkpt lat="44.04199" lon="1.10995">
        <ele>91.6</ele>
        <time>2018-08-21T08:20:37Z</time>
      </trkpt>
      <trkpt lat="44.04207" lon="1.10986">
        <ele>90.9</ele>
        <time>2018-08-21T08:20:39Z</time>
      </trkpt>
      <trkpt lat="44.04215" lon="1.10977">
        <ele>90.2</ele>
        <time>2018-08-21T08:20:41Z</time>
      </trkpt>
      <trkpt lat="44.04224" lon="1.10969">
        <ele>89.1</ele>
        <time>2018-08-21T08:20:43Z</time>
      </trkpt>
      <trkpt lat="44.04234" lon="1.10962">
        <ele>87.9</ele>
        <time>2018-08-21T08:20:45Z</time>
      </trkpt>
      <trkpt lat="44.04243" lon="1.10955">
        <ele>87.2</ele>
        <time>2018-08-21T08:20:47Z</time>
      </trkpt>
      <trkpt lat="44.04252" lon="1.10949">
        <ele>86.5</ele>
        <time>2018-08-21T08:20:49Z</time>
      </trkpt>
      <trkpt lat="44.04261" lon="1.10943">
        <ele>85.4</ele>
        <time>2018-08-21T08:20:51Z</time>
      </trkpt>
      <trkpt lat="44.04269" lon="1.10936">
        <ele>85.2</ele>
        <time>2018-08-21T08:20:53Z</time>
      </trkpt>
      <trkpt lat="44.04278" lon="1.10931">
        <ele>84.8</ele>
        <time>2018-08-21T08:20:55Z</time>
      </trkpt>
      <trkpt lat="44.04286" lon="1.10927">
        <ele>84.4</ele>
        <time>2018-08-21T08:20:57Z</time>
      </trkpt>
      <trkpt lat="44.04294" lon="1.10922">
        <ele>84</ele>
        <time>2018-08-21T08:21:00Z</time>
      </trkpt>
      <trkpt lat="44.04305" lon="1.10916">
        <ele>83.6</ele>
        <time>2018-08-21T08:21:03Z</time>
      </trkpt>
      <trkpt lat="44.04313" lon="1.10912">
        <ele>83.6</ele>
        <time>2018-08-21T08:21:05Z</time>
      </trkpt>
      <trkpt lat="44.04322" lon="1.10908">
        <ele>83.2</ele>
        <time>2018-08-21T08:21:07Z</time>
      </trkpt>
      <trkpt lat="44.04332" lon="1.10904">
        <ele>83.3</ele>
        <time>2018-08-21T08:21:09Z</time>
      </trkpt>
      <trkpt lat="44.04341" lon="1.109">
        <ele>83.1</ele>
        <time>2018-08-21T08:21:11Z</time>
      </trkpt>
      <trkpt lat="44.0435" lon="1.10897">
        <ele>83.9</ele>
        <time>2018-08-21T08:21:13Z</time>
      </trkpt>
      <trkpt lat="44.04361" lon="1.10893">
        <ele>83.1</ele>
        <time>2018-08-21T08:21:15Z</time>
      </trkpt>
      <trkpt lat="44.04371" lon="1.1089">
        <ele>83.1</ele>
        <time>2018-08-21T08:21:17Z</time>
      </trkpt>
      <trkpt lat="44.04381" lon="1.10887">
        <ele>83.8</ele>
        <time>2018-08-21T08:21:19Z</time>
      </trkpt>
      <trkpt lat="44.04391" lon="1.10884">
        <ele>83.7</ele>
        <time>2018-08-21T08:21:21Z</time>
      </trkpt>
      <trkpt lat="44.04401" lon="1.1088">
        <ele>84</ele>
        <time>2018-08-21T08:21:23Z</time>
      </trkpt>
      <trkpt lat="44.04412" lon="1.10876">
        <ele>84</ele>
        <time>2018-08-21T08:21:25Z</time>
      </trkpt>
      <trkpt lat="44.04422" lon="1.10873">
        <ele>84.4</ele>
        <time>2018-08-21T08:21:27Z</time>
      </trkpt>
      <trkpt lat="44.04433" lon="1.10869">
        <ele>86.4</ele>
        <time>2018-08-21T08:21:29Z</time>
      </trkpt>
      <trkpt lat="44.04443" lon="1.10865">
        <ele>87.1</ele>
        <time>2018-08-21T08:21:31Z</time>
      </trkpt>
      <trkpt lat="44.04454" lon="1.10861">
        <ele>85.2</ele>
        <time>2018-08-21T08:21:33Z</time>
      </trkpt>
      <trkpt lat="44.04465" lon="1.10856">
        <ele>84.9</ele>
        <time>2018-08-21T08:21:35Z</time>
      </trkpt>
      <trkpt lat="44.04475" lon="1.10853">
        <ele>84.5</ele>
        <time>2018-08-21T08:21:37Z</time>
      </trkpt>
      <trkpt lat="44.04487" lon="1.10849">
        <ele>84</ele>
        <time>2018-08-21T08:21:39Z</time>
      </trkpt>
      <trkpt lat="44.04497" lon="1.10847">
        <ele>83.3</ele>
        <time>2018-08-21T08:21:41Z</time>
      </trkpt>
      <trkpt lat="44.04507" lon="1.10843">
        <ele>84</ele>
        <time>2018-08-21T08:21:43Z</time>
      </trkpt>
      <trkpt lat="44.04518" lon="1.1084">
        <ele>83.5</ele>
        <time>2018-08-21T08:21:45Z</time>
      </trkpt>
      <trkpt lat="44.0453" lon="1.10835">
        <ele>84.1</ele>
        <time>2018-08-21T08:21:47Z</time>
      </trkpt>
      <trkpt lat="44.0454" lon="1.10831">
        <ele>83.9</ele>
        <time>2018-08-21T08:21:49Z</time>
      </trkpt>
      <trkpt lat="44.04552" lon="1.10825">
        <ele>83.9</ele>
        <time>2018-08-21T08:21:51Z</time>
      </trkpt>
      <trkpt lat="44.04563" lon="1.10821">
        <ele>83.2</ele>
        <time>2018-08-21T08:21:53Z</time>
      </trkpt>
      <trkpt lat="44.04574" lon="1.10816">
        <ele>83</ele>
        <time>2018-08-21T08:21:55Z</time>
      </trkpt>
      <trkpt lat="44.04583" lon="1.10813">
        <ele>82.9</ele>
        <time>2018-08-21T08:21:57Z</time>
      </trkpt>
      <trkpt lat="44.04595" lon="1.10811">
        <ele>83.7</ele>
        <time>2018-08-21T08:21:59Z</time>
      </trkpt>
      <trkpt lat="44.04605" lon="1.10809">
        <ele>84.3</ele>
        <time>2018-08-21T08:22:01Z</time>
      </trkpt>
      <trkpt lat="44.04615" lon="1.10804">
        <ele>84.7</ele>
        <time>2018-08-21T08:22:03Z</time>
      </trkpt>
      <trkpt lat="44.04626" lon="1.108">
        <ele>84.8</ele>
        <time>2018-08-21T08:22:05Z</time>
      </trkpt>
      <trkpt lat="44.04637" lon="1.10797">
        <ele>84.1</ele>
        <time>2018-08-21T08:22:07Z</time>
      </trkpt>
      <trkpt lat="44.04649" lon="1.10794">
        <ele>83.8</ele>
        <time>2018-08-21T08:22:09Z</time>
      </trkpt>
      <trkpt lat="44.0466" lon="1.10789">
        <ele>83.1</ele>
        <time>2018-08-21T08:22:11Z</time>
      </trkpt>
      <trkpt lat="44.0467" lon="1.10786">
        <ele>81.9</ele>
        <time>2018-08-21T08:22:13Z</time>
      </trkpt>
      <trkpt lat="44.04681" lon="1.10784">
        <ele>82.1</ele>
        <time>2018-08-21T08:22:15Z</time>
      </trkpt>
      <trkpt lat="44.04691" lon="1.10781">
        <ele>82.6</ele>
        <time>2018-08-21T08:22:17Z</time>
      </trkpt>
      <trkpt lat="44.04701" lon="1.10778">
        <ele>82.4</ele>
        <time>2018-08-21T08:22:19Z</time>
      </trkpt>
      <trkpt lat="44.04711" lon="1.10772">
        <ele>82.7</ele>
        <time>2018-08-21T08:22:21Z</time>
      </trkpt>
      <trkpt lat="44.04722" lon="1.10768">
        <ele>82.9</ele>
        <time>2018-08-21T08:22:23Z</time>
      </trkpt>
      <trkpt lat="44.04732" lon="1.10764">
        <ele>83.1</ele>
        <time>2018-08-21T08:22:25Z</time>
      </trkpt>
      <trkpt lat="44.04743" lon="1.10761">
        <ele>83.4</ele>
        <time>2018-08-21T08:22:27Z</time>
      </trkpt>
      <trkpt lat="44.04753" lon="1.10758">
        <ele>83.8</ele>
        <time>2018-08-21T08:22:30Z</time>
      </trkpt>
      <trkpt lat="44.04762" lon="1.10755">
        <ele>84.1</ele>
        <time>2018-08-21T08:22:31Z</time>
      </trkpt>
      <trkpt lat="44.04772" lon="1.10752">
        <ele>85.3</ele>
        <time>2018-08-21T08:22:33Z</time>
      </trkpt>
      <trkpt lat="44.04783" lon="1.10748">
        <ele>86.4</ele>
        <time>2018-08-21T08:22:35Z</time>
      </trkpt>
      <trkpt lat="44.04794" lon="1.10745">
        <ele>86.9</ele>
        <time>2018-08-21T08:22:37Z</time>
      </trkpt>
      <trkpt lat="44.04805" lon="1.10742">
        <ele>86</ele>
        <time>2018-08-21T08:22:39Z</time>
      </trkpt>
      <trkpt lat="44.04815" lon="1.10739">
        <ele>86.2</ele>
        <time>2018-08-21T08:22:41Z</time>
      </trkpt>
      <trkpt lat="44.04825" lon="1.10735">
        <ele>86.9</ele>
        <time>2018-08-21T08:22:43Z</time>
      </trkpt>
      <trkpt lat="44.04835" lon="1.10732">
        <ele>87.3</ele>
        <time>2018-08-21T08:22:45Z</time>
      </trkpt>
      <trkpt lat="44.04845" lon="1.10728">
        <ele>88.5</ele>
        <time>2018-08-21T08:22:47Z</time>
      </trkpt>
      <trkpt lat="44.04857" lon="1.10724">
        <ele>88.7</ele>
        <time>2018-08-21T08:22:49Z</time>
      </trkpt>
      <trkpt lat="44.04868" lon="1.10721">
        <ele>90.4</ele>
        <time>2018-08-21T08:22:51Z</time>
      </trkpt>
      <trkpt lat="44.0488" lon="1.10717">
        <ele>90.7</ele>
        <time>2018-08-21T08:22:53Z</time>
      </trkpt>
      <trkpt lat="44.04891" lon="1.10713">
        <ele>91.2</ele>
        <time>2018-08-21T08:22:55Z</time>
      </trkpt>
      <trkpt lat="44.04903" lon="1.1071">
        <ele>89.8</ele>
        <time>2018-08-21T08:22:57Z</time>
      </trkpt>
      <trkpt lat="44.04915" lon="1.10706">
        <ele>88.7</ele>
        <time>2018-08-21T08:22:59Z</time>
      </trkpt>
      <trkpt lat="44.04926" lon="1.10702">
        <ele>88.3</ele>
        <time>2018-08-21T08:23:01Z</time>
      </trkpt>
      <trkpt lat="44.04936" lon="1.10697">
        <ele>88.7</ele>
        <time>2018-08-21T08:23:03Z</time>
      </trkpt>
      <trkpt lat="44.04947" lon="1.10694">
        <ele>87.8</ele>
        <time>2018-08-21T08:23:05Z</time>
      </trkpt>
      <trkpt lat="44.04958" lon="1.10691">
        <ele>86.8</ele>
        <time>2018-08-21T08:23:07Z</time>
      </trkpt>
      <trkpt lat="44.0497" lon="1.10687">
        <ele>86.4</ele>
        <time>2018-08-21T08:23:09Z</time>
      </trkpt>
      <trkpt lat="44.04981" lon="1.10684">
        <ele>85.8</ele>
        <time>2018-08-21T08:23:11Z</time>
      </trkpt>
      <trkpt lat="44.04991" lon="1.1068">
        <ele>85.3</ele>
        <time>2018-08-21T08:23:13Z</time>
      </trkpt>
      <trkpt lat="44.05002" lon="1.10676">
        <ele>84.3</ele>
        <time>2018-08-21T08:23:15Z</time>
      </trkpt>
      <trkpt lat="44.05013" lon="1.10673">
        <ele>83.5</ele>
        <time>2018-08-21T08:23:17Z</time>
      </trkpt>
      <trkpt lat="44.05024" lon="1.1067">
        <ele>83</ele>
        <time>2018-08-21T08:23:19Z</time>
      </trkpt>
      <trkpt lat="44.05035" lon="1.10667">
        <ele>82.6</ele>
        <time>2018-08-21T08:23:21Z</time>
      </trkpt>
      <trkpt lat="44.05044" lon="1.10665">
        <ele>82.8</ele>
        <time>2018-08-21T08:23:23Z</time>
      </trkpt>
      <trkpt lat="44.05054" lon="1.10664">
        <ele>82.6</ele>
        <time>2018-08-21T08:23:25Z</time>
      </trkpt>
      <trkpt lat="44.05062" lon="1.10661">
        <ele>83.1</ele>
        <time>2018-08-21T08:23:27Z</time>
      </trkpt>
      <trkpt lat="44.0507" lon="1.10656">
        <ele>83.4</ele>
        <time>2018-08-21T08:23:29Z</time>
      </trkpt>
      <trkpt lat="44.0508" lon="1.10652">
        <ele>83</ele>
        <time>2018-08-21T08:23:31Z</time>
      </trkpt>
      <trkpt lat="44.05091" lon="1.10647">
        <ele>82.3</ele>
        <time>2018-08-21T08:23:33Z</time>
      </trkpt>
      <trkpt lat="44.05104" lon="1.10643">
        <ele>82.1</ele>
        <time>2018-08-21T08:23:35Z</time>
      </trkpt>
      <trkpt lat="44.05116" lon="1.10639">
        <ele>81.7</ele>
        <time>2018-08-21T08:23:37Z</time>
      </trkpt>
      <trkpt lat="44.05129" lon="1.10635">
        <ele>81.9</ele>
        <time>2018-08-21T08:23:39Z</time>
      </trkpt>
      <trkpt lat="44.05142" lon="1.1063">
        <ele>81.7</ele>
        <time>2018-08-21T08:23:41Z</time>
      </trkpt>
      <trkpt lat="44.05153" lon="1.10627">
        <ele>82</ele>
        <time>2018-08-21T08:23:43Z</time>
      </trkpt>
      <trkpt lat="44.05165" lon="1.10623">
        <ele>82.2</ele>
        <time>2018-08-21T08:23:45Z</time>
      </trkpt>
      <trkpt lat="44.05176" lon="1.10619">
        <ele>82.1</ele>
        <time>2018-08-21T08:23:47Z</time>
      </trkpt>
      <trkpt lat="44.05188" lon="1.10615">
        <ele>82.4</ele>
        <time>2018-08-21T08:23:49Z</time>
      </trkpt>
      <trkpt lat="44.05201" lon="1.1061">
        <ele>81.9</ele>
        <time>2018-08-21T08:23:51Z</time>
      </trkpt>
      <trkpt lat="44.05213" lon="1.10606">
        <ele>82.8</ele>
        <time>2018-08-21T08:23:53Z</time>
      </trkpt>
      <trkpt lat="44.05225" lon="1.10603">
        <ele>82.8</ele>
        <time>2018-08-21T08:23:55Z</time>
      </trkpt>
      <trkpt lat="44.05237" lon="1.10599">
        <ele>82.8</ele>
        <time>2018-08-21T08:23:57Z</time>
      </trkpt>
      <trkpt lat="44.05249" lon="1.10595">
        <ele>82.5</ele>
        <time>2018-08-21T08:23:59Z</time>
      </trkpt>
      <trkpt lat="44.05261" lon="1.1059">
        <ele>82</ele>
        <time>2018-08-21T08:24:01Z</time>
      </trkpt>
      <trkpt lat="44.05272" lon="1.10586">
        <ele>82.7</ele>
        <time>2018-08-21T08:24:03Z</time>
      </trkpt>
      <trkpt lat="44.05284" lon="1.10583">
        <ele>83.6</ele>
        <time>2018-08-21T08:24:05Z</time>
      </trkpt>
      <trkpt lat="44.05296" lon="1.10579">
        <ele>83.2</ele>
        <time>2018-08-21T08:24:07Z</time>
      </trkpt>
      <trkpt lat="44.05308" lon="1.10575">
        <ele>82.4</ele>
        <time>2018-08-21T08:24:09Z</time>
      </trkpt>
      <trkpt lat="44.05319" lon="1.10571">
        <ele>81.5</ele>
        <time>2018-08-21T08:24:11Z</time>
      </trkpt>
      <trkpt lat="44.0533" lon="1.10567">
        <ele>80.6</ele>
        <time>2018-08-21T08:24:13Z</time>
      </trkpt>
      <trkpt lat="44.05341" lon="1.10564">
        <ele>80.1</ele>
        <time>2018-08-21T08:24:15Z</time>
      </trkpt>
      <trkpt lat="44.05352" lon="1.10561">
        <ele>79.6</ele>
        <time>2018-08-21T08:24:17Z</time>
      </trkpt>
      <trkpt lat="44.05364" lon="1.10558">
        <ele>79.3</ele>
        <time>2018-08-21T08:24:19Z</time>
      </trkpt>
      <trkpt lat="44.05375" lon="1.10555">
        <ele>79.1</ele>
        <time>2018-08-21T08:24:21Z</time>
      </trkpt>
      <trkpt lat="44.05387" lon="1.10552">
        <ele>78.6</ele>
        <time>2018-08-21T08:24:23Z</time>
      </trkpt>
      <trkpt lat="44.05398" lon="1.10548">
        <ele>78.1</ele>
        <time>2018-08-21T08:24:25Z</time>
      </trkpt>
      <trkpt lat="44.05409" lon="1.10544">
        <ele>78.2</ele>
        <time>2018-08-21T08:24:27Z</time>
      </trkpt>
      <trkpt lat="44.05421" lon="1.1054">
        <ele>78.4</ele>
        <time>2018-08-21T08:24:29Z</time>
      </trkpt>
      <trkpt lat="44.05432" lon="1.10535">
        <ele>78.7</ele>
        <time>2018-08-21T08:24:31Z</time>
      </trkpt>
      <trkpt lat="44.05443" lon="1.10531">
        <ele>78.3</ele>
        <time>2018-08-21T08:24:33Z</time>
      </trkpt>
      <trkpt lat="44.05454" lon="1.10528">
        <ele>78.3</ele>
        <time>2018-08-21T08:24:35Z</time>
      </trkpt>
      <trkpt lat="44.05466" lon="1.10524">
        <ele>78.1</ele>
        <time>2018-08-21T08:24:37Z</time>
      </trkpt>
      <trkpt lat="44.05476" lon="1.10519">
        <ele>78</ele>
        <time>2018-08-21T08:24:39Z</time>
      </trkpt>
      <trkpt lat="44.05488" lon="1.10517">
        <ele>78</ele>
        <time>2018-08-21T08:24:41Z</time>
      </trkpt>
      <trkpt lat="44.05499" lon="1.10512">
        <ele>77.7</ele>
        <time>2018-08-21T08:24:43Z</time>
      </trkpt>
      <trkpt lat="44.0551" lon="1.10509">
        <ele>77.9</ele>
        <time>2018-08-21T08:24:45Z</time>
      </trkpt>
      <trkpt lat="44.05521" lon="1.10505">
        <ele>78.2</ele>
        <time>2018-08-21T08:24:47Z</time>
      </trkpt>
      <trkpt lat="44.05533" lon="1.10501">
        <ele>78.8</ele>
        <time>2018-08-21T08:24:49Z</time>
      </trkpt>
      <trkpt lat="44.05544" lon="1.10497">
        <ele>78.7</ele>
        <time>2018-08-21T08:24:51Z</time>
      </trkpt>
      <trkpt lat="44.05556" lon="1.10494">
        <ele>78.9</ele>
        <time>2018-08-21T08:24:53Z</time>
      </trkpt>
      <trkpt lat="44.05566" lon="1.10489">
        <ele>79.6</ele>
        <time>2018-08-21T08:24:55Z</time>
      </trkpt>
      <trkpt lat="44.05577" lon="1.10484">
        <ele>80.2</ele>
        <time>2018-08-21T08:24:57Z</time>
      </trkpt>
      <trkpt lat="44.05588" lon="1.1048">
        <ele>80.6</ele>
        <time>2018-08-21T08:24:59Z</time>
      </trkpt>
      <trkpt lat="44.05598" lon="1.10476">
        <ele>81.3</ele>
        <time>2018-08-21T08:25:01Z</time>
      </trkpt>
      <trkpt lat="44.05607" lon="1.10471">
        <ele>82.3</ele>
        <time>2018-08-21T08:25:03Z</time>
      </trkpt>
      <trkpt lat="44.05615" lon="1.10467">
        <ele>83</ele>
        <time>2018-08-21T08:25:05Z</time>
      </trkpt>
      <trkpt lat="44.05625" lon="1.10462">
        <ele>86</ele>
        <time>2018-08-21T08:25:07Z</time>
      </trkpt>
      <trkpt lat="44.05635" lon="1.10457">
        <ele>88.3</ele>
        <time>2018-08-21T08:25:09Z</time>
      </trkpt>
      <trkpt lat="44.05647" lon="1.10452">
        <ele>89.8</ele>
        <time>2018-08-21T08:25:11Z</time>
      </trkpt>
      <trkpt lat="44.05657" lon="1.10447">
        <ele>91.6</ele>
        <time>2018-08-21T08:25:13Z</time>
      </trkpt>
      <trkpt lat="44.05669" lon="1.10443">
        <ele>92.8</ele>
        <time>2018-08-21T08:25:15Z</time>
      </trkpt>
      <trkpt lat="44.0568" lon="1.1044">
        <ele>93.2</ele>
        <time>2018-08-21T08:25:17Z</time>
      </trkpt>
      <trkpt lat="44.0569" lon="1.10436">
        <ele>92.7</ele>
        <time>2018-08-21T08:25:19Z</time>
      </trkpt>
      <trkpt lat="44.05701" lon="1.10434">
        <ele>91.4</ele>
        <time>2018-08-21T08:25:21Z</time>
      </trkpt>
      <trkpt lat="44.05713" lon="1.10432">
        <ele>90.1</ele>
        <time>2018-08-21T08:25:23Z</time>
      </trkpt>
      <trkpt lat="44.05724" lon="1.1043">
        <ele>89</ele>
        <time>2018-08-21T08:25:25Z</time>
      </trkpt>
      <trkpt lat="44.05734" lon="1.10427">
        <ele>88.8</ele>
        <time>2018-08-21T08:25:27Z</time>
      </trkpt>
      <trkpt lat="44.05743" lon="1.10422">
        <ele>90.1</ele>
        <time>2018-08-21T08:25:29Z</time>
      </trkpt>
      <trkpt lat="44.05754" lon="1.10419">
        <ele>89.4</ele>
        <time>2018-08-21T08:25:31Z</time>
      </trkpt>
      <trkpt lat="44.05765" lon="1.10417">
        <ele>88.3</ele>
        <time>2018-08-21T08:25:33Z</time>
      </trkpt>
      <trkpt lat="44.05776" lon="1.10414">
        <ele>86.6</ele>
        <time>2018-08-21T08:25:35Z</time>
      </trkpt>
      <trkpt lat="44.05786" lon="1.10412">
        <ele>85.3</ele>
        <time>2018-08-21T08:25:37Z</time>
      </trkpt>
      <trkpt lat="44.05797" lon="1.10409">
        <ele>84.7</ele>
        <time>2018-08-21T08:25:39Z</time>
      </trkpt>
      <trkpt lat="44.05807" lon="1.10405">
        <ele>84.2</ele>
        <time>2018-08-21T08:25:41Z</time>
      </trkpt>
      <trkpt lat="44.05817" lon="1.10402">
        <ele>83.5</ele>
        <time>2018-08-21T08:25:43Z</time>
      </trkpt>
      <trkpt lat="44.05828" lon="1.10399">
        <ele>83.3</ele>
        <time>2018-08-21T08:25:45Z</time>
      </trkpt>
      <trkpt lat="44.05838" lon="1.10396">
        <ele>83.3</ele>
        <time>2018-08-21T08:25:47Z</time>
      </trkpt>
      <trkpt lat="44.05848" lon="1.10393">
        <ele>82.5</ele>
        <time>2018-08-21T08:25:49Z</time>
      </trkpt>
      <trkpt lat="44.05858" lon="1.10389">
        <ele>81.7</ele>
        <time>2018-08-21T08:25:51Z</time>
      </trkpt>
      <trkpt lat="44.05869" lon="1.10386">
        <ele>81.1</ele>
        <time>2018-08-21T08:25:53Z</time>
      </trkpt>
      <trkpt lat="44.05878" lon="1.10384">
        <ele>82.1</ele>
        <time>2018-08-21T08:25:55Z</time>
      </trkpt>
      <trkpt lat="44.05889" lon="1.10381">
        <ele>81.6</ele>
        <time>2018-08-21T08:25:57Z</time>
      </trkpt>
      <trkpt lat="44.05899" lon="1.10378">
        <ele>83</ele>
        <time>2018-08-21T08:25:59Z</time>
      </trkpt>
      <trkpt lat="44.0591" lon="1.10374">
        <ele>82.2</ele>
        <time>2018-08-21T08:26:01Z</time>
      </trkpt>
      <trkpt lat="44.05921" lon="1.10372">
        <ele>80.9</ele>
        <time>2018-08-21T08:26:03Z</time>
      </trkpt>
      <trkpt lat="44.05932" lon="1.10368">
        <ele>79.9</ele>
        <time>2018-08-21T08:26:05Z</time>
      </trkpt>
      <trkpt lat="44.05942" lon="1.10365">
        <ele>79.4</ele>
        <time>2018-08-21T08:26:07Z</time>
      </trkpt>
      <trkpt lat="44.05952" lon="1.10361">
        <ele>79.5</ele>
        <time>2018-08-21T08:26:09Z</time>
      </trkpt>
      <trkpt lat="44.05962" lon="1.10357">
        <ele>81.1</ele>
        <time>2018-08-21T08:26:11Z</time>
      </trkpt>
      <trkpt lat="44.05971" lon="1.10352">
        <ele>82.2</ele>
        <time>2018-08-21T08:26:13Z</time>
      </trkpt>
      <trkpt lat="44.0598" lon="1.10348">
        <ele>82.5</ele>
        <time>2018-08-21T08:26:15Z</time>
      </trkpt>
      <trkpt lat="44.05988" lon="1.10344">
        <ele>82</ele>
        <time>2018-08-21T08:26:18Z</time>
      </trkpt>
      <trkpt lat="44.05997" lon="1.1034">
        <ele>81.4</ele>
        <time>2018-08-21T08:26:19Z</time>
      </trkpt>
      <trkpt lat="44.06008" lon="1.10335">
        <ele>81.4</ele>
        <time>2018-08-21T08:26:21Z</time>
      </trkpt>
      <trkpt lat="44.06017" lon="1.1033">
        <ele>82.5</ele>
        <time>2018-08-21T08:26:23Z</time>
      </trkpt>
      <trkpt lat="44.06026" lon="1.10326">
        <ele>84.8</ele>
        <time>2018-08-21T08:26:25Z</time>
      </trkpt>
      <trkpt lat="44.06036" lon="1.10324">
        <ele>85.2</ele>
        <time>2018-08-21T08:26:27Z</time>
      </trkpt>
      <trkpt lat="44.06047" lon="1.10322">
        <ele>84.2</ele>
        <time>2018-08-21T08:26:29Z</time>
      </trkpt>
      <trkpt lat="44.06058" lon="1.1032">
        <ele>84.9</ele>
        <time>2018-08-21T08:26:31Z</time>
      </trkpt>
      <trkpt lat="44.06069" lon="1.10318">
        <ele>83.8</ele>
        <time>2018-08-21T08:26:33Z</time>
      </trkpt>
      <trkpt lat="44.06081" lon="1.10314">
        <ele>83.4</ele>
        <time>2018-08-21T08:26:35Z</time>
      </trkpt>
      <trkpt lat="44.06092" lon="1.10311">
        <ele>83.2</ele>
        <time>2018-08-21T08:26:37Z</time>
      </trkpt>
      <trkpt lat="44.06103" lon="1.10306">
        <ele>83.6</ele>
        <time>2018-08-21T08:26:39Z</time>
      </trkpt>
      <trkpt lat="44.06114" lon="1.10304">
        <ele>83.5</ele>
        <time>2018-08-21T08:26:41Z</time>
      </trkpt>
      <trkpt lat="44.06125" lon="1.103">
        <ele>84</ele>
        <time>2018-08-21T08:26:43Z</time>
      </trkpt>
      <trkpt lat="44.06136" lon="1.10296">
        <ele>84.5</ele>
        <time>2018-08-21T08:26:45Z</time>
      </trkpt>
      <trkpt lat="44.06146" lon="1.10293">
        <ele>84.9</ele>
        <time>2018-08-21T08:26:47Z</time>
      </trkpt>
      <trkpt lat="44.06156" lon="1.10288">
        <ele>85</ele>
        <time>2018-08-21T08:26:49Z</time>
      </trkpt>
      <trkpt lat="44.06166" lon="1.10284">
        <ele>86.1</ele>
        <time>2018-08-21T08:26:51Z</time>
      </trkpt>
      <trkpt lat="44.06177" lon="1.10281">
        <ele>85.5</ele>
        <time>2018-08-21T08:26:53Z</time>
      </trkpt>
      <trkpt lat="44.06187" lon="1.10277">
        <ele>85.6</ele>
        <time>2018-08-21T08:26:55Z</time>
      </trkpt>
      <trkpt lat="44.06199" lon="1.10274">
        <ele>85.9</ele>
        <time>2018-08-21T08:26:57Z</time>
      </trkpt>
      <trkpt lat="44.06211" lon="1.10271">
        <ele>85.2</ele>
        <time>2018-08-21T08:26:59Z</time>
      </trkpt>
      <trkpt lat="44.06222" lon="1.10268">
        <ele>84.9</ele>
        <time>2018-08-21T08:27:01Z</time>
      </trkpt>
      <trkpt lat="44.06233" lon="1.10264">
        <ele>84.5</ele>
        <time>2018-08-21T08:27:03Z</time>
      </trkpt>
      <trkpt lat="44.06244" lon="1.10261">
        <ele>84.5</ele>
        <time>2018-08-21T08:27:05Z</time>
      </trkpt>
      <trkpt lat="44.06255" lon="1.10257">
        <ele>84.4</ele>
        <time>2018-08-21T08:27:07Z</time>
      </trkpt>
      <trkpt lat="44.06267" lon="1.10254">
        <ele>85.2</ele>
        <time>2018-08-21T08:27:09Z</time>
      </trkpt>
      <trkpt lat="44.06278" lon="1.1025">
        <ele>84.9</ele>
        <time>2018-08-21T08:27:11Z</time>
      </trkpt>
      <trkpt lat="44.06289" lon="1.10246">
        <ele>84.5</ele>
        <time>2018-08-21T08:27:13Z</time>
      </trkpt>
      <trkpt lat="44.06298" lon="1.10241">
        <ele>84.1</ele>
        <time>2018-08-21T08:27:15Z</time>
      </trkpt>
      <trkpt lat="44.06308" lon="1.10237">
        <ele>83.9</ele>
        <time>2018-08-21T08:27:17Z</time>
      </trkpt>
      <trkpt lat="44.06319" lon="1.10232">
        <ele>83.5</ele>
        <time>2018-08-21T08:27:19Z</time>
      </trkpt>
      <trkpt lat="44.0633" lon="1.10229">
        <ele>83.3</ele>
        <time>2018-08-21T08:27:21Z</time>
      </trkpt>
      <trkpt lat="44.06342" lon="1.10225">
        <ele>83.5</ele>
        <time>2018-08-21T08:27:23Z</time>
      </trkpt>
      <trkpt lat="44.06353" lon="1.10221">
        <ele>84.1</ele>
        <time>2018-08-21T08:27:25Z</time>
      </trkpt>
      <trkpt lat="44.06364" lon="1.10217">
        <ele>83.8</ele>
        <time>2018-08-21T08:27:27Z</time>
      </trkpt>
      <trkpt lat="44.06375" lon="1.10214">
        <ele>83.8</ele>
        <time>2018-08-21T08:27:29Z</time>
      </trkpt>
      <trkpt lat="44.06386" lon="1.10213">
        <ele>83.3</ele>
        <time>2018-08-21T08:27:31Z</time>
      </trkpt>
      <trkpt lat="44.06397" lon="1.10208">
        <ele>83.4</ele>
        <time>2018-08-21T08:27:33Z</time>
      </trkpt>
      <trkpt lat="44.06407" lon="1.10204">
        <ele>83.5</ele>
        <time>2018-08-21T08:27:35Z</time>
      </trkpt>
      <trkpt lat="44.06417" lon="1.102">
        <ele>83.2</ele>
        <time>2018-08-21T08:27:37Z</time>
      </trkpt>
      <trkpt lat="44.06427" lon="1.10197">
        <ele>82.8</ele>
        <time>2018-08-21T08:27:39Z</time>
      </trkpt>
      <trkpt lat="44.06436" lon="1.10193">
        <ele>83.6</ele>
        <time>2018-08-21T08:27:41Z</time>
      </trkpt>
      <trkpt lat="44.06446" lon="1.10189">
        <ele>85</ele>
        <time>2018-08-21T08:27:43Z</time>
      </trkpt>
      <trkpt lat="44.06457" lon="1.10185">
        <ele>84.4</ele>
        <time>2018-08-21T08:27:45Z</time>
      </trkpt>
      <trkpt lat="44.06468" lon="1.10182">
        <ele>84.2</ele>
        <time>2018-08-21T08:27:47Z</time>
      </trkpt>
      <trkpt lat="44.06478" lon="1.10178">
        <ele>84.5</ele>
        <time>2018-08-21T08:27:49Z</time>
      </trkpt>
      <trkpt lat="44.06489" lon="1.10175">
        <ele>83.8</ele>
        <time>2018-08-21T08:27:51Z</time>
      </trkpt>
      <trkpt lat="44.06501" lon="1.10172">
        <ele>83.5</ele>
        <time>2018-08-21T08:27:53Z</time>
      </trkpt>
      <trkpt lat="44.06513" lon="1.10169">
        <ele>83.3</ele>
        <time>2018-08-21T08:27:55Z</time>
      </trkpt>
      <trkpt lat="44.06524" lon="1.10165">
        <ele>82.5</ele>
        <time>2018-08-21T08:27:57Z</time>
      </trkpt>
      <trkpt lat="44.06537" lon="1.10161">
        <ele>81.9</ele>
        <time>2018-08-21T08:27:59Z</time>
      </trkpt>
      <trkpt lat="44.06549" lon="1.10157">
        <ele>82</ele>
        <time>2018-08-21T08:28:01Z</time>
      </trkpt>
      <trkpt lat="44.06559" lon="1.10153">
        <ele>81.2</ele>
        <time>2018-08-21T08:28:03Z</time>
      </trkpt>
      <trkpt lat="44.06571" lon="1.10151">
        <ele>81.9</ele>
        <time>2018-08-21T08:28:05Z</time>
      </trkpt>
      <trkpt lat="44.06582" lon="1.10147">
        <ele>81.6</ele>
        <time>2018-08-21T08:28:07Z</time>
      </trkpt>
      <trkpt lat="44.06593" lon="1.10143">
        <ele>81.7</ele>
        <time>2018-08-21T08:28:09Z</time>
      </trkpt>
      <trkpt lat="44.06604" lon="1.10139">
        <ele>81.9</ele>
        <time>2018-08-21T08:28:11Z</time>
      </trkpt>
      <trkpt lat="44.06615" lon="1.10135">
        <ele>82</ele>
        <time>2018-08-21T08:28:13Z</time>
      </trkpt>
      <trkpt lat="44.06626" lon="1.10132">
        <ele>81.7</ele>
        <time>2018-08-21T08:28:15Z</time>
      </trkpt>
      <trkpt lat="44.06637" lon="1.10128">
        <ele>81.5</ele>
        <time>2018-08-21T08:28:17Z</time>
      </trkpt>
      <trkpt lat="44.06648" lon="1.10125">
        <ele>81.1</ele>
        <time>2018-08-21T08:28:19Z</time>
      </trkpt>
      <trkpt lat="44.06659" lon="1.10122">
        <ele>80.7</ele>
        <time>2018-08-21T08:28:21Z</time>
      </trkpt>
      <trkpt lat="44.0667" lon="1.10118">
        <ele>80.7</ele>
        <time>2018-08-21T08:28:23Z</time>
      </trkpt>
      <trkpt lat="44.0668" lon="1.10115">
        <ele>80.7</ele>
        <time>2018-08-21T08:28:25Z</time>
      </trkpt>
      <trkpt lat="44.0669" lon="1.10111">
        <ele>80.9</ele>
        <time>2018-08-21T08:28:27Z</time>
      </trkpt>
      <trkpt lat="44.06699" lon="1.10108">
        <ele>81.1</ele>
        <time>2018-08-21T08:28:29Z</time>
      </trkpt>
      <trkpt lat="44.06706" lon="1.10104">
        <ele>81.1</ele>
        <time>2018-08-21T08:28:31Z</time>
      </trkpt>
      <trkpt lat="44.06714" lon="1.101">
        <ele>81.5</ele>
        <time>2018-08-21T08:28:34Z</time>
      </trkpt>
      <trkpt lat="44.06722" lon="1.10099">
        <ele>81.5</ele>
        <time>2018-08-21T08:28:36Z</time>
      </trkpt>
      <trkpt lat="44.06731" lon="1.10096">
        <ele>81.2</ele>
        <time>2018-08-21T08:28:38Z</time>
      </trkpt>
      <trkpt lat="44.06742" lon="1.10092">
        <ele>81.3</ele>
        <time>2018-08-21T08:28:40Z</time>
      </trkpt>
      <trkpt lat="44.06754" lon="1.10089">
        <ele>80.8</ele>
        <time>2018-08-21T08:28:42Z</time>
      </trkpt>
      <trkpt lat="44.06766" lon="1.10086">
        <ele>80.5</ele>
        <time>2018-08-21T08:28:44Z</time>
      </trkpt>
      <trkpt lat="44.06778" lon="1.10082">
        <ele>80.2</ele>
        <time>2018-08-21T08:28:46Z</time>
      </trkpt>
      <trkpt lat="44.06791" lon="1.10077">
        <ele>80.4</ele>
        <time>2018-08-21T08:28:48Z</time>
      </trkpt>
      <trkpt lat="44.06803" lon="1.10073">
        <ele>80.2</ele>
        <time>2018-08-21T08:28:50Z</time>
      </trkpt>
      <trkpt lat="44.06815" lon="1.1007">
        <ele>79.8</ele>
        <time>2018-08-21T08:28:52Z</time>
      </trkpt>
      <trkpt lat="44.06826" lon="1.10067">
        <ele>79.4</ele>
        <time>2018-08-21T08:28:54Z</time>
      </trkpt>
      <trkpt lat="44.06838" lon="1.10063">
        <ele>78.4</ele>
        <time>2018-08-21T08:28:56Z</time>
      </trkpt>
      <trkpt lat="44.06849" lon="1.10059">
        <ele>77.7</ele>
        <time>2018-08-21T08:28:58Z</time>
      </trkpt>
      <trkpt lat="44.0686" lon="1.10056">
        <ele>77.3</ele>
        <time>2018-08-21T08:29:00Z</time>
      </trkpt>
      <trkpt lat="44.06872" lon="1.10053">
        <ele>76.7</ele>
        <time>2018-08-21T08:29:02Z</time>
      </trkpt>
      <trkpt lat="44.06883" lon="1.10048">
        <ele>75.7</ele>
        <time>2018-08-21T08:29:04Z</time>
      </trkpt>
      <trkpt lat="44.06894" lon="1.10044">
        <ele>75.3</ele>
        <time>2018-08-21T08:29:06Z</time>
      </trkpt>
      <trkpt lat="44.06905" lon="1.1004">
        <ele>75.3</ele>
        <time>2018-08-21T08:29:08Z</time>
      </trkpt>
      <trkpt lat="44.06917" lon="1.10037">
        <ele>75.2</ele>
        <time>2018-08-21T08:29:10Z</time>
      </trkpt>
      <trkpt lat="44.06929" lon="1.10034">
        <ele>74.7</ele>
        <time>2018-08-21T08:29:12Z</time>
      </trkpt>
      <trkpt lat="44.0694" lon="1.1003">
        <ele>75.1</ele>
        <time>2018-08-21T08:29:14Z</time>
      </trkpt>
      <trkpt lat="44.0695" lon="1.10026">
        <ele>75.4</ele>
        <time>2018-08-21T08:29:16Z</time>
      </trkpt>
      <trkpt lat="44.06963" lon="1.1002">
        <ele>75.1</ele>
        <time>2018-08-21T08:29:18Z</time>
      </trkpt>
      <trkpt lat="44.06976" lon="1.10016">
        <ele>75.1</ele>
        <time>2018-08-21T08:29:20Z</time>
      </trkpt>
      <trkpt lat="44.06989" lon="1.10013">
        <ele>75.4</ele>
        <time>2018-08-21T08:29:22Z</time>
      </trkpt>
      <trkpt lat="44.07002" lon="1.10009">
        <ele>75.1</ele>
        <time>2018-08-21T08:29:24Z</time>
      </trkpt>
      <trkpt lat="44.07014" lon="1.10006">
        <ele>75.3</ele>
        <time>2018-08-21T08:29:26Z</time>
      </trkpt>
      <trkpt lat="44.07027" lon="1.10001">
        <ele>74.8</ele>
        <time>2018-08-21T08:29:28Z</time>
      </trkpt>
      <trkpt lat="44.0704" lon="1.09997">
        <ele>74.7</ele>
        <time>2018-08-21T08:29:30Z</time>
      </trkpt>
      <trkpt lat="44.07052" lon="1.09994">
        <ele>74.7</ele>
        <time>2018-08-21T08:29:32Z</time>
      </trkpt>
      <trkpt lat="44.07063" lon="1.0999">
        <ele>74.4</ele>
        <time>2018-08-21T08:29:34Z</time>
      </trkpt>
      <trkpt lat="44.07074" lon="1.09988">
        <ele>74.9</ele>
        <time>2018-08-21T08:29:36Z</time>
      </trkpt>
      <trkpt lat="44.07084" lon="1.09984">
        <ele>75.6</ele>
        <time>2018-08-21T08:29:38Z</time>
      </trkpt>
      <trkpt lat="44.07095" lon="1.09981">
        <ele>75.3</ele>
        <time>2018-08-21T08:29:40Z</time>
      </trkpt>
      <trkpt lat="44.07107" lon="1.09977">
        <ele>75.3</ele>
        <time>2018-08-21T08:29:42Z</time>
      </trkpt>
      <trkpt lat="44.07118" lon="1.09972">
        <ele>75.2</ele>
        <time>2018-08-21T08:29:44Z</time>
      </trkpt>
      <trkpt lat="44.0713" lon="1.09968">
        <ele>75</ele>
        <time>2018-08-21T08:29:46Z</time>
      </trkpt>
      <trkpt lat="44.07142" lon="1.09965">
        <ele>74.5</ele>
        <time>2018-08-21T08:29:48Z</time>
      </trkpt>
      <trkpt lat="44.07155" lon="1.09961">
        <ele>73.1</ele>
        <time>2018-08-21T08:29:50Z</time>
      </trkpt>
      <trkpt lat="44.07168" lon="1.09956">
        <ele>72.6</ele>
        <time>2018-08-21T08:29:52Z</time>
      </trkpt>
      <trkpt lat="44.0718" lon="1.09952">
        <ele>72.4</ele>
        <time>2018-08-21T08:29:54Z</time>
      </trkpt>
      <trkpt lat="44.07192" lon="1.09948">
        <ele>72.3</ele>
        <time>2018-08-21T08:29:56Z</time>
      </trkpt>
      <trkpt lat="44.07204" lon="1.09944">
        <ele>71.9</ele>
        <time>2018-08-21T08:29:58Z</time>
      </trkpt>
      <trkpt lat="44.07216" lon="1.0994">
        <ele>71.2</ele>
        <time>2018-08-21T08:30:00Z</time>
      </trkpt>
      <trkpt lat="44.07228" lon="1.09936">
        <ele>71.8</ele>
        <time>2018-08-21T08:30:02Z</time>
      </trkpt>
      <trkpt lat="44.0724" lon="1.09932">
        <ele>71.7</ele>
        <time>2018-08-21T08:30:04Z</time>
      </trkpt>
      <trkpt lat="44.07252" lon="1.09928">
        <ele>72.2</ele>
        <time>2018-08-21T08:30:07Z</time>
      </trkpt>
      <trkpt lat="44.07263" lon="1.09924">
        <ele>71.8</ele>
        <time>2018-08-21T08:30:08Z</time>
      </trkpt>
      <trkpt lat="44.07275" lon="1.0992">
        <ele>70.6</ele>
        <time>2018-08-21T08:30:10Z</time>
      </trkpt>
      <trkpt lat="44.07287" lon="1.09916">
        <ele>70.4</ele>
        <time>2018-08-21T08:30:12Z</time>
      </trkpt>
      <trkpt lat="44.07298" lon="1.09913">
        <ele>70</ele>
        <time>2018-08-21T08:30:14Z</time>
      </trkpt>
      <trkpt lat="44.0731" lon="1.09909">
        <ele>69.4</ele>
        <time>2018-08-21T08:30:16Z</time>
      </trkpt>
      <trkpt lat="44.07321" lon="1.09905">
        <ele>69.5</ele>
        <time>2018-08-21T08:30:18Z</time>
      </trkpt>
      <trkpt lat="44.07332" lon="1.09901">
        <ele>69.6</ele>
        <time>2018-08-21T08:30:20Z</time>
      </trkpt>
      <trkpt lat="44.07343" lon="1.09897">
        <ele>70.1</ele>
        <time>2018-08-21T08:30:22Z</time>
      </trkpt>
      <trkpt lat="44.07353" lon="1.09894">
        <ele>70.9</ele>
        <time>2018-08-21T08:30:24Z</time>
      </trkpt>
      <trkpt lat="44.07365" lon="1.0989">
        <ele>71.2</ele>
        <time>2018-08-21T08:30:26Z</time>
      </trkpt>
      <trkpt lat="44.07377" lon="1.09887">
        <ele>70.9</ele>
        <time>2018-08-21T08:30:28Z</time>
      </trkpt>
      <trkpt lat="44.07388" lon="1.09884">
        <ele>70.7</ele>
        <time>2018-08-21T08:30:30Z</time>
      </trkpt>
      <trkpt lat="44.074" lon="1.0988">
        <ele>70.2</ele>
        <time>2018-08-21T08:30:32Z</time>
      </trkpt>
      <trkpt lat="44.07411" lon="1.09876">
        <ele>70.2</ele>
        <time>2018-08-21T08:30:34Z</time>
      </trkpt>
      <trkpt lat="44.07422" lon="1.09872">
        <ele>70.6</ele>
        <time>2018-08-21T08:30:36Z</time>
      </trkpt>
      <trkpt lat="44.07434" lon="1.09869">
        <ele>70.5</ele>
        <time>2018-08-21T08:30:38Z</time>
      </trkpt>
      <trkpt lat="44.07445" lon="1.09865">
        <ele>70.7</ele>
        <time>2018-08-21T08:30:40Z</time>
      </trkpt>
      <trkpt lat="44.07457" lon="1.09861">
        <ele>70.6</ele>
        <time>2018-08-21T08:30:42Z</time>
      </trkpt>
      <trkpt lat="44.07468" lon="1.09858">
        <ele>70.7</ele>
        <time>2018-08-21T08:30:44Z</time>
      </trkpt>
      <trkpt lat="44.0748" lon="1.09854">
        <ele>70.9</ele>
        <time>2018-08-21T08:30:46Z</time>
      </trkpt>
      <trkpt lat="44.07492" lon="1.09851">
        <ele>70.9</ele>
        <time>2018-08-21T08:30:48Z</time>
      </trkpt>
      <trkpt lat="44.07503" lon="1.09849">
        <ele>71</ele>
        <time>2018-08-21T08:30:51Z</time>
      </trkpt>
      <trkpt lat="44.07515" lon="1.09846">
        <ele>71.3</ele>
        <time>2018-08-21T08:30:52Z</time>
      </trkpt>
      <trkpt lat="44.07526" lon="1.09843">
        <ele>70.9</ele>
        <time>2018-08-21T08:30:54Z</time>
      </trkpt>
      <trkpt lat="44.07538" lon="1.09842">
        <ele>71.4</ele>
        <time>2018-08-21T08:30:56Z</time>
      </trkpt>
      <trkpt lat="44.07549" lon="1.09841">
        <ele>71.5</ele>
        <time>2018-08-21T08:30:58Z</time>
      </trkpt>
      <trkpt lat="44.0756" lon="1.0984">
        <ele>71.6</ele>
        <time>2018-08-21T08:31:00Z</time>
      </trkpt>
      <trkpt lat="44.07571" lon="1.0984">
        <ele>71.6</ele>
        <time>2018-08-21T08:31:02Z</time>
      </trkpt>
      <trkpt lat="44.07582" lon="1.0984">
        <ele>71.8</ele>
        <time>2018-08-21T08:31:04Z</time>
      </trkpt>
      <trkpt lat="44.07592" lon="1.09839">
        <ele>72.5</ele>
        <time>2018-08-21T08:31:06Z</time>
      </trkpt>
      <trkpt lat="44.07603" lon="1.09839">
        <ele>73.2</ele>
        <time>2018-08-21T08:31:08Z</time>
      </trkpt>
      <trkpt lat="44.07615" lon="1.09842">
        <ele>72.5</ele>
        <time>2018-08-21T08:31:10Z</time>
      </trkpt>
      <trkpt lat="44.07626" lon="1.09844">
        <ele>72</ele>
        <time>2018-08-21T08:31:13Z</time>
      </trkpt>
      <trkpt lat="44.07637" lon="1.09846">
        <ele>70.4</ele>
        <time>2018-08-21T08:31:14Z</time>
      </trkpt>
      <trkpt lat="44.07648" lon="1.09847">
        <ele>70.2</ele>
        <time>2018-08-21T08:31:16Z</time>
      </trkpt>
      <trkpt lat="44.07659" lon="1.09851">
        <ele>72</ele>
        <time>2018-08-21T08:31:18Z</time>
      </trkpt>
      <trkpt lat="44.0767" lon="1.09854">
        <ele>72.9</ele>
        <time>2018-08-21T08:31:20Z</time>
      </trkpt>
      <trkpt lat="44.07681" lon="1.09858">
        <ele>73.6</ele>
        <time>2018-08-21T08:31:22Z</time>
      </trkpt>
      <trkpt lat="44.07692" lon="1.09859">
        <ele>74.2</ele>
        <time>2018-08-21T08:31:24Z</time>
      </trkpt>
      <trkpt lat="44.07704" lon="1.09861">
        <ele>74.7</ele>
        <time>2018-08-21T08:31:26Z</time>
      </trkpt>
      <trkpt lat="44.07715" lon="1.09863">
        <ele>74.1</ele>
        <time>2018-08-21T08:31:28Z</time>
      </trkpt>
      <trkpt lat="44.07726" lon="1.09866">
        <ele>75.4</ele>
        <time>2018-08-21T08:31:30Z</time>
      </trkpt>
      <trkpt lat="44.07738" lon="1.09868">
        <ele>76.1</ele>
        <time>2018-08-21T08:31:32Z</time>
      </trkpt>
      <trkpt lat="44.07749" lon="1.0987">
        <ele>75.1</ele>
        <time>2018-08-21T08:31:34Z</time>
      </trkpt>
      <trkpt lat="44.07762" lon="1.09873">
        <ele>73.3</ele>
        <time>2018-08-21T08:31:36Z</time>
      </trkpt>
      <trkpt lat="44.07773" lon="1.09875">
        <ele>73.2</ele>
        <time>2018-08-21T08:31:38Z</time>
      </trkpt>
      <trkpt lat="44.07785" lon="1.09878">
        <ele>72</ele>
        <time>2018-08-21T08:31:40Z</time>
      </trkpt>
      <trkpt lat="44.07797" lon="1.0988">
        <ele>71.5</ele>
        <time>2018-08-21T08:31:42Z</time>
      </trkpt>
      <trkpt lat="44.07811" lon="1.09885">
        <ele>70.1</ele>
        <time>2018-08-21T08:31:44Z</time>
      </trkpt>
      <trkpt lat="44.07824" lon="1.09889">
        <ele>69.6</ele>
        <time>2018-08-21T08:31:46Z</time>
      </trkpt>
      <trkpt lat="44.07838" lon="1.09894">
        <ele>70.1</ele>
        <time>2018-08-21T08:31:48Z</time>
      </trkpt>
      <trkpt lat="44.0785" lon="1.09897">
        <ele>70.4</ele>
        <time>2018-08-21T08:31:50Z</time>
      </trkpt>
      <trkpt lat="44.07862" lon="1.09899">
        <ele>70.8</ele>
        <time>2018-08-21T08:31:52Z</time>
      </trkpt>
      <trkpt lat="44.07875" lon="1.09901">
        <ele>71.1</ele>
        <time>2018-08-21T08:31:54Z</time>
      </trkpt>
      <trkpt lat="44.07888" lon="1.09903">
        <ele>70.6</ele>
        <time>2018-08-21T08:31:56Z</time>
      </trkpt>
      <trkpt lat="44.079" lon="1.09905">
        <ele>70</ele>
        <time>2018-08-21T08:31:58Z</time>
      </trkpt>
      <trkpt lat="44.07912" lon="1.09907">
        <ele>69.8</ele>
        <time>2018-08-21T08:32:00Z</time>
      </trkpt>
      <trkpt lat="44.07923" lon="1.0991">
        <ele>70.4</ele>
        <time>2018-08-21T08:32:02Z</time>
      </trkpt>
      <trkpt lat="44.07936" lon="1.09913">
        <ele>70.9</ele>
        <time>2018-08-21T08:32:04Z</time>
      </trkpt>
      <trkpt lat="44.07948" lon="1.09917">
        <ele>71</ele>
        <time>2018-08-21T08:32:06Z</time>
      </trkpt>
      <trkpt lat="44.0796" lon="1.0992">
        <ele>72.5</ele>
        <time>2018-08-21T08:32:08Z</time>
      </trkpt>
      <trkpt lat="44.07971" lon="1.09922">
        <ele>74.3</ele>
        <time>2018-08-21T08:32:10Z</time>
      </trkpt>
      <trkpt lat="44.07982" lon="1.09925">
        <ele>76</ele>
        <time>2018-08-21T08:32:12Z</time>
      </trkpt>
      <trkpt lat="44.07995" lon="1.09928">
        <ele>76.4</ele>
        <time>2018-08-21T08:32:14Z</time>
      </trkpt>
      <trkpt lat="44.08008" lon="1.09934">
        <ele>79</ele>
        <time>2018-08-21T08:32:16Z</time>
      </trkpt>
      <trkpt lat="44.0802" lon="1.09936">
        <ele>80</ele>
        <time>2018-08-21T08:32:18Z</time>
      </trkpt>
      <trkpt lat="44.08031" lon="1.09941">
        <ele>81.5</ele>
        <time>2018-08-21T08:32:20Z</time>
      </trkpt>
      <trkpt lat="44.08041" lon="1.09944">
        <ele>82.8</ele>
        <time>2018-08-21T08:32:22Z</time>
      </trkpt>
      <trkpt lat="44.08051" lon="1.09944">
        <ele>83.6</ele>
        <time>2018-08-21T08:32:24Z</time>
      </trkpt>
      <trkpt lat="44.08062" lon="1.09946">
        <ele>85.1</ele>
        <time>2018-08-21T08:32:26Z</time>
      </trkpt>
      <trkpt lat="44.08072" lon="1.09949">
        <ele>84.5</ele>
        <time>2018-08-21T08:32:28Z</time>
      </trkpt>
      <trkpt lat="44.08084" lon="1.09952">
        <ele>85.2</ele>
        <time>2018-08-21T08:32:30Z</time>
      </trkpt>
      <trkpt lat="44.08092" lon="1.09954">
        <ele>84.4</ele>
        <time>2018-08-21T08:32:31Z</time>
      </trkpt>
      <trkpt lat="44.08104" lon="1.09957">
        <ele>83</ele>
        <time>2018-08-21T08:32:33Z</time>
      </trkpt>
      <trkpt lat="44.08116" lon="1.09958">
        <ele>81.7</ele>
        <time>2018-08-21T08:32:35Z</time>
      </trkpt>
      <trkpt lat="44.08129" lon="1.09962">
        <ele>81.6</ele>
        <time>2018-08-21T08:32:37Z</time>
      </trkpt>
      <trkpt lat="44.0814" lon="1.09965">
        <ele>81.8</ele>
        <time>2018-08-21T08:32:39Z</time>
      </trkpt>
      <trkpt lat="44.08151" lon="1.09969">
        <ele>81.9</ele>
        <time>2018-08-21T08:32:41Z</time>
      </trkpt>
      <trkpt lat="44.08164" lon="1.09973">
        <ele>82.8</ele>
        <time>2018-08-21T08:32:43Z</time>
      </trkpt>
      <trkpt lat="44.08178" lon="1.09977">
        <ele>83.4</ele>
        <time>2018-08-21T08:32:45Z</time>
      </trkpt>
      <trkpt lat="44.08189" lon="1.09981">
        <ele>83.7</ele>
        <time>2018-08-21T08:32:47Z</time>
      </trkpt>
      <trkpt lat="44.08201" lon="1.09985">
        <ele>84.5</ele>
        <time>2018-08-21T08:32:49Z</time>
      </trkpt>
      <trkpt lat="44.08214" lon="1.09989">
        <ele>85.5</ele>
        <time>2018-08-21T08:32:51Z</time>
      </trkpt>
      <trkpt lat="44.08225" lon="1.09991">
        <ele>85.5</ele>
        <time>2018-08-21T08:32:53Z</time>
      </trkpt>
      <trkpt lat="44.08238" lon="1.09995">
        <ele>83.9</ele>
        <time>2018-08-21T08:32:55Z</time>
      </trkpt>
      <trkpt lat="44.08249" lon="1.09998">
        <ele>84.4</ele>
        <time>2018-08-21T08:32:57Z</time>
      </trkpt>
      <trkpt lat="44.08261" lon="1.1">
        <ele>82.9</ele>
        <time>2018-08-21T08:32:59Z</time>
      </trkpt>
      <trkpt lat="44.08271" lon="1.10002">
        <ele>81.7</ele>
        <time>2018-08-21T08:33:01Z</time>
      </trkpt>
      <trkpt lat="44.08283" lon="1.10006">
        <ele>80.5</ele>
        <time>2018-08-21T08:33:03Z</time>
      </trkpt>
      <trkpt lat="44.08295" lon="1.10009">
        <ele>80.9</ele>
        <time>2018-08-21T08:33:05Z</time>
      </trkpt>
      <trkpt lat="44.08306" lon="1.10012">
        <ele>81.1</ele>
        <time>2018-08-21T08:33:07Z</time>
      </trkpt>
      <trkpt lat="44.08317" lon="1.10013">
        <ele>80.5</ele>
        <time>2018-08-21T08:33:09Z</time>
      </trkpt>
      <trkpt lat="44.08329" lon="1.10015">
        <ele>79.6</ele>
        <time>2018-08-21T08:33:11Z</time>
      </trkpt>
      <trkpt lat="44.08339" lon="1.10017">
        <ele>79</ele>
        <time>2018-08-21T08:33:13Z</time>
      </trkpt>
      <trkpt lat="44.08348" lon="1.10017">
        <ele>78.1</ele>
        <time>2018-08-21T08:33:15Z</time>
      </trkpt>
      <trkpt lat="44.08361" lon="1.10022">
        <ele>78.1</ele>
        <time>2018-08-21T08:33:17Z</time>
      </trkpt>
      <trkpt lat="44.08368" lon="1.10025">
        <ele>77.7</ele>
        <time>2018-08-21T08:33:18Z</time>
      </trkpt>
      <trkpt lat="44.0838" lon="1.10028">
        <ele>77.2</ele>
        <time>2018-08-21T08:33:20Z</time>
      </trkpt>
      <trkpt lat="44.0839" lon="1.10028">
        <ele>76</ele>
        <time>2018-08-21T08:33:22Z</time>
      </trkpt>
      <trkpt lat="44.084" lon="1.1003">
        <ele>76.2</ele>
        <time>2018-08-21T08:33:24Z</time>
      </trkpt>
      <trkpt lat="44.08411" lon="1.10033">
        <ele>77.2</ele>
        <time>2018-08-21T08:33:26Z</time>
      </trkpt>
      <trkpt lat="44.0842" lon="1.10035">
        <ele>77.1</ele>
        <time>2018-08-21T08:33:28Z</time>
      </trkpt>
      <trkpt lat="44.08432" lon="1.10038">
        <ele>78.5</ele>
        <time>2018-08-21T08:33:30Z</time>
      </trkpt>
      <trkpt lat="44.08444" lon="1.10042">
        <ele>79.5</ele>
        <time>2018-08-21T08:33:32Z</time>
      </trkpt>
      <trkpt lat="44.08455" lon="1.10044">
        <ele>78.9</ele>
        <time>2018-08-21T08:33:34Z</time>
      </trkpt>
      <trkpt lat="44.08466" lon="1.10046">
        <ele>77.9</ele>
        <time>2018-08-21T08:33:36Z</time>
      </trkpt>
      <trkpt lat="44.08476" lon="1.10048">
        <ele>77.2</ele>
        <time>2018-08-21T08:33:38Z</time>
      </trkpt>
      <trkpt lat="44.08487" lon="1.10049">
        <ele>77.8</ele>
        <time>2018-08-21T08:33:40Z</time>
      </trkpt>
      <trkpt lat="44.08497" lon="1.10052">
        <ele>77.7</ele>
        <time>2018-08-21T08:33:42Z</time>
      </trkpt>
      <trkpt lat="44.08508" lon="1.10055">
        <ele>78.3</ele>
        <time>2018-08-21T08:33:44Z</time>
      </trkpt>
      <trkpt lat="44.08518" lon="1.10054">
        <ele>78.7</ele>
        <time>2018-08-21T08:33:46Z</time>
      </trkpt>
      <trkpt lat="44.08529" lon="1.1006">
        <ele>78.7</ele>
        <time>2018-08-21T08:33:48Z</time>
      </trkpt>
      <trkpt lat="44.08543" lon="1.10064">
        <ele>77.8</ele>
        <time>2018-08-21T08:33:50Z</time>
      </trkpt>
      <trkpt lat="44.0855" lon="1.10068">
        <ele>78.9</ele>
        <time>2018-08-21T08:33:51Z</time>
      </trkpt>
      <trkpt lat="44.08557" lon="1.10071">
        <ele>78.6</ele>
        <time>2018-08-21T08:33:52Z</time>
      </trkpt>
      <trkpt lat="44.08569" lon="1.10075">
        <ele>78.8</ele>
        <time>2018-08-21T08:33:54Z</time>
      </trkpt>
      <trkpt lat="44.0858" lon="1.10078">
        <ele>79.6</ele>
        <time>2018-08-21T08:33:56Z</time>
      </trkpt>
      <trkpt lat="44.08592" lon="1.10081">
        <ele>80.1</ele>
        <time>2018-08-21T08:33:58Z</time>
      </trkpt>
      <trkpt lat="44.08603" lon="1.10084">
        <ele>82.6</ele>
        <time>2018-08-21T08:34:00Z</time>
      </trkpt>
      <trkpt lat="44.08614" lon="1.10088">
        <ele>85</ele>
        <time>2018-08-21T08:34:02Z</time>
      </trkpt>
      <trkpt lat="44.08626" lon="1.10091">
        <ele>84.9</ele>
        <time>2018-08-21T08:34:04Z</time>
      </trkpt>
      <trkpt lat="44.08636" lon="1.10094">
        <ele>86</ele>
        <time>2018-08-21T08:34:06Z</time>
      </trkpt>
      <trkpt lat="44.08647" lon="1.10096">
        <ele>87.3</ele>
        <time>2018-08-21T08:34:08Z</time>
      </trkpt>
      <trkpt lat="44.08658" lon="1.10098">
        <ele>87.6</ele>
        <time>2018-08-21T08:34:10Z</time>
      </trkpt>
      <trkpt lat="44.08669" lon="1.101">
        <ele>88</ele>
        <time>2018-08-21T08:34:12Z</time>
      </trkpt>
      <trkpt lat="44.0868" lon="1.10104">
        <ele>89.9</ele>
        <time>2018-08-21T08:34:14Z</time>
      </trkpt>
      <trkpt lat="44.08693" lon="1.10107">
        <ele>89.7</ele>
        <time>2018-08-21T08:34:16Z</time>
      </trkpt>
      <trkpt lat="44.08706" lon="1.1011">
        <ele>89.7</ele>
        <time>2018-08-21T08:34:18Z</time>
      </trkpt>
      <trkpt lat="44.08718" lon="1.10114">
        <ele>90.6</ele>
        <time>2018-08-21T08:34:20Z</time>
      </trkpt>
      <trkpt lat="44.0873" lon="1.10117">
        <ele>89.4</ele>
        <time>2018-08-21T08:34:22Z</time>
      </trkpt>
      <trkpt lat="44.08742" lon="1.10121">
        <ele>89.8</ele>
        <time>2018-08-21T08:34:24Z</time>
      </trkpt>
      <trkpt lat="44.08753" lon="1.10123">
        <ele>90.2</ele>
        <time>2018-08-21T08:34:26Z</time>
      </trkpt>
      <trkpt lat="44.08766" lon="1.10124">
        <ele>89.4</ele>
        <time>2018-08-21T08:34:28Z</time>
      </trkpt>
      <trkpt lat="44.08777" lon="1.10126">
        <ele>89.4</ele>
        <time>2018-08-21T08:34:30Z</time>
      </trkpt>
      <trkpt lat="44.08789" lon="1.10129">
        <ele>88</ele>
        <time>2018-08-21T08:34:32Z</time>
      </trkpt>
      <trkpt lat="44.08802" lon="1.10131">
        <ele>87.2</ele>
        <time>2018-08-21T08:34:34Z</time>
      </trkpt>
      <trkpt lat="44.08814" lon="1.10134">
        <ele>86.8</ele>
        <time>2018-08-21T08:34:36Z</time>
      </trkpt>
      <trkpt lat="44.08825" lon="1.10138">
        <ele>87.5</ele>
        <time>2018-08-21T08:34:38Z</time>
      </trkpt>
      <trkpt lat="44.08837" lon="1.10141">
        <ele>87.3</ele>
        <time>2018-08-21T08:34:40Z</time>
      </trkpt>
      <trkpt lat="44.08848" lon="1.10144">
        <ele>87.6</ele>
        <time>2018-08-21T08:34:42Z</time>
      </trkpt>
      <trkpt lat="44.08855" lon="1.10146">
        <ele>87</ele>
        <time>2018-08-21T08:34:43Z</time>
      </trkpt>
      <trkpt lat="44.08868" lon="1.1015">
        <ele>86.2</ele>
        <time>2018-08-21T08:34:45Z</time>
      </trkpt>
      <trkpt lat="44.08879" lon="1.10153">
        <ele>85.9</ele>
        <time>2018-08-21T08:34:47Z</time>
      </trkpt>
      <trkpt lat="44.08892" lon="1.10156">
        <ele>84.1</ele>
        <time>2018-08-21T08:34:49Z</time>
      </trkpt>
      <trkpt lat="44.08904" lon="1.10158">
        <ele>84</ele>
        <time>2018-08-21T08:34:51Z</time>
      </trkpt>
      <trkpt lat="44.08917" lon="1.10162">
        <ele>83.6</ele>
        <time>2018-08-21T08:34:53Z</time>
      </trkpt>
      <trkpt lat="44.08929" lon="1.10167">
        <ele>83.6</ele>
        <time>2018-08-21T08:34:55Z</time>
      </trkpt>
      <trkpt lat="44.08937" lon="1.10169">
        <ele>83.1</ele>
        <time>2018-08-21T08:34:56Z</time>
      </trkpt>
      <trkpt lat="44.08951" lon="1.10174">
        <ele>81.6</ele>
        <time>2018-08-21T08:34:58Z</time>
      </trkpt>
      <trkpt lat="44.08958" lon="1.10176">
        <ele>80.9</ele>
        <time>2018-08-21T08:34:59Z</time>
      </trkpt>
      <trkpt lat="44.0897" lon="1.10179">
        <ele>79.2</ele>
        <time>2018-08-21T08:35:01Z</time>
      </trkpt>
      <trkpt lat="44.08982" lon="1.10182">
        <ele>78</ele>
        <time>2018-08-21T08:35:03Z</time>
      </trkpt>
      <trkpt lat="44.08991" lon="1.10183">
        <ele>77.2</ele>
        <time>2018-08-21T08:35:05Z</time>
      </trkpt>
      <trkpt lat="44.09001" lon="1.10187">
        <ele>76.3</ele>
        <time>2018-08-21T08:35:07Z</time>
      </trkpt>
      <trkpt lat="44.0901" lon="1.10193">
        <ele>76.6</ele>
        <time>2018-08-21T08:35:09Z</time>
      </trkpt>
      <trkpt lat="44.09019" lon="1.10197">
        <ele>75.9</ele>
        <time>2018-08-21T08:35:11Z</time>
      </trkpt>
      <trkpt lat="44.09026" lon="1.102">
        <ele>76.5</ele>
        <time>2018-08-21T08:35:13Z</time>
      </trkpt>
      <trkpt lat="44.09036" lon="1.10201">
        <ele>76.7</ele>
        <time>2018-08-21T08:35:16Z</time>
      </trkpt>
      <trkpt lat="44.09044" lon="1.10203">
        <ele>76.3</ele>
        <time>2018-08-21T08:35:19Z</time>
      </trkpt>
      <trkpt lat="44.0905" lon="1.10205">
        <ele>75</ele>
        <time>2018-08-21T08:35:26Z</time>
      </trkpt>
      <trkpt lat="44.09049" lon="1.10206">
        <ele>73.9</ele>
        <time>2018-08-21T08:35:49Z</time>
      </trkpt>
      <trkpt lat="44.09054" lon="1.10214">
        <ele>73.3</ele>
        <time>2018-08-21T08:36:17Z</time>
      </trkpt>
      <trkpt lat="44.09061" lon="1.10214">
        <ele>73.5</ele>
        <time>2018-08-21T08:36:21Z</time>
      </trkpt>
      <trkpt lat="44.0907" lon="1.10217">
        <ele>73.9</ele>
        <time>2018-08-21T08:36:25Z</time>
      </trkpt>
      <trkpt lat="44.09078" lon="1.10219">
        <ele>74.7</ele>
        <time>2018-08-21T08:36:28Z</time>
      </trkpt>
      <trkpt lat="44.09086" lon="1.10221">
        <ele>74.7</ele>
        <time>2018-08-21T08:36:31Z</time>
      </trkpt>
      <trkpt lat="44.09094" lon="1.10223">
        <ele>74.6</ele>
        <time>2018-08-21T08:36:34Z</time>
      </trkpt>
      <trkpt lat="44.09103" lon="1.10224">
        <ele>74.2</ele>
        <time>2018-08-21T08:36:37Z</time>
      </trkpt>
      <trkpt lat="44.09112" lon="1.10227">
        <ele>74.1</ele>
        <time>2018-08-21T08:36:40Z</time>
      </trkpt>
      <trkpt lat="44.09122" lon="1.10229">
        <ele>73.8</ele>
        <time>2018-08-21T08:36:43Z</time>
      </trkpt>
      <trkpt lat="44.09131" lon="1.10232">
        <ele>73</ele>
        <time>2018-08-21T08:36:46Z</time>
      </trkpt>
      <trkpt lat="44.09139" lon="1.10233">
        <ele>72.9</ele>
        <time>2018-08-21T08:36:49Z</time>
      </trkpt>
      <trkpt lat="44.09147" lon="1.10236">
        <ele>73.6</ele>
        <time>2018-08-21T08:36:52Z</time>
      </trkpt>
      <trkpt lat="44.09156" lon="1.10239">
        <ele>74.2</ele>
        <time>2018-08-21T08:36:56Z</time>
      </trkpt>
      <trkpt lat="44.09158" lon="1.10239">
        <ele>74.2</ele>
        <time>2018-08-21T08:37:03Z</time>
      </trkpt>
      <trkpt lat="44.09165" lon="1.10242">
        <ele>75.6</ele>
        <time>2018-08-21T08:38:45Z</time>
      </trkpt>
      <trkpt lat="44.09166" lon="1.10243">
        <ele>75</ele>
        <time>2018-08-21T08:38:52Z</time>
      </trkpt>
      <trkpt lat="44.09175" lon="1.10245">
        <ele>74.5</ele>
        <time>2018-08-21T08:39:02Z</time>
      </trkpt>
      <trkpt lat="44.09183" lon="1.10246">
        <ele>74.9</ele>
        <time>2018-08-21T08:39:06Z</time>
      </trkpt>
      <trkpt lat="44.09188" lon="1.10247">
        <ele>74.9</ele>
        <time>2018-08-21T08:39:13Z</time>
      </trkpt>
      <trkpt lat="44.09198" lon="1.10249">
        <ele>74</ele>
        <time>2018-08-21T08:39:26Z</time>
      </trkpt>
      <trkpt lat="44.09206" lon="1.10251">
        <ele>73.8</ele>
        <time>2018-08-21T08:39:30Z</time>
      </trkpt>
      <trkpt lat="44.09216" lon="1.10253">
        <ele>73.9</ele>
        <time>2018-08-21T08:39:32Z</time>
      </trkpt>
      <trkpt lat="44.09226" lon="1.10255">
        <ele>74</ele>
        <time>2018-08-21T08:39:35Z</time>
      </trkpt>
      <trkpt lat="44.09234" lon="1.10257">
        <ele>74.1</ele>
        <time>2018-08-21T08:39:37Z</time>
      </trkpt>
      <trkpt lat="44.09242" lon="1.10259">
        <ele>74.1</ele>
        <time>2018-08-21T08:39:39Z</time>
      </trkpt>
      <trkpt lat="44.0925" lon="1.1026">
        <ele>74.1</ele>
        <time>2018-08-21T08:39:41Z</time>
      </trkpt>
      <trkpt lat="44.09258" lon="1.10262">
        <ele>73.7</ele>
        <time>2018-08-21T08:39:43Z</time>
      </trkpt>
      <trkpt lat="44.09266" lon="1.10264">
        <ele>73.4</ele>
        <time>2018-08-21T08:39:45Z</time>
      </trkpt>
      <trkpt lat="44.09274" lon="1.10266">
        <ele>73.7</ele>
        <time>2018-08-21T08:39:48Z</time>
      </trkpt>
      <trkpt lat="44.09283" lon="1.10268">
        <ele>74.9</ele>
        <time>2018-08-21T08:39:49Z</time>
      </trkpt>
      <trkpt lat="44.09291" lon="1.10271">
        <ele>74.7</ele>
        <time>2018-08-21T08:39:51Z</time>
      </trkpt>
      <trkpt lat="44.093" lon="1.10273">
        <ele>74.7</ele>
        <time>2018-08-21T08:39:53Z</time>
      </trkpt>
      <trkpt lat="44.09308" lon="1.10276">
        <ele>74.8</ele>
        <time>2018-08-21T08:39:55Z</time>
      </trkpt>
      <trkpt lat="44.09316" lon="1.10279">
        <ele>75.1</ele>
        <time>2018-08-21T08:39:57Z</time>
      </trkpt>
      <trkpt lat="44.09323" lon="1.10281">
        <ele>75.5</ele>
        <time>2018-08-21T08:39:59Z</time>
      </trkpt>
      <trkpt lat="44.09333" lon="1.1028">
        <ele>75.9</ele>
        <time>2018-08-21T08:40:02Z</time>
      </trkpt>
      <trkpt lat="44.09342" lon="1.1028">
        <ele>75.5</ele>
        <time>2018-08-21T08:40:05Z</time>
      </trkpt>
      <trkpt lat="44.0935" lon="1.10282">
        <ele>75.1</ele>
        <time>2018-08-21T08:40:08Z</time>
      </trkpt>
      <trkpt lat="44.09359" lon="1.10283">
        <ele>74.2</ele>
        <time>2018-08-21T08:40:11Z</time>
      </trkpt>
      <trkpt lat="44.09368" lon="1.10284">
        <ele>72.9</ele>
        <time>2018-08-21T08:40:14Z</time>
      </trkpt>
      <trkpt lat="44.09378" lon="1.10284">
        <ele>72.3</ele>
        <time>2018-08-21T08:40:17Z</time>
      </trkpt>
      <trkpt lat="44.09387" lon="1.10287">
        <ele>72.3</ele>
        <time>2018-08-21T08:40:20Z</time>
      </trkpt>
      <trkpt lat="44.09395" lon="1.10287">
        <ele>72.8</ele>
        <time>2018-08-21T08:40:22Z</time>
      </trkpt>
      <trkpt lat="44.09404" lon="1.10286">
        <ele>73.1</ele>
        <time>2018-08-21T08:40:25Z</time>
      </trkpt>
      <trkpt lat="44.09413" lon="1.10285">
        <ele>74</ele>
        <time>2018-08-21T08:40:28Z</time>
      </trkpt>
      <trkpt lat="44.09422" lon="1.10285">
        <ele>75.2</ele>
        <time>2018-08-21T08:40:31Z</time>
      </trkpt>
      <trkpt lat="44.09431" lon="1.10289">
        <ele>79.9</ele>
        <time>2018-08-21T08:40:33Z</time>
      </trkpt>
      <trkpt lat="44.0944" lon="1.10291">
        <ele>81</ele>
        <time>2018-08-21T08:40:35Z</time>
      </trkpt>
      <trkpt lat="44.09453" lon="1.10294">
        <ele>81.1</ele>
        <time>2018-08-21T08:40:37Z</time>
      </trkpt>
      <trkpt lat="44.0946" lon="1.10297">
        <ele>80.6</ele>
        <time>2018-08-21T08:40:38Z</time>
      </trkpt>
      <trkpt lat="44.0947" lon="1.10299">
        <ele>80</ele>
        <time>2018-08-21T08:40:40Z</time>
      </trkpt>
      <trkpt lat="44.09482" lon="1.10303">
        <ele>80.5</ele>
        <time>2018-08-21T08:40:42Z</time>
      </trkpt>
      <trkpt lat="44.09495" lon="1.10307">
        <ele>81.4</ele>
        <time>2018-08-21T08:40:44Z</time>
      </trkpt>
      <trkpt lat="44.09508" lon="1.10309">
        <ele>81.6</ele>
        <time>2018-08-21T08:40:46Z</time>
      </trkpt>
      <trkpt lat="44.09519" lon="1.10312">
        <ele>82.3</ele>
        <time>2018-08-21T08:40:48Z</time>
      </trkpt>
      <trkpt lat="44.0953" lon="1.10314">
        <ele>85.1</ele>
        <time>2018-08-21T08:40:50Z</time>
      </trkpt>
      <trkpt lat="44.09542" lon="1.10314">
        <ele>84</ele>
        <time>2018-08-21T08:40:52Z</time>
      </trkpt>
      <trkpt lat="44.09555" lon="1.10312">
        <ele>82.2</ele>
        <time>2018-08-21T08:40:54Z</time>
      </trkpt>
      <trkpt lat="44.09568" lon="1.10311">
        <ele>81.2</ele>
        <time>2018-08-21T08:40:56Z</time>
      </trkpt>
      <trkpt lat="44.0958" lon="1.10309">
        <ele>80.1</ele>
        <time>2018-08-21T08:40:58Z</time>
      </trkpt>
      <trkpt lat="44.09591" lon="1.10306">
        <ele>78.8</ele>
        <time>2018-08-21T08:41:00Z</time>
      </trkpt>
      <trkpt lat="44.09602" lon="1.10299">
        <ele>78.3</ele>
        <time>2018-08-21T08:41:02Z</time>
      </trkpt>
      <trkpt lat="44.09612" lon="1.10293">
        <ele>77.2</ele>
        <time>2018-08-21T08:41:04Z</time>
      </trkpt>
      <trkpt lat="44.09623" lon="1.10288">
        <ele>76.3</ele>
        <time>2018-08-21T08:41:06Z</time>
      </trkpt>
      <trkpt lat="44.09633" lon="1.1028">
        <ele>76</ele>
        <time>2018-08-21T08:41:08Z</time>
      </trkpt>
      <trkpt lat="44.09644" lon="1.10271">
        <ele>75.1</ele>
        <time>2018-08-21T08:41:10Z</time>
      </trkpt>
      <trkpt lat="44.09654" lon="1.10262">
        <ele>74.5</ele>
        <time>2018-08-21T08:41:12Z</time>
      </trkpt>
      <trkpt lat="44.09663" lon="1.10253">
        <ele>74.1</ele>
        <time>2018-08-21T08:41:14Z</time>
      </trkpt>
      <trkpt lat="44.09671" lon="1.10241">
        <ele>73.7</ele>
        <time>2018-08-21T08:41:16Z</time>
      </trkpt>
      <trkpt lat="44.0968" lon="1.10229">
        <ele>73.2</ele>
        <time>2018-08-21T08:41:18Z</time>
      </trkpt>
      <trkpt lat="44.09686" lon="1.10217">
        <ele>72.6</ele>
        <time>2018-08-21T08:41:20Z</time>
      </trkpt>
      <trkpt lat="44.09692" lon="1.10205">
        <ele>72.2</ele>
        <time>2018-08-21T08:41:22Z</time>
      </trkpt>
      <trkpt lat="44.09699" lon="1.10194">
        <ele>72.1</ele>
        <time>2018-08-21T08:41:25Z</time>
      </trkpt>
      <trkpt lat="44.09703" lon="1.10181">
        <ele>72.4</ele>
        <time>2018-08-21T08:41:26Z</time>
      </trkpt>
      <trkpt lat="44.09708" lon="1.10167">
        <ele>72.6</ele>
        <time>2018-08-21T08:41:28Z</time>
      </trkpt>
      <trkpt lat="44.09713" lon="1.10152">
        <ele>72.6</ele>
        <time>2018-08-21T08:41:30Z</time>
      </trkpt>
      <trkpt lat="44.09717" lon="1.10138">
        <ele>72.8</ele>
        <time>2018-08-21T08:41:32Z</time>
      </trkpt>
      <trkpt lat="44.0972" lon="1.10126">
        <ele>72.6</ele>
        <time>2018-08-21T08:41:34Z</time>
      </trkpt>
      <trkpt lat="44.09723" lon="1.10113">
        <ele>73.1</ele>
        <time>2018-08-21T08:41:37Z</time>
      </trkpt>
      <trkpt lat="44.09727" lon="1.10098">
        <ele>72.2</ele>
        <time>2018-08-21T08:41:40Z</time>
      </trkpt>
      <trkpt lat="44.0973" lon="1.10087">
        <ele>72.4</ele>
        <time>2018-08-21T08:41:42Z</time>
      </trkpt>
      <trkpt lat="44.09734" lon="1.10075">
        <ele>72.6</ele>
        <time>2018-08-21T08:41:44Z</time>
      </trkpt>
      <trkpt lat="44.09737" lon="1.10063">
        <ele>72.5</ele>
        <time>2018-08-21T08:41:46Z</time>
      </trkpt>
      <trkpt lat="44.0974" lon="1.10051">
        <ele>72.4</ele>
        <time>2018-08-21T08:41:49Z</time>
      </trkpt>
      <trkpt lat="44.09745" lon="1.10038">
        <ele>72.6</ele>
        <time>2018-08-21T08:41:50Z</time>
      </trkpt>
      <trkpt lat="44.09748" lon="1.10025">
        <ele>73.2</ele>
        <time>2018-08-21T08:41:52Z</time>
      </trkpt>
      <trkpt lat="44.09752" lon="1.10012">
        <ele>73.3</ele>
        <time>2018-08-21T08:41:54Z</time>
      </trkpt>
      <trkpt lat="44.09756" lon="1.09998">
        <ele>73.8</ele>
        <time>2018-08-21T08:41:56Z</time>
      </trkpt>
      <trkpt lat="44.0976" lon="1.09984">
        <ele>72.8</ele>
        <time>2018-08-21T08:41:58Z</time>
      </trkpt>
      <trkpt lat="44.09764" lon="1.0997">
        <ele>73.1</ele>
        <time>2018-08-21T08:42:00Z</time>
      </trkpt>
      <trkpt lat="44.09768" lon="1.09956">
        <ele>72.9</ele>
        <time>2018-08-21T08:42:02Z</time>
      </trkpt>
      <trkpt lat="44.09772" lon="1.09943">
        <ele>73.3</ele>
        <time>2018-08-21T08:42:04Z</time>
      </trkpt>
      <trkpt lat="44.09775" lon="1.09931">
        <ele>73.8</ele>
        <time>2018-08-21T08:42:06Z</time>
      </trkpt>
      <trkpt lat="44.09779" lon="1.09917">
        <ele>73.4</ele>
        <time>2018-08-21T08:42:08Z</time>
      </trkpt>
      <trkpt lat="44.09784" lon="1.09904">
        <ele>73.8</ele>
        <time>2018-08-21T08:42:11Z</time>
      </trkpt>
      <trkpt lat="44.09787" lon="1.09892">
        <ele>73.8</ele>
        <time>2018-08-21T08:42:12Z</time>
      </trkpt>
      <trkpt lat="44.09791" lon="1.0988">
        <ele>73.5</ele>
        <time>2018-08-21T08:42:14Z</time>
      </trkpt>
      <trkpt lat="44.09795" lon="1.09869">
        <ele>74.5</ele>
        <time>2018-08-21T08:42:16Z</time>
      </trkpt>
      <trkpt lat="44.09798" lon="1.09853">
        <ele>75</ele>
        <time>2018-08-21T08:42:18Z</time>
      </trkpt>
      <trkpt lat="44.09801" lon="1.09837">
        <ele>75.4</ele>
        <time>2018-08-21T08:42:20Z</time>
      </trkpt>
      <trkpt lat="44.09805" lon="1.09823">
        <ele>76.1</ele>
        <time>2018-08-21T08:42:22Z</time>
      </trkpt>
      <trkpt lat="44.09809" lon="1.09807">
        <ele>76.1</ele>
        <time>2018-08-21T08:42:24Z</time>
      </trkpt>
      <trkpt lat="44.09813" lon="1.0979">
        <ele>76.2</ele>
        <time>2018-08-21T08:42:26Z</time>
      </trkpt>
      <trkpt lat="44.09817" lon="1.09776">
        <ele>76.9</ele>
        <time>2018-08-21T08:42:28Z</time>
      </trkpt>
      <trkpt lat="44.09821" lon="1.0976">
        <ele>77.2</ele>
        <time>2018-08-21T08:42:30Z</time>
      </trkpt>
      <trkpt lat="44.09826" lon="1.09744">
        <ele>77.8</ele>
        <time>2018-08-21T08:42:32Z</time>
      </trkpt>
      <trkpt lat="44.0983" lon="1.09729">
        <ele>78.2</ele>
        <time>2018-08-21T08:42:34Z</time>
      </trkpt>
      <trkpt lat="44.09835" lon="1.09713">
        <ele>77</ele>
        <time>2018-08-21T08:42:36Z</time>
      </trkpt>
      <trkpt lat="44.09841" lon="1.09697">
        <ele>76.9</ele>
        <time>2018-08-21T08:42:38Z</time>
      </trkpt>
      <trkpt lat="44.09844" lon="1.09688">
        <ele>76.9</ele>
        <time>2018-08-21T08:42:39Z</time>
      </trkpt>
      <trkpt lat="44.0985" lon="1.09671">
        <ele>77</ele>
        <time>2018-08-21T08:42:41Z</time>
      </trkpt>
      <trkpt lat="44.09854" lon="1.09654">
        <ele>76.4</ele>
        <time>2018-08-21T08:42:43Z</time>
      </trkpt>
      <trkpt lat="44.09858" lon="1.0964">
        <ele>76.4</ele>
        <time>2018-08-21T08:42:45Z</time>
      </trkpt>
      <trkpt lat="44.09863" lon="1.09625">
        <ele>76.1</ele>
        <time>2018-08-21T08:42:47Z</time>
      </trkpt>
      <trkpt lat="44.09868" lon="1.09609">
        <ele>76</ele>
        <time>2018-08-21T08:42:49Z</time>
      </trkpt>
      <trkpt lat="44.09872" lon="1.09593">
        <ele>75.3</ele>
        <time>2018-08-21T08:42:51Z</time>
      </trkpt>
      <trkpt lat="44.09877" lon="1.09577">
        <ele>75.3</ele>
        <time>2018-08-21T08:42:53Z</time>
      </trkpt>
      <trkpt lat="44.09881" lon="1.09564">
        <ele>75.6</ele>
        <time>2018-08-21T08:42:55Z</time>
      </trkpt>
      <trkpt lat="44.09885" lon="1.09548">
        <ele>75.9</ele>
        <time>2018-08-21T08:42:57Z</time>
      </trkpt>
      <trkpt lat="44.0989" lon="1.09532">
        <ele>75.7</ele>
        <time>2018-08-21T08:42:59Z</time>
      </trkpt>
      <trkpt lat="44.09894" lon="1.09517">
        <ele>76</ele>
        <time>2018-08-21T08:43:01Z</time>
      </trkpt>
      <trkpt lat="44.09899" lon="1.095">
        <ele>75.9</ele>
        <time>2018-08-21T08:43:03Z</time>
      </trkpt>
      <trkpt lat="44.09903" lon="1.09483">
        <ele>76.1</ele>
        <time>2018-08-21T08:43:05Z</time>
      </trkpt>
      <trkpt lat="44.09907" lon="1.09465">
        <ele>76.4</ele>
        <time>2018-08-21T08:43:07Z</time>
      </trkpt>
      <trkpt lat="44.09911" lon="1.09449">
        <ele>76.7</ele>
        <time>2018-08-21T08:43:09Z</time>
      </trkpt>
      <trkpt lat="44.09916" lon="1.09433">
        <ele>76.8</ele>
        <time>2018-08-21T08:43:11Z</time>
      </trkpt>
      <trkpt lat="44.09922" lon="1.09419">
        <ele>76.6</ele>
        <time>2018-08-21T08:43:13Z</time>
      </trkpt>
      <trkpt lat="44.09926" lon="1.09405">
        <ele>76.6</ele>
        <time>2018-08-21T08:43:15Z</time>
      </trkpt>
      <trkpt lat="44.0993" lon="1.09392">
        <ele>76</ele>
        <time>2018-08-21T08:43:17Z</time>
      </trkpt>
      <trkpt lat="44.09933" lon="1.0938">
        <ele>76.3</ele>
        <time>2018-08-21T08:43:19Z</time>
      </trkpt>
      <trkpt lat="44.09936" lon="1.09368">
        <ele>74.6</ele>
        <time>2018-08-21T08:43:22Z</time>
      </trkpt>
      <trkpt lat="44.09942" lon="1.09353">
        <ele>74.8</ele>
        <time>2018-08-21T08:43:25Z</time>
      </trkpt>
      <trkpt lat="44.09946" lon="1.09341">
        <ele>75.2</ele>
        <time>2018-08-21T08:43:27Z</time>
      </trkpt>
      <trkpt lat="44.09949" lon="1.09327">
        <ele>76.2</ele>
        <time>2018-08-21T08:43:29Z</time>
      </trkpt>
      <trkpt lat="44.09953" lon="1.09313">
        <ele>74.8</ele>
        <time>2018-08-21T08:43:31Z</time>
      </trkpt>
      <trkpt lat="44.09955" lon="1.09299">
        <ele>77.4</ele>
        <time>2018-08-21T08:43:33Z</time>
      </trkpt>
      <trkpt lat="44.09959" lon="1.09285">
        <ele>77.5</ele>
        <time>2018-08-21T08:43:35Z</time>
      </trkpt>
      <trkpt lat="44.09962" lon="1.09272">
        <ele>78.1</ele>
        <time>2018-08-21T08:43:37Z</time>
      </trkpt>
      <trkpt lat="44.09965" lon="1.09261">
        <ele>78.9</ele>
        <time>2018-08-21T08:43:39Z</time>
      </trkpt>
      <trkpt lat="44.09968" lon="1.09251">
        <ele>79.3</ele>
        <time>2018-08-21T08:43:42Z</time>
      </trkpt>
      <trkpt lat="44.09971" lon="1.09241">
        <ele>78.8</ele>
        <time>2018-08-21T08:43:43Z</time>
      </trkpt>
      <trkpt lat="44.09975" lon="1.09232">
        <ele>78.9</ele>
        <time>2018-08-21T08:43:45Z</time>
      </trkpt>
      <trkpt lat="44.09981" lon="1.0922">
        <ele>79.5</ele>
        <time>2018-08-21T08:43:48Z</time>
      </trkpt>
      <trkpt lat="44.09985" lon="1.09208">
        <ele>79.6</ele>
        <time>2018-08-21T08:43:51Z</time>
      </trkpt>
      <trkpt lat="44.09989" lon="1.09195">
        <ele>77.8</ele>
        <time>2018-08-21T08:43:54Z</time>
      </trkpt>
      <trkpt lat="44.09991" lon="1.09185">
        <ele>77.6</ele>
        <time>2018-08-21T08:43:57Z</time>
      </trkpt>
      <trkpt lat="44.09996" lon="1.0918">
        <ele>79.7</ele>
        <time>2018-08-21T08:44:04Z</time>
      </trkpt>
      <trkpt lat="44.09997" lon="1.0918">
        <ele>81</ele>
        <time>2018-08-21T08:44:11Z</time>
      </trkpt>
      <trkpt lat="44.10005" lon="1.09185">
        <ele>77.6</ele>
        <time>2018-08-21T08:43:39Z</time>
      </trkpt>
      <trkpt lat="44.1001" lon="1.09187">
        <ele>75.5</ele>
        <time>2018-08-21T08:44:51Z</time>
      </trkpt>
      <trkpt lat="44.10007" lon="1.09185">
        <ele>74.9</ele>
        <time>2018-08-21T08:44:58Z</time>
      </trkpt>
      <trkpt lat="44.09999" lon="1.09182">
        <ele>75.4</ele>
        <time>2018-08-21T08:45:02Z</time>
      </trkpt>
      <trkpt lat="44.09993" lon="1.0919">
        <ele>75.4</ele>
        <time>2018-08-21T08:45:09Z</time>
      </trkpt>
      <trkpt lat="44.09991" lon="1.09186">
        <ele>75.9</ele>
        <time>2018-08-21T08:45:16Z</time>
      </trkpt>
      <trkpt lat="44.09992" lon="1.09178">
        <ele>75.7</ele>
        <time>2018-08-21T08:45:23Z</time>
      </trkpt>
      <trkpt lat="44.09993" lon="1.09167">
        <ele>75.2</ele>
        <time>2018-08-21T08:45:26Z</time>
      </trkpt>
      <trkpt lat="44.09994" lon="1.09153">
        <ele>75</ele>
        <time>2018-08-21T08:45:29Z</time>
      </trkpt>
      <trkpt lat="44.09993" lon="1.09142">
        <ele>74.6</ele>
        <time>2018-08-21T08:45:31Z</time>
      </trkpt>
      <trkpt lat="44.09993" lon="1.09131">
        <ele>74.2</ele>
        <time>2018-08-21T08:45:33Z</time>
      </trkpt>
      <trkpt lat="44.0999" lon="1.0912">
        <ele>74</ele>
        <time>2018-08-21T08:45:35Z</time>
      </trkpt>
      <trkpt lat="44.09987" lon="1.09109">
        <ele>73.4</ele>
        <time>2018-08-21T08:45:37Z</time>
      </trkpt>
      <trkpt lat="44.09983" lon="1.09099">
        <ele>73</ele>
        <time>2018-08-21T08:45:39Z</time>
      </trkpt>
      <trkpt lat="44.09979" lon="1.09088">
        <ele>72.6</ele>
        <time>2018-08-21T08:45:41Z</time>
      </trkpt>
      <trkpt lat="44.09974" lon="1.09079">
        <ele>72.1</ele>
        <time>2018-08-21T08:45:43Z</time>
      </trkpt>
      <trkpt lat="44.09969" lon="1.0907">
        <ele>72</ele>
        <time>2018-08-21T08:45:45Z</time>
      </trkpt>
      <trkpt lat="44.09964" lon="1.09059">
        <ele>71.9</ele>
        <time>2018-08-21T08:45:48Z</time>
      </trkpt>
      <trkpt lat="44.0996" lon="1.09048">
        <ele>72</ele>
        <time>2018-08-21T08:45:53Z</time>
      </trkpt>
      <trkpt lat="44.09957" lon="1.09037">
        <ele>71</ele>
        <time>2018-08-21T08:46:00Z</time>
      </trkpt>
      <trkpt lat="44.09958" lon="1.09025">
        <ele>70.3</ele>
        <time>2018-08-21T08:46:06Z</time>
      </trkpt>
      <trkpt lat="44.09961" lon="1.09014">
        <ele>70</ele>
        <time>2018-08-21T08:46:11Z</time>
      </trkpt>
      <trkpt lat="44.09965" lon="1.09006">
        <ele>70.2</ele>
        <time>2018-08-21T08:46:14Z</time>
      </trkpt>
      <trkpt lat="44.09969" lon="1.08997">
        <ele>70.3</ele>
        <time>2018-08-21T08:46:18Z</time>
      </trkpt>
      <trkpt lat="44.09966" lon="1.08988">
        <ele>70.2</ele>
        <time>2018-08-21T08:46:22Z</time>
      </trkpt>
      <trkpt lat="44.09961" lon="1.08977">
        <ele>69.9</ele>
        <time>2018-08-21T08:46:25Z</time>
      </trkpt>
      <trkpt lat="44.09956" lon="1.08969">
        <ele>69.6</ele>
        <time>2018-08-21T08:46:27Z</time>
      </trkpt>
      <trkpt lat="44.0995" lon="1.08962">
        <ele>69.8</ele>
        <time>2018-08-21T08:46:30Z</time>
      </trkpt>
      <trkpt lat="44.09944" lon="1.08955">
        <ele>69.9</ele>
        <time>2018-08-21T08:46:32Z</time>
      </trkpt>
      <trkpt lat="44.09939" lon="1.08944">
        <ele>70</ele>
        <time>2018-08-21T08:46:34Z</time>
      </trkpt>
      <trkpt lat="44.09937" lon="1.08931">
        <ele>69.7</ele>
        <time>2018-08-21T08:46:37Z</time>
      </trkpt>
      <trkpt lat="44.09938" lon="1.08922">
        <ele>69.4</ele>
        <time>2018-08-21T08:46:44Z</time>
      </trkpt>
      <trkpt lat="44.09938" lon="1.08922">
        <ele>68</ele>
        <time>2018-08-21T08:47:05Z</time>
      </trkpt>
      <trkpt lat="44.09942" lon="1.08911">
        <ele>67.2</ele>
        <time>2018-08-21T08:47:12Z</time>
      </trkpt>
      <trkpt lat="44.09943" lon="1.08901">
        <ele>66.7</ele>
        <time>2018-08-21T08:47:15Z</time>
      </trkpt>
      <trkpt lat="44.09944" lon="1.08887">
        <ele>66.5</ele>
        <time>2018-08-21T08:47:18Z</time>
      </trkpt>
      <trkpt lat="44.09946" lon="1.08877">
        <ele>66.5</ele>
        <time>2018-08-21T08:47:20Z</time>
      </trkpt>
      <trkpt lat="44.09948" lon="1.08866">
        <ele>66.6</ele>
        <time>2018-08-21T08:47:22Z</time>
      </trkpt>
      <trkpt lat="44.09949" lon="1.08855">
        <ele>66.3</ele>
        <time>2018-08-21T08:47:24Z</time>
      </trkpt>
      <trkpt lat="44.0995" lon="1.08844">
        <ele>66.1</ele>
        <time>2018-08-21T08:47:26Z</time>
      </trkpt>
      <trkpt lat="44.09952" lon="1.08833">
        <ele>65.9</ele>
        <time>2018-08-21T08:47:28Z</time>
      </trkpt>
      <trkpt lat="44.09953" lon="1.08822">
        <ele>65.9</ele>
        <time>2018-08-21T08:47:30Z</time>
      </trkpt>
      <trkpt lat="44.09954" lon="1.08811">
        <ele>66</ele>
        <time>2018-08-21T08:47:32Z</time>
      </trkpt>
      <trkpt lat="44.09955" lon="1.088">
        <ele>66.2</ele>
        <time>2018-08-21T08:47:34Z</time>
      </trkpt>
      <trkpt lat="44.09957" lon="1.08787">
        <ele>66.2</ele>
        <time>2018-08-21T08:47:37Z</time>
      </trkpt>
      <trkpt lat="44.09958" lon="1.08774">
        <ele>66.3</ele>
        <time>2018-08-21T08:47:41Z</time>
      </trkpt>
      <trkpt lat="44.0996" lon="1.08762">
        <ele>66.2</ele>
        <time>2018-08-21T08:47:44Z</time>
      </trkpt>
      <trkpt lat="44.09961" lon="1.08758">
        <ele>66.5</ele>
        <time>2018-08-21T08:47:51Z</time>
      </trkpt>
      <trkpt lat="44.09966" lon="1.08761">
        <ele>65.5</ele>
        <time>2018-08-21T08:48:04Z</time>
      </trkpt>
      <trkpt lat="44.09966" lon="1.08751">
        <ele>65.5</ele>
        <time>2018-08-21T08:48:10Z</time>
      </trkpt>
      <trkpt lat="44.09967" lon="1.08739">
        <ele>65.4</ele>
        <time>2018-08-21T08:48:13Z</time>
      </trkpt>
      <trkpt lat="44.09969" lon="1.08727">
        <ele>65.1</ele>
        <time>2018-08-21T08:48:16Z</time>
      </trkpt>
      <trkpt lat="44.09972" lon="1.08714">
        <ele>64.7</ele>
        <time>2018-08-21T08:48:19Z</time>
      </trkpt>
      <trkpt lat="44.09973" lon="1.08701">
        <ele>64.5</ele>
        <time>2018-08-21T08:48:22Z</time>
      </trkpt>
      <trkpt lat="44.09975" lon="1.08687">
        <ele>64.5</ele>
        <time>2018-08-21T08:48:25Z</time>
      </trkpt>
      <trkpt lat="44.09976" lon="1.08677">
        <ele>64.4</ele>
        <time>2018-08-21T08:48:27Z</time>
      </trkpt>
      <trkpt lat="44.09978" lon="1.08667">
        <ele>64.4</ele>
        <time>2018-08-21T08:48:29Z</time>
      </trkpt>
      <trkpt lat="44.09979" lon="1.08652">
        <ele>64.5</ele>
        <time>2018-08-21T08:48:32Z</time>
      </trkpt>
      <trkpt lat="44.09981" lon="1.08642">
        <ele>64.3</ele>
        <time>2018-08-21T08:48:35Z</time>
      </trkpt>
      <trkpt lat="44.09982" lon="1.08634">
        <ele>62.8</ele>
        <time>2018-08-21T08:48:42Z</time>
      </trkpt>
      <trkpt lat="44.09977" lon="1.08623">
        <ele>61.3</ele>
        <time>2018-08-21T08:48:54Z</time>
      </trkpt>
      <trkpt lat="44.0997" lon="1.08614">
        <ele>61.8</ele>
        <time>2018-08-21T08:48:57Z</time>
      </trkpt>
      <trkpt lat="44.09965" lon="1.08608">
        <ele>62.1</ele>
        <time>2018-08-21T08:48:59Z</time>
      </trkpt>
      <trkpt lat="44.09959" lon="1.08601">
        <ele>62.5</ele>
        <time>2018-08-21T08:49:01Z</time>
      </trkpt>
      <trkpt lat="44.09953" lon="1.0859">
        <ele>63.6</ele>
        <time>2018-08-21T08:49:04Z</time>
      </trkpt>
      <trkpt lat="44.09952" lon="1.08576">
        <ele>64.1</ele>
        <time>2018-08-21T08:49:07Z</time>
      </trkpt>
      <trkpt lat="44.09953" lon="1.08564">
        <ele>64.2</ele>
        <time>2018-08-21T08:49:10Z</time>
      </trkpt>
      <trkpt lat="44.09956" lon="1.08554">
        <ele>64.3</ele>
        <time>2018-08-21T08:49:13Z</time>
      </trkpt>
      <trkpt lat="44.09963" lon="1.08548">
        <ele>64.7</ele>
        <time>2018-08-21T08:49:16Z</time>
      </trkpt>
      <trkpt lat="44.09971" lon="1.08541">
        <ele>65</ele>
        <time>2018-08-21T08:49:19Z</time>
      </trkpt>
      <trkpt lat="44.09976" lon="1.08531">
        <ele>65</ele>
        <time>2018-08-21T08:49:22Z</time>
      </trkpt>
      <trkpt lat="44.09976" lon="1.08519">
        <ele>65</ele>
        <time>2018-08-21T08:49:24Z</time>
      </trkpt>
      <trkpt lat="44.09975" lon="1.08508">
        <ele>64.5</ele>
        <time>2018-08-21T08:49:26Z</time>
      </trkpt>
      <trkpt lat="44.09973" lon="1.08496">
        <ele>64.2</ele>
        <time>2018-08-21T08:49:28Z</time>
      </trkpt>
      <trkpt lat="44.09971" lon="1.08485">
        <ele>63.7</ele>
        <time>2018-08-21T08:49:30Z</time>
      </trkpt>
      <trkpt lat="44.09969" lon="1.08474">
        <ele>63.3</ele>
        <time>2018-08-21T08:49:32Z</time>
      </trkpt>
      <trkpt lat="44.09968" lon="1.08463">
        <ele>63</ele>
        <time>2018-08-21T08:49:34Z</time>
      </trkpt>
      <trkpt lat="44.09969" lon="1.0845">
        <ele>63.4</ele>
        <time>2018-08-21T08:49:37Z</time>
      </trkpt>
      <trkpt lat="44.09971" lon="1.08439">
        <ele>63.7</ele>
        <time>2018-08-21T08:49:41Z</time>
      </trkpt>
      <trkpt lat="44.09968" lon="1.08428">
        <ele>63.7</ele>
        <time>2018-08-21T08:49:44Z</time>
      </trkpt>
      <trkpt lat="44.09967" lon="1.08418">
        <ele>63.8</ele>
        <time>2018-08-21T08:49:46Z</time>
      </trkpt>
      <trkpt lat="44.09966" lon="1.08407">
        <ele>63.8</ele>
        <time>2018-08-21T08:49:48Z</time>
      </trkpt>
      <trkpt lat="44.09965" lon="1.08395">
        <ele>63.8</ele>
        <time>2018-08-21T08:49:50Z</time>
      </trkpt>
      <trkpt lat="44.09965" lon="1.08383">
        <ele>63.8</ele>
        <time>2018-08-21T08:49:52Z</time>
      </trkpt>
      <trkpt lat="44.09964" lon="1.08372">
        <ele>63.9</ele>
        <time>2018-08-21T08:49:54Z</time>
      </trkpt>
      <trkpt lat="44.09964" lon="1.08359">
        <ele>64.1</ele>
        <time>2018-08-21T08:49:56Z</time>
      </trkpt>
      <trkpt lat="44.09963" lon="1.08347">
        <ele>64.2</ele>
        <time>2018-08-21T08:49:58Z</time>
      </trkpt>
      <trkpt lat="44.09963" lon="1.08334">
        <ele>64.1</ele>
        <time>2018-08-21T08:50:00Z</time>
      </trkpt>
      <trkpt lat="44.09962" lon="1.08321">
        <ele>64</ele>
        <time>2018-08-21T08:50:02Z</time>
      </trkpt>
      <trkpt lat="44.09961" lon="1.08308">
        <ele>64</ele>
        <time>2018-08-21T08:50:04Z</time>
      </trkpt>
      <trkpt lat="44.09961" lon="1.08294">
        <ele>64.1</ele>
        <time>2018-08-21T08:50:06Z</time>
      </trkpt>
      <trkpt lat="44.09961" lon="1.08281">
        <ele>64.3</ele>
        <time>2018-08-21T08:50:08Z</time>
      </trkpt>
      <trkpt lat="44.09961" lon="1.0827">
        <ele>65</ele>
        <time>2018-08-21T08:50:10Z</time>
      </trkpt>
      <trkpt lat="44.09962" lon="1.08258">
        <ele>64</ele>
        <time>2018-08-21T08:50:12Z</time>
      </trkpt>
      <trkpt lat="44.09963" lon="1.08245">
        <ele>63.8</ele>
        <time>2018-08-21T08:50:14Z</time>
      </trkpt>
      <trkpt lat="44.09964" lon="1.08232">
        <ele>64.1</ele>
        <time>2018-08-21T08:50:16Z</time>
      </trkpt>
      <trkpt lat="44.09965" lon="1.08219">
        <ele>64.2</ele>
        <time>2018-08-21T08:50:18Z</time>
      </trkpt>
      <trkpt lat="44.09968" lon="1.08207">
        <ele>63.7</ele>
        <time>2018-08-21T08:50:20Z</time>
      </trkpt>
      <trkpt lat="44.09969" lon="1.08196">
        <ele>63.6</ele>
        <time>2018-08-21T08:50:22Z</time>
      </trkpt>
      <trkpt lat="44.09972" lon="1.08182">
        <ele>63.9</ele>
        <time>2018-08-21T08:50:25Z</time>
      </trkpt>
      <trkpt lat="44.09973" lon="1.08169">
        <ele>64</ele>
        <time>2018-08-21T08:50:28Z</time>
      </trkpt>
      <trkpt lat="44.09976" lon="1.08155">
        <ele>64.3</ele>
        <time>2018-08-21T08:50:31Z</time>
      </trkpt>
      <trkpt lat="44.09978" lon="1.08142">
        <ele>64.8</ele>
        <time>2018-08-21T08:50:34Z</time>
      </trkpt>
      <trkpt lat="44.0998" lon="1.08132">
        <ele>64.7</ele>
        <time>2018-08-21T08:50:37Z</time>
      </trkpt>
      <trkpt lat="44.09981" lon="1.08121">
        <ele>64.6</ele>
        <time>2018-08-21T08:50:41Z</time>
      </trkpt>
      <trkpt lat="44.0998" lon="1.0811">
        <ele>63.6</ele>
        <time>2018-08-21T08:50:44Z</time>
      </trkpt>
      <trkpt lat="44.0998" lon="1.08097">
        <ele>63.6</ele>
        <time>2018-08-21T08:50:47Z</time>
      </trkpt>
      <trkpt lat="44.09981" lon="1.08082">
        <ele>63.6</ele>
        <time>2018-08-21T08:50:50Z</time>
      </trkpt>
      <trkpt lat="44.09982" lon="1.0807">
        <ele>63.5</ele>
        <time>2018-08-21T08:50:52Z</time>
      </trkpt>
      <trkpt lat="44.09982" lon="1.0806">
        <ele>63.1</ele>
        <time>2018-08-21T08:50:54Z</time>
      </trkpt>
      <trkpt lat="44.09983" lon="1.08048">
        <ele>62.6</ele>
        <time>2018-08-21T08:50:56Z</time>
      </trkpt>
      <trkpt lat="44.09982" lon="1.08037">
        <ele>62.4</ele>
        <time>2018-08-21T08:50:58Z</time>
      </trkpt>
      <trkpt lat="44.09982" lon="1.08025">
        <ele>62.1</ele>
        <time>2018-08-21T08:51:00Z</time>
      </trkpt>
      <trkpt lat="44.09982" lon="1.08015">
        <ele>62.7</ele>
        <time>2018-08-21T08:51:02Z</time>
      </trkpt>
      <trkpt lat="44.09982" lon="1.08005">
        <ele>63.4</ele>
        <time>2018-08-21T08:51:04Z</time>
      </trkpt>
      <trkpt lat="44.09983" lon="1.07993">
        <ele>64</ele>
        <time>2018-08-21T08:51:06Z</time>
      </trkpt>
      <trkpt lat="44.09983" lon="1.07982">
        <ele>64.1</ele>
        <time>2018-08-21T08:51:08Z</time>
      </trkpt>
      <trkpt lat="44.09984" lon="1.0797">
        <ele>64.1</ele>
        <time>2018-08-21T08:51:10Z</time>
      </trkpt>
      <trkpt lat="44.09984" lon="1.07959">
        <ele>64</ele>
        <time>2018-08-21T08:51:12Z</time>
      </trkpt>
      <trkpt lat="44.09986" lon="1.07949">
        <ele>63.9</ele>
        <time>2018-08-21T08:51:14Z</time>
      </trkpt>
      <trkpt lat="44.09986" lon="1.07938">
        <ele>64</ele>
        <time>2018-08-21T08:51:17Z</time>
      </trkpt>
      <trkpt lat="44.09987" lon="1.07927">
        <ele>64.1</ele>
        <time>2018-08-21T08:51:20Z</time>
      </trkpt>
      <trkpt lat="44.09988" lon="1.07912">
        <ele>63.7</ele>
        <time>2018-08-21T08:51:24Z</time>
      </trkpt>
      <trkpt lat="44.09988" lon="1.07902">
        <ele>63.3</ele>
        <time>2018-08-21T08:51:25Z</time>
      </trkpt>
      <trkpt lat="44.09989" lon="1.07892">
        <ele>63</ele>
        <time>2018-08-21T08:51:27Z</time>
      </trkpt>
      <trkpt lat="44.09991" lon="1.07882">
        <ele>62.6</ele>
        <time>2018-08-21T08:51:29Z</time>
      </trkpt>
      <trkpt lat="44.09991" lon="1.07872">
        <ele>62.4</ele>
        <time>2018-08-21T08:51:31Z</time>
      </trkpt>
      <trkpt lat="44.09992" lon="1.07856">
        <ele>62.6</ele>
        <time>2018-08-21T08:51:34Z</time>
      </trkpt>
      <trkpt lat="44.09993" lon="1.07844">
        <ele>62.8</ele>
        <time>2018-08-21T08:51:36Z</time>
      </trkpt>
      <trkpt lat="44.09994" lon="1.07831">
        <ele>62.6</ele>
        <time>2018-08-21T08:51:38Z</time>
      </trkpt>
      <trkpt lat="44.09995" lon="1.07819">
        <ele>61.9</ele>
        <time>2018-08-21T08:51:40Z</time>
      </trkpt>
      <trkpt lat="44.09998" lon="1.07809">
        <ele>61.4</ele>
        <time>2018-08-21T08:51:42Z</time>
      </trkpt>
      <trkpt lat="44.10004" lon="1.07801">
        <ele>61.1</ele>
        <time>2018-08-21T08:51:44Z</time>
      </trkpt>
      <trkpt lat="44.10013" lon="1.07804">
        <ele>60.9</ele>
        <time>2018-08-21T08:51:46Z</time>
      </trkpt>
      <trkpt lat="44.10021" lon="1.07807">
        <ele>61.2</ele>
        <time>2018-08-21T08:51:49Z</time>
      </trkpt>
      <trkpt lat="44.10029" lon="1.07807">
        <ele>62.2</ele>
        <time>2018-08-21T08:51:52Z</time>
      </trkpt>
      <trkpt lat="44.10036" lon="1.07807">
        <ele>64.2</ele>
        <time>2018-08-21T08:51:55Z</time>
      </trkpt>
      <trkpt lat="44.10046" lon="1.07805">
        <ele>66.4</ele>
        <time>2018-08-21T08:51:58Z</time>
      </trkpt>
      <trkpt lat="44.10055" lon="1.07799">
        <ele>66.8</ele>
        <time>2018-08-21T08:52:00Z</time>
      </trkpt>
      <trkpt lat="44.10064" lon="1.07798">
        <ele>66.7</ele>
        <time>2018-08-21T08:52:02Z</time>
      </trkpt>
      <trkpt lat="44.10072" lon="1.07795">
        <ele>67.9</ele>
        <time>2018-08-21T08:52:05Z</time>
      </trkpt>
      <trkpt lat="44.10074" lon="1.07782">
        <ele>67.2</ele>
        <time>2018-08-21T08:52:09Z</time>
      </trkpt>
      <trkpt lat="44.10078" lon="1.07773">
        <ele>68</ele>
        <time>2018-08-21T08:52:12Z</time>
      </trkpt>
      <trkpt lat="44.10085" lon="1.07773">
        <ele>68.7</ele>
        <time>2018-08-21T08:52:15Z</time>
      </trkpt>
      <trkpt lat="44.10093" lon="1.07777">
        <ele>69</ele>
        <time>2018-08-21T08:52:18Z</time>
      </trkpt>
      <trkpt lat="44.10096" lon="1.07784">
        <ele>70</ele>
        <time>2018-08-21T08:52:25Z</time>
      </trkpt>
      <trkpt lat="44.10095" lon="1.07793">
        <ele>69.2</ele>
        <time>2018-08-21T08:54:47Z</time>
      </trkpt>
      <trkpt lat="44.10101" lon="1.07798">
        <ele>69</ele>
        <time>2018-08-21T08:54:53Z</time>
      </trkpt>
      <trkpt lat="44.1011" lon="1.07793">
        <ele>69.5</ele>
        <time>2018-08-21T08:54:58Z</time>
      </trkpt>
      <trkpt lat="44.10111" lon="1.07791">
        <ele>70.8</ele>
        <time>2018-08-21T08:55:05Z</time>
      </trkpt>
      <trkpt lat="44.10104" lon="1.07797">
        <ele>71</ele>
        <time>2018-08-21T08:55:09Z</time>
      </trkpt>
      <trkpt lat="44.10106" lon="1.07808">
        <ele>70.9</ele>
        <time>2018-08-21T08:55:12Z</time>
      </trkpt>
      <trkpt lat="44.1011" lon="1.0782">
        <ele>70.7</ele>
        <time>2018-08-21T08:55:14Z</time>
      </trkpt>
      <trkpt lat="44.10114" lon="1.07834">
        <ele>70.5</ele>
        <time>2018-08-21T08:55:16Z</time>
      </trkpt>
      <trkpt lat="44.10119" lon="1.07848">
        <ele>70.4</ele>
        <time>2018-08-21T08:55:18Z</time>
      </trkpt>
      <trkpt lat="44.10123" lon="1.07863">
        <ele>70</ele>
        <time>2018-08-21T08:55:20Z</time>
      </trkpt>
      <trkpt lat="44.1013" lon="1.07868">
        <ele>70</ele>
        <time>2018-08-21T08:55:21Z</time>
      </trkpt>
      <trkpt lat="44.10135" lon="1.07882">
        <ele>69.7</ele>
        <time>2018-08-21T08:55:23Z</time>
      </trkpt>
      <trkpt lat="44.1014" lon="1.07895">
        <ele>69.4</ele>
        <time>2018-08-21T08:55:25Z</time>
      </trkpt>
      <trkpt lat="44.10144" lon="1.07907">
        <ele>69.2</ele>
        <time>2018-08-21T08:55:27Z</time>
      </trkpt>
      <trkpt lat="44.10148" lon="1.07915">
        <ele>69</ele>
        <time>2018-08-21T08:55:29Z</time>
      </trkpt>
      <trkpt lat="44.10151" lon="1.07928">
        <ele>68.6</ele>
        <time>2018-08-21T08:55:32Z</time>
      </trkpt>
      <trkpt lat="44.10155" lon="1.07941">
        <ele>68.3</ele>
        <time>2018-08-21T08:55:35Z</time>
      </trkpt>
      <trkpt lat="44.10158" lon="1.07951">
        <ele>68.1</ele>
        <time>2018-08-21T08:55:37Z</time>
      </trkpt>
      <trkpt lat="44.10162" lon="1.07962">
        <ele>67.9</ele>
        <time>2018-08-21T08:55:39Z</time>
      </trkpt>
      <trkpt lat="44.10165" lon="1.07973">
        <ele>67.6</ele>
        <time>2018-08-21T08:55:41Z</time>
      </trkpt>
      <trkpt lat="44.10168" lon="1.07983">
        <ele>67.7</ele>
        <time>2018-08-21T08:55:43Z</time>
      </trkpt>
      <trkpt lat="44.10172" lon="1.07994">
        <ele>67.5</ele>
        <time>2018-08-21T08:55:45Z</time>
      </trkpt>
      <trkpt lat="44.10175" lon="1.08006">
        <ele>67.2</ele>
        <time>2018-08-21T08:55:47Z</time>
      </trkpt>
      <trkpt lat="44.10179" lon="1.08017">
        <ele>66.8</ele>
        <time>2018-08-21T08:55:49Z</time>
      </trkpt>
      <trkpt lat="44.10181" lon="1.0803">
        <ele>66.3</ele>
        <time>2018-08-21T08:55:51Z</time>
      </trkpt>
      <trkpt lat="44.10183" lon="1.08042">
        <ele>65.8</ele>
        <time>2018-08-21T08:55:53Z</time>
      </trkpt>
      <trkpt lat="44.10185" lon="1.08056">
        <ele>65.5</ele>
        <time>2018-08-21T08:55:55Z</time>
      </trkpt>
      <trkpt lat="44.10188" lon="1.08068">
        <ele>65.3</ele>
        <time>2018-08-21T08:55:57Z</time>
      </trkpt>
      <trkpt lat="44.10191" lon="1.08081">
        <ele>65.1</ele>
        <time>2018-08-21T08:55:59Z</time>
      </trkpt>
      <trkpt lat="44.10195" lon="1.08094">
        <ele>64.8</ele>
        <time>2018-08-21T08:56:01Z</time>
      </trkpt>
      <trkpt lat="44.10199" lon="1.08107">
        <ele>64.5</ele>
        <time>2018-08-21T08:56:03Z</time>
      </trkpt>
      <trkpt lat="44.10203" lon="1.08121">
        <ele>64.5</ele>
        <time>2018-08-21T08:56:05Z</time>
      </trkpt>
      <trkpt lat="44.10207" lon="1.08135">
        <ele>64.4</ele>
        <time>2018-08-21T08:56:07Z</time>
      </trkpt>
      <trkpt lat="44.10211" lon="1.08148">
        <ele>64.1</ele>
        <time>2018-08-21T08:56:09Z</time>
      </trkpt>
      <trkpt lat="44.10216" lon="1.08162">
        <ele>64.2</ele>
        <time>2018-08-21T08:56:11Z</time>
      </trkpt>
      <trkpt lat="44.10221" lon="1.08176">
        <ele>64.1</ele>
        <time>2018-08-21T08:56:13Z</time>
      </trkpt>
      <trkpt lat="44.10225" lon="1.08189">
        <ele>64</ele>
        <time>2018-08-21T08:56:15Z</time>
      </trkpt>
      <trkpt lat="44.1023" lon="1.08202">
        <ele>64.1</ele>
        <time>2018-08-21T08:56:17Z</time>
      </trkpt>
      <trkpt lat="44.10234" lon="1.08214">
        <ele>64.3</ele>
        <time>2018-08-21T08:56:19Z</time>
      </trkpt>
      <trkpt lat="44.1024" lon="1.08227">
        <ele>64.6</ele>
        <time>2018-08-21T08:56:21Z</time>
      </trkpt>
      <trkpt lat="44.10247" lon="1.08239">
        <ele>65.2</ele>
        <time>2018-08-21T08:56:23Z</time>
      </trkpt>
      <trkpt lat="44.10249" lon="1.08248">
        <ele>65.8</ele>
        <time>2018-08-21T08:56:26Z</time>
      </trkpt>
      <trkpt lat="44.10246" lon="1.08259">
        <ele>68.1</ele>
        <time>2018-08-21T08:56:32Z</time>
      </trkpt>
      <trkpt lat="44.10237" lon="1.08263">
        <ele>68.6</ele>
        <time>2018-08-21T08:56:35Z</time>
      </trkpt>
      <trkpt lat="44.10227" lon="1.08266">
        <ele>68.6</ele>
        <time>2018-08-21T08:56:37Z</time>
      </trkpt>
      <trkpt lat="44.1022" lon="1.08272">
        <ele>69.4</ele>
        <time>2018-08-21T08:56:40Z</time>
      </trkpt>
      <trkpt lat="44.10217" lon="1.08275">
        <ele>70.6</ele>
        <time>2018-08-21T08:56:47Z</time>
      </trkpt>
      <trkpt lat="44.10211" lon="1.08266">
        <ele>72.7</ele>
        <time>2018-08-21T08:56:52Z</time>
      </trkpt>
      <trkpt lat="44.10219" lon="1.08268">
        <ele>74</ele>
        <time>2018-08-21T08:56:56Z</time>
      </trkpt>
      <trkpt lat="44.10227" lon="1.08269">
        <ele>75.1</ele>
        <time>2018-08-21T08:56:59Z</time>
      </trkpt>
      <trkpt lat="44.10234" lon="1.08276">
        <ele>77.7</ele>
        <time>2018-08-21T08:57:04Z</time>
      </trkpt>
      <trkpt lat="44.10237" lon="1.08289">
        <ele>75.9</ele>
        <time>2018-08-21T08:57:07Z</time>
      </trkpt>
      <trkpt lat="44.10239" lon="1.08302">
        <ele>74.6</ele>
        <time>2018-08-21T08:57:10Z</time>
      </trkpt>
      <trkpt lat="44.1024" lon="1.08317">
        <ele>74.1</ele>
        <time>2018-08-21T08:57:13Z</time>
      </trkpt>
      <trkpt lat="44.1024" lon="1.08326">
        <ele>74</ele>
        <time>2018-08-21T08:57:15Z</time>
      </trkpt>
      <trkpt lat="44.10242" lon="1.08341">
        <ele>74.3</ele>
        <time>2018-08-21T08:57:18Z</time>
      </trkpt>
      <trkpt lat="44.10241" lon="1.08354">
        <ele>74.7</ele>
        <time>2018-08-21T08:57:21Z</time>
      </trkpt>
      <trkpt lat="44.10239" lon="1.08364">
        <ele>74.9</ele>
        <time>2018-08-21T08:57:23Z</time>
      </trkpt>
      <trkpt lat="44.10236" lon="1.08374">
        <ele>74.9</ele>
        <time>2018-08-21T08:57:25Z</time>
      </trkpt>
      <trkpt lat="44.10232" lon="1.08385">
        <ele>74.6</ele>
        <time>2018-08-21T08:57:28Z</time>
      </trkpt>
      <trkpt lat="44.10228" lon="1.08395">
        <ele>74.3</ele>
        <time>2018-08-21T08:57:31Z</time>
      </trkpt>
      <trkpt lat="44.10227" lon="1.08406">
        <ele>74.4</ele>
        <time>2018-08-21T08:57:36Z</time>
      </trkpt>
      <trkpt lat="44.10223" lon="1.08415">
        <ele>74.1</ele>
        <time>2018-08-21T08:57:40Z</time>
      </trkpt>
      <trkpt lat="44.10221" lon="1.08419">
        <ele>73.6</ele>
        <time>2018-08-21T08:57:46Z</time>
      </trkpt>
      <trkpt lat="44.1022" lon="1.08415">
        <ele>70</ele>
        <time>2018-08-21T08:58:04Z</time>
      </trkpt>
      <trkpt lat="44.10225" lon="1.08415">
        <ele>69.6</ele>
        <time>2018-08-21T08:58:11Z</time>
      </trkpt>
      <trkpt lat="44.10224" lon="1.08417">
        <ele>69.8</ele>
        <time>2018-08-21T08:58:39Z</time>
      </trkpt>
      <trkpt lat="44.10228" lon="1.08419">
        <ele>69.9</ele>
        <time>2018-08-21T08:58:46Z</time>
      </trkpt>
      <trkpt lat="44.10232" lon="1.08432">
        <ele>69.6</ele>
        <time>2018-08-21T08:59:00Z</time>
      </trkpt>
      <trkpt lat="44.1023" lon="1.08443">
        <ele>69.9</ele>
        <time>2018-08-21T08:59:05Z</time>
      </trkpt>
      <trkpt lat="44.10226" lon="1.08454">
        <ele>69.9</ele>
        <time>2018-08-21T08:59:09Z</time>
      </trkpt>
      <trkpt lat="44.10224" lon="1.08464">
        <ele>70.5</ele>
        <time>2018-08-21T08:59:13Z</time>
      </trkpt>
      <trkpt lat="44.10221" lon="1.08475">
        <ele>70.9</ele>
        <time>2018-08-21T08:59:19Z</time>
      </trkpt>
      <trkpt lat="44.10218" lon="1.08485">
        <ele>71.7</ele>
        <time>2018-08-21T08:59:24Z</time>
      </trkpt>
      <trkpt lat="44.10215" lon="1.08497">
        <ele>71.9</ele>
        <time>2018-08-21T08:59:28Z</time>
      </trkpt>
      <trkpt lat="44.10211" lon="1.08508">
        <ele>71.8</ele>
        <time>2018-08-21T08:59:31Z</time>
      </trkpt>
      <trkpt lat="44.10208" lon="1.08518">
        <ele>69.9</ele>
        <time>2018-08-21T08:59:34Z</time>
      </trkpt>
      <trkpt lat="44.10209" lon="1.08529">
        <ele>69.5</ele>
        <time>2018-08-21T08:59:39Z</time>
      </trkpt>
      <trkpt lat="44.10206" lon="1.08541">
        <ele>69.5</ele>
        <time>2018-08-21T08:59:44Z</time>
      </trkpt>
      <trkpt lat="44.10204" lon="1.08552">
        <ele>69.7</ele>
        <time>2018-08-21T08:59:48Z</time>
      </trkpt>
      <trkpt lat="44.10202" lon="1.08561">
        <ele>70.2</ele>
        <time>2018-08-21T08:59:51Z</time>
      </trkpt>
      <trkpt lat="44.10197" lon="1.08573">
        <ele>70.3</ele>
        <time>2018-08-21T08:59:54Z</time>
      </trkpt>
      <trkpt lat="44.10193" lon="1.08586">
        <ele>70.7</ele>
        <time>2018-08-21T08:59:57Z</time>
      </trkpt>
      <trkpt lat="44.1019" lon="1.08596">
        <ele>71</ele>
        <time>2018-08-21T08:59:59Z</time>
      </trkpt>
      <trkpt lat="44.10186" lon="1.08606">
        <ele>71.9</ele>
        <time>2018-08-21T09:00:02Z</time>
      </trkpt>
      <trkpt lat="44.10186" lon="1.08616">
        <ele>73</ele>
        <time>2018-08-21T09:00:04Z</time>
      </trkpt>
      <trkpt lat="44.10182" lon="1.08627">
        <ele>73.7</ele>
        <time>2018-08-21T09:00:07Z</time>
      </trkpt>
      <trkpt lat="44.10174" lon="1.08633">
        <ele>75</ele>
        <time>2018-08-21T09:00:10Z</time>
      </trkpt>
      <trkpt lat="44.10173" lon="1.08646">
        <ele>75.8</ele>
        <time>2018-08-21T09:00:13Z</time>
      </trkpt>
      <trkpt lat="44.10168" lon="1.08659">
        <ele>75.8</ele>
        <time>2018-08-21T09:00:16Z</time>
      </trkpt>
      <trkpt lat="44.10166" lon="1.08671">
        <ele>75.5</ele>
        <time>2018-08-21T09:00:18Z</time>
      </trkpt>
      <trkpt lat="44.10165" lon="1.08683">
        <ele>75</ele>
        <time>2018-08-21T09:00:20Z</time>
      </trkpt>
      <trkpt lat="44.10162" lon="1.08694">
        <ele>74.7</ele>
        <time>2018-08-21T09:00:22Z</time>
      </trkpt>
      <trkpt lat="44.10158" lon="1.08706">
        <ele>74.9</ele>
        <time>2018-08-21T09:00:24Z</time>
      </trkpt>
      <trkpt lat="44.10152" lon="1.08718">
        <ele>74.9</ele>
        <time>2018-08-21T09:00:26Z</time>
      </trkpt>
      <trkpt lat="44.10149" lon="1.08727">
        <ele>75.4</ele>
        <time>2018-08-21T09:00:28Z</time>
      </trkpt>
      <trkpt lat="44.10147" lon="1.08739">
        <ele>75.6</ele>
        <time>2018-08-21T09:00:32Z</time>
      </trkpt>
      <trkpt lat="44.10145" lon="1.0875">
        <ele>75.5</ele>
        <time>2018-08-21T09:00:37Z</time>
      </trkpt>
      <trkpt lat="44.10139" lon="1.08756">
        <ele>76</ele>
        <time>2018-08-21T09:00:41Z</time>
      </trkpt>
      <trkpt lat="44.10139" lon="1.08768">
        <ele>76.6</ele>
        <time>2018-08-21T09:00:48Z</time>
      </trkpt>
      <trkpt lat="44.10139" lon="1.08778">
        <ele>76.4</ele>
        <time>2018-08-21T09:00:52Z</time>
      </trkpt>
      <trkpt lat="44.10135" lon="1.0879">
        <ele>76.2</ele>
        <time>2018-08-21T09:00:56Z</time>
      </trkpt>
      <trkpt lat="44.10131" lon="1.08803">
        <ele>75.9</ele>
        <time>2018-08-21T09:01:00Z</time>
      </trkpt>
      <trkpt lat="44.10128" lon="1.08815">
        <ele>75.1</ele>
        <time>2018-08-21T09:01:03Z</time>
      </trkpt>
      <trkpt lat="44.10124" lon="1.08828">
        <ele>74.5</ele>
        <time>2018-08-21T09:01:06Z</time>
      </trkpt>
      <trkpt lat="44.10121" lon="1.0884">
        <ele>74.5</ele>
        <time>2018-08-21T09:01:09Z</time>
      </trkpt>
      <trkpt lat="44.10117" lon="1.08851">
        <ele>74.2</ele>
        <time>2018-08-21T09:01:12Z</time>
      </trkpt>
      <trkpt lat="44.10113" lon="1.08863">
        <ele>73.6</ele>
        <time>2018-08-21T09:01:15Z</time>
      </trkpt>
      <trkpt lat="44.1011" lon="1.08872">
        <ele>72.8</ele>
        <time>2018-08-21T09:01:18Z</time>
      </trkpt>
      <trkpt lat="44.10108" lon="1.08882">
        <ele>72.1</ele>
        <time>2018-08-21T09:01:21Z</time>
      </trkpt>
      <trkpt lat="44.10104" lon="1.08893">
        <ele>72.1</ele>
        <time>2018-08-21T09:01:24Z</time>
      </trkpt>
      <trkpt lat="44.101" lon="1.08904">
        <ele>72</ele>
        <time>2018-08-21T09:01:27Z</time>
      </trkpt>
      <trkpt lat="44.10098" lon="1.08916">
        <ele>71.8</ele>
        <time>2018-08-21T09:01:30Z</time>
      </trkpt>
      <trkpt lat="44.10095" lon="1.08926">
        <ele>71.9</ele>
        <time>2018-08-21T09:01:33Z</time>
      </trkpt>
      <trkpt lat="44.10092" lon="1.08936">
        <ele>72.5</ele>
        <time>2018-08-21T09:01:37Z</time>
      </trkpt>
      <trkpt lat="44.10087" lon="1.08946">
        <ele>73.4</ele>
        <time>2018-08-21T09:01:41Z</time>
      </trkpt>
      <trkpt lat="44.10083" lon="1.08957">
        <ele>73.9</ele>
        <time>2018-08-21T09:01:44Z</time>
      </trkpt>
      <trkpt lat="44.10081" lon="1.08968">
        <ele>74.5</ele>
        <time>2018-08-21T09:01:48Z</time>
      </trkpt>
      <trkpt lat="44.10078" lon="1.08978">
        <ele>75.1</ele>
        <time>2018-08-21T09:01:52Z</time>
      </trkpt>
      <trkpt lat="44.10074" lon="1.08989">
        <ele>76</ele>
        <time>2018-08-21T09:01:57Z</time>
      </trkpt>
      <trkpt lat="44.1007" lon="1.08999">
        <ele>76.9</ele>
        <time>2018-08-21T09:02:01Z</time>
      </trkpt>
      <trkpt lat="44.10066" lon="1.0901">
        <ele>77.9</ele>
        <time>2018-08-21T09:02:05Z</time>
      </trkpt>
      <trkpt lat="44.10064" lon="1.09022">
        <ele>78.3</ele>
        <time>2018-08-21T09:02:09Z</time>
      </trkpt>
      <trkpt lat="44.10062" lon="1.09032">
        <ele>78.2</ele>
        <time>2018-08-21T09:02:13Z</time>
      </trkpt>
      <trkpt lat="44.10061" lon="1.09042">
        <ele>77.4</ele>
        <time>2018-08-21T09:02:17Z</time>
      </trkpt>
      <trkpt lat="44.1006" lon="1.09053">
        <ele>77.8</ele>
        <time>2018-08-21T09:02:24Z</time>
      </trkpt>
      <trkpt lat="44.1006" lon="1.09064">
        <ele>78.9</ele>
        <time>2018-08-21T09:02:30Z</time>
      </trkpt>
      <trkpt lat="44.10062" lon="1.09056">
        <ele>79.2</ele>
        <time>2018-08-21T09:02:37Z</time>
      </trkpt>
      <trkpt lat="44.10067" lon="1.09045">
        <ele>78.6</ele>
        <time>2018-08-21T09:02:41Z</time>
      </trkpt>
      <trkpt lat="44.10069" lon="1.09034">
        <ele>78.4</ele>
        <time>2018-08-21T09:02:44Z</time>
      </trkpt>
      <trkpt lat="44.10073" lon="1.09023">
        <ele>77.9</ele>
        <time>2018-08-21T09:02:47Z</time>
      </trkpt>
      <trkpt lat="44.10078" lon="1.09013">
        <ele>76.9</ele>
        <time>2018-08-21T09:02:50Z</time>
      </trkpt>
      <trkpt lat="44.10082" lon="1.09004">
        <ele>75.9</ele>
        <time>2018-08-21T09:02:53Z</time>
      </trkpt>
      <trkpt lat="44.10085" lon="1.08994">
        <ele>74.4</ele>
        <time>2018-08-21T09:02:56Z</time>
      </trkpt>
      <trkpt lat="44.10087" lon="1.08984">
        <ele>73.8</ele>
        <time>2018-08-21T09:02:59Z</time>
      </trkpt>
      <trkpt lat="44.10091" lon="1.08973">
        <ele>72.5</ele>
        <time>2018-08-21T09:03:02Z</time>
      </trkpt>
      <trkpt lat="44.10095" lon="1.08963">
        <ele>71.7</ele>
        <time>2018-08-21T09:03:05Z</time>
      </trkpt>
      <trkpt lat="44.10099" lon="1.08953">
        <ele>71</ele>
        <time>2018-08-21T09:03:08Z</time>
      </trkpt>
      <trkpt lat="44.10101" lon="1.08942">
        <ele>70.8</ele>
        <time>2018-08-21T09:03:11Z</time>
      </trkpt>
      <trkpt lat="44.10101" lon="1.08931">
        <ele>69.8</ele>
        <time>2018-08-21T09:03:15Z</time>
      </trkpt>
      <trkpt lat="44.10099" lon="1.0892">
        <ele>68.5</ele>
        <time>2018-08-21T09:03:20Z</time>
      </trkpt>
      <trkpt lat="44.10095" lon="1.08921">
        <ele>67.1</ele>
        <time>2018-08-21T09:03:27Z</time>
      </trkpt>
      <trkpt lat="44.10095" lon="1.08932">
        <ele>62.3</ele>
        <time>2018-08-21T09:04:00Z</time>
      </trkpt>
      <trkpt lat="44.10093" lon="1.08943">
        <ele>63.2</ele>
        <time>2018-08-21T09:04:07Z</time>
      </trkpt>
      <trkpt lat="44.10089" lon="1.08952">
        <ele>64.3</ele>
        <time>2018-08-21T09:04:11Z</time>
      </trkpt>
      <trkpt lat="44.10084" lon="1.0896">
        <ele>65.1</ele>
        <time>2018-08-21T09:04:14Z</time>
      </trkpt>
      <trkpt lat="44.1008" lon="1.08972">
        <ele>65.8</ele>
        <time>2018-08-21T09:04:18Z</time>
      </trkpt>
      <trkpt lat="44.10076" lon="1.08982">
        <ele>66.3</ele>
        <time>2018-08-21T09:04:21Z</time>
      </trkpt>
      <trkpt lat="44.10071" lon="1.08993">
        <ele>66.8</ele>
        <time>2018-08-21T09:04:24Z</time>
      </trkpt>
      <trkpt lat="44.10069" lon="1.09003">
        <ele>67.7</ele>
        <time>2018-08-21T09:04:27Z</time>
      </trkpt>
      <trkpt lat="44.10065" lon="1.09013">
        <ele>68.6</ele>
        <time>2018-08-21T09:04:30Z</time>
      </trkpt>
      <trkpt lat="44.10063" lon="1.09023">
        <ele>68.7</ele>
        <time>2018-08-21T09:04:33Z</time>
      </trkpt>
      <trkpt lat="44.1006" lon="1.09034">
        <ele>68.5</ele>
        <time>2018-08-21T09:04:36Z</time>
      </trkpt>
      <trkpt lat="44.10058" lon="1.09044">
        <ele>69</ele>
        <time>2018-08-21T09:04:39Z</time>
      </trkpt>
      <trkpt lat="44.10057" lon="1.09054">
        <ele>70.2</ele>
        <time>2018-08-21T09:04:42Z</time>
      </trkpt>
      <trkpt lat="44.10054" lon="1.09065">
        <ele>71.3</ele>
        <time>2018-08-21T09:04:45Z</time>
      </trkpt>
      <trkpt lat="44.10052" lon="1.09076">
        <ele>72.3</ele>
        <time>2018-08-21T09:04:48Z</time>
      </trkpt>
      <trkpt lat="44.10049" lon="1.09089">
        <ele>72.5</ele>
        <time>2018-08-21T09:04:51Z</time>
      </trkpt>
      <trkpt lat="44.10045" lon="1.09098">
        <ele>74.7</ele>
        <time>2018-08-21T09:04:54Z</time>
      </trkpt>
      <trkpt lat="44.10042" lon="1.0911">
        <ele>76.5</ele>
        <time>2018-08-21T09:04:57Z</time>
      </trkpt>
      <trkpt lat="44.1004" lon="1.09125">
        <ele>77.1</ele>
        <time>2018-08-21T09:05:00Z</time>
      </trkpt>
      <trkpt lat="44.10038" lon="1.09136">
        <ele>77.4</ele>
        <time>2018-08-21T09:05:02Z</time>
      </trkpt>
      <trkpt lat="44.10039" lon="1.09152">
        <ele>76.4</ele>
        <time>2018-08-21T09:05:04Z</time>
      </trkpt>
      <trkpt lat="44.10036" lon="1.09163">
        <ele>75.9</ele>
        <time>2018-08-21T09:05:06Z</time>
      </trkpt>
      <trkpt lat="44.10033" lon="1.09173">
        <ele>74.9</ele>
        <time>2018-08-21T09:05:08Z</time>
      </trkpt>
      <trkpt lat="44.10029" lon="1.09183">
        <ele>74.9</ele>
        <time>2018-08-21T09:05:10Z</time>
      </trkpt>
      <trkpt lat="44.10024" lon="1.0919">
        <ele>74.8</ele>
        <time>2018-08-21T09:05:12Z</time>
      </trkpt>
      <trkpt lat="44.10019" lon="1.09198">
        <ele>74.4</ele>
        <time>2018-08-21T09:05:14Z</time>
      </trkpt>
      <trkpt lat="44.10014" lon="1.09212">
        <ele>74</ele>
        <time>2018-08-21T09:05:17Z</time>
      </trkpt>
      <trkpt lat="44.1001" lon="1.09223">
        <ele>73.5</ele>
        <time>2018-08-21T09:05:20Z</time>
      </trkpt>
      <trkpt lat="44.10007" lon="1.09212">
        <ele>72.8</ele>
        <time>2018-08-21T09:05:26Z</time>
      </trkpt>
      <trkpt lat="44.10009" lon="1.09201">
        <ele>72.2</ele>
        <time>2018-08-21T09:05:29Z</time>
      </trkpt>
      <trkpt lat="44.10013" lon="1.09191">
        <ele>71.1</ele>
        <time>2018-08-21T09:05:34Z</time>
      </trkpt>
      <trkpt lat="44.10008" lon="1.09182">
        <ele>72.4</ele>
        <time>2018-08-21T09:05:37Z</time>
      </trkpt>
      <trkpt lat="44.10001" lon="1.09179">
        <ele>72.6</ele>
        <time>2018-08-21T09:05:41Z</time>
      </trkpt>
      <trkpt lat="44.09994" lon="1.09176">
        <ele>72.2</ele>
        <time>2018-08-21T09:05:46Z</time>
      </trkpt>
      <trkpt lat="44.09992" lon="1.09187">
        <ele>71.6</ele>
        <time>2018-08-21T09:05:51Z</time>
      </trkpt>
      <trkpt lat="44.0999" lon="1.09198">
        <ele>70.2</ele>
        <time>2018-08-21T09:05:54Z</time>
      </trkpt>
      <trkpt lat="44.09988" lon="1.09209">
        <ele>69</ele>
        <time>2018-08-21T09:05:58Z</time>
      </trkpt>
      <trkpt lat="44.09987" lon="1.09213">
        <ele>68</ele>
        <time>2018-08-21T09:06:05Z</time>
      </trkpt>
      <trkpt lat="44.09984" lon="1.09223">
        <ele>68.9</ele>
        <time>2018-08-21T09:05:51Z</time>
      </trkpt>
      <trkpt lat="44.09979" lon="1.09233">
        <ele>68.7</ele>
        <time>2018-08-21T09:07:00Z</time>
      </trkpt>
      <trkpt lat="44.09976" lon="1.09244">
        <ele>68.5</ele>
        <time>2018-08-21T09:07:03Z</time>
      </trkpt>
      <trkpt lat="44.09976" lon="1.09255">
        <ele>68.5</ele>
        <time>2018-08-21T09:07:06Z</time>
      </trkpt>
      <trkpt lat="44.09975" lon="1.09266">
        <ele>68.5</ele>
        <time>2018-08-21T09:07:09Z</time>
      </trkpt>
      <trkpt lat="44.09973" lon="1.09279">
        <ele>68.6</ele>
        <time>2018-08-21T09:07:12Z</time>
      </trkpt>
      <trkpt lat="44.09969" lon="1.0929">
        <ele>68.4</ele>
        <time>2018-08-21T09:07:14Z</time>
      </trkpt>
      <trkpt lat="44.09966" lon="1.09301">
        <ele>68.2</ele>
        <time>2018-08-21T09:07:16Z</time>
      </trkpt>
      <trkpt lat="44.09962" lon="1.09313">
        <ele>68.3</ele>
        <time>2018-08-21T09:07:18Z</time>
      </trkpt>
      <trkpt lat="44.09958" lon="1.09323">
        <ele>68.5</ele>
        <time>2018-08-21T09:07:20Z</time>
      </trkpt>
      <trkpt lat="44.09954" lon="1.09337">
        <ele>68.7</ele>
        <time>2018-08-21T09:07:23Z</time>
      </trkpt>
      <trkpt lat="44.09952" lon="1.09348">
        <ele>68.8</ele>
        <time>2018-08-21T09:07:26Z</time>
      </trkpt>
      <trkpt lat="44.0995" lon="1.09358">
        <ele>68.8</ele>
        <time>2018-08-21T09:07:29Z</time>
      </trkpt>
      <trkpt lat="44.09947" lon="1.09368">
        <ele>68.9</ele>
        <time>2018-08-21T09:07:32Z</time>
      </trkpt>
      <trkpt lat="44.09942" lon="1.09376">
        <ele>68.7</ele>
        <time>2018-08-21T09:07:35Z</time>
      </trkpt>
      <trkpt lat="44.09938" lon="1.09385">
        <ele>68.2</ele>
        <time>2018-08-21T09:07:38Z</time>
      </trkpt>
      <trkpt lat="44.09936" lon="1.09397">
        <ele>67.7</ele>
        <time>2018-08-21T09:07:41Z</time>
      </trkpt>
      <trkpt lat="44.09933" lon="1.09407">
        <ele>68.2</ele>
        <time>2018-08-21T09:07:43Z</time>
      </trkpt>
      <trkpt lat="44.0993" lon="1.0942">
        <ele>67.5</ele>
        <time>2018-08-21T09:07:46Z</time>
      </trkpt>
      <trkpt lat="44.09926" lon="1.09433">
        <ele>67.6</ele>
        <time>2018-08-21T09:07:48Z</time>
      </trkpt>
      <trkpt lat="44.09924" lon="1.09444">
        <ele>67.2</ele>
        <time>2018-08-21T09:07:50Z</time>
      </trkpt>
      <trkpt lat="44.09922" lon="1.09455">
        <ele>66.6</ele>
        <time>2018-08-21T09:07:52Z</time>
      </trkpt>
      <trkpt lat="44.09919" lon="1.09468">
        <ele>66.1</ele>
        <time>2018-08-21T09:07:54Z</time>
      </trkpt>
      <trkpt lat="44.09916" lon="1.09478">
        <ele>65.7</ele>
        <time>2018-08-21T09:07:56Z</time>
      </trkpt>
      <trkpt lat="44.09914" lon="1.09488">
        <ele>65.3</ele>
        <time>2018-08-21T09:07:58Z</time>
      </trkpt>
      <trkpt lat="44.09914" lon="1.095">
        <ele>64.9</ele>
        <time>2018-08-21T09:08:00Z</time>
      </trkpt>
      <trkpt lat="44.09911" lon="1.09511">
        <ele>64.4</ele>
        <time>2018-08-21T09:08:02Z</time>
      </trkpt>
      <trkpt lat="44.09909" lon="1.09524">
        <ele>63.8</ele>
        <time>2018-08-21T09:08:04Z</time>
      </trkpt>
      <trkpt lat="44.09905" lon="1.09536">
        <ele>63.2</ele>
        <time>2018-08-21T09:08:06Z</time>
      </trkpt>
      <trkpt lat="44.09902" lon="1.09548">
        <ele>62.3</ele>
        <time>2018-08-21T09:08:08Z</time>
      </trkpt>
      <trkpt lat="44.09898" lon="1.09561">
        <ele>61.4</ele>
        <time>2018-08-21T09:08:10Z</time>
      </trkpt>
      <trkpt lat="44.09895" lon="1.09573">
        <ele>60.4</ele>
        <time>2018-08-21T09:08:12Z</time>
      </trkpt>
      <trkpt lat="44.09892" lon="1.09583">
        <ele>60.5</ele>
        <time>2018-08-21T09:08:13Z</time>
      </trkpt>
      <trkpt lat="44.09889" lon="1.09595">
        <ele>59.8</ele>
        <time>2018-08-21T09:08:15Z</time>
      </trkpt>
      <trkpt lat="44.09887" lon="1.09608">
        <ele>59.1</ele>
        <time>2018-08-21T09:08:17Z</time>
      </trkpt>
      <trkpt lat="44.09885" lon="1.09623">
        <ele>58.2</ele>
        <time>2018-08-21T09:08:19Z</time>
      </trkpt>
      <trkpt lat="44.09881" lon="1.09636">
        <ele>57.7</ele>
        <time>2018-08-21T09:08:21Z</time>
      </trkpt>
      <trkpt lat="44.09877" lon="1.0965">
        <ele>57.7</ele>
        <time>2018-08-21T09:08:23Z</time>
      </trkpt>
      <trkpt lat="44.09874" lon="1.09663">
        <ele>57.1</ele>
        <time>2018-08-21T09:08:25Z</time>
      </trkpt>
      <trkpt lat="44.0987" lon="1.09677">
        <ele>56.5</ele>
        <time>2018-08-21T09:08:27Z</time>
      </trkpt>
      <trkpt lat="44.09867" lon="1.09692">
        <ele>55.9</ele>
        <time>2018-08-21T09:08:29Z</time>
      </trkpt>
      <trkpt lat="44.09862" lon="1.09704">
        <ele>55.2</ele>
        <time>2018-08-21T09:08:31Z</time>
      </trkpt>
      <trkpt lat="44.09859" lon="1.09717">
        <ele>54.3</ele>
        <time>2018-08-21T09:08:33Z</time>
      </trkpt>
      <trkpt lat="44.09853" lon="1.09732">
        <ele>53.4</ele>
        <time>2018-08-21T09:08:35Z</time>
      </trkpt>
      <trkpt lat="44.09849" lon="1.09745">
        <ele>52.9</ele>
        <time>2018-08-21T09:08:37Z</time>
      </trkpt>
      <trkpt lat="44.09845" lon="1.09762">
        <ele>51.9</ele>
        <time>2018-08-21T09:08:39Z</time>
      </trkpt>
      <trkpt lat="44.0984" lon="1.09779">
        <ele>51</ele>
        <time>2018-08-21T09:08:41Z</time>
      </trkpt>
      <trkpt lat="44.09835" lon="1.09794">
        <ele>50</ele>
        <time>2018-08-21T09:08:43Z</time>
      </trkpt>
      <trkpt lat="44.09828" lon="1.09814">
        <ele>50.3</ele>
        <time>2018-08-21T09:08:45Z</time>
      </trkpt>
      <trkpt lat="44.09824" lon="1.09824">
        <ele>50.5</ele>
        <time>2018-08-21T09:08:46Z</time>
      </trkpt>
      <trkpt lat="44.09819" lon="1.09841">
        <ele>50.6</ele>
        <time>2018-08-21T09:08:48Z</time>
      </trkpt>
      <trkpt lat="44.09814" lon="1.09853">
        <ele>50.2</ele>
        <time>2018-08-21T09:08:50Z</time>
      </trkpt>
      <trkpt lat="44.09811" lon="1.09866">
        <ele>49.5</ele>
        <time>2018-08-21T09:08:52Z</time>
      </trkpt>
      <trkpt lat="44.09807" lon="1.09878">
        <ele>49</ele>
        <time>2018-08-21T09:08:54Z</time>
      </trkpt>
      <trkpt lat="44.09803" lon="1.0989">
        <ele>48.5</ele>
        <time>2018-08-21T09:08:56Z</time>
      </trkpt>
      <trkpt lat="44.098" lon="1.09901">
        <ele>48.1</ele>
        <time>2018-08-21T09:08:58Z</time>
      </trkpt>
      <trkpt lat="44.09798" lon="1.09911">
        <ele>48</ele>
        <time>2018-08-21T09:09:00Z</time>
      </trkpt>
      <trkpt lat="44.09793" lon="1.0992">
        <ele>48.8</ele>
        <time>2018-08-21T09:09:01Z</time>
      </trkpt>
      <trkpt lat="44.09785" lon="1.09926">
        <ele>49.6</ele>
        <time>2018-08-21T09:09:02Z</time>
      </trkpt>
      <trkpt lat="44.0978" lon="1.09943">
        <ele>50.8</ele>
        <time>2018-08-21T09:09:04Z</time>
      </trkpt>
      <trkpt lat="44.09776" lon="1.09959">
        <ele>51.6</ele>
        <time>2018-08-21T09:09:06Z</time>
      </trkpt>
      <trkpt lat="44.09774" lon="1.09969">
        <ele>51.8</ele>
        <time>2018-08-21T09:09:08Z</time>
      </trkpt>
      <trkpt lat="44.09772" lon="1.09981">
        <ele>52.3</ele>
        <time>2018-08-21T09:09:10Z</time>
      </trkpt>
      <trkpt lat="44.09771" lon="1.09991">
        <ele>52.5</ele>
        <time>2018-08-21T09:09:12Z</time>
      </trkpt>
      <trkpt lat="44.09767" lon="1.10006">
        <ele>52.5</ele>
        <time>2018-08-21T09:09:15Z</time>
      </trkpt>
      <trkpt lat="44.09763" lon="1.1002">
        <ele>52.3</ele>
        <time>2018-08-21T09:09:16Z</time>
      </trkpt>
      <trkpt lat="44.09761" lon="1.10035">
        <ele>52</ele>
        <time>2018-08-21T09:09:18Z</time>
      </trkpt>
      <trkpt lat="44.09756" lon="1.10052">
        <ele>52.1</ele>
        <time>2018-08-21T09:09:20Z</time>
      </trkpt>
      <trkpt lat="44.09753" lon="1.10069">
        <ele>51.6</ele>
        <time>2018-08-21T09:09:22Z</time>
      </trkpt>
      <trkpt lat="44.09749" lon="1.10085">
        <ele>51.3</ele>
        <time>2018-08-21T09:09:24Z</time>
      </trkpt>
      <trkpt lat="44.09746" lon="1.101">
        <ele>51</ele>
        <time>2018-08-21T09:09:26Z</time>
      </trkpt>
      <trkpt lat="44.09743" lon="1.10113">
        <ele>50.9</ele>
        <time>2018-08-21T09:09:28Z</time>
      </trkpt>
      <trkpt lat="44.0974" lon="1.10126">
        <ele>50.5</ele>
        <time>2018-08-21T09:09:30Z</time>
      </trkpt>
      <trkpt lat="44.09737" lon="1.10141">
        <ele>49.4</ele>
        <time>2018-08-21T09:09:32Z</time>
      </trkpt>
      <trkpt lat="44.09734" lon="1.10152">
        <ele>49</ele>
        <time>2018-08-21T09:09:33Z</time>
      </trkpt>
      <trkpt lat="44.09731" lon="1.1016">
        <ele>48.5</ele>
        <time>2018-08-21T09:09:34Z</time>
      </trkpt>
      <trkpt lat="44.09725" lon="1.10173">
        <ele>47.4</ele>
        <time>2018-08-21T09:09:36Z</time>
      </trkpt>
      <trkpt lat="44.09718" lon="1.10183">
        <ele>46.5</ele>
        <time>2018-08-21T09:09:38Z</time>
      </trkpt>
      <trkpt lat="44.09712" lon="1.10193">
        <ele>45.7</ele>
        <time>2018-08-21T09:09:40Z</time>
      </trkpt>
      <trkpt lat="44.09704" lon="1.10203">
        <ele>44.8</ele>
        <time>2018-08-21T09:09:42Z</time>
      </trkpt>
      <trkpt lat="44.09696" lon="1.10214">
        <ele>44.6</ele>
        <time>2018-08-21T09:09:44Z</time>
      </trkpt>
      <trkpt lat="44.09689" lon="1.10221">
        <ele>45.1</ele>
        <time>2018-08-21T09:09:45Z</time>
      </trkpt>
      <trkpt lat="44.09679" lon="1.10233">
        <ele>44.7</ele>
        <time>2018-08-21T09:09:47Z</time>
      </trkpt>
      <trkpt lat="44.09667" lon="1.10246">
        <ele>45.4</ele>
        <time>2018-08-21T09:09:49Z</time>
      </trkpt>
      <trkpt lat="44.09659" lon="1.10254">
        <ele>46.2</ele>
        <time>2018-08-21T09:09:50Z</time>
      </trkpt>
      <trkpt lat="44.09652" lon="1.10261">
        <ele>46.9</ele>
        <time>2018-08-21T09:09:51Z</time>
      </trkpt>
      <trkpt lat="44.09645" lon="1.10267">
        <ele>47.4</ele>
        <time>2018-08-21T09:09:52Z</time>
      </trkpt>
      <trkpt lat="44.09633" lon="1.10277">
        <ele>47.9</ele>
        <time>2018-08-21T09:09:54Z</time>
      </trkpt>
      <trkpt lat="44.09626" lon="1.10284">
        <ele>48.9</ele>
        <time>2018-08-21T09:09:55Z</time>
      </trkpt>
      <trkpt lat="44.0962" lon="1.10293">
        <ele>50.8</ele>
        <time>2018-08-21T09:09:56Z</time>
      </trkpt>
      <trkpt lat="44.09606" lon="1.10304">
        <ele>52.4</ele>
        <time>2018-08-21T09:09:58Z</time>
      </trkpt>
      <trkpt lat="44.09599" lon="1.10308">
        <ele>53.3</ele>
        <time>2018-08-21T09:09:59Z</time>
      </trkpt>
      <trkpt lat="44.09586" lon="1.10314">
        <ele>54.9</ele>
        <time>2018-08-21T09:10:01Z</time>
      </trkpt>
      <trkpt lat="44.09573" lon="1.10318">
        <ele>56.2</ele>
        <time>2018-08-21T09:10:03Z</time>
      </trkpt>
      <trkpt lat="44.09559" lon="1.10322">
        <ele>56.9</ele>
        <time>2018-08-21T09:10:05Z</time>
      </trkpt>
      <trkpt lat="44.09546" lon="1.10324">
        <ele>57.9</ele>
        <time>2018-08-21T09:10:07Z</time>
      </trkpt>
      <trkpt lat="44.09536" lon="1.10326">
        <ele>59</ele>
        <time>2018-08-21T09:10:09Z</time>
      </trkpt>
      <trkpt lat="44.09524" lon="1.10325">
        <ele>59.6</ele>
        <time>2018-08-21T09:10:11Z</time>
      </trkpt>
      <trkpt lat="44.09513" lon="1.10325">
        <ele>60.1</ele>
        <time>2018-08-21T09:10:13Z</time>
      </trkpt>
      <trkpt lat="44.09501" lon="1.10321">
        <ele>61</ele>
        <time>2018-08-21T09:10:15Z</time>
      </trkpt>
      <trkpt lat="44.0949" lon="1.10319">
        <ele>61.9</ele>
        <time>2018-08-21T09:10:17Z</time>
      </trkpt>
      <trkpt lat="44.0948" lon="1.10318">
        <ele>62.8</ele>
        <time>2018-08-21T09:10:19Z</time>
      </trkpt>
      <trkpt lat="44.09471" lon="1.10317">
        <ele>63.7</ele>
        <time>2018-08-21T09:10:21Z</time>
      </trkpt>
      <trkpt lat="44.09461" lon="1.10314">
        <ele>64.5</ele>
        <time>2018-08-21T09:10:23Z</time>
      </trkpt>
      <trkpt lat="44.09453" lon="1.10311">
        <ele>65.6</ele>
        <time>2018-08-21T09:10:25Z</time>
      </trkpt>
      <trkpt lat="44.09443" lon="1.10307">
        <ele>66.8</ele>
        <time>2018-08-21T09:10:27Z</time>
      </trkpt>
      <trkpt lat="44.09433" lon="1.10304">
        <ele>67.6</ele>
        <time>2018-08-21T09:10:29Z</time>
      </trkpt>
      <trkpt lat="44.09424" lon="1.10299">
        <ele>68.7</ele>
        <time>2018-08-21T09:10:31Z</time>
      </trkpt>
      <trkpt lat="44.09415" lon="1.10297">
        <ele>69.7</ele>
        <time>2018-08-21T09:10:33Z</time>
      </trkpt>
      <trkpt lat="44.09404" lon="1.10295">
        <ele>70.2</ele>
        <time>2018-08-21T09:10:35Z</time>
      </trkpt>
      <trkpt lat="44.09392" lon="1.10294">
        <ele>70.5</ele>
        <time>2018-08-21T09:10:37Z</time>
      </trkpt>
      <trkpt lat="44.09382" lon="1.10291">
        <ele>70.5</ele>
        <time>2018-08-21T09:10:39Z</time>
      </trkpt>
      <trkpt lat="44.09372" lon="1.10288">
        <ele>70.3</ele>
        <time>2018-08-21T09:10:41Z</time>
      </trkpt>
      <trkpt lat="44.09363" lon="1.10287">
        <ele>70</ele>
        <time>2018-08-21T09:10:43Z</time>
      </trkpt>
      <trkpt lat="44.09354" lon="1.10288">
        <ele>70</ele>
        <time>2018-08-21T09:10:45Z</time>
      </trkpt>
      <trkpt lat="44.09346" lon="1.10287">
        <ele>70.3</ele>
        <time>2018-08-21T09:10:47Z</time>
      </trkpt>
      <trkpt lat="44.09338" lon="1.10285">
        <ele>71</ele>
        <time>2018-08-21T09:10:49Z</time>
      </trkpt>
      <trkpt lat="44.0933" lon="1.10284">
        <ele>71.4</ele>
        <time>2018-08-21T09:10:51Z</time>
      </trkpt>
      <trkpt lat="44.09319" lon="1.10285">
        <ele>71.6</ele>
        <time>2018-08-21T09:10:54Z</time>
      </trkpt>
      <trkpt lat="44.09312" lon="1.10282">
        <ele>71.8</ele>
        <time>2018-08-21T09:10:56Z</time>
      </trkpt>
      <trkpt lat="44.09304" lon="1.1028">
        <ele>72.3</ele>
        <time>2018-08-21T09:10:58Z</time>
      </trkpt>
      <trkpt lat="44.09295" lon="1.10278">
        <ele>72.6</ele>
        <time>2018-08-21T09:11:00Z</time>
      </trkpt>
      <trkpt lat="44.09287" lon="1.10275">
        <ele>72.7</ele>
        <time>2018-08-21T09:11:02Z</time>
      </trkpt>
      <trkpt lat="44.09278" lon="1.10272">
        <ele>72.7</ele>
        <time>2018-08-21T09:11:04Z</time>
      </trkpt>
      <trkpt lat="44.09269" lon="1.10268">
        <ele>72.8</ele>
        <time>2018-08-21T09:11:06Z</time>
      </trkpt>
      <trkpt lat="44.09257" lon="1.10265">
        <ele>72.8</ele>
        <time>2018-08-21T09:11:08Z</time>
      </trkpt>
      <trkpt lat="44.09247" lon="1.10263">
        <ele>72.8</ele>
        <time>2018-08-21T09:11:10Z</time>
      </trkpt>
      <trkpt lat="44.09235" lon="1.10259">
        <ele>72.9</ele>
        <time>2018-08-21T09:11:12Z</time>
      </trkpt>
      <trkpt lat="44.09223" lon="1.10256">
        <ele>72.8</ele>
        <time>2018-08-21T09:11:14Z</time>
      </trkpt>
      <trkpt lat="44.09211" lon="1.10253">
        <ele>72.7</ele>
        <time>2018-08-21T09:11:16Z</time>
      </trkpt>
      <trkpt lat="44.09199" lon="1.1025">
        <ele>72.6</ele>
        <time>2018-08-21T09:11:18Z</time>
      </trkpt>
      <trkpt lat="44.09187" lon="1.10247">
        <ele>72.4</ele>
        <time>2018-08-21T09:11:20Z</time>
      </trkpt>
      <trkpt lat="44.09175" lon="1.10244">
        <ele>72.4</ele>
        <time>2018-08-21T09:11:22Z</time>
      </trkpt>
      <trkpt lat="44.09164" lon="1.10241">
        <ele>72.2</ele>
        <time>2018-08-21T09:11:24Z</time>
      </trkpt>
      <trkpt lat="44.09151" lon="1.10239">
        <ele>72</ele>
        <time>2018-08-21T09:11:26Z</time>
      </trkpt>
      <trkpt lat="44.0914" lon="1.10236">
        <ele>71.8</ele>
        <time>2018-08-21T09:11:28Z</time>
      </trkpt>
      <trkpt lat="44.09128" lon="1.10233">
        <ele>71.4</ele>
        <time>2018-08-21T09:11:30Z</time>
      </trkpt>
      <trkpt lat="44.09116" lon="1.1023">
        <ele>71</ele>
        <time>2018-08-21T09:11:32Z</time>
      </trkpt>
      <trkpt lat="44.09104" lon="1.10227">
        <ele>70.9</ele>
        <time>2018-08-21T09:11:34Z</time>
      </trkpt>
      <trkpt lat="44.09093" lon="1.10225">
        <ele>70.8</ele>
        <time>2018-08-21T09:11:36Z</time>
      </trkpt>
      <trkpt lat="44.09081" lon="1.10222">
        <ele>70.7</ele>
        <time>2018-08-21T09:11:38Z</time>
      </trkpt>
      <trkpt lat="44.0907" lon="1.10219">
        <ele>70.6</ele>
        <time>2018-08-21T09:11:40Z</time>
      </trkpt>
      <trkpt lat="44.09059" lon="1.10216">
        <ele>70.6</ele>
        <time>2018-08-21T09:11:42Z</time>
      </trkpt>
      <trkpt lat="44.09048" lon="1.10214">
        <ele>70.9</ele>
        <time>2018-08-21T09:11:44Z</time>
      </trkpt>
      <trkpt lat="44.09038" lon="1.10208">
        <ele>71</ele>
        <time>2018-08-21T09:11:46Z</time>
      </trkpt>
      <trkpt lat="44.09028" lon="1.10203">
        <ele>71</ele>
        <time>2018-08-21T09:11:48Z</time>
      </trkpt>
      <trkpt lat="44.09016" lon="1.10198">
        <ele>71.1</ele>
        <time>2018-08-21T09:11:50Z</time>
      </trkpt>
      <trkpt lat="44.09005" lon="1.10193">
        <ele>71.3</ele>
        <time>2018-08-21T09:11:52Z</time>
      </trkpt>
      <trkpt lat="44.08994" lon="1.10192">
        <ele>71.6</ele>
        <time>2018-08-21T09:11:54Z</time>
      </trkpt>
      <trkpt lat="44.08984" lon="1.1019">
        <ele>72</ele>
        <time>2018-08-21T09:11:56Z</time>
      </trkpt>
      <trkpt lat="44.08975" lon="1.10187">
        <ele>72.3</ele>
        <time>2018-08-21T09:11:58Z</time>
      </trkpt>
      <trkpt lat="44.08963" lon="1.10186">
        <ele>73</ele>
        <time>2018-08-21T09:12:00Z</time>
      </trkpt>
      <trkpt lat="44.08951" lon="1.10183">
        <ele>73.5</ele>
        <time>2018-08-21T09:12:02Z</time>
      </trkpt>
      <trkpt lat="44.08938" lon="1.10182">
        <ele>74</ele>
        <time>2018-08-21T09:12:04Z</time>
      </trkpt>
      <trkpt lat="44.08926" lon="1.10181">
        <ele>74.5</ele>
        <time>2018-08-21T09:12:06Z</time>
      </trkpt>
      <trkpt lat="44.08914" lon="1.10179">
        <ele>75.1</ele>
        <time>2018-08-21T09:12:08Z</time>
      </trkpt>
      <trkpt lat="44.08903" lon="1.10178">
        <ele>75.7</ele>
        <time>2018-08-21T09:12:10Z</time>
      </trkpt>
      <trkpt lat="44.08891" lon="1.10175">
        <ele>76.4</ele>
        <time>2018-08-21T09:12:12Z</time>
      </trkpt>
      <trkpt lat="44.08879" lon="1.10173">
        <ele>77.1</ele>
        <time>2018-08-21T09:12:14Z</time>
      </trkpt>
      <trkpt lat="44.08867" lon="1.10171">
        <ele>77.8</ele>
        <time>2018-08-21T09:12:16Z</time>
      </trkpt>
      <trkpt lat="44.08855" lon="1.10167">
        <ele>78.4</ele>
        <time>2018-08-21T09:12:18Z</time>
      </trkpt>
      <trkpt lat="44.08844" lon="1.10165">
        <ele>79</ele>
        <time>2018-08-21T09:12:20Z</time>
      </trkpt>
      <trkpt lat="44.08833" lon="1.10162">
        <ele>79.5</ele>
        <time>2018-08-21T09:12:22Z</time>
      </trkpt>
      <trkpt lat="44.08822" lon="1.1016">
        <ele>80</ele>
        <time>2018-08-21T09:12:24Z</time>
      </trkpt>
      <trkpt lat="44.08811" lon="1.10158">
        <ele>80.5</ele>
        <time>2018-08-21T09:12:26Z</time>
      </trkpt>
      <trkpt lat="44.08801" lon="1.10156">
        <ele>81</ele>
        <time>2018-08-21T09:12:28Z</time>
      </trkpt>
      <trkpt lat="44.0879" lon="1.10155">
        <ele>81.4</ele>
        <time>2018-08-21T09:12:30Z</time>
      </trkpt>
      <trkpt lat="44.0878" lon="1.10153">
        <ele>81.9</ele>
        <time>2018-08-21T09:12:32Z</time>
      </trkpt>
      <trkpt lat="44.08769" lon="1.10149">
        <ele>81.9</ele>
        <time>2018-08-21T09:12:34Z</time>
      </trkpt>
      <trkpt lat="44.08758" lon="1.10147">
        <ele>82.1</ele>
        <time>2018-08-21T09:12:36Z</time>
      </trkpt>
      <trkpt lat="44.08746" lon="1.10143">
        <ele>82.1</ele>
        <time>2018-08-21T09:12:38Z</time>
      </trkpt>
      <trkpt lat="44.08735" lon="1.10141">
        <ele>82.3</ele>
        <time>2018-08-21T09:12:40Z</time>
      </trkpt>
      <trkpt lat="44.08724" lon="1.10138">
        <ele>82.2</ele>
        <time>2018-08-21T09:12:42Z</time>
      </trkpt>
      <trkpt lat="44.08713" lon="1.10136">
        <ele>82.5</ele>
        <time>2018-08-21T09:12:44Z</time>
      </trkpt>
      <trkpt lat="44.08702" lon="1.10133">
        <ele>83.1</ele>
        <time>2018-08-21T09:12:46Z</time>
      </trkpt>
      <trkpt lat="44.0869" lon="1.10129">
        <ele>83.4</ele>
        <time>2018-08-21T09:12:48Z</time>
      </trkpt>
      <trkpt lat="44.08678" lon="1.10125">
        <ele>83.6</ele>
        <time>2018-08-21T09:12:50Z</time>
      </trkpt>
      <trkpt lat="44.08668" lon="1.10122">
        <ele>83.8</ele>
        <time>2018-08-21T09:12:52Z</time>
      </trkpt>
      <trkpt lat="44.08657" lon="1.10119">
        <ele>84</ele>
        <time>2018-08-21T09:12:54Z</time>
      </trkpt>
      <trkpt lat="44.08644" lon="1.10116">
        <ele>84.1</ele>
        <time>2018-08-21T09:12:56Z</time>
      </trkpt>
      <trkpt lat="44.08631" lon="1.10112">
        <ele>84.4</ele>
        <time>2018-08-21T09:12:58Z</time>
      </trkpt>
      <trkpt lat="44.08617" lon="1.10109">
        <ele>84.7</ele>
        <time>2018-08-21T09:13:00Z</time>
      </trkpt>
      <trkpt lat="44.08604" lon="1.10105">
        <ele>84.5</ele>
        <time>2018-08-21T09:13:02Z</time>
      </trkpt>
      <trkpt lat="44.08592" lon="1.10101">
        <ele>84.4</ele>
        <time>2018-08-21T09:13:04Z</time>
      </trkpt>
      <trkpt lat="44.0858" lon="1.10098">
        <ele>84.6</ele>
        <time>2018-08-21T09:13:06Z</time>
      </trkpt>
      <trkpt lat="44.08569" lon="1.10096">
        <ele>84.4</ele>
        <time>2018-08-21T09:13:08Z</time>
      </trkpt>
      <trkpt lat="44.08557" lon="1.10093">
        <ele>84.3</ele>
        <time>2018-08-21T09:13:10Z</time>
      </trkpt>
      <trkpt lat="44.08545" lon="1.1009">
        <ele>84.4</ele>
        <time>2018-08-21T09:13:12Z</time>
      </trkpt>
      <trkpt lat="44.08533" lon="1.10086">
        <ele>84.5</ele>
        <time>2018-08-21T09:13:14Z</time>
      </trkpt>
      <trkpt lat="44.08521" lon="1.10083">
        <ele>84.3</ele>
        <time>2018-08-21T09:13:16Z</time>
      </trkpt>
      <trkpt lat="44.0851" lon="1.1008">
        <ele>83.7</ele>
        <time>2018-08-21T09:13:18Z</time>
      </trkpt>
      <trkpt lat="44.08497" lon="1.10075">
        <ele>83.7</ele>
        <time>2018-08-21T09:13:20Z</time>
      </trkpt>
      <trkpt lat="44.08483" lon="1.10071">
        <ele>83.4</ele>
        <time>2018-08-21T09:13:22Z</time>
      </trkpt>
      <trkpt lat="44.08476" lon="1.10069">
        <ele>83.4</ele>
        <time>2018-08-21T09:13:23Z</time>
      </trkpt>
      <trkpt lat="44.08462" lon="1.10065">
        <ele>83.5</ele>
        <time>2018-08-21T09:13:25Z</time>
      </trkpt>
      <trkpt lat="44.08449" lon="1.10063">
        <ele>83.7</ele>
        <time>2018-08-21T09:13:27Z</time>
      </trkpt>
      <trkpt lat="44.08436" lon="1.10063">
        <ele>84</ele>
        <time>2018-08-21T09:13:29Z</time>
      </trkpt>
      <trkpt lat="44.08424" lon="1.10061">
        <ele>84.5</ele>
        <time>2018-08-21T09:13:31Z</time>
      </trkpt>
      <trkpt lat="44.08413" lon="1.1006">
        <ele>84.7</ele>
        <time>2018-08-21T09:13:33Z</time>
      </trkpt>
      <trkpt lat="44.084" lon="1.10057">
        <ele>84.6</ele>
        <time>2018-08-21T09:13:35Z</time>
      </trkpt>
      <trkpt lat="44.08389" lon="1.10053">
        <ele>84.6</ele>
        <time>2018-08-21T09:13:37Z</time>
      </trkpt>
      <trkpt lat="44.08378" lon="1.10049">
        <ele>84.4</ele>
        <time>2018-08-21T09:13:39Z</time>
      </trkpt>
      <trkpt lat="44.08366" lon="1.10046">
        <ele>84.2</ele>
        <time>2018-08-21T09:13:41Z</time>
      </trkpt>
      <trkpt lat="44.08354" lon="1.10044">
        <ele>84.2</ele>
        <time>2018-08-21T09:13:43Z</time>
      </trkpt>
      <trkpt lat="44.08342" lon="1.10041">
        <ele>84.2</ele>
        <time>2018-08-21T09:13:45Z</time>
      </trkpt>
      <trkpt lat="44.08329" lon="1.10037">
        <ele>84.1</ele>
        <time>2018-08-21T09:13:47Z</time>
      </trkpt>
      <trkpt lat="44.08316" lon="1.10033">
        <ele>84.3</ele>
        <time>2018-08-21T09:13:49Z</time>
      </trkpt>
      <trkpt lat="44.08304" lon="1.10029">
        <ele>84.3</ele>
        <time>2018-08-21T09:13:51Z</time>
      </trkpt>
      <trkpt lat="44.08291" lon="1.10025">
        <ele>84.6</ele>
        <time>2018-08-21T09:13:53Z</time>
      </trkpt>
      <trkpt lat="44.08278" lon="1.10021">
        <ele>84.7</ele>
        <time>2018-08-21T09:13:56Z</time>
      </trkpt>
      <trkpt lat="44.08266" lon="1.10017">
        <ele>85</ele>
        <time>2018-08-21T09:13:57Z</time>
      </trkpt>
      <trkpt lat="44.08254" lon="1.10013">
        <ele>84.8</ele>
        <time>2018-08-21T09:13:59Z</time>
      </trkpt>
      <trkpt lat="44.08242" lon="1.10011">
        <ele>85</ele>
        <time>2018-08-21T09:14:01Z</time>
      </trkpt>
      <trkpt lat="44.08229" lon="1.10008">
        <ele>85.1</ele>
        <time>2018-08-21T09:14:03Z</time>
      </trkpt>
      <trkpt lat="44.08216" lon="1.10007">
        <ele>85.4</ele>
        <time>2018-08-21T09:14:05Z</time>
      </trkpt>
      <trkpt lat="44.08203" lon="1.10005">
        <ele>85.9</ele>
        <time>2018-08-21T09:14:07Z</time>
      </trkpt>
      <trkpt lat="44.08191" lon="1.10003">
        <ele>85.7</ele>
        <time>2018-08-21T09:14:09Z</time>
      </trkpt>
      <trkpt lat="44.08179" lon="1.10001">
        <ele>85.8</ele>
        <time>2018-08-21T09:14:11Z</time>
      </trkpt>
      <trkpt lat="44.08167" lon="1.09998">
        <ele>86.4</ele>
        <time>2018-08-21T09:14:13Z</time>
      </trkpt>
      <trkpt lat="44.08154" lon="1.09993">
        <ele>86.9</ele>
        <time>2018-08-21T09:14:15Z</time>
      </trkpt>
      <trkpt lat="44.08141" lon="1.0999">
        <ele>87.3</ele>
        <time>2018-08-21T09:14:17Z</time>
      </trkpt>
      <trkpt lat="44.08127" lon="1.09986">
        <ele>87.7</ele>
        <time>2018-08-21T09:14:19Z</time>
      </trkpt>
      <trkpt lat="44.08116" lon="1.09985">
        <ele>88.3</ele>
        <time>2018-08-21T09:14:21Z</time>
      </trkpt>
      <trkpt lat="44.08104" lon="1.09982">
        <ele>88.9</ele>
        <time>2018-08-21T09:14:23Z</time>
      </trkpt>
      <trkpt lat="44.08092" lon="1.0998">
        <ele>89.7</ele>
        <time>2018-08-21T09:14:25Z</time>
      </trkpt>
      <trkpt lat="44.08078" lon="1.09979">
        <ele>90.3</ele>
        <time>2018-08-21T09:14:27Z</time>
      </trkpt>
      <trkpt lat="44.08065" lon="1.09977">
        <ele>90.7</ele>
        <time>2018-08-21T09:14:29Z</time>
      </trkpt>
      <trkpt lat="44.08053" lon="1.09975">
        <ele>91</ele>
        <time>2018-08-21T09:14:31Z</time>
      </trkpt>
      <trkpt lat="44.08042" lon="1.09972">
        <ele>91.1</ele>
        <time>2018-08-21T09:14:33Z</time>
      </trkpt>
      <trkpt lat="44.0803" lon="1.0997">
        <ele>91.2</ele>
        <time>2018-08-21T09:14:35Z</time>
      </trkpt>
      <trkpt lat="44.0802" lon="1.09968">
        <ele>91.9</ele>
        <time>2018-08-21T09:14:37Z</time>
      </trkpt>
      <trkpt lat="44.08008" lon="1.09965">
        <ele>92.3</ele>
        <time>2018-08-21T09:14:39Z</time>
      </trkpt>
      <trkpt lat="44.07996" lon="1.09963">
        <ele>92.8</ele>
        <time>2018-08-21T09:14:41Z</time>
      </trkpt>
      <trkpt lat="44.07985" lon="1.0996">
        <ele>93.3</ele>
        <time>2018-08-21T09:14:43Z</time>
      </trkpt>
      <trkpt lat="44.07974" lon="1.09957">
        <ele>93.8</ele>
        <time>2018-08-21T09:14:45Z</time>
      </trkpt>
      <trkpt lat="44.07962" lon="1.09954">
        <ele>94.4</ele>
        <time>2018-08-21T09:14:47Z</time>
      </trkpt>
      <trkpt lat="44.07949" lon="1.0995">
        <ele>94.6</ele>
        <time>2018-08-21T09:14:49Z</time>
      </trkpt>
      <trkpt lat="44.07937" lon="1.09947">
        <ele>95.1</ele>
        <time>2018-08-21T09:14:51Z</time>
      </trkpt>
      <trkpt lat="44.0793" lon="1.09944">
        <ele>95.1</ele>
        <time>2018-08-21T09:14:52Z</time>
      </trkpt>
      <trkpt lat="44.07916" lon="1.09941">
        <ele>95.4</ele>
        <time>2018-08-21T09:14:54Z</time>
      </trkpt>
      <trkpt lat="44.07903" lon="1.09939">
        <ele>95.8</ele>
        <time>2018-08-21T09:14:56Z</time>
      </trkpt>
      <trkpt lat="44.07889" lon="1.09936">
        <ele>95.4</ele>
        <time>2018-08-21T09:14:58Z</time>
      </trkpt>
      <trkpt lat="44.07877" lon="1.09932">
        <ele>95.5</ele>
        <time>2018-08-21T09:15:00Z</time>
      </trkpt>
      <trkpt lat="44.07864" lon="1.09929">
        <ele>95.9</ele>
        <time>2018-08-21T09:15:02Z</time>
      </trkpt>
      <trkpt lat="44.07857" lon="1.09927">
        <ele>96.1</ele>
        <time>2018-08-21T09:15:03Z</time>
      </trkpt>
      <trkpt lat="44.07844" lon="1.09923">
        <ele>96.1</ele>
        <time>2018-08-21T09:15:05Z</time>
      </trkpt>
      <trkpt lat="44.07831" lon="1.09919">
        <ele>96.1</ele>
        <time>2018-08-21T09:15:07Z</time>
      </trkpt>
      <trkpt lat="44.07819" lon="1.09916">
        <ele>96.3</ele>
        <time>2018-08-21T09:15:09Z</time>
      </trkpt>
      <trkpt lat="44.07808" lon="1.09913">
        <ele>96.3</ele>
        <time>2018-08-21T09:15:11Z</time>
      </trkpt>
      <trkpt lat="44.07795" lon="1.0991">
        <ele>96.5</ele>
        <time>2018-08-21T09:15:13Z</time>
      </trkpt>
      <trkpt lat="44.07783" lon="1.09907">
        <ele>96.4</ele>
        <time>2018-08-21T09:15:15Z</time>
      </trkpt>
      <trkpt lat="44.0777" lon="1.09903">
        <ele>96.1</ele>
        <time>2018-08-21T09:15:17Z</time>
      </trkpt>
      <trkpt lat="44.07757" lon="1.09901">
        <ele>95.9</ele>
        <time>2018-08-21T09:15:19Z</time>
      </trkpt>
      <trkpt lat="44.07745" lon="1.09898">
        <ele>96</ele>
        <time>2018-08-21T09:15:21Z</time>
      </trkpt>
      <trkpt lat="44.07732" lon="1.09894">
        <ele>95.3</ele>
        <time>2018-08-21T09:15:23Z</time>
      </trkpt>
      <trkpt lat="44.07721" lon="1.0989">
        <ele>94.7</ele>
        <time>2018-08-21T09:15:25Z</time>
      </trkpt>
      <trkpt lat="44.07708" lon="1.09887">
        <ele>93.9</ele>
        <time>2018-08-21T09:15:27Z</time>
      </trkpt>
      <trkpt lat="44.07695" lon="1.09884">
        <ele>93.4</ele>
        <time>2018-08-21T09:15:29Z</time>
      </trkpt>
      <trkpt lat="44.07683" lon="1.09881">
        <ele>93.2</ele>
        <time>2018-08-21T09:15:31Z</time>
      </trkpt>
      <trkpt lat="44.07672" lon="1.09876">
        <ele>92.6</ele>
        <time>2018-08-21T09:15:33Z</time>
      </trkpt>
      <trkpt lat="44.07659" lon="1.09872">
        <ele>91.9</ele>
        <time>2018-08-21T09:15:35Z</time>
      </trkpt>
      <trkpt lat="44.07647" lon="1.09869">
        <ele>91.2</ele>
        <time>2018-08-21T09:15:37Z</time>
      </trkpt>
      <trkpt lat="44.07635" lon="1.09869">
        <ele>90.5</ele>
        <time>2018-08-21T09:15:39Z</time>
      </trkpt>
      <trkpt lat="44.07623" lon="1.09866">
        <ele>89.8</ele>
        <time>2018-08-21T09:15:41Z</time>
      </trkpt>
      <trkpt lat="44.0761" lon="1.09862">
        <ele>88.8</ele>
        <time>2018-08-21T09:15:43Z</time>
      </trkpt>
      <trkpt lat="44.07598" lon="1.0986">
        <ele>88.3</ele>
        <time>2018-08-21T09:15:45Z</time>
      </trkpt>
      <trkpt lat="44.07586" lon="1.09857">
        <ele>87.4</ele>
        <time>2018-08-21T09:15:47Z</time>
      </trkpt>
      <trkpt lat="44.07573" lon="1.09855">
        <ele>86.2</ele>
        <time>2018-08-21T09:15:49Z</time>
      </trkpt>
      <trkpt lat="44.07561" lon="1.09854">
        <ele>84.8</ele>
        <time>2018-08-21T09:15:51Z</time>
      </trkpt>
      <trkpt lat="44.07549" lon="1.09853">
        <ele>83.9</ele>
        <time>2018-08-21T09:15:53Z</time>
      </trkpt>
      <trkpt lat="44.07538" lon="1.09851">
        <ele>82.9</ele>
        <time>2018-08-21T09:15:55Z</time>
      </trkpt>
      <trkpt lat="44.07526" lon="1.09851">
        <ele>81.7</ele>
        <time>2018-08-21T09:15:57Z</time>
      </trkpt>
      <trkpt lat="44.07514" lon="1.09853">
        <ele>80.9</ele>
        <time>2018-08-21T09:15:59Z</time>
      </trkpt>
      <trkpt lat="44.07502" lon="1.09855">
        <ele>80.5</ele>
        <time>2018-08-21T09:16:01Z</time>
      </trkpt>
      <trkpt lat="44.0749" lon="1.09857">
        <ele>79.9</ele>
        <time>2018-08-21T09:16:03Z</time>
      </trkpt>
      <trkpt lat="44.07478" lon="1.0986">
        <ele>79.3</ele>
        <time>2018-08-21T09:16:05Z</time>
      </trkpt>
      <trkpt lat="44.07466" lon="1.09863">
        <ele>78.4</ele>
        <time>2018-08-21T09:16:07Z</time>
      </trkpt>
      <trkpt lat="44.07454" lon="1.09866">
        <ele>77.7</ele>
        <time>2018-08-21T09:16:09Z</time>
      </trkpt>
      <trkpt lat="44.07442" lon="1.09869">
        <ele>76.9</ele>
        <time>2018-08-21T09:16:11Z</time>
      </trkpt>
      <trkpt lat="44.0743" lon="1.09873">
        <ele>76.5</ele>
        <time>2018-08-21T09:16:13Z</time>
      </trkpt>
      <trkpt lat="44.07418" lon="1.09876">
        <ele>75.7</ele>
        <time>2018-08-21T09:16:15Z</time>
      </trkpt>
      <trkpt lat="44.07405" lon="1.0988">
        <ele>75.1</ele>
        <time>2018-08-21T09:16:17Z</time>
      </trkpt>
      <trkpt lat="44.07393" lon="1.09883">
        <ele>74.7</ele>
        <time>2018-08-21T09:16:19Z</time>
      </trkpt>
      <trkpt lat="44.0738" lon="1.09887">
        <ele>74.8</ele>
        <time>2018-08-21T09:16:21Z</time>
      </trkpt>
      <trkpt lat="44.07368" lon="1.09891">
        <ele>74.6</ele>
        <time>2018-08-21T09:16:23Z</time>
      </trkpt>
      <trkpt lat="44.07356" lon="1.09895">
        <ele>74.4</ele>
        <time>2018-08-21T09:16:25Z</time>
      </trkpt>
      <trkpt lat="44.07344" lon="1.09899">
        <ele>74.7</ele>
        <time>2018-08-21T09:16:27Z</time>
      </trkpt>
      <trkpt lat="44.07332" lon="1.09904">
        <ele>74.7</ele>
        <time>2018-08-21T09:16:29Z</time>
      </trkpt>
      <trkpt lat="44.0732" lon="1.09908">
        <ele>74.8</ele>
        <time>2018-08-21T09:16:31Z</time>
      </trkpt>
      <trkpt lat="44.07308" lon="1.09913">
        <ele>74.7</ele>
        <time>2018-08-21T09:16:33Z</time>
      </trkpt>
      <trkpt lat="44.07296" lon="1.09917">
        <ele>74.5</ele>
        <time>2018-08-21T09:16:35Z</time>
      </trkpt>
      <trkpt lat="44.07284" lon="1.09921">
        <ele>74.5</ele>
        <time>2018-08-21T09:16:37Z</time>
      </trkpt>
      <trkpt lat="44.07272" lon="1.09925">
        <ele>74.3</ele>
        <time>2018-08-21T09:16:39Z</time>
      </trkpt>
      <trkpt lat="44.07261" lon="1.0993">
        <ele>73.9</ele>
        <time>2018-08-21T09:16:41Z</time>
      </trkpt>
      <trkpt lat="44.07249" lon="1.09934">
        <ele>73.6</ele>
        <time>2018-08-21T09:16:43Z</time>
      </trkpt>
      <trkpt lat="44.07237" lon="1.09937">
        <ele>73.7</ele>
        <time>2018-08-21T09:16:45Z</time>
      </trkpt>
      <trkpt lat="44.07225" lon="1.09941">
        <ele>73.5</ele>
        <time>2018-08-21T09:16:47Z</time>
      </trkpt>
      <trkpt lat="44.07213" lon="1.09944">
        <ele>73.1</ele>
        <time>2018-08-21T09:16:49Z</time>
      </trkpt>
      <trkpt lat="44.07201" lon="1.09948">
        <ele>72.7</ele>
        <time>2018-08-21T09:16:51Z</time>
      </trkpt>
      <trkpt lat="44.0719" lon="1.09952">
        <ele>72</ele>
        <time>2018-08-21T09:16:53Z</time>
      </trkpt>
      <trkpt lat="44.07177" lon="1.09956">
        <ele>72</ele>
        <time>2018-08-21T09:16:55Z</time>
      </trkpt>
      <trkpt lat="44.07165" lon="1.09958">
        <ele>72.3</ele>
        <time>2018-08-21T09:16:57Z</time>
      </trkpt>
      <trkpt lat="44.07152" lon="1.09962">
        <ele>72.7</ele>
        <time>2018-08-21T09:16:59Z</time>
      </trkpt>
      <trkpt lat="44.0714" lon="1.09966">
        <ele>72.8</ele>
        <time>2018-08-21T09:17:01Z</time>
      </trkpt>
      <trkpt lat="44.07128" lon="1.09971">
        <ele>73.3</ele>
        <time>2018-08-21T09:17:03Z</time>
      </trkpt>
      <trkpt lat="44.07117" lon="1.09975">
        <ele>73.2</ele>
        <time>2018-08-21T09:17:05Z</time>
      </trkpt>
      <trkpt lat="44.07106" lon="1.09979">
        <ele>73.6</ele>
        <time>2018-08-21T09:17:07Z</time>
      </trkpt>
      <trkpt lat="44.07094" lon="1.09984">
        <ele>74.8</ele>
        <time>2018-08-21T09:17:09Z</time>
      </trkpt>
      <trkpt lat="44.07083" lon="1.09989">
        <ele>75.3</ele>
        <time>2018-08-21T09:17:11Z</time>
      </trkpt>
      <trkpt lat="44.07071" lon="1.09991">
        <ele>75.7</ele>
        <time>2018-08-21T09:17:13Z</time>
      </trkpt>
      <trkpt lat="44.07059" lon="1.09994">
        <ele>75.5</ele>
        <time>2018-08-21T09:17:15Z</time>
      </trkpt>
      <trkpt lat="44.07047" lon="1.09997">
        <ele>75.3</ele>
        <time>2018-08-21T09:17:17Z</time>
      </trkpt>
      <trkpt lat="44.07035" lon="1.10001">
        <ele>75</ele>
        <time>2018-08-21T09:17:19Z</time>
      </trkpt>
      <trkpt lat="44.07023" lon="1.10005">
        <ele>75.2</ele>
        <time>2018-08-21T09:17:21Z</time>
      </trkpt>
      <trkpt lat="44.07011" lon="1.10009">
        <ele>75.5</ele>
        <time>2018-08-21T09:17:24Z</time>
      </trkpt>
      <trkpt lat="44.07" lon="1.10012">
        <ele>76.1</ele>
        <time>2018-08-21T09:17:25Z</time>
      </trkpt>
      <trkpt lat="44.06988" lon="1.10017">
        <ele>75.9</ele>
        <time>2018-08-21T09:17:27Z</time>
      </trkpt>
      <trkpt lat="44.06977" lon="1.10021">
        <ele>76.3</ele>
        <time>2018-08-21T09:17:29Z</time>
      </trkpt>
      <trkpt lat="44.06966" lon="1.10025">
        <ele>76.8</ele>
        <time>2018-08-21T09:17:31Z</time>
      </trkpt>
      <trkpt lat="44.06953" lon="1.10027">
        <ele>76.7</ele>
        <time>2018-08-21T09:17:33Z</time>
      </trkpt>
      <trkpt lat="44.06942" lon="1.10032">
        <ele>76.9</ele>
        <time>2018-08-21T09:17:35Z</time>
      </trkpt>
      <trkpt lat="44.06929" lon="1.10035">
        <ele>77.7</ele>
        <time>2018-08-21T09:17:37Z</time>
      </trkpt>
      <trkpt lat="44.06917" lon="1.10039">
        <ele>78.3</ele>
        <time>2018-08-21T09:17:39Z</time>
      </trkpt>
      <trkpt lat="44.06905" lon="1.10043">
        <ele>78.1</ele>
        <time>2018-08-21T09:17:41Z</time>
      </trkpt>
      <trkpt lat="44.06893" lon="1.10047">
        <ele>78.2</ele>
        <time>2018-08-21T09:17:43Z</time>
      </trkpt>
      <trkpt lat="44.06882" lon="1.10051">
        <ele>78.2</ele>
        <time>2018-08-21T09:17:45Z</time>
      </trkpt>
      <trkpt lat="44.06871" lon="1.10055">
        <ele>78.9</ele>
        <time>2018-08-21T09:17:47Z</time>
      </trkpt>
      <trkpt lat="44.06859" lon="1.1006">
        <ele>79.4</ele>
        <time>2018-08-21T09:17:49Z</time>
      </trkpt>
      <trkpt lat="44.06847" lon="1.10063">
        <ele>79.6</ele>
        <time>2018-08-21T09:17:51Z</time>
      </trkpt>
      <trkpt lat="44.06836" lon="1.10067">
        <ele>79.3</ele>
        <time>2018-08-21T09:17:53Z</time>
      </trkpt>
      <trkpt lat="44.06824" lon="1.10073">
        <ele>79.5</ele>
        <time>2018-08-21T09:17:55Z</time>
      </trkpt>
      <trkpt lat="44.06813" lon="1.10076">
        <ele>79.4</ele>
        <time>2018-08-21T09:17:57Z</time>
      </trkpt>
      <trkpt lat="44.068" lon="1.1008">
        <ele>79.7</ele>
        <time>2018-08-21T09:17:59Z</time>
      </trkpt>
      <trkpt lat="44.06789" lon="1.10084">
        <ele>79.5</ele>
        <time>2018-08-21T09:18:01Z</time>
      </trkpt>
      <trkpt lat="44.06777" lon="1.10087">
        <ele>79</ele>
        <time>2018-08-21T09:18:03Z</time>
      </trkpt>
      <trkpt lat="44.06766" lon="1.10091">
        <ele>79.2</ele>
        <time>2018-08-21T09:18:05Z</time>
      </trkpt>
      <trkpt lat="44.06755" lon="1.10094">
        <ele>78.4</ele>
        <time>2018-08-21T09:18:07Z</time>
      </trkpt>
      <trkpt lat="44.06744" lon="1.10096">
        <ele>77.5</ele>
        <time>2018-08-21T09:18:09Z</time>
      </trkpt>
      <trkpt lat="44.06734" lon="1.10099">
        <ele>77.5</ele>
        <time>2018-08-21T09:18:12Z</time>
      </trkpt>
      <trkpt lat="44.06725" lon="1.10103">
        <ele>77.9</ele>
        <time>2018-08-21T09:18:13Z</time>
      </trkpt>
      <trkpt lat="44.06718" lon="1.10105">
        <ele>78</ele>
        <time>2018-08-21T09:18:15Z</time>
      </trkpt>
      <trkpt lat="44.06708" lon="1.10109">
        <ele>78</ele>
        <time>2018-08-21T09:18:18Z</time>
      </trkpt>
      <trkpt lat="44.06699" lon="1.10112">
        <ele>77.7</ele>
        <time>2018-08-21T09:18:20Z</time>
      </trkpt>
      <trkpt lat="44.06689" lon="1.10116">
        <ele>77.6</ele>
        <time>2018-08-21T09:18:22Z</time>
      </trkpt>
      <trkpt lat="44.06679" lon="1.1012">
        <ele>77.6</ele>
        <time>2018-08-21T09:18:24Z</time>
      </trkpt>
      <trkpt lat="44.06668" lon="1.10124">
        <ele>77.3</ele>
        <time>2018-08-21T09:18:26Z</time>
      </trkpt>
      <trkpt lat="44.06656" lon="1.10128">
        <ele>77.6</ele>
        <time>2018-08-21T09:18:28Z</time>
      </trkpt>
      <trkpt lat="44.06645" lon="1.1013">
        <ele>77.7</ele>
        <time>2018-08-21T09:18:30Z</time>
      </trkpt>
      <trkpt lat="44.06634" lon="1.10133">
        <ele>78</ele>
        <time>2018-08-21T09:18:32Z</time>
      </trkpt>
      <trkpt lat="44.06622" lon="1.10137">
        <ele>77.9</ele>
        <time>2018-08-21T09:18:34Z</time>
      </trkpt>
      <trkpt lat="44.06611" lon="1.10141">
        <ele>78.1</ele>
        <time>2018-08-21T09:18:36Z</time>
      </trkpt>
      <trkpt lat="44.06599" lon="1.10145">
        <ele>78.1</ele>
        <time>2018-08-21T09:18:38Z</time>
      </trkpt>
      <trkpt lat="44.06587" lon="1.10149">
        <ele>77.9</ele>
        <time>2018-08-21T09:18:40Z</time>
      </trkpt>
      <trkpt lat="44.06575" lon="1.10153">
        <ele>78.4</ele>
        <time>2018-08-21T09:18:42Z</time>
      </trkpt>
      <trkpt lat="44.06563" lon="1.10157">
        <ele>78.6</ele>
        <time>2018-08-21T09:18:44Z</time>
      </trkpt>
      <trkpt lat="44.06551" lon="1.1016">
        <ele>79.1</ele>
        <time>2018-08-21T09:18:46Z</time>
      </trkpt>
      <trkpt lat="44.06539" lon="1.10164">
        <ele>79.2</ele>
        <time>2018-08-21T09:18:48Z</time>
      </trkpt>
      <trkpt lat="44.06527" lon="1.10168">
        <ele>78.9</ele>
        <time>2018-08-21T09:18:50Z</time>
      </trkpt>
      <trkpt lat="44.06515" lon="1.10172">
        <ele>79</ele>
        <time>2018-08-21T09:18:52Z</time>
      </trkpt>
      <trkpt lat="44.06503" lon="1.10176">
        <ele>79.5</ele>
        <time>2018-08-21T09:18:54Z</time>
      </trkpt>
      <trkpt lat="44.06492" lon="1.10181">
        <ele>80</ele>
        <time>2018-08-21T09:18:56Z</time>
      </trkpt>
      <trkpt lat="44.0648" lon="1.10186">
        <ele>80.3</ele>
        <time>2018-08-21T09:18:58Z</time>
      </trkpt>
      <trkpt lat="44.06469" lon="1.1019">
        <ele>80.6</ele>
        <time>2018-08-21T09:19:00Z</time>
      </trkpt>
      <trkpt lat="44.06457" lon="1.10194">
        <ele>80.8</ele>
        <time>2018-08-21T09:19:02Z</time>
      </trkpt>
      <trkpt lat="44.06446" lon="1.10199">
        <ele>81</ele>
        <time>2018-08-21T09:19:04Z</time>
      </trkpt>
      <trkpt lat="44.06434" lon="1.10204">
        <ele>80.9</ele>
        <time>2018-08-21T09:19:06Z</time>
      </trkpt>
      <trkpt lat="44.06422" lon="1.10208">
        <ele>80.6</ele>
        <time>2018-08-21T09:19:08Z</time>
      </trkpt>
      <trkpt lat="44.0641" lon="1.10212">
        <ele>79.7</ele>
        <time>2018-08-21T09:19:10Z</time>
      </trkpt>
      <trkpt lat="44.06398" lon="1.10217">
        <ele>79.1</ele>
        <time>2018-08-21T09:19:12Z</time>
      </trkpt>
      <trkpt lat="44.06385" lon="1.10221">
        <ele>79.7</ele>
        <time>2018-08-21T09:19:14Z</time>
      </trkpt>
      <trkpt lat="44.06373" lon="1.10223">
        <ele>79.9</ele>
        <time>2018-08-21T09:19:16Z</time>
      </trkpt>
      <trkpt lat="44.06361" lon="1.10227">
        <ele>79.7</ele>
        <time>2018-08-21T09:19:18Z</time>
      </trkpt>
      <trkpt lat="44.06349" lon="1.10231">
        <ele>79.7</ele>
        <time>2018-08-21T09:19:20Z</time>
      </trkpt>
      <trkpt lat="44.06337" lon="1.10234">
        <ele>79.5</ele>
        <time>2018-08-21T09:19:22Z</time>
      </trkpt>
      <trkpt lat="44.06326" lon="1.10238">
        <ele>79.5</ele>
        <time>2018-08-21T09:19:24Z</time>
      </trkpt>
      <trkpt lat="44.06314" lon="1.10241">
        <ele>79.6</ele>
        <time>2018-08-21T09:19:26Z</time>
      </trkpt>
      <trkpt lat="44.06303" lon="1.10247">
        <ele>80.1</ele>
        <time>2018-08-21T09:19:28Z</time>
      </trkpt>
      <trkpt lat="44.06292" lon="1.10252">
        <ele>80.7</ele>
        <time>2018-08-21T09:19:30Z</time>
      </trkpt>
      <trkpt lat="44.06282" lon="1.10257">
        <ele>80.7</ele>
        <time>2018-08-21T09:19:32Z</time>
      </trkpt>
      <trkpt lat="44.06271" lon="1.10262">
        <ele>80.4</ele>
        <time>2018-08-21T09:19:34Z</time>
      </trkpt>
      <trkpt lat="44.06261" lon="1.10264">
        <ele>80.2</ele>
        <time>2018-08-21T09:19:36Z</time>
      </trkpt>
      <trkpt lat="44.06248" lon="1.10268">
        <ele>80.7</ele>
        <time>2018-08-21T09:19:38Z</time>
      </trkpt>
      <trkpt lat="44.06237" lon="1.10273">
        <ele>80.7</ele>
        <time>2018-08-21T09:19:40Z</time>
      </trkpt>
      <trkpt lat="44.06225" lon="1.10276">
        <ele>80.4</ele>
        <time>2018-08-21T09:19:42Z</time>
      </trkpt>
      <trkpt lat="44.06213" lon="1.1028">
        <ele>80.2</ele>
        <time>2018-08-21T09:19:44Z</time>
      </trkpt>
      <trkpt lat="44.06201" lon="1.10284">
        <ele>80.1</ele>
        <time>2018-08-21T09:19:46Z</time>
      </trkpt>
      <trkpt lat="44.0619" lon="1.10287">
        <ele>80.3</ele>
        <time>2018-08-21T09:19:48Z</time>
      </trkpt>
      <trkpt lat="44.06178" lon="1.10291">
        <ele>80.1</ele>
        <time>2018-08-21T09:19:50Z</time>
      </trkpt>
      <trkpt lat="44.06167" lon="1.10296">
        <ele>80.1</ele>
        <time>2018-08-21T09:19:52Z</time>
      </trkpt>
      <trkpt lat="44.06155" lon="1.10301">
        <ele>80</ele>
        <time>2018-08-21T09:19:54Z</time>
      </trkpt>
      <trkpt lat="44.06143" lon="1.10304">
        <ele>80.2</ele>
        <time>2018-08-21T09:19:56Z</time>
      </trkpt>
      <trkpt lat="44.06131" lon="1.10308">
        <ele>80.7</ele>
        <time>2018-08-21T09:19:58Z</time>
      </trkpt>
      <trkpt lat="44.06119" lon="1.10312">
        <ele>81.2</ele>
        <time>2018-08-21T09:20:00Z</time>
      </trkpt>
      <trkpt lat="44.06108" lon="1.10316">
        <ele>81.5</ele>
        <time>2018-08-21T09:20:02Z</time>
      </trkpt>
      <trkpt lat="44.06096" lon="1.10319">
        <ele>81.5</ele>
        <time>2018-08-21T09:20:04Z</time>
      </trkpt>
      <trkpt lat="44.06084" lon="1.10322">
        <ele>81.2</ele>
        <time>2018-08-21T09:20:06Z</time>
      </trkpt>
      <trkpt lat="44.06072" lon="1.10326">
        <ele>81</ele>
        <time>2018-08-21T09:20:08Z</time>
      </trkpt>
      <trkpt lat="44.06061" lon="1.1033">
        <ele>80.1</ele>
        <time>2018-08-21T09:20:10Z</time>
      </trkpt>
      <trkpt lat="44.06049" lon="1.10334">
        <ele>80.4</ele>
        <time>2018-08-21T09:20:12Z</time>
      </trkpt>
      <trkpt lat="44.06036" lon="1.10338">
        <ele>80.2</ele>
        <time>2018-08-21T09:20:14Z</time>
      </trkpt>
      <trkpt lat="44.06024" lon="1.10342">
        <ele>80.3</ele>
        <time>2018-08-21T09:20:16Z</time>
      </trkpt>
      <trkpt lat="44.06012" lon="1.10346">
        <ele>80.9</ele>
        <time>2018-08-21T09:20:18Z</time>
      </trkpt>
      <trkpt lat="44.05999" lon="1.10349">
        <ele>81.5</ele>
        <time>2018-08-21T09:20:20Z</time>
      </trkpt>
      <trkpt lat="44.05988" lon="1.10353">
        <ele>81.5</ele>
        <time>2018-08-21T09:20:22Z</time>
      </trkpt>
      <trkpt lat="44.05976" lon="1.10358">
        <ele>81.6</ele>
        <time>2018-08-21T09:20:24Z</time>
      </trkpt>
      <trkpt lat="44.05964" lon="1.10363">
        <ele>81.2</ele>
        <time>2018-08-21T09:20:26Z</time>
      </trkpt>
      <trkpt lat="44.05951" lon="1.10368">
        <ele>81</ele>
        <time>2018-08-21T09:20:28Z</time>
      </trkpt>
      <trkpt lat="44.05939" lon="1.10372">
        <ele>81</ele>
        <time>2018-08-21T09:20:30Z</time>
      </trkpt>
      <trkpt lat="44.05926" lon="1.10376">
        <ele>81.2</ele>
        <time>2018-08-21T09:20:32Z</time>
      </trkpt>
      <trkpt lat="44.05915" lon="1.10379">
        <ele>81</ele>
        <time>2018-08-21T09:20:34Z</time>
      </trkpt>
      <trkpt lat="44.05903" lon="1.10383">
        <ele>80.9</ele>
        <time>2018-08-21T09:20:36Z</time>
      </trkpt>
      <trkpt lat="44.05891" lon="1.10386">
        <ele>81</ele>
        <time>2018-08-21T09:20:38Z</time>
      </trkpt>
      <trkpt lat="44.05879" lon="1.10391">
        <ele>81</ele>
        <time>2018-08-21T09:20:40Z</time>
      </trkpt>
      <trkpt lat="44.05868" lon="1.10394">
        <ele>81.3</ele>
        <time>2018-08-21T09:20:42Z</time>
      </trkpt>
      <trkpt lat="44.05857" lon="1.10398">
        <ele>80.7</ele>
        <time>2018-08-21T09:20:44Z</time>
      </trkpt>
      <trkpt lat="44.05845" lon="1.10403">
        <ele>80.3</ele>
        <time>2018-08-21T09:20:47Z</time>
      </trkpt>
      <trkpt lat="44.05833" lon="1.10407">
        <ele>79.9</ele>
        <time>2018-08-21T09:20:48Z</time>
      </trkpt>
      <trkpt lat="44.05822" lon="1.10412">
        <ele>79.9</ele>
        <time>2018-08-21T09:20:50Z</time>
      </trkpt>
      <trkpt lat="44.05809" lon="1.10416">
        <ele>79.5</ele>
        <time>2018-08-21T09:20:52Z</time>
      </trkpt>
      <trkpt lat="44.05798" lon="1.1042">
        <ele>79.5</ele>
        <time>2018-08-21T09:20:54Z</time>
      </trkpt>
      <trkpt lat="44.05785" lon="1.10423">
        <ele>79.4</ele>
        <time>2018-08-21T09:20:56Z</time>
      </trkpt>
      <trkpt lat="44.05773" lon="1.10427">
        <ele>79.7</ele>
        <time>2018-08-21T09:20:58Z</time>
      </trkpt>
      <trkpt lat="44.05761" lon="1.1043">
        <ele>79.6</ele>
        <time>2018-08-21T09:21:00Z</time>
      </trkpt>
      <trkpt lat="44.05749" lon="1.10434">
        <ele>79.4</ele>
        <time>2018-08-21T09:21:02Z</time>
      </trkpt>
      <trkpt lat="44.05737" lon="1.10438">
        <ele>79.2</ele>
        <time>2018-08-21T09:21:04Z</time>
      </trkpt>
      <trkpt lat="44.05726" lon="1.10443">
        <ele>78.7</ele>
        <time>2018-08-21T09:21:06Z</time>
      </trkpt>
      <trkpt lat="44.05715" lon="1.10447">
        <ele>78</ele>
        <time>2018-08-21T09:21:08Z</time>
      </trkpt>
      <trkpt lat="44.05702" lon="1.1045">
        <ele>77.6</ele>
        <time>2018-08-21T09:21:10Z</time>
      </trkpt>
      <trkpt lat="44.05691" lon="1.10453">
        <ele>77</ele>
        <time>2018-08-21T09:21:12Z</time>
      </trkpt>
      <trkpt lat="44.05679" lon="1.10458">
        <ele>76.7</ele>
        <time>2018-08-21T09:21:14Z</time>
      </trkpt>
      <trkpt lat="44.05667" lon="1.10461">
        <ele>77.1</ele>
        <time>2018-08-21T09:21:16Z</time>
      </trkpt>
      <trkpt lat="44.05655" lon="1.10465">
        <ele>77.7</ele>
        <time>2018-08-21T09:21:18Z</time>
      </trkpt>
      <trkpt lat="44.05642" lon="1.10468">
        <ele>78.4</ele>
        <time>2018-08-21T09:21:20Z</time>
      </trkpt>
      <trkpt lat="44.0563" lon="1.10472">
        <ele>78.2</ele>
        <time>2018-08-21T09:21:22Z</time>
      </trkpt>
      <trkpt lat="44.05618" lon="1.10475">
        <ele>78.2</ele>
        <time>2018-08-21T09:21:24Z</time>
      </trkpt>
      <trkpt lat="44.05607" lon="1.1048">
        <ele>78.4</ele>
        <time>2018-08-21T09:21:26Z</time>
      </trkpt>
      <trkpt lat="44.05597" lon="1.10486">
        <ele>78.7</ele>
        <time>2018-08-21T09:21:28Z</time>
      </trkpt>
      <trkpt lat="44.05586" lon="1.10491">
        <ele>78.4</ele>
        <time>2018-08-21T09:21:30Z</time>
      </trkpt>
      <trkpt lat="44.05574" lon="1.10496">
        <ele>78.3</ele>
        <time>2018-08-21T09:21:32Z</time>
      </trkpt>
      <trkpt lat="44.05562" lon="1.105">
        <ele>78.5</ele>
        <time>2018-08-21T09:21:34Z</time>
      </trkpt>
      <trkpt lat="44.05549" lon="1.10501">
        <ele>78.5</ele>
        <time>2018-08-21T09:21:36Z</time>
      </trkpt>
      <trkpt lat="44.05537" lon="1.10506">
        <ele>78.8</ele>
        <time>2018-08-21T09:21:38Z</time>
      </trkpt>
      <trkpt lat="44.05525" lon="1.1051">
        <ele>78.9</ele>
        <time>2018-08-21T09:21:40Z</time>
      </trkpt>
      <trkpt lat="44.05513" lon="1.10514">
        <ele>78.8</ele>
        <time>2018-08-21T09:21:42Z</time>
      </trkpt>
      <trkpt lat="44.05501" lon="1.10517">
        <ele>78.5</ele>
        <time>2018-08-21T09:21:44Z</time>
      </trkpt>
      <trkpt lat="44.05489" lon="1.10521">
        <ele>78.3</ele>
        <time>2018-08-21T09:21:46Z</time>
      </trkpt>
      <trkpt lat="44.05477" lon="1.10527">
        <ele>77.9</ele>
        <time>2018-08-21T09:21:48Z</time>
      </trkpt>
      <trkpt lat="44.05465" lon="1.1053">
        <ele>77.3</ele>
        <time>2018-08-21T09:21:50Z</time>
      </trkpt>
      <trkpt lat="44.05452" lon="1.10534">
        <ele>77.1</ele>
        <time>2018-08-21T09:21:52Z</time>
      </trkpt>
      <trkpt lat="44.0544" lon="1.10538">
        <ele>77.2</ele>
        <time>2018-08-21T09:21:54Z</time>
      </trkpt>
      <trkpt lat="44.05428" lon="1.10542">
        <ele>77.1</ele>
        <time>2018-08-21T09:21:56Z</time>
      </trkpt>
      <trkpt lat="44.05415" lon="1.10545">
        <ele>77</ele>
        <time>2018-08-21T09:21:58Z</time>
      </trkpt>
      <trkpt lat="44.05402" lon="1.10549">
        <ele>77.3</ele>
        <time>2018-08-21T09:22:00Z</time>
      </trkpt>
      <trkpt lat="44.0539" lon="1.10552">
        <ele>76</ele>
        <time>2018-08-21T09:22:02Z</time>
      </trkpt>
      <trkpt lat="44.05378" lon="1.10556">
        <ele>76.2</ele>
        <time>2018-08-21T09:22:04Z</time>
      </trkpt>
      <trkpt lat="44.05366" lon="1.1056">
        <ele>76.2</ele>
        <time>2018-08-21T09:22:06Z</time>
      </trkpt>
      <trkpt lat="44.05353" lon="1.10564">
        <ele>76.5</ele>
        <time>2018-08-21T09:22:08Z</time>
      </trkpt>
      <trkpt lat="44.0534" lon="1.10567">
        <ele>77.1</ele>
        <time>2018-08-21T09:22:10Z</time>
      </trkpt>
      <trkpt lat="44.05328" lon="1.10571">
        <ele>77.4</ele>
        <time>2018-08-21T09:22:12Z</time>
      </trkpt>
      <trkpt lat="44.05316" lon="1.10575">
        <ele>78</ele>
        <time>2018-08-21T09:22:14Z</time>
      </trkpt>
      <trkpt lat="44.05304" lon="1.1058">
        <ele>78.2</ele>
        <time>2018-08-21T09:22:16Z</time>
      </trkpt>
      <trkpt lat="44.05292" lon="1.10584">
        <ele>78</ele>
        <time>2018-08-21T09:22:18Z</time>
      </trkpt>
      <trkpt lat="44.0528" lon="1.10589">
        <ele>78.7</ele>
        <time>2018-08-21T09:22:20Z</time>
      </trkpt>
      <trkpt lat="44.05269" lon="1.10594">
        <ele>78.7</ele>
        <time>2018-08-21T09:22:22Z</time>
      </trkpt>
      <trkpt lat="44.05257" lon="1.10598">
        <ele>78.2</ele>
        <time>2018-08-21T09:22:24Z</time>
      </trkpt>
      <trkpt lat="44.05245" lon="1.10602">
        <ele>78.3</ele>
        <time>2018-08-21T09:22:26Z</time>
      </trkpt>
      <trkpt lat="44.05233" lon="1.10606">
        <ele>78.1</ele>
        <time>2018-08-21T09:22:28Z</time>
      </trkpt>
      <trkpt lat="44.05221" lon="1.10609">
        <ele>77.6</ele>
        <time>2018-08-21T09:22:30Z</time>
      </trkpt>
      <trkpt lat="44.05209" lon="1.10613">
        <ele>77.2</ele>
        <time>2018-08-21T09:22:32Z</time>
      </trkpt>
      <trkpt lat="44.05197" lon="1.10617">
        <ele>77.2</ele>
        <time>2018-08-21T09:22:34Z</time>
      </trkpt>
      <trkpt lat="44.05185" lon="1.10621">
        <ele>77.2</ele>
        <time>2018-08-21T09:22:36Z</time>
      </trkpt>
      <trkpt lat="44.05172" lon="1.10624">
        <ele>77.1</ele>
        <time>2018-08-21T09:22:38Z</time>
      </trkpt>
      <trkpt lat="44.05161" lon="1.10628">
        <ele>77.3</ele>
        <time>2018-08-21T09:22:40Z</time>
      </trkpt>
      <trkpt lat="44.05149" lon="1.10632">
        <ele>77.5</ele>
        <time>2018-08-21T09:22:42Z</time>
      </trkpt>
      <trkpt lat="44.05137" lon="1.10637">
        <ele>77.7</ele>
        <time>2018-08-21T09:22:44Z</time>
      </trkpt>
      <trkpt lat="44.05125" lon="1.10641">
        <ele>77.8</ele>
        <time>2018-08-21T09:22:46Z</time>
      </trkpt>
      <trkpt lat="44.05113" lon="1.10644">
        <ele>77.8</ele>
        <time>2018-08-21T09:22:48Z</time>
      </trkpt>
      <trkpt lat="44.05101" lon="1.10648">
        <ele>77.9</ele>
        <time>2018-08-21T09:22:50Z</time>
      </trkpt>
      <trkpt lat="44.05089" lon="1.10652">
        <ele>78.4</ele>
        <time>2018-08-21T09:22:52Z</time>
      </trkpt>
      <trkpt lat="44.05078" lon="1.10657">
        <ele>79.6</ele>
        <time>2018-08-21T09:22:54Z</time>
      </trkpt>
      <trkpt lat="44.05068" lon="1.10662">
        <ele>80.3</ele>
        <time>2018-08-21T09:22:56Z</time>
      </trkpt>
      <trkpt lat="44.05058" lon="1.10665">
        <ele>80.7</ele>
        <time>2018-08-21T09:22:58Z</time>
      </trkpt>
      <trkpt lat="44.05049" lon="1.10667">
        <ele>80.8</ele>
        <time>2018-08-21T09:23:00Z</time>
      </trkpt>
      <trkpt lat="44.05041" lon="1.10669">
        <ele>81</ele>
        <time>2018-08-21T09:23:02Z</time>
      </trkpt>
      <trkpt lat="44.05033" lon="1.10672">
        <ele>80.9</ele>
        <time>2018-08-21T09:23:04Z</time>
      </trkpt>
      <trkpt lat="44.05025" lon="1.10674">
        <ele>81.1</ele>
        <time>2018-08-21T09:23:06Z</time>
      </trkpt>
      <trkpt lat="44.05018" lon="1.10677">
        <ele>80.7</ele>
        <time>2018-08-21T09:23:08Z</time>
      </trkpt>
      <trkpt lat="44.0501" lon="1.1068">
        <ele>80.6</ele>
        <time>2018-08-21T09:23:10Z</time>
      </trkpt>
      <trkpt lat="44.05002" lon="1.10683">
        <ele>80.6</ele>
        <time>2018-08-21T09:23:12Z</time>
      </trkpt>
      <trkpt lat="44.04993" lon="1.10685">
        <ele>80.8</ele>
        <time>2018-08-21T09:23:14Z</time>
      </trkpt>
      <trkpt lat="44.04983" lon="1.10687">
        <ele>81.1</ele>
        <time>2018-08-21T09:23:16Z</time>
      </trkpt>
      <trkpt lat="44.04974" lon="1.1069">
        <ele>81.6</ele>
        <time>2018-08-21T09:23:18Z</time>
      </trkpt>
      <trkpt lat="44.04965" lon="1.10694">
        <ele>82</ele>
        <time>2018-08-21T09:23:20Z</time>
      </trkpt>
      <trkpt lat="44.04956" lon="1.10698">
        <ele>82.4</ele>
        <time>2018-08-21T09:23:22Z</time>
      </trkpt>
      <trkpt lat="44.04946" lon="1.10702">
        <ele>82.7</ele>
        <time>2018-08-21T09:23:24Z</time>
      </trkpt>
      <trkpt lat="44.04937" lon="1.10705">
        <ele>82.9</ele>
        <time>2018-08-21T09:23:26Z</time>
      </trkpt>
      <trkpt lat="44.04927" lon="1.10708">
        <ele>82.9</ele>
        <time>2018-08-21T09:23:28Z</time>
      </trkpt>
      <trkpt lat="44.04916" lon="1.1071">
        <ele>82.5</ele>
        <time>2018-08-21T09:23:30Z</time>
      </trkpt>
      <trkpt lat="44.04906" lon="1.10714">
        <ele>82.7</ele>
        <time>2018-08-21T09:23:32Z</time>
      </trkpt>
      <trkpt lat="44.04895" lon="1.10717">
        <ele>82.7</ele>
        <time>2018-08-21T09:23:34Z</time>
      </trkpt>
      <trkpt lat="44.04885" lon="1.10722">
        <ele>83.1</ele>
        <time>2018-08-21T09:23:36Z</time>
      </trkpt>
      <trkpt lat="44.04874" lon="1.10725">
        <ele>83.7</ele>
        <time>2018-08-21T09:23:38Z</time>
      </trkpt>
      <trkpt lat="44.04864" lon="1.1073">
        <ele>84.1</ele>
        <time>2018-08-21T09:23:40Z</time>
      </trkpt>
      <trkpt lat="44.04853" lon="1.10733">
        <ele>84.3</ele>
        <time>2018-08-21T09:23:42Z</time>
      </trkpt>
      <trkpt lat="44.04842" lon="1.10737">
        <ele>84.6</ele>
        <time>2018-08-21T09:23:44Z</time>
      </trkpt>
      <trkpt lat="44.04832" lon="1.1074">
        <ele>85.2</ele>
        <time>2018-08-21T09:23:46Z</time>
      </trkpt>
      <trkpt lat="44.04822" lon="1.10743">
        <ele>85.1</ele>
        <time>2018-08-21T09:23:48Z</time>
      </trkpt>
      <trkpt lat="44.04812" lon="1.10746">
        <ele>85.1</ele>
        <time>2018-08-21T09:23:50Z</time>
      </trkpt>
      <trkpt lat="44.04802" lon="1.10751">
        <ele>85.4</ele>
        <time>2018-08-21T09:23:52Z</time>
      </trkpt>
      <trkpt lat="44.04792" lon="1.10755">
        <ele>85.8</ele>
        <time>2018-08-21T09:23:54Z</time>
      </trkpt>
      <trkpt lat="44.04782" lon="1.10759">
        <ele>85.8</ele>
        <time>2018-08-21T09:23:56Z</time>
      </trkpt>
      <trkpt lat="44.04772" lon="1.10763">
        <ele>85.9</ele>
        <time>2018-08-21T09:23:58Z</time>
      </trkpt>
      <trkpt lat="44.04762" lon="1.10766">
        <ele>85.9</ele>
        <time>2018-08-21T09:24:00Z</time>
      </trkpt>
      <trkpt lat="44.04752" lon="1.1077">
        <ele>85.7</ele>
        <time>2018-08-21T09:24:02Z</time>
      </trkpt>
      <trkpt lat="44.04741" lon="1.10773">
        <ele>85.6</ele>
        <time>2018-08-21T09:24:04Z</time>
      </trkpt>
      <trkpt lat="44.04731" lon="1.10776">
        <ele>85.4</ele>
        <time>2018-08-21T09:24:06Z</time>
      </trkpt>
      <trkpt lat="44.04721" lon="1.10779">
        <ele>85.2</ele>
        <time>2018-08-21T09:24:08Z</time>
      </trkpt>
      <trkpt lat="44.0471" lon="1.10781">
        <ele>85.1</ele>
        <time>2018-08-21T09:24:10Z</time>
      </trkpt>
      <trkpt lat="44.047" lon="1.10785">
        <ele>85.2</ele>
        <time>2018-08-21T09:24:12Z</time>
      </trkpt>
      <trkpt lat="44.0469" lon="1.10787">
        <ele>85</ele>
        <time>2018-08-21T09:24:14Z</time>
      </trkpt>
      <trkpt lat="44.0468" lon="1.1079">
        <ele>84.9</ele>
        <time>2018-08-21T09:24:16Z</time>
      </trkpt>
      <trkpt lat="44.0467" lon="1.10793">
        <ele>84.5</ele>
        <time>2018-08-21T09:24:18Z</time>
      </trkpt>
      <trkpt lat="44.04659" lon="1.10797">
        <ele>83.8</ele>
        <time>2018-08-21T09:24:20Z</time>
      </trkpt>
      <trkpt lat="44.04649" lon="1.10801">
        <ele>83.3</ele>
        <time>2018-08-21T09:24:22Z</time>
      </trkpt>
      <trkpt lat="44.04639" lon="1.10805">
        <ele>82.9</ele>
        <time>2018-08-21T09:24:24Z</time>
      </trkpt>
      <trkpt lat="44.04629" lon="1.10808">
        <ele>82.6</ele>
        <time>2018-08-21T09:24:26Z</time>
      </trkpt>
      <trkpt lat="44.04619" lon="1.10812">
        <ele>83</ele>
        <time>2018-08-21T09:24:28Z</time>
      </trkpt>
      <trkpt lat="44.04608" lon="1.10816">
        <ele>83.3</ele>
        <time>2018-08-21T09:24:30Z</time>
      </trkpt>
      <trkpt lat="44.04598" lon="1.10819">
        <ele>83.4</ele>
        <time>2018-08-21T09:24:32Z</time>
      </trkpt>
      <trkpt lat="44.04588" lon="1.10822">
        <ele>83.5</ele>
        <time>2018-08-21T09:24:34Z</time>
      </trkpt>
      <trkpt lat="44.04578" lon="1.10826">
        <ele>83.4</ele>
        <time>2018-08-21T09:24:36Z</time>
      </trkpt>
      <trkpt lat="44.04567" lon="1.10829">
        <ele>83.2</ele>
        <time>2018-08-21T09:24:38Z</time>
      </trkpt>
      <trkpt lat="44.04557" lon="1.10833">
        <ele>83</ele>
        <time>2018-08-21T09:24:40Z</time>
      </trkpt>
      <trkpt lat="44.04547" lon="1.10835">
        <ele>82.9</ele>
        <time>2018-08-21T09:24:42Z</time>
      </trkpt>
      <trkpt lat="44.04536" lon="1.10839">
        <ele>82.8</ele>
        <time>2018-08-21T09:24:44Z</time>
      </trkpt>
      <trkpt lat="44.04526" lon="1.10842">
        <ele>82.9</ele>
        <time>2018-08-21T09:24:46Z</time>
      </trkpt>
      <trkpt lat="44.04515" lon="1.10846">
        <ele>82.5</ele>
        <time>2018-08-21T09:24:48Z</time>
      </trkpt>
      <trkpt lat="44.04505" lon="1.1085">
        <ele>82.3</ele>
        <time>2018-08-21T09:24:50Z</time>
      </trkpt>
      <trkpt lat="44.04495" lon="1.10853">
        <ele>82.6</ele>
        <time>2018-08-21T09:24:52Z</time>
      </trkpt>
      <trkpt lat="44.04484" lon="1.10856">
        <ele>82.5</ele>
        <time>2018-08-21T09:24:54Z</time>
      </trkpt>
      <trkpt lat="44.04474" lon="1.10859">
        <ele>82.9</ele>
        <time>2018-08-21T09:24:56Z</time>
      </trkpt>
      <trkpt lat="44.04464" lon="1.10863">
        <ele>83.6</ele>
        <time>2018-08-21T09:24:58Z</time>
      </trkpt>
      <trkpt lat="44.04453" lon="1.10867">
        <ele>84</ele>
        <time>2018-08-21T09:25:00Z</time>
      </trkpt>
      <trkpt lat="44.04443" lon="1.10871">
        <ele>84.2</ele>
        <time>2018-08-21T09:25:02Z</time>
      </trkpt>
      <trkpt lat="44.04433" lon="1.10874">
        <ele>84.1</ele>
        <time>2018-08-21T09:25:04Z</time>
      </trkpt>
      <trkpt lat="44.04422" lon="1.10878">
        <ele>84.1</ele>
        <time>2018-08-21T09:25:06Z</time>
      </trkpt>
      <trkpt lat="44.04413" lon="1.10882">
        <ele>84.4</ele>
        <time>2018-08-21T09:25:08Z</time>
      </trkpt>
      <trkpt lat="44.04402" lon="1.10886">
        <ele>85.3</ele>
        <time>2018-08-21T09:25:10Z</time>
      </trkpt>
      <trkpt lat="44.04392" lon="1.1089">
        <ele>85.5</ele>
        <time>2018-08-21T09:25:12Z</time>
      </trkpt>
      <trkpt lat="44.04382" lon="1.10894">
        <ele>85.9</ele>
        <time>2018-08-21T09:25:14Z</time>
      </trkpt>
      <trkpt lat="44.04373" lon="1.10898">
        <ele>86.3</ele>
        <time>2018-08-21T09:25:16Z</time>
      </trkpt>
      <trkpt lat="44.04363" lon="1.10903">
        <ele>86.6</ele>
        <time>2018-08-21T09:25:18Z</time>
      </trkpt>
      <trkpt lat="44.04353" lon="1.10907">
        <ele>87</ele>
        <time>2018-08-21T09:25:20Z</time>
      </trkpt>
      <trkpt lat="44.04343" lon="1.10911">
        <ele>87.8</ele>
        <time>2018-08-21T09:25:22Z</time>
      </trkpt>
      <trkpt lat="44.04333" lon="1.10916">
        <ele>89.6</ele>
        <time>2018-08-21T09:25:24Z</time>
      </trkpt>
      <trkpt lat="44.04323" lon="1.10919">
        <ele>89.8</ele>
        <time>2018-08-21T09:25:26Z</time>
      </trkpt>
      <trkpt lat="44.04313" lon="1.10923">
        <ele>90.3</ele>
        <time>2018-08-21T09:25:28Z</time>
      </trkpt>
      <trkpt lat="44.04302" lon="1.10928">
        <ele>91</ele>
        <time>2018-08-21T09:25:30Z</time>
      </trkpt>
      <trkpt lat="44.04292" lon="1.10935">
        <ele>92.1</ele>
        <time>2018-08-21T09:25:32Z</time>
      </trkpt>
      <trkpt lat="44.04282" lon="1.10941">
        <ele>92.9</ele>
        <time>2018-08-21T09:25:34Z</time>
      </trkpt>
      <trkpt lat="44.04273" lon="1.10947">
        <ele>92.7</ele>
        <time>2018-08-21T09:25:36Z</time>
      </trkpt>
      <trkpt lat="44.04263" lon="1.10953">
        <ele>93</ele>
        <time>2018-08-21T09:25:38Z</time>
      </trkpt>
      <trkpt lat="44.04254" lon="1.10959">
        <ele>92.9</ele>
        <time>2018-08-21T09:25:40Z</time>
      </trkpt>
      <trkpt lat="44.04244" lon="1.10967">
        <ele>92.8</ele>
        <time>2018-08-21T09:25:42Z</time>
      </trkpt>
      <trkpt lat="44.04235" lon="1.10974">
        <ele>92.8</ele>
        <time>2018-08-21T09:25:44Z</time>
      </trkpt>
      <trkpt lat="44.04227" lon="1.10983">
        <ele>92.9</ele>
        <time>2018-08-21T09:25:46Z</time>
      </trkpt>
      <trkpt lat="44.04218" lon="1.10992">
        <ele>92.6</ele>
        <time>2018-08-21T09:25:48Z</time>
      </trkpt>
      <trkpt lat="44.04209" lon="1.11001">
        <ele>92.6</ele>
        <time>2018-08-21T09:25:50Z</time>
      </trkpt>
      <trkpt lat="44.04201" lon="1.1101">
        <ele>92.4</ele>
        <time>2018-08-21T09:25:52Z</time>
      </trkpt>
      <trkpt lat="44.04193" lon="1.1102">
        <ele>92.2</ele>
        <time>2018-08-21T09:25:54Z</time>
      </trkpt>
      <trkpt lat="44.04187" lon="1.11029">
        <ele>92</ele>
        <time>2018-08-21T09:25:56Z</time>
      </trkpt>
      <trkpt lat="44.0418" lon="1.11036">
        <ele>91.9</ele>
        <time>2018-08-21T09:25:58Z</time>
      </trkpt>
      <trkpt lat="44.04173" lon="1.11045">
        <ele>91.2</ele>
        <time>2018-08-21T09:26:00Z</time>
      </trkpt>
      <trkpt lat="44.04169" lon="1.11055">
        <ele>90.8</ele>
        <time>2018-08-21T09:26:02Z</time>
      </trkpt>
      <trkpt lat="44.04164" lon="1.11064">
        <ele>91.1</ele>
        <time>2018-08-21T09:26:05Z</time>
      </trkpt>
      <trkpt lat="44.04154" lon="1.1107">
        <ele>90.6</ele>
        <time>2018-08-21T09:26:08Z</time>
      </trkpt>
      <trkpt lat="44.04146" lon="1.1107">
        <ele>89.8</ele>
        <time>2018-08-21T09:26:11Z</time>
      </trkpt>
      <trkpt lat="44.04137" lon="1.1107">
        <ele>89.2</ele>
        <time>2018-08-21T09:26:14Z</time>
      </trkpt>
      <trkpt lat="44.04127" lon="1.11068">
        <ele>89.9</ele>
        <time>2018-08-21T09:26:18Z</time>
      </trkpt>
      <trkpt lat="44.04119" lon="1.11066">
        <ele>90.3</ele>
        <time>2018-08-21T09:26:23Z</time>
      </trkpt>
      <trkpt lat="44.04111" lon="1.11065">
        <ele>91.4</ele>
        <time>2018-08-21T09:26:30Z</time>
      </trkpt>
      <trkpt lat="44.04104" lon="1.11071">
        <ele>91.7</ele>
        <time>2018-08-21T09:26:37Z</time>
      </trkpt>
      <trkpt lat="44.04101" lon="1.11081">
        <ele>92.3</ele>
        <time>2018-08-21T09:26:41Z</time>
      </trkpt>
      <trkpt lat="44.04097" lon="1.1109">
        <ele>93.6</ele>
        <time>2018-08-21T09:26:45Z</time>
      </trkpt>
      <trkpt lat="44.04091" lon="1.11099">
        <ele>94.4</ele>
        <time>2018-08-21T09:26:48Z</time>
      </trkpt>
      <trkpt lat="44.04084" lon="1.11108">
        <ele>95.1</ele>
        <time>2018-08-21T09:26:51Z</time>
      </trkpt>
      <trkpt lat="44.04076" lon="1.11118">
        <ele>96</ele>
        <time>2018-08-21T09:26:54Z</time>
      </trkpt>
      <trkpt lat="44.04071" lon="1.11126">
        <ele>96.5</ele>
        <time>2018-08-21T09:26:56Z</time>
      </trkpt>
      <trkpt lat="44.04062" lon="1.11132">
        <ele>97</ele>
        <time>2018-08-21T09:26:58Z</time>
      </trkpt>
      <trkpt lat="44.04055" lon="1.11139">
        <ele>97.4</ele>
        <time>2018-08-21T09:27:00Z</time>
      </trkpt>
      <trkpt lat="44.04049" lon="1.11148">
        <ele>97.6</ele>
        <time>2018-08-21T09:27:02Z</time>
      </trkpt>
      <trkpt lat="44.04043" lon="1.11156">
        <ele>97.8</ele>
        <time>2018-08-21T09:27:04Z</time>
      </trkpt>
      <trkpt lat="44.04038" lon="1.11164">
        <ele>97.8</ele>
        <time>2018-08-21T09:27:06Z</time>
      </trkpt>
      <trkpt lat="44.04031" lon="1.11176">
        <ele>97.9</ele>
        <time>2018-08-21T09:27:09Z</time>
      </trkpt>
      <trkpt lat="44.04023" lon="1.11184">
        <ele>97.8</ele>
        <time>2018-08-21T09:27:11Z</time>
      </trkpt>
      <trkpt lat="44.04019" lon="1.11193">
        <ele>97.9</ele>
        <time>2018-08-21T09:27:13Z</time>
      </trkpt>
      <trkpt lat="44.04011" lon="1.11201">
        <ele>97.5</ele>
        <time>2018-08-21T09:27:15Z</time>
      </trkpt>
      <trkpt lat="44.04005" lon="1.11208">
        <ele>96.9</ele>
        <time>2018-08-21T09:27:17Z</time>
      </trkpt>
      <trkpt lat="44.03999" lon="1.11214">
        <ele>96.5</ele>
        <time>2018-08-21T09:27:19Z</time>
      </trkpt>
      <trkpt lat="44.03989" lon="1.11223">
        <ele>95.5</ele>
        <time>2018-08-21T09:27:22Z</time>
      </trkpt>
      <trkpt lat="44.03983" lon="1.11228">
        <ele>94.9</ele>
        <time>2018-08-21T09:27:24Z</time>
      </trkpt>
      <trkpt lat="44.03979" lon="1.11237">
        <ele>94</ele>
        <time>2018-08-21T09:27:27Z</time>
      </trkpt>
      <trkpt lat="44.03971" lon="1.11246">
        <ele>93.5</ele>
        <time>2018-08-21T09:27:30Z</time>
      </trkpt>
      <trkpt lat="44.03966" lon="1.11253">
        <ele>93.5</ele>
        <time>2018-08-21T09:27:32Z</time>
      </trkpt>
      <trkpt lat="44.03959" lon="1.11263">
        <ele>92.9</ele>
        <time>2018-08-21T09:27:35Z</time>
      </trkpt>
      <trkpt lat="44.03956" lon="1.11273">
        <ele>92.6</ele>
        <time>2018-08-21T09:27:38Z</time>
      </trkpt>
      <trkpt lat="44.03956" lon="1.11285">
        <ele>92.7</ele>
        <time>2018-08-21T09:27:41Z</time>
      </trkpt>
      <trkpt lat="44.03956" lon="1.11297">
        <ele>92.8</ele>
        <time>2018-08-21T09:27:44Z</time>
      </trkpt>
      <trkpt lat="44.03955" lon="1.11308">
        <ele>92.8</ele>
        <time>2018-08-21T09:27:49Z</time>
      </trkpt>
      <trkpt lat="44.03951" lon="1.11317">
        <ele>92.7</ele>
        <time>2018-08-21T09:27:52Z</time>
      </trkpt>
      <trkpt lat="44.03942" lon="1.11327">
        <ele>92.8</ele>
        <time>2018-08-21T09:27:55Z</time>
      </trkpt>
      <trkpt lat="44.03937" lon="1.11335">
        <ele>93</ele>
        <time>2018-08-21T09:27:57Z</time>
      </trkpt>
      <trkpt lat="44.03931" lon="1.11343">
        <ele>93.2</ele>
        <time>2018-08-21T09:27:59Z</time>
      </trkpt>
      <trkpt lat="44.03925" lon="1.11351">
        <ele>93.6</ele>
        <time>2018-08-21T09:28:01Z</time>
      </trkpt>
      <trkpt lat="44.0392" lon="1.11359">
        <ele>93.6</ele>
        <time>2018-08-21T09:28:03Z</time>
      </trkpt>
      <trkpt lat="44.03914" lon="1.11367">
        <ele>94.2</ele>
        <time>2018-08-21T09:28:05Z</time>
      </trkpt>
      <trkpt lat="44.03907" lon="1.11375">
        <ele>94.9</ele>
        <time>2018-08-21T09:28:07Z</time>
      </trkpt>
      <trkpt lat="44.03902" lon="1.11383">
        <ele>95.3</ele>
        <time>2018-08-21T09:28:09Z</time>
      </trkpt>
      <trkpt lat="44.03895" lon="1.11393">
        <ele>95.4</ele>
        <time>2018-08-21T09:28:12Z</time>
      </trkpt>
      <trkpt lat="44.03889" lon="1.11402">
        <ele>95.5</ele>
        <time>2018-08-21T09:28:14Z</time>
      </trkpt>
      <trkpt lat="44.03882" lon="1.11411">
        <ele>95.7</ele>
        <time>2018-08-21T09:28:16Z</time>
      </trkpt>
      <trkpt lat="44.03875" lon="1.11419">
        <ele>95.7</ele>
        <time>2018-08-21T09:28:18Z</time>
      </trkpt>
      <trkpt lat="44.03869" lon="1.11428">
        <ele>95.7</ele>
        <time>2018-08-21T09:28:20Z</time>
      </trkpt>
      <trkpt lat="44.03863" lon="1.11436">
        <ele>95.8</ele>
        <time>2018-08-21T09:28:22Z</time>
      </trkpt>
      <trkpt lat="44.03857" lon="1.11444">
        <ele>96.1</ele>
        <time>2018-08-21T09:28:24Z</time>
      </trkpt>
      <trkpt lat="44.0385" lon="1.11452">
        <ele>96.4</ele>
        <time>2018-08-21T09:28:26Z</time>
      </trkpt>
      <trkpt lat="44.03842" lon="1.11461">
        <ele>96.4</ele>
        <time>2018-08-21T09:28:28Z</time>
      </trkpt>
      <trkpt lat="44.03834" lon="1.11468">
        <ele>96.1</ele>
        <time>2018-08-21T09:28:30Z</time>
      </trkpt>
      <trkpt lat="44.03826" lon="1.11477">
        <ele>96</ele>
        <time>2018-08-21T09:28:32Z</time>
      </trkpt>
      <trkpt lat="44.0382" lon="1.11487">
        <ele>96.3</ele>
        <time>2018-08-21T09:28:34Z</time>
      </trkpt>
      <trkpt lat="44.03814" lon="1.11497">
        <ele>96.8</ele>
        <time>2018-08-21T09:28:36Z</time>
      </trkpt>
      <trkpt lat="44.03809" lon="1.11506">
        <ele>97.1</ele>
        <time>2018-08-21T09:28:38Z</time>
      </trkpt>
      <trkpt lat="44.03804" lon="1.11515">
        <ele>97.6</ele>
        <time>2018-08-21T09:28:40Z</time>
      </trkpt>
      <trkpt lat="44.03798" lon="1.11523">
        <ele>98.2</ele>
        <time>2018-08-21T09:28:42Z</time>
      </trkpt>
      <trkpt lat="44.03794" lon="1.11533">
        <ele>100.4</ele>
        <time>2018-08-21T09:28:46Z</time>
      </trkpt>
      <trkpt lat="44.03799" lon="1.11541">
        <ele>99.5</ele>
        <time>2018-08-21T09:28:53Z</time>
      </trkpt>
      <trkpt lat="44.03803" lon="1.11544">
        <ele>98.6</ele>
        <time>2018-08-21T09:29:00Z</time>
      </trkpt>
      <trkpt lat="44.0381" lon="1.1155">
        <ele>97.9</ele>
        <time>2018-08-21T09:29:03Z</time>
      </trkpt>
      <trkpt lat="44.03817" lon="1.11551">
        <ele>97.5</ele>
        <time>2018-08-21T09:29:05Z</time>
      </trkpt>
      <trkpt lat="44.03827" lon="1.11546">
        <ele>97.3</ele>
        <time>2018-08-21T09:29:07Z</time>
      </trkpt>
      <trkpt lat="44.03835" lon="1.11536">
        <ele>97</ele>
        <time>2018-08-21T09:29:09Z</time>
      </trkpt>
      <trkpt lat="44.0384" lon="1.11525">
        <ele>96.6</ele>
        <time>2018-08-21T09:29:11Z</time>
      </trkpt>
      <trkpt lat="44.03838" lon="1.11514">
        <ele>96</ele>
        <time>2018-08-21T09:29:13Z</time>
      </trkpt>
      <trkpt lat="44.03831" lon="1.1151">
        <ele>95.3</ele>
        <time>2018-08-21T09:29:15Z</time>
      </trkpt>
      <trkpt lat="44.03825" lon="1.11518">
        <ele>94.1</ele>
        <time>2018-08-21T09:29:17Z</time>
      </trkpt>
      <trkpt lat="44.03819" lon="1.11527">
        <ele>92.9</ele>
        <time>2018-08-21T09:29:19Z</time>
      </trkpt>
      <trkpt lat="44.03813" lon="1.11536">
        <ele>91.8</ele>
        <time>2018-08-21T09:29:21Z</time>
      </trkpt>
      <trkpt lat="44.03807" lon="1.11543">
        <ele>91.2</ele>
        <time>2018-08-21T09:29:23Z</time>
      </trkpt>
      <trkpt lat="44.03801" lon="1.11553">
        <ele>91</ele>
        <time>2018-08-21T09:29:26Z</time>
      </trkpt>
      <trkpt lat="44.03796" lon="1.11567">
        <ele>90.1</ele>
        <time>2018-08-21T09:29:28Z</time>
      </trkpt>
      <trkpt lat="44.03791" lon="1.1158">
        <ele>89.2</ele>
        <time>2018-08-21T09:29:30Z</time>
      </trkpt>
      <trkpt lat="44.03785" lon="1.11592">
        <ele>88.4</ele>
        <time>2018-08-21T09:29:32Z</time>
      </trkpt>
      <trkpt lat="44.03779" lon="1.11604">
        <ele>87.9</ele>
        <time>2018-08-21T09:29:34Z</time>
      </trkpt>
      <trkpt lat="44.03774" lon="1.11617">
        <ele>87.3</ele>
        <time>2018-08-21T09:29:36Z</time>
      </trkpt>
      <trkpt lat="44.03769" lon="1.1163">
        <ele>86.7</ele>
        <time>2018-08-21T09:29:38Z</time>
      </trkpt>
      <trkpt lat="44.03764" lon="1.11644">
        <ele>86.2</ele>
        <time>2018-08-21T09:29:40Z</time>
      </trkpt>
      <trkpt lat="44.03759" lon="1.11658">
        <ele>85.8</ele>
        <time>2018-08-21T09:29:42Z</time>
      </trkpt>
      <trkpt lat="44.03755" lon="1.11672">
        <ele>85.1</ele>
        <time>2018-08-21T09:29:44Z</time>
      </trkpt>
      <trkpt lat="44.03752" lon="1.11686">
        <ele>84.7</ele>
        <time>2018-08-21T09:29:46Z</time>
      </trkpt>
      <trkpt lat="44.03748" lon="1.117">
        <ele>84.5</ele>
        <time>2018-08-21T09:29:48Z</time>
      </trkpt>
      <trkpt lat="44.03743" lon="1.11712">
        <ele>84.3</ele>
        <time>2018-08-21T09:29:50Z</time>
      </trkpt>
      <trkpt lat="44.03738" lon="1.11727">
        <ele>84</ele>
        <time>2018-08-21T09:29:52Z</time>
      </trkpt>
      <trkpt lat="44.03734" lon="1.11743">
        <ele>83.8</ele>
        <time>2018-08-21T09:29:54Z</time>
      </trkpt>
      <trkpt lat="44.0373" lon="1.11759">
        <ele>83.9</ele>
        <time>2018-08-21T09:29:56Z</time>
      </trkpt>
      <trkpt lat="44.03726" lon="1.11775">
        <ele>83.8</ele>
        <time>2018-08-21T09:29:58Z</time>
      </trkpt>
      <trkpt lat="44.03722" lon="1.11789">
        <ele>83.8</ele>
        <time>2018-08-21T09:30:01Z</time>
      </trkpt>
      <trkpt lat="44.03717" lon="1.11805">
        <ele>83.7</ele>
        <time>2018-08-21T09:30:02Z</time>
      </trkpt>
      <trkpt lat="44.03714" lon="1.1182">
        <ele>83.8</ele>
        <time>2018-08-21T09:30:04Z</time>
      </trkpt>
      <trkpt lat="44.0371" lon="1.11834">
        <ele>83.9</ele>
        <time>2018-08-21T09:30:06Z</time>
      </trkpt>
      <trkpt lat="44.03706" lon="1.1185">
        <ele>83.9</ele>
        <time>2018-08-21T09:30:08Z</time>
      </trkpt>
      <trkpt lat="44.037" lon="1.11865">
        <ele>83.8</ele>
        <time>2018-08-21T09:30:10Z</time>
      </trkpt>
      <trkpt lat="44.03694" lon="1.1188">
        <ele>83.9</ele>
        <time>2018-08-21T09:30:12Z</time>
      </trkpt>
      <trkpt lat="44.0369" lon="1.11897">
        <ele>83.9</ele>
        <time>2018-08-21T09:30:14Z</time>
      </trkpt>
      <trkpt lat="44.03685" lon="1.11912">
        <ele>83.8</ele>
        <time>2018-08-21T09:30:16Z</time>
      </trkpt>
      <trkpt lat="44.03681" lon="1.11928">
        <ele>84</ele>
        <time>2018-08-21T09:30:18Z</time>
      </trkpt>
      <trkpt lat="44.03675" lon="1.11943">
        <ele>83.7</ele>
        <time>2018-08-21T09:30:20Z</time>
      </trkpt>
      <trkpt lat="44.0367" lon="1.11959">
        <ele>83.2</ele>
        <time>2018-08-21T09:30:22Z</time>
      </trkpt>
      <trkpt lat="44.03664" lon="1.11975">
        <ele>82.9</ele>
        <time>2018-08-21T09:30:24Z</time>
      </trkpt>
      <trkpt lat="44.03658" lon="1.1199">
        <ele>82.4</ele>
        <time>2018-08-21T09:30:26Z</time>
      </trkpt>
      <trkpt lat="44.03653" lon="1.12005">
        <ele>81.9</ele>
        <time>2018-08-21T09:30:28Z</time>
      </trkpt>
      <trkpt lat="44.03649" lon="1.1202">
        <ele>81.9</ele>
        <time>2018-08-21T09:30:30Z</time>
      </trkpt>
      <trkpt lat="44.03643" lon="1.12036">
        <ele>81.9</ele>
        <time>2018-08-21T09:30:32Z</time>
      </trkpt>
      <trkpt lat="44.03637" lon="1.12052">
        <ele>81.7</ele>
        <time>2018-08-21T09:30:34Z</time>
      </trkpt>
      <trkpt lat="44.03633" lon="1.12068">
        <ele>81.3</ele>
        <time>2018-08-21T09:30:36Z</time>
      </trkpt>
      <trkpt lat="44.03628" lon="1.12084">
        <ele>81.5</ele>
        <time>2018-08-21T09:30:38Z</time>
      </trkpt>
      <trkpt lat="44.03624" lon="1.121">
        <ele>81.5</ele>
        <time>2018-08-21T09:30:40Z</time>
      </trkpt>
      <trkpt lat="44.03619" lon="1.12116">
        <ele>82.2</ele>
        <time>2018-08-21T09:30:42Z</time>
      </trkpt>
      <trkpt lat="44.03614" lon="1.12131">
        <ele>82.4</ele>
        <time>2018-08-21T09:30:45Z</time>
      </trkpt>
      <trkpt lat="44.0361" lon="1.12148">
        <ele>82.3</ele>
        <time>2018-08-21T09:30:46Z</time>
      </trkpt>
      <trkpt lat="44.03605" lon="1.12163">
        <ele>81.2</ele>
        <time>2018-08-21T09:30:48Z</time>
      </trkpt>
      <trkpt lat="44.036" lon="1.12179">
        <ele>80.9</ele>
        <time>2018-08-21T09:30:50Z</time>
      </trkpt>
      <trkpt lat="44.03594" lon="1.12196">
        <ele>80.2</ele>
        <time>2018-08-21T09:30:52Z</time>
      </trkpt>
      <trkpt lat="44.03589" lon="1.12211">
        <ele>79.6</ele>
        <time>2018-08-21T09:30:54Z</time>
      </trkpt>
      <trkpt lat="44.03585" lon="1.12227">
        <ele>78.7</ele>
        <time>2018-08-21T09:30:56Z</time>
      </trkpt>
      <trkpt lat="44.03582" lon="1.12241">
        <ele>78.4</ele>
        <time>2018-08-21T09:30:58Z</time>
      </trkpt>
      <trkpt lat="44.03579" lon="1.12255">
        <ele>78.3</ele>
        <time>2018-08-21T09:31:00Z</time>
      </trkpt>
      <trkpt lat="44.03575" lon="1.1227">
        <ele>78.6</ele>
        <time>2018-08-21T09:31:02Z</time>
      </trkpt>
      <trkpt lat="44.03572" lon="1.12285">
        <ele>79</ele>
        <time>2018-08-21T09:31:04Z</time>
      </trkpt>
      <trkpt lat="44.03567" lon="1.12301">
        <ele>79.6</ele>
        <time>2018-08-21T09:31:06Z</time>
      </trkpt>
      <trkpt lat="44.03561" lon="1.12317">
        <ele>81.1</ele>
        <time>2018-08-21T09:31:08Z</time>
      </trkpt>
      <trkpt lat="44.03555" lon="1.12333">
        <ele>81.5</ele>
        <time>2018-08-21T09:31:10Z</time>
      </trkpt>
      <trkpt lat="44.03549" lon="1.1235">
        <ele>81.7</ele>
        <time>2018-08-21T09:31:12Z</time>
      </trkpt>
      <trkpt lat="44.03543" lon="1.12367">
        <ele>81.4</ele>
        <time>2018-08-21T09:31:14Z</time>
      </trkpt>
      <trkpt lat="44.03538" lon="1.12384">
        <ele>80.8</ele>
        <time>2018-08-21T09:31:16Z</time>
      </trkpt>
      <trkpt lat="44.03533" lon="1.124">
        <ele>80.2</ele>
        <time>2018-08-21T09:31:18Z</time>
      </trkpt>
      <trkpt lat="44.03528" lon="1.12418">
        <ele>80.2</ele>
        <time>2018-08-21T09:31:20Z</time>
      </trkpt>
      <trkpt lat="44.03522" lon="1.12434">
        <ele>80.2</ele>
        <time>2018-08-21T09:31:22Z</time>
      </trkpt>
      <trkpt lat="44.03519" lon="1.12443">
        <ele>80.6</ele>
        <time>2018-08-21T09:31:23Z</time>
      </trkpt>
      <trkpt lat="44.03513" lon="1.1246">
        <ele>80.3</ele>
        <time>2018-08-21T09:31:25Z</time>
      </trkpt>
      <trkpt lat="44.03508" lon="1.12477">
        <ele>80.4</ele>
        <time>2018-08-21T09:31:27Z</time>
      </trkpt>
      <trkpt lat="44.03503" lon="1.12494">
        <ele>80.6</ele>
        <time>2018-08-21T09:31:30Z</time>
      </trkpt>
      <trkpt lat="44.03498" lon="1.1251">
        <ele>80.3</ele>
        <time>2018-08-21T09:31:31Z</time>
      </trkpt>
      <trkpt lat="44.03494" lon="1.12525">
        <ele>80.3</ele>
        <time>2018-08-21T09:31:33Z</time>
      </trkpt>
      <trkpt lat="44.03489" lon="1.12541">
        <ele>80.5</ele>
        <time>2018-08-21T09:31:35Z</time>
      </trkpt>
      <trkpt lat="44.03484" lon="1.12558">
        <ele>80.8</ele>
        <time>2018-08-21T09:31:37Z</time>
      </trkpt>
      <trkpt lat="44.03481" lon="1.12567">
        <ele>81.2</ele>
        <time>2018-08-21T09:31:38Z</time>
      </trkpt>
      <trkpt lat="44.03476" lon="1.12585">
        <ele>81.8</ele>
        <time>2018-08-21T09:31:40Z</time>
      </trkpt>
      <trkpt lat="44.03471" lon="1.12602">
        <ele>82.4</ele>
        <time>2018-08-21T09:31:42Z</time>
      </trkpt>
      <trkpt lat="44.03466" lon="1.12619">
        <ele>82.8</ele>
        <time>2018-08-21T09:31:44Z</time>
      </trkpt>
      <trkpt lat="44.03461" lon="1.12636">
        <ele>82.8</ele>
        <time>2018-08-21T09:31:46Z</time>
      </trkpt>
      <trkpt lat="44.03457" lon="1.12652">
        <ele>82.9</ele>
        <time>2018-08-21T09:31:48Z</time>
      </trkpt>
      <trkpt lat="44.03452" lon="1.12667">
        <ele>82.9</ele>
        <time>2018-08-21T09:31:50Z</time>
      </trkpt>
      <trkpt lat="44.03448" lon="1.12681">
        <ele>82.9</ele>
        <time>2018-08-21T09:31:52Z</time>
      </trkpt>
      <trkpt lat="44.03442" lon="1.12697">
        <ele>82.5</ele>
        <time>2018-08-21T09:31:54Z</time>
      </trkpt>
      <trkpt lat="44.03437" lon="1.12714">
        <ele>81.7</ele>
        <time>2018-08-21T09:31:56Z</time>
      </trkpt>
      <trkpt lat="44.03432" lon="1.1273">
        <ele>81.2</ele>
        <time>2018-08-21T09:31:58Z</time>
      </trkpt>
      <trkpt lat="44.03427" lon="1.12746">
        <ele>80.5</ele>
        <time>2018-08-21T09:32:00Z</time>
      </trkpt>
      <trkpt lat="44.03422" lon="1.12761">
        <ele>79.9</ele>
        <time>2018-08-21T09:32:02Z</time>
      </trkpt>
      <trkpt lat="44.03417" lon="1.12777">
        <ele>79.3</ele>
        <time>2018-08-21T09:32:04Z</time>
      </trkpt>
      <trkpt lat="44.03412" lon="1.12793">
        <ele>79.3</ele>
        <time>2018-08-21T09:32:06Z</time>
      </trkpt>
      <trkpt lat="44.03406" lon="1.12811">
        <ele>79.2</ele>
        <time>2018-08-21T09:32:08Z</time>
      </trkpt>
      <trkpt lat="44.03401" lon="1.12828">
        <ele>79.2</ele>
        <time>2018-08-21T09:32:10Z</time>
      </trkpt>
      <trkpt lat="44.03396" lon="1.12845">
        <ele>79.1</ele>
        <time>2018-08-21T09:32:12Z</time>
      </trkpt>
      <trkpt lat="44.03391" lon="1.12861">
        <ele>79</ele>
        <time>2018-08-21T09:32:14Z</time>
      </trkpt>
      <trkpt lat="44.03385" lon="1.12878">
        <ele>79.3</ele>
        <time>2018-08-21T09:32:16Z</time>
      </trkpt>
      <trkpt lat="44.03379" lon="1.12893">
        <ele>79.6</ele>
        <time>2018-08-21T09:32:18Z</time>
      </trkpt>
      <trkpt lat="44.03374" lon="1.12909">
        <ele>79.7</ele>
        <time>2018-08-21T09:32:20Z</time>
      </trkpt>
      <trkpt lat="44.03369" lon="1.12925">
        <ele>79.7</ele>
        <time>2018-08-21T09:32:22Z</time>
      </trkpt>
      <trkpt lat="44.03365" lon="1.12942">
        <ele>79.9</ele>
        <time>2018-08-21T09:32:24Z</time>
      </trkpt>
      <trkpt lat="44.0336" lon="1.12958">
        <ele>79.8</ele>
        <time>2018-08-21T09:32:26Z</time>
      </trkpt>
      <trkpt lat="44.03354" lon="1.12975">
        <ele>79.6</ele>
        <time>2018-08-21T09:32:28Z</time>
      </trkpt>
      <trkpt lat="44.03349" lon="1.1299">
        <ele>79.6</ele>
        <time>2018-08-21T09:32:30Z</time>
      </trkpt>
      <trkpt lat="44.03344" lon="1.13006">
        <ele>80</ele>
        <time>2018-08-21T09:32:32Z</time>
      </trkpt>
      <trkpt lat="44.0334" lon="1.13023">
        <ele>80.1</ele>
        <time>2018-08-21T09:32:34Z</time>
      </trkpt>
      <trkpt lat="44.03334" lon="1.13038">
        <ele>79.8</ele>
        <time>2018-08-21T09:32:36Z</time>
      </trkpt>
      <trkpt lat="44.03331" lon="1.13053">
        <ele>79.7</ele>
        <time>2018-08-21T09:32:38Z</time>
      </trkpt>
      <trkpt lat="44.03327" lon="1.13069">
        <ele>79.5</ele>
        <time>2018-08-21T09:32:40Z</time>
      </trkpt>
      <trkpt lat="44.03322" lon="1.13084">
        <ele>79.5</ele>
        <time>2018-08-21T09:32:42Z</time>
      </trkpt>
      <trkpt lat="44.03318" lon="1.13102">
        <ele>79.7</ele>
        <time>2018-08-21T09:32:44Z</time>
      </trkpt>
      <trkpt lat="44.03313" lon="1.13119">
        <ele>80.1</ele>
        <time>2018-08-21T09:32:46Z</time>
      </trkpt>
      <trkpt lat="44.03309" lon="1.13128">
        <ele>80.5</ele>
        <time>2018-08-21T09:32:47Z</time>
      </trkpt>
      <trkpt lat="44.03304" lon="1.13145">
        <ele>81</ele>
        <time>2018-08-21T09:32:49Z</time>
      </trkpt>
      <trkpt lat="44.033" lon="1.13161">
        <ele>81.1</ele>
        <time>2018-08-21T09:32:51Z</time>
      </trkpt>
      <trkpt lat="44.03293" lon="1.13177">
        <ele>81</ele>
        <time>2018-08-21T09:32:53Z</time>
      </trkpt>
      <trkpt lat="44.03289" lon="1.13194">
        <ele>80.7</ele>
        <time>2018-08-21T09:32:55Z</time>
      </trkpt>
      <trkpt lat="44.03283" lon="1.13212">
        <ele>81.2</ele>
        <time>2018-08-21T09:32:57Z</time>
      </trkpt>
      <trkpt lat="44.03278" lon="1.13229">
        <ele>81.5</ele>
        <time>2018-08-21T09:32:59Z</time>
      </trkpt>
      <trkpt lat="44.03274" lon="1.13245">
        <ele>82</ele>
        <time>2018-08-21T09:33:01Z</time>
      </trkpt>
      <trkpt lat="44.03268" lon="1.1326">
        <ele>82.6</ele>
        <time>2018-08-21T09:33:03Z</time>
      </trkpt>
      <trkpt lat="44.03263" lon="1.13277">
        <ele>82.9</ele>
        <time>2018-08-21T09:33:05Z</time>
      </trkpt>
      <trkpt lat="44.03259" lon="1.13286">
        <ele>83.9</ele>
        <time>2018-08-21T09:33:06Z</time>
      </trkpt>
      <trkpt lat="44.03254" lon="1.13304">
        <ele>85.3</ele>
        <time>2018-08-21T09:33:08Z</time>
      </trkpt>
      <trkpt lat="44.03249" lon="1.13321">
        <ele>85.5</ele>
        <time>2018-08-21T09:33:10Z</time>
      </trkpt>
      <trkpt lat="44.03243" lon="1.13338">
        <ele>85.8</ele>
        <time>2018-08-21T09:33:12Z</time>
      </trkpt>
      <trkpt lat="44.03238" lon="1.13355">
        <ele>86.3</ele>
        <time>2018-08-21T09:33:14Z</time>
      </trkpt>
      <trkpt lat="44.03233" lon="1.13372">
        <ele>86.5</ele>
        <time>2018-08-21T09:33:16Z</time>
      </trkpt>
      <trkpt lat="44.03227" lon="1.13388">
        <ele>86.4</ele>
        <time>2018-08-21T09:33:18Z</time>
      </trkpt>
      <trkpt lat="44.03223" lon="1.13403">
        <ele>86.1</ele>
        <time>2018-08-21T09:33:20Z</time>
      </trkpt>
      <trkpt lat="44.03218" lon="1.1342">
        <ele>85.9</ele>
        <time>2018-08-21T09:33:22Z</time>
      </trkpt>
      <trkpt lat="44.03213" lon="1.13436">
        <ele>85.7</ele>
        <time>2018-08-21T09:33:24Z</time>
      </trkpt>
      <trkpt lat="44.03209" lon="1.13452">
        <ele>85.7</ele>
        <time>2018-08-21T09:33:26Z</time>
      </trkpt>
      <trkpt lat="44.03205" lon="1.13466">
        <ele>85.7</ele>
        <time>2018-08-21T09:33:28Z</time>
      </trkpt>
      <trkpt lat="44.03202" lon="1.1348">
        <ele>85.3</ele>
        <time>2018-08-21T09:33:30Z</time>
      </trkpt>
      <trkpt lat="44.03197" lon="1.13496">
        <ele>84.8</ele>
        <time>2018-08-21T09:33:32Z</time>
      </trkpt>
      <trkpt lat="44.03191" lon="1.13511">
        <ele>84.5</ele>
        <time>2018-08-21T09:33:34Z</time>
      </trkpt>
      <trkpt lat="44.03186" lon="1.13528">
        <ele>84.7</ele>
        <time>2018-08-21T09:33:36Z</time>
      </trkpt>
      <trkpt lat="44.0318" lon="1.13544">
        <ele>84.7</ele>
        <time>2018-08-21T09:33:38Z</time>
      </trkpt>
      <trkpt lat="44.03176" lon="1.1356">
        <ele>84.4</ele>
        <time>2018-08-21T09:33:40Z</time>
      </trkpt>
      <trkpt lat="44.03171" lon="1.13575">
        <ele>84.2</ele>
        <time>2018-08-21T09:33:42Z</time>
      </trkpt>
      <trkpt lat="44.03166" lon="1.1359">
        <ele>83.9</ele>
        <time>2018-08-21T09:33:44Z</time>
      </trkpt>
      <trkpt lat="44.03161" lon="1.13607">
        <ele>83.8</ele>
        <time>2018-08-21T09:33:46Z</time>
      </trkpt>
      <trkpt lat="44.03157" lon="1.13616">
        <ele>83.5</ele>
        <time>2018-08-21T09:33:47Z</time>
      </trkpt>
      <trkpt lat="44.03153" lon="1.13633">
        <ele>83.2</ele>
        <time>2018-08-21T09:33:49Z</time>
      </trkpt>
      <trkpt lat="44.03149" lon="1.13649">
        <ele>82.6</ele>
        <time>2018-08-21T09:33:51Z</time>
      </trkpt>
      <trkpt lat="44.03143" lon="1.13667">
        <ele>82.2</ele>
        <time>2018-08-21T09:33:53Z</time>
      </trkpt>
      <trkpt lat="44.03137" lon="1.13685">
        <ele>81.5</ele>
        <time>2018-08-21T09:33:55Z</time>
      </trkpt>
      <trkpt lat="44.03132" lon="1.13701">
        <ele>81.3</ele>
        <time>2018-08-21T09:33:57Z</time>
      </trkpt>
      <trkpt lat="44.03127" lon="1.13717">
        <ele>80.7</ele>
        <time>2018-08-21T09:33:59Z</time>
      </trkpt>
      <trkpt lat="44.03122" lon="1.13732">
        <ele>80.3</ele>
        <time>2018-08-21T09:34:02Z</time>
      </trkpt>
      <trkpt lat="44.03116" lon="1.13749">
        <ele>80.2</ele>
        <time>2018-08-21T09:34:03Z</time>
      </trkpt>
      <trkpt lat="44.03111" lon="1.13766">
        <ele>80.1</ele>
        <time>2018-08-21T09:34:05Z</time>
      </trkpt>
      <trkpt lat="44.03105" lon="1.13783">
        <ele>79.7</ele>
        <time>2018-08-21T09:34:07Z</time>
      </trkpt>
      <trkpt lat="44.031" lon="1.13801">
        <ele>79.9</ele>
        <time>2018-08-21T09:34:09Z</time>
      </trkpt>
      <trkpt lat="44.03094" lon="1.13819">
        <ele>79.9</ele>
        <time>2018-08-21T09:34:11Z</time>
      </trkpt>
      <trkpt lat="44.03088" lon="1.13837">
        <ele>80.4</ele>
        <time>2018-08-21T09:34:13Z</time>
      </trkpt>
      <trkpt lat="44.03083" lon="1.13855">
        <ele>80.1</ele>
        <time>2018-08-21T09:34:15Z</time>
      </trkpt>
      <trkpt lat="44.03077" lon="1.13873">
        <ele>80.2</ele>
        <time>2018-08-21T09:34:17Z</time>
      </trkpt>
      <trkpt lat="44.03071" lon="1.1389">
        <ele>80.4</ele>
        <time>2018-08-21T09:34:19Z</time>
      </trkpt>
      <trkpt lat="44.03065" lon="1.13908">
        <ele>80.8</ele>
        <time>2018-08-21T09:34:21Z</time>
      </trkpt>
      <trkpt lat="44.0306" lon="1.13926">
        <ele>81.4</ele>
        <time>2018-08-21T09:34:24Z</time>
      </trkpt>
      <trkpt lat="44.03054" lon="1.13944">
        <ele>81.5</ele>
        <time>2018-08-21T09:34:25Z</time>
      </trkpt>
      <trkpt lat="44.03049" lon="1.13961">
        <ele>81.7</ele>
        <time>2018-08-21T09:34:27Z</time>
      </trkpt>
      <trkpt lat="44.03043" lon="1.13979">
        <ele>81.7</ele>
        <time>2018-08-21T09:34:29Z</time>
      </trkpt>
      <trkpt lat="44.03039" lon="1.13994">
        <ele>81.6</ele>
        <time>2018-08-21T09:34:31Z</time>
      </trkpt>
      <trkpt lat="44.03034" lon="1.14012">
        <ele>81.6</ele>
        <time>2018-08-21T09:34:33Z</time>
      </trkpt>
      <trkpt lat="44.03029" lon="1.14028">
        <ele>81.5</ele>
        <time>2018-08-21T09:34:35Z</time>
      </trkpt>
      <trkpt lat="44.03026" lon="1.14043">
        <ele>81.3</ele>
        <time>2018-08-21T09:34:37Z</time>
      </trkpt>
      <trkpt lat="44.03022" lon="1.14059">
        <ele>81</ele>
        <time>2018-08-21T09:34:39Z</time>
      </trkpt>
      <trkpt lat="44.0302" lon="1.14075">
        <ele>80.7</ele>
        <time>2018-08-21T09:34:41Z</time>
      </trkpt>
      <trkpt lat="44.03014" lon="1.14092">
        <ele>80.6</ele>
        <time>2018-08-21T09:34:43Z</time>
      </trkpt>
      <trkpt lat="44.03008" lon="1.1411">
        <ele>80.6</ele>
        <time>2018-08-21T09:34:45Z</time>
      </trkpt>
      <trkpt lat="44.03002" lon="1.14128">
        <ele>80.6</ele>
        <time>2018-08-21T09:34:47Z</time>
      </trkpt>
      <trkpt lat="44.02997" lon="1.14144">
        <ele>80.8</ele>
        <time>2018-08-21T09:34:49Z</time>
      </trkpt>
      <trkpt lat="44.02992" lon="1.14159">
        <ele>80.8</ele>
        <time>2018-08-21T09:34:51Z</time>
      </trkpt>
      <trkpt lat="44.02984" lon="1.1417">
        <ele>81.3</ele>
        <time>2018-08-21T09:34:53Z</time>
      </trkpt>
      <trkpt lat="44.02978" lon="1.14176">
        <ele>82</ele>
        <time>2018-08-21T09:34:55Z</time>
      </trkpt>
      <trkpt lat="44.02975" lon="1.14189">
        <ele>82.7</ele>
        <time>2018-08-21T09:34:58Z</time>
      </trkpt>
      <trkpt lat="44.02975" lon="1.14202">
        <ele>83.7</ele>
        <time>2018-08-21T09:35:00Z</time>
      </trkpt>
      <trkpt lat="44.02971" lon="1.14218">
        <ele>84.5</ele>
        <time>2018-08-21T09:35:02Z</time>
      </trkpt>
      <trkpt lat="44.02966" lon="1.14234">
        <ele>85.3</ele>
        <time>2018-08-21T09:35:04Z</time>
      </trkpt>
      <trkpt lat="44.0296" lon="1.14251">
        <ele>85.7</ele>
        <time>2018-08-21T09:35:06Z</time>
      </trkpt>
      <trkpt lat="44.02954" lon="1.14268">
        <ele>86</ele>
        <time>2018-08-21T09:35:08Z</time>
      </trkpt>
      <trkpt lat="44.02949" lon="1.14285">
        <ele>86.7</ele>
        <time>2018-08-21T09:35:10Z</time>
      </trkpt>
      <trkpt lat="44.02944" lon="1.14302">
        <ele>87.5</ele>
        <time>2018-08-21T09:35:12Z</time>
      </trkpt>
      <trkpt lat="44.02938" lon="1.14319">
        <ele>88.5</ele>
        <time>2018-08-21T09:35:14Z</time>
      </trkpt>
      <trkpt lat="44.02934" lon="1.14336">
        <ele>89.1</ele>
        <time>2018-08-21T09:35:16Z</time>
      </trkpt>
      <trkpt lat="44.02929" lon="1.14353">
        <ele>89.9</ele>
        <time>2018-08-21T09:35:18Z</time>
      </trkpt>
      <trkpt lat="44.02925" lon="1.14362">
        <ele>90.2</ele>
        <time>2018-08-21T09:35:19Z</time>
      </trkpt>
      <trkpt lat="44.02922" lon="1.14371">
        <ele>90.5</ele>
        <time>2018-08-21T09:35:20Z</time>
      </trkpt>
      <trkpt lat="44.02919" lon="1.1438">
        <ele>90.8</ele>
        <time>2018-08-21T09:35:21Z</time>
      </trkpt>
      <trkpt lat="44.02915" lon="1.14397">
        <ele>91.6</ele>
        <time>2018-08-21T09:35:23Z</time>
      </trkpt>
      <trkpt lat="44.02912" lon="1.14414">
        <ele>92.3</ele>
        <time>2018-08-21T09:35:25Z</time>
      </trkpt>
      <trkpt lat="44.02907" lon="1.1443">
        <ele>93.5</ele>
        <time>2018-08-21T09:35:27Z</time>
      </trkpt>
      <trkpt lat="44.02902" lon="1.14448">
        <ele>94.2</ele>
        <time>2018-08-21T09:35:29Z</time>
      </trkpt>
      <trkpt lat="44.02897" lon="1.14465">
        <ele>94.4</ele>
        <time>2018-08-21T09:35:31Z</time>
      </trkpt>
      <trkpt lat="44.02893" lon="1.14482">
        <ele>94</ele>
        <time>2018-08-21T09:35:33Z</time>
      </trkpt>
      <trkpt lat="44.02888" lon="1.14498">
        <ele>94.4</ele>
        <time>2018-08-21T09:35:35Z</time>
      </trkpt>
      <trkpt lat="44.02882" lon="1.14515">
        <ele>94.5</ele>
        <time>2018-08-21T09:35:37Z</time>
      </trkpt>
      <trkpt lat="44.02876" lon="1.14532">
        <ele>94.4</ele>
        <time>2018-08-21T09:35:39Z</time>
      </trkpt>
      <trkpt lat="44.02871" lon="1.1455">
        <ele>94.3</ele>
        <time>2018-08-21T09:35:41Z</time>
      </trkpt>
      <trkpt lat="44.02866" lon="1.14567">
        <ele>94.4</ele>
        <time>2018-08-21T09:35:43Z</time>
      </trkpt>
      <trkpt lat="44.02859" lon="1.14584">
        <ele>94.3</ele>
        <time>2018-08-21T09:35:45Z</time>
      </trkpt>
      <trkpt lat="44.02854" lon="1.14601">
        <ele>93.3</ele>
        <time>2018-08-21T09:35:47Z</time>
      </trkpt>
      <trkpt lat="44.02851" lon="1.14611">
        <ele>93.3</ele>
        <time>2018-08-21T09:35:48Z</time>
      </trkpt>
      <trkpt lat="44.02848" lon="1.14621">
        <ele>93</ele>
        <time>2018-08-21T09:35:49Z</time>
      </trkpt>
      <trkpt lat="44.02845" lon="1.14631">
        <ele>93.1</ele>
        <time>2018-08-21T09:35:50Z</time>
      </trkpt>
      <trkpt lat="44.02841" lon="1.14641">
        <ele>92.6</ele>
        <time>2018-08-21T09:35:51Z</time>
      </trkpt>
      <trkpt lat="44.02836" lon="1.14659">
        <ele>91.7</ele>
        <time>2018-08-21T09:35:53Z</time>
      </trkpt>
      <trkpt lat="44.02833" lon="1.1467">
        <ele>90.9</ele>
        <time>2018-08-21T09:35:54Z</time>
      </trkpt>
      <trkpt lat="44.0283" lon="1.14679">
        <ele>90.2</ele>
        <time>2018-08-21T09:35:55Z</time>
      </trkpt>
      <trkpt lat="44.02828" lon="1.14688">
        <ele>89.7</ele>
        <time>2018-08-21T09:35:56Z</time>
      </trkpt>
      <trkpt lat="44.02825" lon="1.14698">
        <ele>89.4</ele>
        <time>2018-08-21T09:35:57Z</time>
      </trkpt>
      <trkpt lat="44.02819" lon="1.14715">
        <ele>88.2</ele>
        <time>2018-08-21T09:35:59Z</time>
      </trkpt>
      <trkpt lat="44.02814" lon="1.14733">
        <ele>87.3</ele>
        <time>2018-08-21T09:36:01Z</time>
      </trkpt>
      <trkpt lat="44.02808" lon="1.14751">
        <ele>86.4</ele>
        <time>2018-08-21T09:36:03Z</time>
      </trkpt>
      <trkpt lat="44.02805" lon="1.1476">
        <ele>86.1</ele>
        <time>2018-08-21T09:36:04Z</time>
      </trkpt>
      <trkpt lat="44.02802" lon="1.14769">
        <ele>86.1</ele>
        <time>2018-08-21T09:36:05Z</time>
      </trkpt>
      <trkpt lat="44.02799" lon="1.14778">
        <ele>85.7</ele>
        <time>2018-08-21T09:36:06Z</time>
      </trkpt>
      <trkpt lat="44.02796" lon="1.14788">
        <ele>85.9</ele>
        <time>2018-08-21T09:36:07Z</time>
      </trkpt>
      <trkpt lat="44.0279" lon="1.14805">
        <ele>85.9</ele>
        <time>2018-08-21T09:36:09Z</time>
      </trkpt>
      <trkpt lat="44.02787" lon="1.14815">
        <ele>85.6</ele>
        <time>2018-08-21T09:36:10Z</time>
      </trkpt>
      <trkpt lat="44.02784" lon="1.14824">
        <ele>85</ele>
        <time>2018-08-21T09:36:11Z</time>
      </trkpt>
      <trkpt lat="44.02778" lon="1.14841">
        <ele>84.3</ele>
        <time>2018-08-21T09:36:13Z</time>
      </trkpt>
      <trkpt lat="44.02773" lon="1.14858">
        <ele>83.4</ele>
        <time>2018-08-21T09:36:15Z</time>
      </trkpt>
      <trkpt lat="44.02768" lon="1.14874">
        <ele>83.1</ele>
        <time>2018-08-21T09:36:17Z</time>
      </trkpt>
      <trkpt lat="44.02763" lon="1.14891">
        <ele>82.3</ele>
        <time>2018-08-21T09:36:19Z</time>
      </trkpt>
      <trkpt lat="44.02759" lon="1.14908">
        <ele>82.1</ele>
        <time>2018-08-21T09:36:21Z</time>
      </trkpt>
      <trkpt lat="44.02754" lon="1.14926">
        <ele>81.7</ele>
        <time>2018-08-21T09:36:23Z</time>
      </trkpt>
      <trkpt lat="44.02751" lon="1.14935">
        <ele>82.2</ele>
        <time>2018-08-21T09:36:24Z</time>
      </trkpt>
      <trkpt lat="44.02745" lon="1.14953">
        <ele>82.4</ele>
        <time>2018-08-21T09:36:26Z</time>
      </trkpt>
      <trkpt lat="44.02742" lon="1.14962">
        <ele>82.4</ele>
        <time>2018-08-21T09:36:27Z</time>
      </trkpt>
      <trkpt lat="44.02736" lon="1.14979">
        <ele>82.3</ele>
        <time>2018-08-21T09:36:29Z</time>
      </trkpt>
      <trkpt lat="44.02733" lon="1.14988">
        <ele>82.3</ele>
        <time>2018-08-21T09:36:30Z</time>
      </trkpt>
      <trkpt lat="44.0273" lon="1.14998">
        <ele>82.1</ele>
        <time>2018-08-21T09:36:31Z</time>
      </trkpt>
      <trkpt lat="44.02728" lon="1.15008">
        <ele>82.1</ele>
        <time>2018-08-21T09:36:32Z</time>
      </trkpt>
      <trkpt lat="44.02725" lon="1.15017">
        <ele>81.9</ele>
        <time>2018-08-21T09:36:33Z</time>
      </trkpt>
      <trkpt lat="44.0272" lon="1.15036">
        <ele>81.7</ele>
        <time>2018-08-21T09:36:35Z</time>
      </trkpt>
      <trkpt lat="44.02714" lon="1.15053">
        <ele>81.2</ele>
        <time>2018-08-21T09:36:37Z</time>
      </trkpt>
      <trkpt lat="44.02709" lon="1.1507">
        <ele>80.7</ele>
        <time>2018-08-21T09:36:39Z</time>
      </trkpt>
      <trkpt lat="44.02703" lon="1.15088">
        <ele>80.9</ele>
        <time>2018-08-21T09:36:41Z</time>
      </trkpt>
      <trkpt lat="44.02698" lon="1.15106">
        <ele>80.6</ele>
        <time>2018-08-21T09:36:43Z</time>
      </trkpt>
      <trkpt lat="44.02696" lon="1.15115">
        <ele>80.5</ele>
        <time>2018-08-21T09:36:44Z</time>
      </trkpt>
      <trkpt lat="44.0269" lon="1.15133">
        <ele>80.6</ele>
        <time>2018-08-21T09:36:46Z</time>
      </trkpt>
      <trkpt lat="44.02687" lon="1.15143">
        <ele>80.8</ele>
        <time>2018-08-21T09:36:47Z</time>
      </trkpt>
      <trkpt lat="44.02681" lon="1.1516">
        <ele>80.6</ele>
        <time>2018-08-21T09:36:49Z</time>
      </trkpt>
      <trkpt lat="44.02676" lon="1.15176">
        <ele>80.6</ele>
        <time>2018-08-21T09:36:51Z</time>
      </trkpt>
      <trkpt lat="44.02671" lon="1.15194">
        <ele>80.9</ele>
        <time>2018-08-21T09:36:53Z</time>
      </trkpt>
      <trkpt lat="44.02666" lon="1.15211">
        <ele>81.6</ele>
        <time>2018-08-21T09:36:55Z</time>
      </trkpt>
      <trkpt lat="44.02661" lon="1.15228">
        <ele>81.9</ele>
        <time>2018-08-21T09:36:57Z</time>
      </trkpt>
      <trkpt lat="44.02655" lon="1.15246">
        <ele>82.6</ele>
        <time>2018-08-21T09:36:59Z</time>
      </trkpt>
      <trkpt lat="44.02649" lon="1.15263">
        <ele>83.4</ele>
        <time>2018-08-21T09:37:01Z</time>
      </trkpt>
      <trkpt lat="44.02644" lon="1.1528">
        <ele>83.5</ele>
        <time>2018-08-21T09:37:03Z</time>
      </trkpt>
      <trkpt lat="44.02639" lon="1.15297">
        <ele>83.8</ele>
        <time>2018-08-21T09:37:05Z</time>
      </trkpt>
      <trkpt lat="44.02633" lon="1.15313">
        <ele>84.1</ele>
        <time>2018-08-21T09:37:07Z</time>
      </trkpt>
      <trkpt lat="44.02628" lon="1.15331">
        <ele>84.3</ele>
        <time>2018-08-21T09:37:09Z</time>
      </trkpt>
      <trkpt lat="44.02625" lon="1.15348">
        <ele>84.2</ele>
        <time>2018-08-21T09:37:11Z</time>
      </trkpt>
      <trkpt lat="44.0262" lon="1.15365">
        <ele>84.1</ele>
        <time>2018-08-21T09:37:13Z</time>
      </trkpt>
      <trkpt lat="44.02615" lon="1.15382">
        <ele>83.6</ele>
        <time>2018-08-21T09:37:15Z</time>
      </trkpt>
      <trkpt lat="44.02611" lon="1.15396">
        <ele>82.8</ele>
        <time>2018-08-21T09:37:17Z</time>
      </trkpt>
      <trkpt lat="44.02609" lon="1.15409">
        <ele>83.1</ele>
        <time>2018-08-21T09:37:19Z</time>
      </trkpt>
      <trkpt lat="44.02608" lon="1.15421">
        <ele>83.1</ele>
        <time>2018-08-21T09:37:21Z</time>
      </trkpt>
      <trkpt lat="44.02607" lon="1.15431">
        <ele>83.6</ele>
        <time>2018-08-21T09:37:24Z</time>
      </trkpt>
      <trkpt lat="44.02602" lon="1.15443">
        <ele>85.8</ele>
        <time>2018-08-21T09:37:28Z</time>
      </trkpt>
      <trkpt lat="44.02596" lon="1.15455">
        <ele>86.5</ele>
        <time>2018-08-21T09:37:30Z</time>
      </trkpt>
      <trkpt lat="44.0259" lon="1.15473">
        <ele>87.1</ele>
        <time>2018-08-21T09:37:32Z</time>
      </trkpt>
      <trkpt lat="44.02583" lon="1.1549">
        <ele>87</ele>
        <time>2018-08-21T09:37:34Z</time>
      </trkpt>
      <trkpt lat="44.02576" lon="1.15507">
        <ele>87.2</ele>
        <time>2018-08-21T09:37:36Z</time>
      </trkpt>
      <trkpt lat="44.02571" lon="1.15524">
        <ele>87.5</ele>
        <time>2018-08-21T09:37:38Z</time>
      </trkpt>
      <trkpt lat="44.02567" lon="1.15534">
        <ele>87.6</ele>
        <time>2018-08-21T09:37:39Z</time>
      </trkpt>
      <trkpt lat="44.02562" lon="1.1555">
        <ele>87.8</ele>
        <time>2018-08-21T09:37:41Z</time>
      </trkpt>
      <trkpt lat="44.02558" lon="1.1556">
        <ele>87.9</ele>
        <time>2018-08-21T09:37:42Z</time>
      </trkpt>
      <trkpt lat="44.02555" lon="1.15569">
        <ele>87.9</ele>
        <time>2018-08-21T09:37:43Z</time>
      </trkpt>
      <trkpt lat="44.02549" lon="1.15588">
        <ele>88</ele>
        <time>2018-08-21T09:37:45Z</time>
      </trkpt>
      <trkpt lat="44.02543" lon="1.15606">
        <ele>88</ele>
        <time>2018-08-21T09:37:47Z</time>
      </trkpt>
      <trkpt lat="44.02538" lon="1.15624">
        <ele>87.5</ele>
        <time>2018-08-21T09:37:49Z</time>
      </trkpt>
      <trkpt lat="44.02532" lon="1.15642">
        <ele>87</ele>
        <time>2018-08-21T09:37:51Z</time>
      </trkpt>
      <trkpt lat="44.02526" lon="1.15659">
        <ele>86.2</ele>
        <time>2018-08-21T09:37:53Z</time>
      </trkpt>
      <trkpt lat="44.02521" lon="1.15676">
        <ele>85.8</ele>
        <time>2018-08-21T09:37:55Z</time>
      </trkpt>
      <trkpt lat="44.02516" lon="1.15693">
        <ele>85.2</ele>
        <time>2018-08-21T09:37:57Z</time>
      </trkpt>
      <trkpt lat="44.0251" lon="1.15711">
        <ele>84.8</ele>
        <time>2018-08-21T09:37:59Z</time>
      </trkpt>
      <trkpt lat="44.02505" lon="1.15728">
        <ele>84.8</ele>
        <time>2018-08-21T09:38:01Z</time>
      </trkpt>
      <trkpt lat="44.025" lon="1.15745">
        <ele>84.7</ele>
        <time>2018-08-21T09:38:03Z</time>
      </trkpt>
      <trkpt lat="44.02495" lon="1.15762">
        <ele>84.3</ele>
        <time>2018-08-21T09:38:05Z</time>
      </trkpt>
      <trkpt lat="44.02489" lon="1.15781">
        <ele>84.3</ele>
        <time>2018-08-21T09:38:07Z</time>
      </trkpt>
      <trkpt lat="44.02483" lon="1.15799">
        <ele>83.7</ele>
        <time>2018-08-21T09:38:09Z</time>
      </trkpt>
      <trkpt lat="44.02478" lon="1.15816">
        <ele>83.1</ele>
        <time>2018-08-21T09:38:11Z</time>
      </trkpt>
      <trkpt lat="44.02473" lon="1.15833">
        <ele>82.9</ele>
        <time>2018-08-21T09:38:13Z</time>
      </trkpt>
      <trkpt lat="44.02467" lon="1.15851">
        <ele>82.8</ele>
        <time>2018-08-21T09:38:15Z</time>
      </trkpt>
      <trkpt lat="44.02462" lon="1.15868">
        <ele>82.6</ele>
        <time>2018-08-21T09:38:17Z</time>
      </trkpt>
      <trkpt lat="44.02457" lon="1.15886">
        <ele>82.8</ele>
        <time>2018-08-21T09:38:19Z</time>
      </trkpt>
      <trkpt lat="44.02451" lon="1.15904">
        <ele>82.6</ele>
        <time>2018-08-21T09:38:21Z</time>
      </trkpt>
      <trkpt lat="44.02446" lon="1.15921">
        <ele>82.3</ele>
        <time>2018-08-21T09:38:23Z</time>
      </trkpt>
      <trkpt lat="44.02441" lon="1.15939">
        <ele>82.2</ele>
        <time>2018-08-21T09:38:25Z</time>
      </trkpt>
      <trkpt lat="44.02435" lon="1.15957">
        <ele>82.1</ele>
        <time>2018-08-21T09:38:27Z</time>
      </trkpt>
      <trkpt lat="44.0243" lon="1.15975">
        <ele>82.2</ele>
        <time>2018-08-21T09:38:29Z</time>
      </trkpt>
      <trkpt lat="44.02428" lon="1.15985">
        <ele>82.5</ele>
        <time>2018-08-21T09:38:30Z</time>
      </trkpt>
      <trkpt lat="44.02425" lon="1.15994">
        <ele>82.6</ele>
        <time>2018-08-21T09:38:31Z</time>
      </trkpt>
      <trkpt lat="44.02419" lon="1.16012">
        <ele>82.6</ele>
        <time>2018-08-21T09:38:33Z</time>
      </trkpt>
      <trkpt lat="44.02413" lon="1.1603">
        <ele>82.6</ele>
        <time>2018-08-21T09:38:35Z</time>
      </trkpt>
      <trkpt lat="44.02409" lon="1.16047">
        <ele>83</ele>
        <time>2018-08-21T09:38:37Z</time>
      </trkpt>
      <trkpt lat="44.02404" lon="1.16064">
        <ele>83.5</ele>
        <time>2018-08-21T09:38:39Z</time>
      </trkpt>
      <trkpt lat="44.02398" lon="1.16082">
        <ele>83.7</ele>
        <time>2018-08-21T09:38:41Z</time>
      </trkpt>
      <trkpt lat="44.02393" lon="1.16099">
        <ele>84</ele>
        <time>2018-08-21T09:38:43Z</time>
      </trkpt>
      <trkpt lat="44.02388" lon="1.16115">
        <ele>83.8</ele>
        <time>2018-08-21T09:38:45Z</time>
      </trkpt>
      <trkpt lat="44.02383" lon="1.16131">
        <ele>83.7</ele>
        <time>2018-08-21T09:38:47Z</time>
      </trkpt>
      <trkpt lat="44.02379" lon="1.16146">
        <ele>83.4</ele>
        <time>2018-08-21T09:38:49Z</time>
      </trkpt>
      <trkpt lat="44.02375" lon="1.16161">
        <ele>84</ele>
        <time>2018-08-21T09:38:51Z</time>
      </trkpt>
      <trkpt lat="44.02373" lon="1.16174">
        <ele>84.6</ele>
        <time>2018-08-21T09:38:53Z</time>
      </trkpt>
      <trkpt lat="44.02369" lon="1.16184">
        <ele>85.8</ele>
        <time>2018-08-21T09:38:55Z</time>
      </trkpt>
      <trkpt lat="44.02365" lon="1.16194">
        <ele>88</ele>
        <time>2018-08-21T09:38:58Z</time>
      </trkpt>
      <trkpt lat="44.02359" lon="1.16202">
        <ele>88.5</ele>
        <time>2018-08-21T09:39:02Z</time>
      </trkpt>
      <trkpt lat="44.02352" lon="1.16213">
        <ele>89.5</ele>
        <time>2018-08-21T09:39:05Z</time>
      </trkpt>
      <trkpt lat="44.02348" lon="1.16222">
        <ele>90.1</ele>
        <time>2018-08-21T09:39:07Z</time>
      </trkpt>
      <trkpt lat="44.02345" lon="1.16236">
        <ele>91.2</ele>
        <time>2018-08-21T09:39:10Z</time>
      </trkpt>
      <trkpt lat="44.02344" lon="1.16248">
        <ele>92.8</ele>
        <time>2018-08-21T09:39:12Z</time>
      </trkpt>
      <trkpt lat="44.02341" lon="1.16261">
        <ele>92.8</ele>
        <time>2018-08-21T09:39:14Z</time>
      </trkpt>
      <trkpt lat="44.02337" lon="1.16276">
        <ele>92.1</ele>
        <time>2018-08-21T09:39:16Z</time>
      </trkpt>
      <trkpt lat="44.02331" lon="1.1629">
        <ele>92.5</ele>
        <time>2018-08-21T09:39:18Z</time>
      </trkpt>
      <trkpt lat="44.02326" lon="1.16304">
        <ele>92.4</ele>
        <time>2018-08-21T09:39:20Z</time>
      </trkpt>
      <trkpt lat="44.0232" lon="1.16318">
        <ele>92.3</ele>
        <time>2018-08-21T09:39:22Z</time>
      </trkpt>
      <trkpt lat="44.02314" lon="1.16334">
        <ele>92.5</ele>
        <time>2018-08-21T09:39:24Z</time>
      </trkpt>
      <trkpt lat="44.02308" lon="1.16349">
        <ele>92.3</ele>
        <time>2018-08-21T09:39:26Z</time>
      </trkpt>
      <trkpt lat="44.023" lon="1.16363">
        <ele>91.4</ele>
        <time>2018-08-21T09:39:28Z</time>
      </trkpt>
      <trkpt lat="44.02293" lon="1.16376">
        <ele>90.3</ele>
        <time>2018-08-21T09:39:30Z</time>
      </trkpt>
      <trkpt lat="44.02286" lon="1.1639">
        <ele>89.8</ele>
        <time>2018-08-21T09:39:32Z</time>
      </trkpt>
      <trkpt lat="44.02279" lon="1.16403">
        <ele>89.4</ele>
        <time>2018-08-21T09:39:34Z</time>
      </trkpt>
      <trkpt lat="44.02269" lon="1.16417">
        <ele>89.2</ele>
        <time>2018-08-21T09:39:36Z</time>
      </trkpt>
      <trkpt lat="44.02261" lon="1.1643">
        <ele>89.1</ele>
        <time>2018-08-21T09:39:38Z</time>
      </trkpt>
      <trkpt lat="44.02252" lon="1.16442">
        <ele>89.1</ele>
        <time>2018-08-21T09:39:40Z</time>
      </trkpt>
      <trkpt lat="44.02242" lon="1.16453">
        <ele>89.1</ele>
        <time>2018-08-21T09:39:42Z</time>
      </trkpt>
      <trkpt lat="44.02232" lon="1.16465">
        <ele>89</ele>
        <time>2018-08-21T09:39:44Z</time>
      </trkpt>
      <trkpt lat="44.02223" lon="1.16476">
        <ele>88.9</ele>
        <time>2018-08-21T09:39:46Z</time>
      </trkpt>
      <trkpt lat="44.02214" lon="1.16487">
        <ele>88.7</ele>
        <time>2018-08-21T09:39:48Z</time>
      </trkpt>
      <trkpt lat="44.02205" lon="1.16498">
        <ele>88.6</ele>
        <time>2018-08-21T09:39:50Z</time>
      </trkpt>
      <trkpt lat="44.02196" lon="1.16509">
        <ele>88.2</ele>
        <time>2018-08-21T09:39:52Z</time>
      </trkpt>
      <trkpt lat="44.02186" lon="1.16519">
        <ele>88.2</ele>
        <time>2018-08-21T09:39:54Z</time>
      </trkpt>
      <trkpt lat="44.02178" lon="1.1653">
        <ele>88.1</ele>
        <time>2018-08-21T09:39:56Z</time>
      </trkpt>
      <trkpt lat="44.0217" lon="1.16538">
        <ele>88</ele>
        <time>2018-08-21T09:39:58Z</time>
      </trkpt>
      <trkpt lat="44.02162" lon="1.16549">
        <ele>87.9</ele>
        <time>2018-08-21T09:40:01Z</time>
      </trkpt>
      <trkpt lat="44.02153" lon="1.16558">
        <ele>88</ele>
        <time>2018-08-21T09:40:02Z</time>
      </trkpt>
      <trkpt lat="44.02144" lon="1.16569">
        <ele>88</ele>
        <time>2018-08-21T09:40:04Z</time>
      </trkpt>
      <trkpt lat="44.02136" lon="1.1658">
        <ele>88.4</ele>
        <time>2018-08-21T09:40:06Z</time>
      </trkpt>
      <trkpt lat="44.02129" lon="1.16591">
        <ele>88.8</ele>
        <time>2018-08-21T09:40:08Z</time>
      </trkpt>
      <trkpt lat="44.0212" lon="1.16601">
        <ele>88.8</ele>
        <time>2018-08-21T09:40:10Z</time>
      </trkpt>
      <trkpt lat="44.02112" lon="1.1661">
        <ele>88.8</ele>
        <time>2018-08-21T09:40:12Z</time>
      </trkpt>
      <trkpt lat="44.02103" lon="1.16621">
        <ele>89.1</ele>
        <time>2018-08-21T09:40:14Z</time>
      </trkpt>
      <trkpt lat="44.02094" lon="1.16632">
        <ele>89.5</ele>
        <time>2018-08-21T09:40:16Z</time>
      </trkpt>
      <trkpt lat="44.02086" lon="1.16643">
        <ele>89.8</ele>
        <time>2018-08-21T09:40:18Z</time>
      </trkpt>
      <trkpt lat="44.02078" lon="1.16653">
        <ele>90</ele>
        <time>2018-08-21T09:40:20Z</time>
      </trkpt>
      <trkpt lat="44.02069" lon="1.16663">
        <ele>90.3</ele>
        <time>2018-08-21T09:40:22Z</time>
      </trkpt>
      <trkpt lat="44.0206" lon="1.16674">
        <ele>90.4</ele>
        <time>2018-08-21T09:40:24Z</time>
      </trkpt>
      <trkpt lat="44.02051" lon="1.16685">
        <ele>90.5</ele>
        <time>2018-08-21T09:40:26Z</time>
      </trkpt>
      <trkpt lat="44.02043" lon="1.16696">
        <ele>90.6</ele>
        <time>2018-08-21T09:40:28Z</time>
      </trkpt>
      <trkpt lat="44.02034" lon="1.16707">
        <ele>91</ele>
        <time>2018-08-21T09:40:30Z</time>
      </trkpt>
      <trkpt lat="44.02024" lon="1.16717">
        <ele>91.1</ele>
        <time>2018-08-21T09:40:32Z</time>
      </trkpt>
      <trkpt lat="44.02015" lon="1.16726">
        <ele>91.3</ele>
        <time>2018-08-21T09:40:34Z</time>
      </trkpt>
      <trkpt lat="44.02006" lon="1.16735">
        <ele>91.6</ele>
        <time>2018-08-21T09:40:36Z</time>
      </trkpt>
      <trkpt lat="44.01997" lon="1.16746">
        <ele>91.9</ele>
        <time>2018-08-21T09:40:38Z</time>
      </trkpt>
      <trkpt lat="44.01988" lon="1.16757">
        <ele>92.2</ele>
        <time>2018-08-21T09:40:40Z</time>
      </trkpt>
      <trkpt lat="44.01979" lon="1.16768">
        <ele>92.4</ele>
        <time>2018-08-21T09:40:42Z</time>
      </trkpt>
      <trkpt lat="44.0197" lon="1.16778">
        <ele>92.2</ele>
        <time>2018-08-21T09:40:44Z</time>
      </trkpt>
      <trkpt lat="44.01962" lon="1.16789">
        <ele>92.2</ele>
        <time>2018-08-21T09:40:46Z</time>
      </trkpt>
      <trkpt lat="44.01953" lon="1.168">
        <ele>92</ele>
        <time>2018-08-21T09:40:48Z</time>
      </trkpt>
      <trkpt lat="44.01944" lon="1.1681">
        <ele>91.9</ele>
        <time>2018-08-21T09:40:50Z</time>
      </trkpt>
      <trkpt lat="44.01936" lon="1.1682">
        <ele>92.1</ele>
        <time>2018-08-21T09:40:52Z</time>
      </trkpt>
      <trkpt lat="44.01927" lon="1.16831">
        <ele>92.3</ele>
        <time>2018-08-21T09:40:54Z</time>
      </trkpt>
      <trkpt lat="44.01918" lon="1.16842">
        <ele>92.4</ele>
        <time>2018-08-21T09:40:56Z</time>
      </trkpt>
      <trkpt lat="44.01909" lon="1.16852">
        <ele>92</ele>
        <time>2018-08-21T09:40:58Z</time>
      </trkpt>
      <trkpt lat="44.019" lon="1.16863">
        <ele>92.1</ele>
        <time>2018-08-21T09:41:00Z</time>
      </trkpt>
      <trkpt lat="44.01891" lon="1.16874">
        <ele>92</ele>
        <time>2018-08-21T09:41:02Z</time>
      </trkpt>
      <trkpt lat="44.01883" lon="1.16884">
        <ele>92.1</ele>
        <time>2018-08-21T09:41:04Z</time>
      </trkpt>
      <trkpt lat="44.01875" lon="1.16894">
        <ele>92.2</ele>
        <time>2018-08-21T09:41:06Z</time>
      </trkpt>
      <trkpt lat="44.01866" lon="1.16905">
        <ele>92.1</ele>
        <time>2018-08-21T09:41:08Z</time>
      </trkpt>
      <trkpt lat="44.01857" lon="1.16917">
        <ele>92.1</ele>
        <time>2018-08-21T09:41:10Z</time>
      </trkpt>
      <trkpt lat="44.01848" lon="1.16928">
        <ele>92</ele>
        <time>2018-08-21T09:41:12Z</time>
      </trkpt>
      <trkpt lat="44.01839" lon="1.16938">
        <ele>92.2</ele>
        <time>2018-08-21T09:41:14Z</time>
      </trkpt>
      <trkpt lat="44.0183" lon="1.16949">
        <ele>92.4</ele>
        <time>2018-08-21T09:41:16Z</time>
      </trkpt>
      <trkpt lat="44.01821" lon="1.16959">
        <ele>92.5</ele>
        <time>2018-08-21T09:41:18Z</time>
      </trkpt>
      <trkpt lat="44.01812" lon="1.16971">
        <ele>92.5</ele>
        <time>2018-08-21T09:41:20Z</time>
      </trkpt>
      <trkpt lat="44.01803" lon="1.16982">
        <ele>92.5</ele>
        <time>2018-08-21T09:41:22Z</time>
      </trkpt>
      <trkpt lat="44.01793" lon="1.16993">
        <ele>92.8</ele>
        <time>2018-08-21T09:41:24Z</time>
      </trkpt>
      <trkpt lat="44.01784" lon="1.17004">
        <ele>93</ele>
        <time>2018-08-21T09:41:26Z</time>
      </trkpt>
      <trkpt lat="44.01775" lon="1.17016">
        <ele>93.2</ele>
        <time>2018-08-21T09:41:28Z</time>
      </trkpt>
      <trkpt lat="44.01766" lon="1.17027">
        <ele>93</ele>
        <time>2018-08-21T09:41:30Z</time>
      </trkpt>
      <trkpt lat="44.01756" lon="1.17038">
        <ele>92.8</ele>
        <time>2018-08-21T09:41:32Z</time>
      </trkpt>
      <trkpt lat="44.01747" lon="1.17048">
        <ele>92.6</ele>
        <time>2018-08-21T09:41:34Z</time>
      </trkpt>
      <trkpt lat="44.01737" lon="1.17058">
        <ele>92.7</ele>
        <time>2018-08-21T09:41:36Z</time>
      </trkpt>
      <trkpt lat="44.01728" lon="1.17069">
        <ele>92.6</ele>
        <time>2018-08-21T09:41:38Z</time>
      </trkpt>
      <trkpt lat="44.01719" lon="1.1708">
        <ele>92.5</ele>
        <time>2018-08-21T09:41:40Z</time>
      </trkpt>
      <trkpt lat="44.0171" lon="1.17092">
        <ele>92.6</ele>
        <time>2018-08-21T09:41:42Z</time>
      </trkpt>
      <trkpt lat="44.01701" lon="1.17102">
        <ele>92.3</ele>
        <time>2018-08-21T09:41:44Z</time>
      </trkpt>
      <trkpt lat="44.01693" lon="1.17111">
        <ele>91.6</ele>
        <time>2018-08-21T09:41:46Z</time>
      </trkpt>
      <trkpt lat="44.01684" lon="1.17121">
        <ele>91.2</ele>
        <time>2018-08-21T09:41:48Z</time>
      </trkpt>
      <trkpt lat="44.01675" lon="1.17133">
        <ele>90.9</ele>
        <time>2018-08-21T09:41:50Z</time>
      </trkpt>
      <trkpt lat="44.01665" lon="1.17144">
        <ele>90.5</ele>
        <time>2018-08-21T09:41:53Z</time>
      </trkpt>
      <trkpt lat="44.01656" lon="1.17155">
        <ele>90.3</ele>
        <time>2018-08-21T09:41:54Z</time>
      </trkpt>
      <trkpt lat="44.01647" lon="1.17166">
        <ele>90.2</ele>
        <time>2018-08-21T09:41:56Z</time>
      </trkpt>
      <trkpt lat="44.01638" lon="1.17177">
        <ele>90.2</ele>
        <time>2018-08-21T09:41:58Z</time>
      </trkpt>
      <trkpt lat="44.01629" lon="1.17187">
        <ele>90.2</ele>
        <time>2018-08-21T09:42:00Z</time>
      </trkpt>
      <trkpt lat="44.0162" lon="1.17197">
        <ele>90.1</ele>
        <time>2018-08-21T09:42:02Z</time>
      </trkpt>
      <trkpt lat="44.01612" lon="1.17207">
        <ele>90.2</ele>
        <time>2018-08-21T09:42:04Z</time>
      </trkpt>
      <trkpt lat="44.01603" lon="1.17216">
        <ele>90.3</ele>
        <time>2018-08-21T09:42:06Z</time>
      </trkpt>
      <trkpt lat="44.01594" lon="1.17226">
        <ele>90</ele>
        <time>2018-08-21T09:42:08Z</time>
      </trkpt>
      <trkpt lat="44.01584" lon="1.17237">
        <ele>90.3</ele>
        <time>2018-08-21T09:42:10Z</time>
      </trkpt>
      <trkpt lat="44.01576" lon="1.1725">
        <ele>90.2</ele>
        <time>2018-08-21T09:42:12Z</time>
      </trkpt>
      <trkpt lat="44.01565" lon="1.1726">
        <ele>89.9</ele>
        <time>2018-08-21T09:42:14Z</time>
      </trkpt>
      <trkpt lat="44.01557" lon="1.17272">
        <ele>89.9</ele>
        <time>2018-08-21T09:42:16Z</time>
      </trkpt>
      <trkpt lat="44.01548" lon="1.17284">
        <ele>90</ele>
        <time>2018-08-21T09:42:18Z</time>
      </trkpt>
      <trkpt lat="44.01538" lon="1.17295">
        <ele>90</ele>
        <time>2018-08-21T09:42:20Z</time>
      </trkpt>
      <trkpt lat="44.01529" lon="1.17306">
        <ele>90.1</ele>
        <time>2018-08-21T09:42:22Z</time>
      </trkpt>
      <trkpt lat="44.0152" lon="1.17316">
        <ele>89.6</ele>
        <time>2018-08-21T09:42:24Z</time>
      </trkpt>
      <trkpt lat="44.01513" lon="1.17319">
        <ele>89.6</ele>
        <time>2018-08-21T09:42:26Z</time>
      </trkpt>
      <trkpt lat="44.01505" lon="1.17323">
        <ele>89.9</ele>
        <time>2018-08-21T09:42:28Z</time>
      </trkpt>
      <trkpt lat="44.015" lon="1.17332">
        <ele>90</ele>
        <time>2018-08-21T09:42:30Z</time>
      </trkpt>
      <trkpt lat="44.01497" lon="1.17345">
        <ele>90.4</ele>
        <time>2018-08-21T09:42:32Z</time>
      </trkpt>
      <trkpt lat="44.01491" lon="1.17354">
        <ele>90.7</ele>
        <time>2018-08-21T09:42:34Z</time>
      </trkpt>
      <trkpt lat="44.01484" lon="1.17363">
        <ele>91</ele>
        <time>2018-08-21T09:42:36Z</time>
      </trkpt>
      <trkpt lat="44.01477" lon="1.17372">
        <ele>91.4</ele>
        <time>2018-08-21T09:42:38Z</time>
      </trkpt>
      <trkpt lat="44.01467" lon="1.17382">
        <ele>91.6</ele>
        <time>2018-08-21T09:42:40Z</time>
      </trkpt>
      <trkpt lat="44.01458" lon="1.17394">
        <ele>91.5</ele>
        <time>2018-08-21T09:42:42Z</time>
      </trkpt>
      <trkpt lat="44.01447" lon="1.17405">
        <ele>91.5</ele>
        <time>2018-08-21T09:42:44Z</time>
      </trkpt>
      <trkpt lat="44.01437" lon="1.17416">
        <ele>91.2</ele>
        <time>2018-08-21T09:42:46Z</time>
      </trkpt>
      <trkpt lat="44.01428" lon="1.17427">
        <ele>91</ele>
        <time>2018-08-21T09:42:48Z</time>
      </trkpt>
      <trkpt lat="44.01418" lon="1.17439">
        <ele>90.7</ele>
        <time>2018-08-21T09:42:50Z</time>
      </trkpt>
      <trkpt lat="44.01408" lon="1.17451">
        <ele>90.3</ele>
        <time>2018-08-21T09:42:52Z</time>
      </trkpt>
      <trkpt lat="44.01398" lon="1.17462">
        <ele>90</ele>
        <time>2018-08-21T09:42:54Z</time>
      </trkpt>
      <trkpt lat="44.01388" lon="1.17473">
        <ele>89.7</ele>
        <time>2018-08-21T09:42:56Z</time>
      </trkpt>
      <trkpt lat="44.01379" lon="1.17484">
        <ele>89.1</ele>
        <time>2018-08-21T09:42:58Z</time>
      </trkpt>
      <trkpt lat="44.01371" lon="1.17495">
        <ele>88.6</ele>
        <time>2018-08-21T09:43:00Z</time>
      </trkpt>
      <trkpt lat="44.01361" lon="1.17505">
        <ele>87.9</ele>
        <time>2018-08-21T09:43:02Z</time>
      </trkpt>
      <trkpt lat="44.01352" lon="1.17517">
        <ele>87.2</ele>
        <time>2018-08-21T09:43:04Z</time>
      </trkpt>
      <trkpt lat="44.01342" lon="1.1753">
        <ele>86.7</ele>
        <time>2018-08-21T09:43:06Z</time>
      </trkpt>
      <trkpt lat="44.01334" lon="1.1754">
        <ele>86.4</ele>
        <time>2018-08-21T09:43:08Z</time>
      </trkpt>
      <trkpt lat="44.01325" lon="1.1755">
        <ele>85.9</ele>
        <time>2018-08-21T09:43:10Z</time>
      </trkpt>
      <trkpt lat="44.01316" lon="1.17562">
        <ele>85.5</ele>
        <time>2018-08-21T09:43:12Z</time>
      </trkpt>
      <trkpt lat="44.0131" lon="1.17568">
        <ele>85.5</ele>
        <time>2018-08-21T09:43:13Z</time>
      </trkpt>
      <trkpt lat="44.01304" lon="1.17576">
        <ele>85.4</ele>
        <time>2018-08-21T09:43:14Z</time>
      </trkpt>
      <trkpt lat="44.01298" lon="1.17583">
        <ele>85.3</ele>
        <time>2018-08-21T09:43:15Z</time>
      </trkpt>
      <trkpt lat="44.01292" lon="1.17589">
        <ele>85.3</ele>
        <time>2018-08-21T09:43:16Z</time>
      </trkpt>
      <trkpt lat="44.01286" lon="1.17596">
        <ele>85.4</ele>
        <time>2018-08-21T09:43:17Z</time>
      </trkpt>
      <trkpt lat="44.0128" lon="1.17602">
        <ele>85.6</ele>
        <time>2018-08-21T09:43:18Z</time>
      </trkpt>
      <trkpt lat="44.01274" lon="1.17609">
        <ele>85.6</ele>
        <time>2018-08-21T09:43:19Z</time>
      </trkpt>
      <trkpt lat="44.01265" lon="1.17621">
        <ele>85.7</ele>
        <time>2018-08-21T09:43:21Z</time>
      </trkpt>
      <trkpt lat="44.01254" lon="1.17635">
        <ele>85.7</ele>
        <time>2018-08-21T09:43:23Z</time>
      </trkpt>
      <trkpt lat="44.01245" lon="1.17648">
        <ele>85.6</ele>
        <time>2018-08-21T09:43:25Z</time>
      </trkpt>
      <trkpt lat="44.01235" lon="1.17661">
        <ele>85.5</ele>
        <time>2018-08-21T09:43:27Z</time>
      </trkpt>
      <trkpt lat="44.01229" lon="1.17668">
        <ele>85.6</ele>
        <time>2018-08-21T09:43:28Z</time>
      </trkpt>
      <trkpt lat="44.01224" lon="1.17675">
        <ele>85.7</ele>
        <time>2018-08-21T09:43:29Z</time>
      </trkpt>
      <trkpt lat="44.01213" lon="1.17688">
        <ele>86</ele>
        <time>2018-08-21T09:43:31Z</time>
      </trkpt>
      <trkpt lat="44.01203" lon="1.177">
        <ele>86.1</ele>
        <time>2018-08-21T09:43:33Z</time>
      </trkpt>
      <trkpt lat="44.01194" lon="1.17712">
        <ele>86.1</ele>
        <time>2018-08-21T09:43:35Z</time>
      </trkpt>
      <trkpt lat="44.01184" lon="1.17723">
        <ele>86</ele>
        <time>2018-08-21T09:43:37Z</time>
      </trkpt>
      <trkpt lat="44.01174" lon="1.17734">
        <ele>86</ele>
        <time>2018-08-21T09:43:39Z</time>
      </trkpt>
      <trkpt lat="44.01168" lon="1.1774">
        <ele>86</ele>
        <time>2018-08-21T09:43:40Z</time>
      </trkpt>
      <trkpt lat="44.01158" lon="1.17752">
        <ele>86.2</ele>
        <time>2018-08-21T09:43:42Z</time>
      </trkpt>
      <trkpt lat="44.01147" lon="1.17766">
        <ele>86.4</ele>
        <time>2018-08-21T09:43:44Z</time>
      </trkpt>
      <trkpt lat="44.01141" lon="1.17773">
        <ele>86.5</ele>
        <time>2018-08-21T09:43:45Z</time>
      </trkpt>
      <trkpt lat="44.01135" lon="1.1778">
        <ele>86.4</ele>
        <time>2018-08-21T09:43:46Z</time>
      </trkpt>
      <trkpt lat="44.01124" lon="1.17793">
        <ele>86.4</ele>
        <time>2018-08-21T09:43:48Z</time>
      </trkpt>
      <trkpt lat="44.01113" lon="1.17806">
        <ele>86.5</ele>
        <time>2018-08-21T09:43:50Z</time>
      </trkpt>
      <trkpt lat="44.01103" lon="1.17819">
        <ele>86.6</ele>
        <time>2018-08-21T09:43:52Z</time>
      </trkpt>
      <trkpt lat="44.01097" lon="1.17825">
        <ele>86.7</ele>
        <time>2018-08-21T09:43:53Z</time>
      </trkpt>
      <trkpt lat="44.01086" lon="1.17839">
        <ele>87.2</ele>
        <time>2018-08-21T09:43:55Z</time>
      </trkpt>
      <trkpt lat="44.01076" lon="1.17852">
        <ele>87.6</ele>
        <time>2018-08-21T09:43:57Z</time>
      </trkpt>
      <trkpt lat="44.01066" lon="1.17865">
        <ele>87.9</ele>
        <time>2018-08-21T09:43:59Z</time>
      </trkpt>
      <trkpt lat="44.01055" lon="1.17877">
        <ele>88.1</ele>
        <time>2018-08-21T09:44:01Z</time>
      </trkpt>
      <trkpt lat="44.01045" lon="1.17889">
        <ele>88.2</ele>
        <time>2018-08-21T09:44:03Z</time>
      </trkpt>
      <trkpt lat="44.01034" lon="1.17902">
        <ele>88.4</ele>
        <time>2018-08-21T09:44:05Z</time>
      </trkpt>
      <trkpt lat="44.01028" lon="1.17909">
        <ele>88.5</ele>
        <time>2018-08-21T09:44:06Z</time>
      </trkpt>
      <trkpt lat="44.01022" lon="1.17916">
        <ele>88.6</ele>
        <time>2018-08-21T09:44:07Z</time>
      </trkpt>
      <trkpt lat="44.01017" lon="1.17923">
        <ele>88.7</ele>
        <time>2018-08-21T09:44:08Z</time>
      </trkpt>
      <trkpt lat="44.01012" lon="1.17931">
        <ele>88.8</ele>
        <time>2018-08-21T09:44:09Z</time>
      </trkpt>
      <trkpt lat="44.01003" lon="1.17941">
        <ele>89</ele>
        <time>2018-08-21T09:44:11Z</time>
      </trkpt>
      <trkpt lat="44.00994" lon="1.17952">
        <ele>89.4</ele>
        <time>2018-08-21T09:44:13Z</time>
      </trkpt>
      <trkpt lat="44.00983" lon="1.17965">
        <ele>89.4</ele>
        <time>2018-08-21T09:44:15Z</time>
      </trkpt>
      <trkpt lat="44.00977" lon="1.17972">
        <ele>89.1</ele>
        <time>2018-08-21T09:44:16Z</time>
      </trkpt>
      <trkpt lat="44.00971" lon="1.17978">
        <ele>89</ele>
        <time>2018-08-21T09:44:17Z</time>
      </trkpt>
      <trkpt lat="44.00965" lon="1.17984">
        <ele>88.9</ele>
        <time>2018-08-21T09:44:18Z</time>
      </trkpt>
      <trkpt lat="44.00954" lon="1.17998">
        <ele>89.1</ele>
        <time>2018-08-21T09:44:20Z</time>
      </trkpt>
      <trkpt lat="44.00949" lon="1.18005">
        <ele>88.8</ele>
        <time>2018-08-21T09:44:21Z</time>
      </trkpt>
      <trkpt lat="44.00943" lon="1.18012">
        <ele>88.9</ele>
        <time>2018-08-21T09:44:22Z</time>
      </trkpt>
      <trkpt lat="44.00937" lon="1.18018">
        <ele>89</ele>
        <time>2018-08-21T09:44:23Z</time>
      </trkpt>
      <trkpt lat="44.00931" lon="1.18025">
        <ele>88.9</ele>
        <time>2018-08-21T09:44:24Z</time>
      </trkpt>
      <trkpt lat="44.00926" lon="1.18032">
        <ele>88.9</ele>
        <time>2018-08-21T09:44:25Z</time>
      </trkpt>
      <trkpt lat="44.0092" lon="1.18039">
        <ele>89.1</ele>
        <time>2018-08-21T09:44:26Z</time>
      </trkpt>
      <trkpt lat="44.00909" lon="1.18052">
        <ele>89.3</ele>
        <time>2018-08-21T09:44:28Z</time>
      </trkpt>
      <trkpt lat="44.00904" lon="1.18058">
        <ele>89.3</ele>
        <time>2018-08-21T09:44:29Z</time>
      </trkpt>
      <trkpt lat="44.00897" lon="1.18065">
        <ele>89.3</ele>
        <time>2018-08-21T09:44:30Z</time>
      </trkpt>
      <trkpt lat="44.00891" lon="1.18072">
        <ele>89.3</ele>
        <time>2018-08-21T09:44:31Z</time>
      </trkpt>
      <trkpt lat="44.00881" lon="1.18085">
        <ele>89</ele>
        <time>2018-08-21T09:44:33Z</time>
      </trkpt>
      <trkpt lat="44.00875" lon="1.18091">
        <ele>89.1</ele>
        <time>2018-08-21T09:44:34Z</time>
      </trkpt>
      <trkpt lat="44.00869" lon="1.18098">
        <ele>89.2</ele>
        <time>2018-08-21T09:44:36Z</time>
      </trkpt>
      <trkpt lat="44.00862" lon="1.18105">
        <ele>89.3</ele>
        <time>2018-08-21T09:44:36Z</time>
      </trkpt>
      <trkpt lat="44.00857" lon="1.18112">
        <ele>89.4</ele>
        <time>2018-08-21T09:44:37Z</time>
      </trkpt>
      <trkpt lat="44.00851" lon="1.18118">
        <ele>89.4</ele>
        <time>2018-08-21T09:44:38Z</time>
      </trkpt>
      <trkpt lat="44.00845" lon="1.18125">
        <ele>89.7</ele>
        <time>2018-08-21T09:44:39Z</time>
      </trkpt>
      <trkpt lat="44.0084" lon="1.18132">
        <ele>89.5</ele>
        <time>2018-08-21T09:44:40Z</time>
      </trkpt>
      <trkpt lat="44.00834" lon="1.18139">
        <ele>89.5</ele>
        <time>2018-08-21T09:44:41Z</time>
      </trkpt>
      <trkpt lat="44.00822" lon="1.18152">
        <ele>89.5</ele>
        <time>2018-08-21T09:44:43Z</time>
      </trkpt>
      <trkpt lat="44.00817" lon="1.18159">
        <ele>89.5</ele>
        <time>2018-08-21T09:44:44Z</time>
      </trkpt>
      <trkpt lat="44.00812" lon="1.18166">
        <ele>89.5</ele>
        <time>2018-08-21T09:44:45Z</time>
      </trkpt>
      <trkpt lat="44.00807" lon="1.18173">
        <ele>89.7</ele>
        <time>2018-08-21T09:44:46Z</time>
      </trkpt>
      <trkpt lat="44.00801" lon="1.18179">
        <ele>89.8</ele>
        <time>2018-08-21T09:44:47Z</time>
      </trkpt>
      <trkpt lat="44.00795" lon="1.18186">
        <ele>89.9</ele>
        <time>2018-08-21T09:44:48Z</time>
      </trkpt>
      <trkpt lat="44.00784" lon="1.18199">
        <ele>89.9</ele>
        <time>2018-08-21T09:44:50Z</time>
      </trkpt>
      <trkpt lat="44.00779" lon="1.18206">
        <ele>89.9</ele>
        <time>2018-08-21T09:44:51Z</time>
      </trkpt>
      <trkpt lat="44.00768" lon="1.18218">
        <ele>89.9</ele>
        <time>2018-08-21T09:44:53Z</time>
      </trkpt>
      <trkpt lat="44.00757" lon="1.18231">
        <ele>89.8</ele>
        <time>2018-08-21T09:44:55Z</time>
      </trkpt>
      <trkpt lat="44.00748" lon="1.18244">
        <ele>90</ele>
        <time>2018-08-21T09:44:57Z</time>
      </trkpt>
      <trkpt lat="44.00737" lon="1.18257">
        <ele>90</ele>
        <time>2018-08-21T09:44:59Z</time>
      </trkpt>
      <trkpt lat="44.00731" lon="1.18264">
        <ele>90.2</ele>
        <time>2018-08-21T09:45:00Z</time>
      </trkpt>
      <trkpt lat="44.00721" lon="1.18277">
        <ele>89.9</ele>
        <time>2018-08-21T09:45:02Z</time>
      </trkpt>
      <trkpt lat="44.00715" lon="1.18283">
        <ele>90.1</ele>
        <time>2018-08-21T09:45:03Z</time>
      </trkpt>
      <trkpt lat="44.00704" lon="1.18296">
        <ele>90.2</ele>
        <time>2018-08-21T09:45:05Z</time>
      </trkpt>
      <trkpt lat="44.00694" lon="1.18309">
        <ele>90.2</ele>
        <time>2018-08-21T09:45:07Z</time>
      </trkpt>
      <trkpt lat="44.00689" lon="1.18316">
        <ele>90.4</ele>
        <time>2018-08-21T09:45:08Z</time>
      </trkpt>
      <trkpt lat="44.00678" lon="1.1833">
        <ele>90.7</ele>
        <time>2018-08-21T09:45:10Z</time>
      </trkpt>
      <trkpt lat="44.00673" lon="1.18336">
        <ele>90.8</ele>
        <time>2018-08-21T09:45:11Z</time>
      </trkpt>
      <trkpt lat="44.00667" lon="1.18342">
        <ele>90.9</ele>
        <time>2018-08-21T09:45:12Z</time>
      </trkpt>
      <trkpt lat="44.00661" lon="1.18349">
        <ele>90.9</ele>
        <time>2018-08-21T09:45:13Z</time>
      </trkpt>
      <trkpt lat="44.00651" lon="1.18362">
        <ele>90.9</ele>
        <time>2018-08-21T09:45:15Z</time>
      </trkpt>
      <trkpt lat="44.00639" lon="1.18375">
        <ele>90.9</ele>
        <time>2018-08-21T09:45:17Z</time>
      </trkpt>
      <trkpt lat="44.00634" lon="1.18381">
        <ele>90.9</ele>
        <time>2018-08-21T09:45:18Z</time>
      </trkpt>
      <trkpt lat="44.00628" lon="1.18388">
        <ele>90.8</ele>
        <time>2018-08-21T09:45:19Z</time>
      </trkpt>
      <trkpt lat="44.00617" lon="1.18401">
        <ele>90.7</ele>
        <time>2018-08-21T09:45:21Z</time>
      </trkpt>
      <trkpt lat="44.00612" lon="1.18407">
        <ele>90.5</ele>
        <time>2018-08-21T09:45:22Z</time>
      </trkpt>
      <trkpt lat="44.006" lon="1.18421">
        <ele>90.3</ele>
        <time>2018-08-21T09:45:24Z</time>
      </trkpt>
      <trkpt lat="44.00595" lon="1.18428">
        <ele>90.2</ele>
        <time>2018-08-21T09:45:25Z</time>
      </trkpt>
      <trkpt lat="44.00589" lon="1.18435">
        <ele>89.9</ele>
        <time>2018-08-21T09:45:26Z</time>
      </trkpt>
      <trkpt lat="44.00584" lon="1.18441">
        <ele>89.6</ele>
        <time>2018-08-21T09:45:27Z</time>
      </trkpt>
      <trkpt lat="44.00578" lon="1.18448">
        <ele>89.3</ele>
        <time>2018-08-21T09:45:28Z</time>
      </trkpt>
      <trkpt lat="44.00571" lon="1.18454">
        <ele>89.2</ele>
        <time>2018-08-21T09:45:29Z</time>
      </trkpt>
      <trkpt lat="44.00565" lon="1.1846">
        <ele>89.1</ele>
        <time>2018-08-21T09:45:30Z</time>
      </trkpt>
      <trkpt lat="44.00559" lon="1.18467">
        <ele>89.2</ele>
        <time>2018-08-21T09:45:31Z</time>
      </trkpt>
      <trkpt lat="44.0055" lon="1.18483">
        <ele>89.2</ele>
        <time>2018-08-21T09:45:33Z</time>
      </trkpt>
      <trkpt lat="44.00544" lon="1.1849">
        <ele>89.2</ele>
        <time>2018-08-21T09:45:34Z</time>
      </trkpt>
      <trkpt lat="44.00534" lon="1.18503">
        <ele>89.2</ele>
        <time>2018-08-21T09:45:36Z</time>
      </trkpt>
      <trkpt lat="44.00524" lon="1.18516">
        <ele>89.6</ele>
        <time>2018-08-21T09:45:38Z</time>
      </trkpt>
      <trkpt lat="44.00513" lon="1.18528">
        <ele>89.8</ele>
        <time>2018-08-21T09:45:40Z</time>
      </trkpt>
      <trkpt lat="44.00504" lon="1.1854">
        <ele>89.9</ele>
        <time>2018-08-21T09:45:42Z</time>
      </trkpt>
      <trkpt lat="44.00494" lon="1.18551">
        <ele>89.8</ele>
        <time>2018-08-21T09:45:44Z</time>
      </trkpt>
      <trkpt lat="44.00484" lon="1.18564">
        <ele>89.8</ele>
        <time>2018-08-21T09:45:46Z</time>
      </trkpt>
      <trkpt lat="44.00473" lon="1.18575">
        <ele>89.6</ele>
        <time>2018-08-21T09:45:48Z</time>
      </trkpt>
      <trkpt lat="44.00463" lon="1.18586">
        <ele>89.7</ele>
        <time>2018-08-21T09:45:50Z</time>
      </trkpt>
      <trkpt lat="44.00453" lon="1.18598">
        <ele>89.5</ele>
        <time>2018-08-21T09:45:52Z</time>
      </trkpt>
      <trkpt lat="44.00443" lon="1.18608">
        <ele>89.6</ele>
        <time>2018-08-21T09:45:54Z</time>
      </trkpt>
      <trkpt lat="44.00432" lon="1.18621">
        <ele>90.1</ele>
        <time>2018-08-21T09:45:56Z</time>
      </trkpt>
      <trkpt lat="44.00422" lon="1.18632">
        <ele>90.6</ele>
        <time>2018-08-21T09:45:58Z</time>
      </trkpt>
      <trkpt lat="44.00413" lon="1.18643">
        <ele>91.5</ele>
        <time>2018-08-21T09:46:00Z</time>
      </trkpt>
      <trkpt lat="44.00404" lon="1.18655">
        <ele>92.3</ele>
        <time>2018-08-21T09:46:02Z</time>
      </trkpt>
      <trkpt lat="44.00395" lon="1.18667">
        <ele>92.6</ele>
        <time>2018-08-21T09:46:04Z</time>
      </trkpt>
      <trkpt lat="44.00384" lon="1.18679">
        <ele>93.3</ele>
        <time>2018-08-21T09:46:06Z</time>
      </trkpt>
      <trkpt lat="44.00374" lon="1.18693">
        <ele>93.7</ele>
        <time>2018-08-21T09:46:08Z</time>
      </trkpt>
      <trkpt lat="44.00368" lon="1.187">
        <ele>93.8</ele>
        <time>2018-08-21T09:46:09Z</time>
      </trkpt>
      <trkpt lat="44.00363" lon="1.18706">
        <ele>93.8</ele>
        <time>2018-08-21T09:46:10Z</time>
      </trkpt>
      <trkpt lat="44.00353" lon="1.18719">
        <ele>93.9</ele>
        <time>2018-08-21T09:46:12Z</time>
      </trkpt>
      <trkpt lat="44.00342" lon="1.18731">
        <ele>94.2</ele>
        <time>2018-08-21T09:46:14Z</time>
      </trkpt>
      <trkpt lat="44.00332" lon="1.18742">
        <ele>94.3</ele>
        <time>2018-08-21T09:46:16Z</time>
      </trkpt>
      <trkpt lat="44.00323" lon="1.18754">
        <ele>94.6</ele>
        <time>2018-08-21T09:46:18Z</time>
      </trkpt>
      <trkpt lat="44.00313" lon="1.18767">
        <ele>94.8</ele>
        <time>2018-08-21T09:46:20Z</time>
      </trkpt>
      <trkpt lat="44.00303" lon="1.18778">
        <ele>94.9</ele>
        <time>2018-08-21T09:46:22Z</time>
      </trkpt>
      <trkpt lat="44.00293" lon="1.18791">
        <ele>94.9</ele>
        <time>2018-08-21T09:46:24Z</time>
      </trkpt>
      <trkpt lat="44.00284" lon="1.18803">
        <ele>95.1</ele>
        <time>2018-08-21T09:46:26Z</time>
      </trkpt>
      <trkpt lat="44.00275" lon="1.18815">
        <ele>95.3</ele>
        <time>2018-08-21T09:46:28Z</time>
      </trkpt>
      <trkpt lat="44.00264" lon="1.18828">
        <ele>95.3</ele>
        <time>2018-08-21T09:46:30Z</time>
      </trkpt>
      <trkpt lat="44.00254" lon="1.18839">
        <ele>95.3</ele>
        <time>2018-08-21T09:46:32Z</time>
      </trkpt>
      <trkpt lat="44.00244" lon="1.18852">
        <ele>95.5</ele>
        <time>2018-08-21T09:46:34Z</time>
      </trkpt>
      <trkpt lat="44.00235" lon="1.18864">
        <ele>95.8</ele>
        <time>2018-08-21T09:46:36Z</time>
      </trkpt>
      <trkpt lat="44.00225" lon="1.18875">
        <ele>95.7</ele>
        <time>2018-08-21T09:46:38Z</time>
      </trkpt>
      <trkpt lat="44.00216" lon="1.18887">
        <ele>95.8</ele>
        <time>2018-08-21T09:46:40Z</time>
      </trkpt>
      <trkpt lat="44.00206" lon="1.18897">
        <ele>95.9</ele>
        <time>2018-08-21T09:46:42Z</time>
      </trkpt>
      <trkpt lat="44.00195" lon="1.18908">
        <ele>96.1</ele>
        <time>2018-08-21T09:46:44Z</time>
      </trkpt>
      <trkpt lat="44.00186" lon="1.18919">
        <ele>96.5</ele>
        <time>2018-08-21T09:46:46Z</time>
      </trkpt>
      <trkpt lat="44.00176" lon="1.18931">
        <ele>96.4</ele>
        <time>2018-08-21T09:46:48Z</time>
      </trkpt>
      <trkpt lat="44.00166" lon="1.18942">
        <ele>96.5</ele>
        <time>2018-08-21T09:46:50Z</time>
      </trkpt>
      <trkpt lat="44.00155" lon="1.18953">
        <ele>96.3</ele>
        <time>2018-08-21T09:46:52Z</time>
      </trkpt>
      <trkpt lat="44.00146" lon="1.18966">
        <ele>96.3</ele>
        <time>2018-08-21T09:46:54Z</time>
      </trkpt>
      <trkpt lat="44.00137" lon="1.18976">
        <ele>96.6</ele>
        <time>2018-08-21T09:46:56Z</time>
      </trkpt>
      <trkpt lat="44.00126" lon="1.18987">
        <ele>96.8</ele>
        <time>2018-08-21T09:46:58Z</time>
      </trkpt>
      <trkpt lat="44.00117" lon="1.18999">
        <ele>97.1</ele>
        <time>2018-08-21T09:47:00Z</time>
      </trkpt>
      <trkpt lat="44.00108" lon="1.1901">
        <ele>97.6</ele>
        <time>2018-08-21T09:47:02Z</time>
      </trkpt>
      <trkpt lat="44.001" lon="1.19021">
        <ele>97.8</ele>
        <time>2018-08-21T09:47:04Z</time>
      </trkpt>
      <trkpt lat="44.0009" lon="1.19033">
        <ele>98</ele>
        <time>2018-08-21T09:47:06Z</time>
      </trkpt>
      <trkpt lat="44.00081" lon="1.19045">
        <ele>98.1</ele>
        <time>2018-08-21T09:47:08Z</time>
      </trkpt>
      <trkpt lat="44.00071" lon="1.19056">
        <ele>97.8</ele>
        <time>2018-08-21T09:47:10Z</time>
      </trkpt>
      <trkpt lat="44.00062" lon="1.19067">
        <ele>98</ele>
        <time>2018-08-21T09:47:12Z</time>
      </trkpt>
      <trkpt lat="44.00052" lon="1.19079">
        <ele>97.9</ele>
        <time>2018-08-21T09:47:14Z</time>
      </trkpt>
      <trkpt lat="44.00043" lon="1.19088">
        <ele>97.3</ele>
        <time>2018-08-21T09:47:16Z</time>
      </trkpt>
      <trkpt lat="44.00033" lon="1.19099">
        <ele>96.8</ele>
        <time>2018-08-21T09:47:18Z</time>
      </trkpt>
      <trkpt lat="44.00023" lon="1.1911">
        <ele>95.9</ele>
        <time>2018-08-21T09:47:20Z</time>
      </trkpt>
      <trkpt lat="44.00013" lon="1.19122">
        <ele>95.5</ele>
        <time>2018-08-21T09:47:22Z</time>
      </trkpt>
      <trkpt lat="44.00003" lon="1.19133">
        <ele>94.4</ele>
        <time>2018-08-21T09:47:24Z</time>
      </trkpt>
      <trkpt lat="43.99994" lon="1.19144">
        <ele>93.9</ele>
        <time>2018-08-21T09:47:26Z</time>
      </trkpt>
      <trkpt lat="43.99984" lon="1.19156">
        <ele>92.6</ele>
        <time>2018-08-21T09:47:28Z</time>
      </trkpt>
      <trkpt lat="43.99974" lon="1.19168">
        <ele>91.6</ele>
        <time>2018-08-21T09:47:30Z</time>
      </trkpt>
      <trkpt lat="43.99964" lon="1.19179">
        <ele>91.2</ele>
        <time>2018-08-21T09:47:32Z</time>
      </trkpt>
      <trkpt lat="43.99953" lon="1.19191">
        <ele>90.6</ele>
        <time>2018-08-21T09:47:34Z</time>
      </trkpt>
      <trkpt lat="43.99943" lon="1.19204">
        <ele>89.8</ele>
        <time>2018-08-21T09:47:36Z</time>
      </trkpt>
      <trkpt lat="43.99933" lon="1.19216">
        <ele>89.5</ele>
        <time>2018-08-21T09:47:38Z</time>
      </trkpt>
      <trkpt lat="43.99924" lon="1.19228">
        <ele>89.2</ele>
        <time>2018-08-21T09:47:40Z</time>
      </trkpt>
      <trkpt lat="43.99914" lon="1.1924">
        <ele>89.2</ele>
        <time>2018-08-21T09:47:42Z</time>
      </trkpt>
      <trkpt lat="43.99903" lon="1.19252">
        <ele>89.5</ele>
        <time>2018-08-21T09:47:44Z</time>
      </trkpt>
      <trkpt lat="43.99893" lon="1.19264">
        <ele>89.5</ele>
        <time>2018-08-21T09:47:46Z</time>
      </trkpt>
      <trkpt lat="43.99884" lon="1.19274">
        <ele>89.2</ele>
        <time>2018-08-21T09:47:48Z</time>
      </trkpt>
      <trkpt lat="43.99874" lon="1.19285">
        <ele>89</ele>
        <time>2018-08-21T09:47:50Z</time>
      </trkpt>
      <trkpt lat="43.99865" lon="1.19298">
        <ele>88.9</ele>
        <time>2018-08-21T09:47:52Z</time>
      </trkpt>
      <trkpt lat="43.99855" lon="1.19309">
        <ele>88.6</ele>
        <time>2018-08-21T09:47:54Z</time>
      </trkpt>
      <trkpt lat="43.99846" lon="1.1932">
        <ele>88.3</ele>
        <time>2018-08-21T09:47:56Z</time>
      </trkpt>
      <trkpt lat="43.99836" lon="1.19332">
        <ele>88</ele>
        <time>2018-08-21T09:47:58Z</time>
      </trkpt>
      <trkpt lat="43.99826" lon="1.19344">
        <ele>88</ele>
        <time>2018-08-21T09:48:00Z</time>
      </trkpt>
      <trkpt lat="43.99816" lon="1.19356">
        <ele>88</ele>
        <time>2018-08-21T09:48:02Z</time>
      </trkpt>
      <trkpt lat="43.99805" lon="1.19367">
        <ele>87.9</ele>
        <time>2018-08-21T09:48:04Z</time>
      </trkpt>
      <trkpt lat="43.99795" lon="1.19379">
        <ele>88</ele>
        <time>2018-08-21T09:48:06Z</time>
      </trkpt>
      <trkpt lat="43.99785" lon="1.1939">
        <ele>87.8</ele>
        <time>2018-08-21T09:48:08Z</time>
      </trkpt>
      <trkpt lat="43.99775" lon="1.19401">
        <ele>87.6</ele>
        <time>2018-08-21T09:48:10Z</time>
      </trkpt>
      <trkpt lat="43.99766" lon="1.19412">
        <ele>87.6</ele>
        <time>2018-08-21T09:48:12Z</time>
      </trkpt>
      <trkpt lat="43.99757" lon="1.19425">
        <ele>87.8</ele>
        <time>2018-08-21T09:48:14Z</time>
      </trkpt>
      <trkpt lat="43.99747" lon="1.19437">
        <ele>87.9</ele>
        <time>2018-08-21T09:48:16Z</time>
      </trkpt>
      <trkpt lat="43.99737" lon="1.19448">
        <ele>87.8</ele>
        <time>2018-08-21T09:48:18Z</time>
      </trkpt>
      <trkpt lat="43.99727" lon="1.19461">
        <ele>87.8</ele>
        <time>2018-08-21T09:48:20Z</time>
      </trkpt>
      <trkpt lat="43.99718" lon="1.19474">
        <ele>87.7</ele>
        <time>2018-08-21T09:48:22Z</time>
      </trkpt>
      <trkpt lat="43.99709" lon="1.19486">
        <ele>87.5</ele>
        <time>2018-08-21T09:48:24Z</time>
      </trkpt>
      <trkpt lat="43.99698" lon="1.19496">
        <ele>87.8</ele>
        <time>2018-08-21T09:48:26Z</time>
      </trkpt>
      <trkpt lat="43.99689" lon="1.19508">
        <ele>88.3</ele>
        <time>2018-08-21T09:48:28Z</time>
      </trkpt>
      <trkpt lat="43.9968" lon="1.1952">
        <ele>88.6</ele>
        <time>2018-08-21T09:48:30Z</time>
      </trkpt>
      <trkpt lat="43.9967" lon="1.19531">
        <ele>89.2</ele>
        <time>2018-08-21T09:48:32Z</time>
      </trkpt>
      <trkpt lat="43.99661" lon="1.19542">
        <ele>89.1</ele>
        <time>2018-08-21T09:48:34Z</time>
      </trkpt>
      <trkpt lat="43.99652" lon="1.19553">
        <ele>88.9</ele>
        <time>2018-08-21T09:48:36Z</time>
      </trkpt>
      <trkpt lat="43.99643" lon="1.19565">
        <ele>89</ele>
        <time>2018-08-21T09:48:38Z</time>
      </trkpt>
      <trkpt lat="43.99634" lon="1.19577">
        <ele>89.3</ele>
        <time>2018-08-21T09:48:40Z</time>
      </trkpt>
      <trkpt lat="43.99625" lon="1.19589">
        <ele>89.6</ele>
        <time>2018-08-21T09:48:42Z</time>
      </trkpt>
      <trkpt lat="43.99616" lon="1.19601">
        <ele>89.6</ele>
        <time>2018-08-21T09:48:45Z</time>
      </trkpt>
      <trkpt lat="43.99605" lon="1.19612">
        <ele>89.5</ele>
        <time>2018-08-21T09:48:46Z</time>
      </trkpt>
      <trkpt lat="43.99596" lon="1.19625">
        <ele>89.4</ele>
        <time>2018-08-21T09:48:48Z</time>
      </trkpt>
      <trkpt lat="43.99587" lon="1.19635">
        <ele>89.3</ele>
        <time>2018-08-21T09:48:50Z</time>
      </trkpt>
      <trkpt lat="43.99577" lon="1.19647">
        <ele>89.3</ele>
        <time>2018-08-21T09:48:52Z</time>
      </trkpt>
      <trkpt lat="43.99568" lon="1.19658">
        <ele>89.6</ele>
        <time>2018-08-21T09:48:54Z</time>
      </trkpt>
      <trkpt lat="43.99558" lon="1.19669">
        <ele>89.7</ele>
        <time>2018-08-21T09:48:56Z</time>
      </trkpt>
      <trkpt lat="43.99549" lon="1.1968">
        <ele>89.7</ele>
        <time>2018-08-21T09:48:58Z</time>
      </trkpt>
      <trkpt lat="43.99539" lon="1.19691">
        <ele>89.8</ele>
        <time>2018-08-21T09:49:00Z</time>
      </trkpt>
      <trkpt lat="43.9953" lon="1.19702">
        <ele>89.6</ele>
        <time>2018-08-21T09:49:02Z</time>
      </trkpt>
      <trkpt lat="43.99521" lon="1.19713">
        <ele>89.3</ele>
        <time>2018-08-21T09:49:04Z</time>
      </trkpt>
      <trkpt lat="43.99511" lon="1.19725">
        <ele>89.1</ele>
        <time>2018-08-21T09:49:07Z</time>
      </trkpt>
      <trkpt lat="43.99501" lon="1.19737">
        <ele>88.9</ele>
        <time>2018-08-21T09:49:08Z</time>
      </trkpt>
      <trkpt lat="43.99491" lon="1.19748">
        <ele>89</ele>
        <time>2018-08-21T09:49:10Z</time>
      </trkpt>
      <trkpt lat="43.99481" lon="1.19759">
        <ele>89.2</ele>
        <time>2018-08-21T09:49:12Z</time>
      </trkpt>
      <trkpt lat="43.99473" lon="1.1977">
        <ele>89.4</ele>
        <time>2018-08-21T09:49:14Z</time>
      </trkpt>
      <trkpt lat="43.99464" lon="1.1978">
        <ele>89.5</ele>
        <time>2018-08-21T09:49:16Z</time>
      </trkpt>
      <trkpt lat="43.99455" lon="1.19791">
        <ele>89.6</ele>
        <time>2018-08-21T09:49:18Z</time>
      </trkpt>
      <trkpt lat="43.99447" lon="1.198">
        <ele>89.8</ele>
        <time>2018-08-21T09:49:20Z</time>
      </trkpt>
      <trkpt lat="43.99439" lon="1.1981">
        <ele>89.8</ele>
        <time>2018-08-21T09:49:22Z</time>
      </trkpt>
      <trkpt lat="43.99432" lon="1.19819">
        <ele>89.9</ele>
        <time>2018-08-21T09:49:24Z</time>
      </trkpt>
      <trkpt lat="43.99425" lon="1.19828">
        <ele>90</ele>
        <time>2018-08-21T09:49:26Z</time>
      </trkpt>
      <trkpt lat="43.99418" lon="1.19836">
        <ele>90.2</ele>
        <time>2018-08-21T09:49:28Z</time>
      </trkpt>
      <trkpt lat="43.99412" lon="1.19843">
        <ele>90.1</ele>
        <time>2018-08-21T09:49:31Z</time>
      </trkpt>
      <trkpt lat="43.99405" lon="1.19851">
        <ele>90.2</ele>
        <time>2018-08-21T09:49:32Z</time>
      </trkpt>
      <trkpt lat="43.99399" lon="1.19859">
        <ele>90.2</ele>
        <time>2018-08-21T09:49:34Z</time>
      </trkpt>
      <trkpt lat="43.99392" lon="1.19867">
        <ele>90.3</ele>
        <time>2018-08-21T09:49:36Z</time>
      </trkpt>
      <trkpt lat="43.99387" lon="1.19874">
        <ele>90.4</ele>
        <time>2018-08-21T09:49:38Z</time>
      </trkpt>
      <trkpt lat="43.99378" lon="1.19884">
        <ele>90.6</ele>
        <time>2018-08-21T09:49:41Z</time>
      </trkpt>
      <trkpt lat="43.99372" lon="1.19891">
        <ele>90.9</ele>
        <time>2018-08-21T09:49:43Z</time>
      </trkpt>
      <trkpt lat="43.99366" lon="1.19901">
        <ele>92.2</ele>
        <time>2018-08-21T09:49:46Z</time>
      </trkpt>
      <trkpt lat="43.99359" lon="1.19908">
        <ele>93.8</ele>
        <time>2018-08-21T09:49:50Z</time>
      </trkpt>
      <trkpt lat="43.99351" lon="1.19916">
        <ele>94.7</ele>
        <time>2018-08-21T09:49:53Z</time>
      </trkpt>
      <trkpt lat="43.99344" lon="1.19924">
        <ele>95.3</ele>
        <time>2018-08-21T09:49:56Z</time>
      </trkpt>
      <trkpt lat="43.99335" lon="1.19928">
        <ele>96.2</ele>
        <time>2018-08-21T09:50:00Z</time>
      </trkpt>
      <trkpt lat="43.99328" lon="1.19934">
        <ele>96.9</ele>
        <time>2018-08-21T09:50:05Z</time>
      </trkpt>
      <trkpt lat="43.99327" lon="1.19937">
        <ele>96.6</ele>
        <time>2018-08-21T09:50:12Z</time>
      </trkpt>
      <trkpt lat="43.99328" lon="1.19947">
        <ele>93</ele>
        <time>2018-08-21T09:54:17Z</time>
      </trkpt>
      <trkpt lat="43.99322" lon="1.19957">
        <ele>92.9</ele>
        <time>2018-08-21T09:54:21Z</time>
      </trkpt>
      <trkpt lat="43.99313" lon="1.19964">
        <ele>93.2</ele>
        <time>2018-08-21T09:54:23Z</time>
      </trkpt>
      <trkpt lat="43.99304" lon="1.19974">
        <ele>93.5</ele>
        <time>2018-08-21T09:54:25Z</time>
      </trkpt>
      <trkpt lat="43.99295" lon="1.19984">
        <ele>93.6</ele>
        <time>2018-08-21T09:54:27Z</time>
      </trkpt>
      <trkpt lat="43.99287" lon="1.19993">
        <ele>93.7</ele>
        <time>2018-08-21T09:54:29Z</time>
      </trkpt>
      <trkpt lat="43.99278" lon="1.20005">
        <ele>93.7</ele>
        <time>2018-08-21T09:54:31Z</time>
      </trkpt>
      <trkpt lat="43.99267" lon="1.20016">
        <ele>93.9</ele>
        <time>2018-08-21T09:54:33Z</time>
      </trkpt>
      <trkpt lat="43.99262" lon="1.20023">
        <ele>94.1</ele>
        <time>2018-08-21T09:54:35Z</time>
      </trkpt>
      <trkpt lat="43.99252" lon="1.20035">
        <ele>94.6</ele>
        <time>2018-08-21T09:54:36Z</time>
      </trkpt>
      <trkpt lat="43.99242" lon="1.20046">
        <ele>95.2</ele>
        <time>2018-08-21T09:54:38Z</time>
      </trkpt>
      <trkpt lat="43.99232" lon="1.20058">
        <ele>95.7</ele>
        <time>2018-08-21T09:54:40Z</time>
      </trkpt>
      <trkpt lat="43.99222" lon="1.20069">
        <ele>96.4</ele>
        <time>2018-08-21T09:54:42Z</time>
      </trkpt>
      <trkpt lat="43.99212" lon="1.20082">
        <ele>97</ele>
        <time>2018-08-21T09:54:44Z</time>
      </trkpt>
      <trkpt lat="43.99201" lon="1.20094">
        <ele>97.5</ele>
        <time>2018-08-21T09:54:46Z</time>
      </trkpt>
      <trkpt lat="43.99195" lon="1.20102">
        <ele>97.6</ele>
        <time>2018-08-21T09:54:47Z</time>
      </trkpt>
      <trkpt lat="43.9919" lon="1.20109">
        <ele>97.8</ele>
        <time>2018-08-21T09:54:48Z</time>
      </trkpt>
      <trkpt lat="43.99185" lon="1.20117">
        <ele>98.1</ele>
        <time>2018-08-21T09:54:49Z</time>
      </trkpt>
      <trkpt lat="43.99174" lon="1.20129">
        <ele>98.7</ele>
        <time>2018-08-21T09:54:51Z</time>
      </trkpt>
      <trkpt lat="43.99164" lon="1.20142">
        <ele>99</ele>
        <time>2018-08-21T09:54:53Z</time>
      </trkpt>
      <trkpt lat="43.99159" lon="1.20148">
        <ele>99.4</ele>
        <time>2018-08-21T09:54:54Z</time>
      </trkpt>
      <trkpt lat="43.99153" lon="1.20156">
        <ele>99.1</ele>
        <time>2018-08-21T09:54:55Z</time>
      </trkpt>
      <trkpt lat="43.99147" lon="1.20163">
        <ele>99.3</ele>
        <time>2018-08-21T09:54:56Z</time>
      </trkpt>
      <trkpt lat="43.99141" lon="1.2017">
        <ele>99.5</ele>
        <time>2018-08-21T09:54:57Z</time>
      </trkpt>
      <trkpt lat="43.99135" lon="1.20177">
        <ele>99.7</ele>
        <time>2018-08-21T09:54:58Z</time>
      </trkpt>
      <trkpt lat="43.99124" lon="1.20191">
        <ele>100.2</ele>
        <time>2018-08-21T09:55:00Z</time>
      </trkpt>
      <trkpt lat="43.99118" lon="1.20198">
        <ele>100.4</ele>
        <time>2018-08-21T09:55:01Z</time>
      </trkpt>
      <trkpt lat="43.99112" lon="1.20206">
        <ele>100.3</ele>
        <time>2018-08-21T09:55:02Z</time>
      </trkpt>
      <trkpt lat="43.99107" lon="1.20213">
        <ele>100.2</ele>
        <time>2018-08-21T09:55:03Z</time>
      </trkpt>
      <trkpt lat="43.991" lon="1.20221">
        <ele>100.2</ele>
        <time>2018-08-21T09:55:04Z</time>
      </trkpt>
      <trkpt lat="43.99094" lon="1.20228">
        <ele>100.5</ele>
        <time>2018-08-21T09:55:05Z</time>
      </trkpt>
      <trkpt lat="43.99088" lon="1.20235">
        <ele>100.7</ele>
        <time>2018-08-21T09:55:06Z</time>
      </trkpt>
      <trkpt lat="43.99081" lon="1.20241">
        <ele>100.8</ele>
        <time>2018-08-21T09:55:07Z</time>
      </trkpt>
      <trkpt lat="43.99075" lon="1.20248">
        <ele>100.8</ele>
        <time>2018-08-21T09:55:08Z</time>
      </trkpt>
      <trkpt lat="43.99069" lon="1.20255">
        <ele>100.6</ele>
        <time>2018-08-21T09:55:09Z</time>
      </trkpt>
      <trkpt lat="43.99063" lon="1.20262">
        <ele>100.7</ele>
        <time>2018-08-21T09:55:10Z</time>
      </trkpt>
      <trkpt lat="43.99056" lon="1.20269">
        <ele>100.6</ele>
        <time>2018-08-21T09:55:11Z</time>
      </trkpt>
      <trkpt lat="43.9905" lon="1.20276">
        <ele>100.6</ele>
        <time>2018-08-21T09:55:12Z</time>
      </trkpt>
      <trkpt lat="43.99044" lon="1.20283">
        <ele>100.7</ele>
        <time>2018-08-21T09:55:13Z</time>
      </trkpt>
      <trkpt lat="43.99038" lon="1.2029">
        <ele>100.6</ele>
        <time>2018-08-21T09:55:14Z</time>
      </trkpt>
      <trkpt lat="43.99031" lon="1.20296">
        <ele>100.5</ele>
        <time>2018-08-21T09:55:15Z</time>
      </trkpt>
      <trkpt lat="43.99025" lon="1.20304">
        <ele>100.7</ele>
        <time>2018-08-21T09:55:16Z</time>
      </trkpt>
      <trkpt lat="43.99019" lon="1.2031">
        <ele>101</ele>
        <time>2018-08-21T09:55:17Z</time>
      </trkpt>
      <trkpt lat="43.99013" lon="1.20318">
        <ele>101.2</ele>
        <time>2018-08-21T09:55:18Z</time>
      </trkpt>
      <trkpt lat="43.99008" lon="1.20326">
        <ele>101.3</ele>
        <time>2018-08-21T09:55:19Z</time>
      </trkpt>
      <trkpt lat="43.99002" lon="1.20333">
        <ele>101.5</ele>
        <time>2018-08-21T09:55:20Z</time>
      </trkpt>
      <trkpt lat="43.98996" lon="1.2034">
        <ele>101.4</ele>
        <time>2018-08-21T09:55:21Z</time>
      </trkpt>
      <trkpt lat="43.9899" lon="1.20348">
        <ele>101.5</ele>
        <time>2018-08-21T09:55:22Z</time>
      </trkpt>
      <trkpt lat="43.98983" lon="1.20355">
        <ele>101.8</ele>
        <time>2018-08-21T09:55:23Z</time>
      </trkpt>
      <trkpt lat="43.98977" lon="1.20363">
        <ele>102.1</ele>
        <time>2018-08-21T09:55:24Z</time>
      </trkpt>
      <trkpt lat="43.98971" lon="1.20371">
        <ele>102.8</ele>
        <time>2018-08-21T09:55:25Z</time>
      </trkpt>
      <trkpt lat="43.98965" lon="1.20379">
        <ele>103.2</ele>
        <time>2018-08-21T09:55:26Z</time>
      </trkpt>
      <trkpt lat="43.98959" lon="1.20387">
        <ele>103.4</ele>
        <time>2018-08-21T09:55:27Z</time>
      </trkpt>
      <trkpt lat="43.98953" lon="1.20395">
        <ele>103.9</ele>
        <time>2018-08-21T09:55:28Z</time>
      </trkpt>
      <trkpt lat="43.98947" lon="1.20403">
        <ele>104.2</ele>
        <time>2018-08-21T09:55:29Z</time>
      </trkpt>
      <trkpt lat="43.98941" lon="1.20411">
        <ele>104.4</ele>
        <time>2018-08-21T09:55:30Z</time>
      </trkpt>
      <trkpt lat="43.98935" lon="1.20418">
        <ele>104.1</ele>
        <time>2018-08-21T09:55:31Z</time>
      </trkpt>
      <trkpt lat="43.98929" lon="1.20426">
        <ele>104.1</ele>
        <time>2018-08-21T09:55:32Z</time>
      </trkpt>
      <trkpt lat="43.98922" lon="1.20434">
        <ele>104.2</ele>
        <time>2018-08-21T09:55:33Z</time>
      </trkpt>
      <trkpt lat="43.98917" lon="1.20441">
        <ele>103.7</ele>
        <time>2018-08-21T09:55:34Z</time>
      </trkpt>
      <trkpt lat="43.98911" lon="1.20448">
        <ele>103.8</ele>
        <time>2018-08-21T09:55:35Z</time>
      </trkpt>
      <trkpt lat="43.98905" lon="1.20455">
        <ele>103.7</ele>
        <time>2018-08-21T09:55:36Z</time>
      </trkpt>
      <trkpt lat="43.98899" lon="1.20462">
        <ele>103.6</ele>
        <time>2018-08-21T09:55:37Z</time>
      </trkpt>
      <trkpt lat="43.98893" lon="1.20469">
        <ele>103.7</ele>
        <time>2018-08-21T09:55:38Z</time>
      </trkpt>
      <trkpt lat="43.98887" lon="1.20476">
        <ele>103.8</ele>
        <time>2018-08-21T09:55:40Z</time>
      </trkpt>
      <trkpt lat="43.98881" lon="1.20483">
        <ele>104.1</ele>
        <time>2018-08-21T09:55:40Z</time>
      </trkpt>
      <trkpt lat="43.98875" lon="1.2049">
        <ele>103.9</ele>
        <time>2018-08-21T09:55:41Z</time>
      </trkpt>
      <trkpt lat="43.98869" lon="1.20497">
        <ele>103.4</ele>
        <time>2018-08-21T09:55:42Z</time>
      </trkpt>
      <trkpt lat="43.98863" lon="1.20505">
        <ele>103.1</ele>
        <time>2018-08-21T09:55:43Z</time>
      </trkpt>
      <trkpt lat="43.98857" lon="1.20512">
        <ele>103</ele>
        <time>2018-08-21T09:55:44Z</time>
      </trkpt>
      <trkpt lat="43.98851" lon="1.20519">
        <ele>102.8</ele>
        <time>2018-08-21T09:55:45Z</time>
      </trkpt>
      <trkpt lat="43.98845" lon="1.20527">
        <ele>102.4</ele>
        <time>2018-08-21T09:55:46Z</time>
      </trkpt>
      <trkpt lat="43.98839" lon="1.20534">
        <ele>102.1</ele>
        <time>2018-08-21T09:55:47Z</time>
      </trkpt>
      <trkpt lat="43.98834" lon="1.20541">
        <ele>101.8</ele>
        <time>2018-08-21T09:55:48Z</time>
      </trkpt>
      <trkpt lat="43.98827" lon="1.20548">
        <ele>101.5</ele>
        <time>2018-08-21T09:55:49Z</time>
      </trkpt>
      <trkpt lat="43.98821" lon="1.20555">
        <ele>101.3</ele>
        <time>2018-08-21T09:55:50Z</time>
      </trkpt>
      <trkpt lat="43.98815" lon="1.20562">
        <ele>100.7</ele>
        <time>2018-08-21T09:55:51Z</time>
      </trkpt>
      <trkpt lat="43.98808" lon="1.2057">
        <ele>100.4</ele>
        <time>2018-08-21T09:55:52Z</time>
      </trkpt>
      <trkpt lat="43.98803" lon="1.20577">
        <ele>99.9</ele>
        <time>2018-08-21T09:55:53Z</time>
      </trkpt>
      <trkpt lat="43.98791" lon="1.2059">
        <ele>99.4</ele>
        <time>2018-08-21T09:55:55Z</time>
      </trkpt>
      <trkpt lat="43.98785" lon="1.20596">
        <ele>99.1</ele>
        <time>2018-08-21T09:55:56Z</time>
      </trkpt>
      <trkpt lat="43.98779" lon="1.20603">
        <ele>98.9</ele>
        <time>2018-08-21T09:55:57Z</time>
      </trkpt>
      <trkpt lat="43.98773" lon="1.2061">
        <ele>98.7</ele>
        <time>2018-08-21T09:55:58Z</time>
      </trkpt>
      <trkpt lat="43.98768" lon="1.20617">
        <ele>98.6</ele>
        <time>2018-08-21T09:55:59Z</time>
      </trkpt>
      <trkpt lat="43.98762" lon="1.20624">
        <ele>98.6</ele>
        <time>2018-08-21T09:56:00Z</time>
      </trkpt>
      <trkpt lat="43.98756" lon="1.20631">
        <ele>98.6</ele>
        <time>2018-08-21T09:56:01Z</time>
      </trkpt>
      <trkpt lat="43.98749" lon="1.20637">
        <ele>98.5</ele>
        <time>2018-08-21T09:56:02Z</time>
      </trkpt>
      <trkpt lat="43.98744" lon="1.20643">
        <ele>98.6</ele>
        <time>2018-08-21T09:56:03Z</time>
      </trkpt>
      <trkpt lat="43.98738" lon="1.2065">
        <ele>98.6</ele>
        <time>2018-08-21T09:56:04Z</time>
      </trkpt>
      <trkpt lat="43.98732" lon="1.20658">
        <ele>98.7</ele>
        <time>2018-08-21T09:56:05Z</time>
      </trkpt>
      <trkpt lat="43.98726" lon="1.20665">
        <ele>98.8</ele>
        <time>2018-08-21T09:56:06Z</time>
      </trkpt>
      <trkpt lat="43.9872" lon="1.20672">
        <ele>98.9</ele>
        <time>2018-08-21T09:56:07Z</time>
      </trkpt>
      <trkpt lat="43.98714" lon="1.20679">
        <ele>99</ele>
        <time>2018-08-21T09:56:08Z</time>
      </trkpt>
      <trkpt lat="43.98708" lon="1.20686">
        <ele>99</ele>
        <time>2018-08-21T09:56:09Z</time>
      </trkpt>
      <trkpt lat="43.98702" lon="1.20694">
        <ele>99.1</ele>
        <time>2018-08-21T09:56:10Z</time>
      </trkpt>
      <trkpt lat="43.98696" lon="1.20701">
        <ele>99.2</ele>
        <time>2018-08-21T09:56:11Z</time>
      </trkpt>
      <trkpt lat="43.9869" lon="1.20708">
        <ele>99.3</ele>
        <time>2018-08-21T09:56:12Z</time>
      </trkpt>
      <trkpt lat="43.98684" lon="1.20716">
        <ele>99.4</ele>
        <time>2018-08-21T09:56:13Z</time>
      </trkpt>
      <trkpt lat="43.98678" lon="1.20723">
        <ele>99.5</ele>
        <time>2018-08-21T09:56:14Z</time>
      </trkpt>
      <trkpt lat="43.98672" lon="1.20731">
        <ele>99.6</ele>
        <time>2018-08-21T09:56:15Z</time>
      </trkpt>
      <trkpt lat="43.98666" lon="1.20739">
        <ele>99.8</ele>
        <time>2018-08-21T09:56:16Z</time>
      </trkpt>
      <trkpt lat="43.9866" lon="1.20746">
        <ele>99.8</ele>
        <time>2018-08-21T09:56:17Z</time>
      </trkpt>
      <trkpt lat="43.98654" lon="1.20753">
        <ele>99.9</ele>
        <time>2018-08-21T09:56:18Z</time>
      </trkpt>
      <trkpt lat="43.98648" lon="1.2076">
        <ele>100</ele>
        <time>2018-08-21T09:56:19Z</time>
      </trkpt>
      <trkpt lat="43.98642" lon="1.20767">
        <ele>100.1</ele>
        <time>2018-08-21T09:56:20Z</time>
      </trkpt>
      <trkpt lat="43.98635" lon="1.20774">
        <ele>100.1</ele>
        <time>2018-08-21T09:56:21Z</time>
      </trkpt>
      <trkpt lat="43.98629" lon="1.20781">
        <ele>100.3</ele>
        <time>2018-08-21T09:56:22Z</time>
      </trkpt>
      <trkpt lat="43.98623" lon="1.20788">
        <ele>100.4</ele>
        <time>2018-08-21T09:56:23Z</time>
      </trkpt>
      <trkpt lat="43.98617" lon="1.20795">
        <ele>100.8</ele>
        <time>2018-08-21T09:56:24Z</time>
      </trkpt>
      <trkpt lat="43.98611" lon="1.20801">
        <ele>101</ele>
        <time>2018-08-21T09:56:25Z</time>
      </trkpt>
      <trkpt lat="43.98604" lon="1.20807">
        <ele>101.1</ele>
        <time>2018-08-21T09:56:26Z</time>
      </trkpt>
      <trkpt lat="43.98598" lon="1.20815">
        <ele>101.3</ele>
        <time>2018-08-21T09:56:27Z</time>
      </trkpt>
      <trkpt lat="43.98592" lon="1.20822">
        <ele>101.4</ele>
        <time>2018-08-21T09:56:28Z</time>
      </trkpt>
      <trkpt lat="43.98586" lon="1.20829">
        <ele>101.5</ele>
        <time>2018-08-21T09:56:29Z</time>
      </trkpt>
      <trkpt lat="43.9858" lon="1.20836">
        <ele>101.7</ele>
        <time>2018-08-21T09:56:30Z</time>
      </trkpt>
      <trkpt lat="43.98574" lon="1.20843">
        <ele>101.9</ele>
        <time>2018-08-21T09:56:31Z</time>
      </trkpt>
      <trkpt lat="43.98569" lon="1.20851">
        <ele>102</ele>
        <time>2018-08-21T09:56:32Z</time>
      </trkpt>
      <trkpt lat="43.98563" lon="1.20858">
        <ele>102.1</ele>
        <time>2018-08-21T09:56:33Z</time>
      </trkpt>
      <trkpt lat="43.98556" lon="1.20864">
        <ele>102.3</ele>
        <time>2018-08-21T09:56:34Z</time>
      </trkpt>
      <trkpt lat="43.98551" lon="1.2087">
        <ele>102.5</ele>
        <time>2018-08-21T09:56:35Z</time>
      </trkpt>
      <trkpt lat="43.98544" lon="1.20877">
        <ele>102.7</ele>
        <time>2018-08-21T09:56:36Z</time>
      </trkpt>
      <trkpt lat="43.98539" lon="1.20885">
        <ele>103</ele>
        <time>2018-08-21T09:56:37Z</time>
      </trkpt>
      <trkpt lat="43.98533" lon="1.20892">
        <ele>103.2</ele>
        <time>2018-08-21T09:56:38Z</time>
      </trkpt>
      <trkpt lat="43.98527" lon="1.20898">
        <ele>103.3</ele>
        <time>2018-08-21T09:56:39Z</time>
      </trkpt>
      <trkpt lat="43.98521" lon="1.20906">
        <ele>103.5</ele>
        <time>2018-08-21T09:56:40Z</time>
      </trkpt>
      <trkpt lat="43.98515" lon="1.20912">
        <ele>103.6</ele>
        <time>2018-08-21T09:56:41Z</time>
      </trkpt>
      <trkpt lat="43.9851" lon="1.2092">
        <ele>103.7</ele>
        <time>2018-08-21T09:56:42Z</time>
      </trkpt>
      <trkpt lat="43.98504" lon="1.20927">
        <ele>103.8</ele>
        <time>2018-08-21T09:56:43Z</time>
      </trkpt>
      <trkpt lat="43.98498" lon="1.20934">
        <ele>104</ele>
        <time>2018-08-21T09:56:44Z</time>
      </trkpt>
      <trkpt lat="43.98492" lon="1.20941">
        <ele>104.2</ele>
        <time>2018-08-21T09:56:45Z</time>
      </trkpt>
      <trkpt lat="43.98486" lon="1.20947">
        <ele>104.5</ele>
        <time>2018-08-21T09:56:46Z</time>
      </trkpt>
      <trkpt lat="43.9848" lon="1.20954">
        <ele>104.7</ele>
        <time>2018-08-21T09:56:47Z</time>
      </trkpt>
      <trkpt lat="43.98475" lon="1.20961">
        <ele>104.8</ele>
        <time>2018-08-21T09:56:48Z</time>
      </trkpt>
      <trkpt lat="43.98469" lon="1.20968">
        <ele>105</ele>
        <time>2018-08-21T09:56:49Z</time>
      </trkpt>
      <trkpt lat="43.98463" lon="1.20976">
        <ele>105.2</ele>
        <time>2018-08-21T09:56:50Z</time>
      </trkpt>
      <trkpt lat="43.98457" lon="1.20982">
        <ele>105.4</ele>
        <time>2018-08-21T09:56:51Z</time>
      </trkpt>
      <trkpt lat="43.98452" lon="1.2099">
        <ele>105.5</ele>
        <time>2018-08-21T09:56:52Z</time>
      </trkpt>
      <trkpt lat="43.98447" lon="1.20997">
        <ele>105.7</ele>
        <time>2018-08-21T09:56:53Z</time>
      </trkpt>
      <trkpt lat="43.98436" lon="1.21011">
        <ele>105.8</ele>
        <time>2018-08-21T09:56:55Z</time>
      </trkpt>
      <trkpt lat="43.98424" lon="1.21023">
        <ele>105.6</ele>
        <time>2018-08-21T09:56:57Z</time>
      </trkpt>
      <trkpt lat="43.98419" lon="1.21029">
        <ele>105.6</ele>
        <time>2018-08-21T09:56:58Z</time>
      </trkpt>
      <trkpt lat="43.98413" lon="1.21036">
        <ele>105.7</ele>
        <time>2018-08-21T09:56:59Z</time>
      </trkpt>
      <trkpt lat="43.98407" lon="1.21042">
        <ele>105.6</ele>
        <time>2018-08-21T09:57:00Z</time>
      </trkpt>
      <trkpt lat="43.98402" lon="1.21049">
        <ele>105.6</ele>
        <time>2018-08-21T09:57:01Z</time>
      </trkpt>
      <trkpt lat="43.98396" lon="1.21056">
        <ele>105.6</ele>
        <time>2018-08-21T09:57:02Z</time>
      </trkpt>
      <trkpt lat="43.98391" lon="1.21063">
        <ele>105.7</ele>
        <time>2018-08-21T09:57:03Z</time>
      </trkpt>
      <trkpt lat="43.98385" lon="1.2107">
        <ele>105.6</ele>
        <time>2018-08-21T09:57:04Z</time>
      </trkpt>
      <trkpt lat="43.98375" lon="1.21083">
        <ele>105.3</ele>
        <time>2018-08-21T09:57:06Z</time>
      </trkpt>
      <trkpt lat="43.98369" lon="1.21089">
        <ele>105.2</ele>
        <time>2018-08-21T09:57:07Z</time>
      </trkpt>
      <trkpt lat="43.98358" lon="1.21102">
        <ele>105.1</ele>
        <time>2018-08-21T09:57:09Z</time>
      </trkpt>
      <trkpt lat="43.98348" lon="1.21115">
        <ele>104.9</ele>
        <time>2018-08-21T09:57:11Z</time>
      </trkpt>
      <trkpt lat="43.98337" lon="1.21127">
        <ele>104.8</ele>
        <time>2018-08-21T09:57:13Z</time>
      </trkpt>
      <trkpt lat="43.98331" lon="1.21134">
        <ele>104.8</ele>
        <time>2018-08-21T09:57:14Z</time>
      </trkpt>
      <trkpt lat="43.98325" lon="1.2114">
        <ele>104.9</ele>
        <time>2018-08-21T09:57:15Z</time>
      </trkpt>
      <trkpt lat="43.9832" lon="1.21148">
        <ele>104.9</ele>
        <time>2018-08-21T09:57:16Z</time>
      </trkpt>
      <trkpt lat="43.98314" lon="1.21155">
        <ele>104.8</ele>
        <time>2018-08-21T09:57:17Z</time>
      </trkpt>
      <trkpt lat="43.98308" lon="1.21162">
        <ele>104.9</ele>
        <time>2018-08-21T09:57:18Z</time>
      </trkpt>
      <trkpt lat="43.98302" lon="1.21168">
        <ele>104.9</ele>
        <time>2018-08-21T09:57:19Z</time>
      </trkpt>
      <trkpt lat="43.98297" lon="1.21175">
        <ele>104.9</ele>
        <time>2018-08-21T09:57:20Z</time>
      </trkpt>
      <trkpt lat="43.98291" lon="1.21183">
        <ele>104.9</ele>
        <time>2018-08-21T09:57:21Z</time>
      </trkpt>
      <trkpt lat="43.98285" lon="1.2119">
        <ele>104.9</ele>
        <time>2018-08-21T09:57:22Z</time>
      </trkpt>
      <trkpt lat="43.98274" lon="1.21203">
        <ele>104.8</ele>
        <time>2018-08-21T09:57:24Z</time>
      </trkpt>
      <trkpt lat="43.98269" lon="1.2121">
        <ele>104.9</ele>
        <time>2018-08-21T09:57:25Z</time>
      </trkpt>
      <trkpt lat="43.98263" lon="1.21216">
        <ele>104.9</ele>
        <time>2018-08-21T09:57:26Z</time>
      </trkpt>
      <trkpt lat="43.98253" lon="1.21228">
        <ele>104.5</ele>
        <time>2018-08-21T09:57:28Z</time>
      </trkpt>
      <trkpt lat="43.98247" lon="1.21235">
        <ele>104.5</ele>
        <time>2018-08-21T09:57:29Z</time>
      </trkpt>
      <trkpt lat="43.98241" lon="1.21242">
        <ele>104.5</ele>
        <time>2018-08-21T09:57:30Z</time>
      </trkpt>
      <trkpt lat="43.98235" lon="1.21249">
        <ele>104.5</ele>
        <time>2018-08-21T09:57:31Z</time>
      </trkpt>
      <trkpt lat="43.98229" lon="1.21256">
        <ele>104.4</ele>
        <time>2018-08-21T09:57:32Z</time>
      </trkpt>
      <trkpt lat="43.98224" lon="1.21263">
        <ele>104.4</ele>
        <time>2018-08-21T09:57:33Z</time>
      </trkpt>
      <trkpt lat="43.98217" lon="1.2127">
        <ele>104.4</ele>
        <time>2018-08-21T09:57:34Z</time>
      </trkpt>
      <trkpt lat="43.98212" lon="1.21277">
        <ele>104.4</ele>
        <time>2018-08-21T09:57:35Z</time>
      </trkpt>
      <trkpt lat="43.98206" lon="1.21284">
        <ele>104.4</ele>
        <time>2018-08-21T09:57:36Z</time>
      </trkpt>
      <trkpt lat="43.982" lon="1.21291">
        <ele>104.5</ele>
        <time>2018-08-21T09:57:37Z</time>
      </trkpt>
      <trkpt lat="43.98194" lon="1.21298">
        <ele>104.5</ele>
        <time>2018-08-21T09:57:38Z</time>
      </trkpt>
      <trkpt lat="43.98189" lon="1.21305">
        <ele>104.6</ele>
        <time>2018-08-21T09:57:39Z</time>
      </trkpt>
      <trkpt lat="43.98178" lon="1.21318">
        <ele>104.8</ele>
        <time>2018-08-21T09:57:41Z</time>
      </trkpt>
      <trkpt lat="43.98172" lon="1.21325">
        <ele>104.9</ele>
        <time>2018-08-21T09:57:42Z</time>
      </trkpt>
      <trkpt lat="43.98166" lon="1.21332">
        <ele>105</ele>
        <time>2018-08-21T09:57:43Z</time>
      </trkpt>
      <trkpt lat="43.98161" lon="1.2134">
        <ele>105</ele>
        <time>2018-08-21T09:57:44Z</time>
      </trkpt>
      <trkpt lat="43.98155" lon="1.21346">
        <ele>105.1</ele>
        <time>2018-08-21T09:57:45Z</time>
      </trkpt>
      <trkpt lat="43.98149" lon="1.21352">
        <ele>105.1</ele>
        <time>2018-08-21T09:57:46Z</time>
      </trkpt>
      <trkpt lat="43.98143" lon="1.21359">
        <ele>105.2</ele>
        <time>2018-08-21T09:57:47Z</time>
      </trkpt>
      <trkpt lat="43.98137" lon="1.21366">
        <ele>105.2</ele>
        <time>2018-08-21T09:57:48Z</time>
      </trkpt>
      <trkpt lat="43.98131" lon="1.21373">
        <ele>105.3</ele>
        <time>2018-08-21T09:57:49Z</time>
      </trkpt>
      <trkpt lat="43.98125" lon="1.21381">
        <ele>105.4</ele>
        <time>2018-08-21T09:57:50Z</time>
      </trkpt>
      <trkpt lat="43.98119" lon="1.21388">
        <ele>105.2</ele>
        <time>2018-08-21T09:57:51Z</time>
      </trkpt>
      <trkpt lat="43.98114" lon="1.21395">
        <ele>105</ele>
        <time>2018-08-21T09:57:52Z</time>
      </trkpt>
      <trkpt lat="43.98109" lon="1.21403">
        <ele>104.9</ele>
        <time>2018-08-21T09:57:53Z</time>
      </trkpt>
      <trkpt lat="43.98103" lon="1.21409">
        <ele>104.9</ele>
        <time>2018-08-21T09:57:54Z</time>
      </trkpt>
      <trkpt lat="43.98097" lon="1.21415">
        <ele>104.8</ele>
        <time>2018-08-21T09:57:55Z</time>
      </trkpt>
      <trkpt lat="43.98091" lon="1.21422">
        <ele>104.8</ele>
        <time>2018-08-21T09:57:56Z</time>
      </trkpt>
      <trkpt lat="43.98086" lon="1.21429">
        <ele>104.8</ele>
        <time>2018-08-21T09:57:57Z</time>
      </trkpt>
      <trkpt lat="43.98074" lon="1.21441">
        <ele>104.9</ele>
        <time>2018-08-21T09:57:59Z</time>
      </trkpt>
      <trkpt lat="43.98064" lon="1.21455">
        <ele>104.9</ele>
        <time>2018-08-21T09:58:01Z</time>
      </trkpt>
      <trkpt lat="43.98053" lon="1.21468">
        <ele>105.1</ele>
        <time>2018-08-21T09:58:03Z</time>
      </trkpt>
      <trkpt lat="43.98048" lon="1.21475">
        <ele>105.2</ele>
        <time>2018-08-21T09:58:04Z</time>
      </trkpt>
      <trkpt lat="43.98038" lon="1.21487">
        <ele>105.6</ele>
        <time>2018-08-21T09:58:06Z</time>
      </trkpt>
      <trkpt lat="43.98032" lon="1.21493">
        <ele>105.7</ele>
        <time>2018-08-21T09:58:07Z</time>
      </trkpt>
      <trkpt lat="43.98026" lon="1.21501">
        <ele>105.7</ele>
        <time>2018-08-21T09:58:08Z</time>
      </trkpt>
      <trkpt lat="43.9802" lon="1.21508">
        <ele>105.7</ele>
        <time>2018-08-21T09:58:09Z</time>
      </trkpt>
      <trkpt lat="43.98015" lon="1.21515">
        <ele>105.7</ele>
        <time>2018-08-21T09:58:10Z</time>
      </trkpt>
      <trkpt lat="43.98009" lon="1.21522">
        <ele>105.7</ele>
        <time>2018-08-21T09:58:11Z</time>
      </trkpt>
      <trkpt lat="43.97999" lon="1.21535">
        <ele>105.6</ele>
        <time>2018-08-21T09:58:13Z</time>
      </trkpt>
      <trkpt lat="43.97993" lon="1.21542">
        <ele>105.5</ele>
        <time>2018-08-21T09:58:14Z</time>
      </trkpt>
      <trkpt lat="43.97988" lon="1.21548">
        <ele>105.4</ele>
        <time>2018-08-21T09:58:15Z</time>
      </trkpt>
      <trkpt lat="43.97982" lon="1.21555">
        <ele>105.2</ele>
        <time>2018-08-21T09:58:16Z</time>
      </trkpt>
      <trkpt lat="43.97977" lon="1.21563">
        <ele>105.2</ele>
        <time>2018-08-21T09:58:17Z</time>
      </trkpt>
      <trkpt lat="43.97967" lon="1.21576">
        <ele>105</ele>
        <time>2018-08-21T09:58:19Z</time>
      </trkpt>
      <trkpt lat="43.97958" lon="1.21591">
        <ele>104.9</ele>
        <time>2018-08-21T09:58:21Z</time>
      </trkpt>
      <trkpt lat="43.97954" lon="1.21598">
        <ele>104.7</ele>
        <time>2018-08-21T09:58:22Z</time>
      </trkpt>
      <trkpt lat="43.97944" lon="1.21614">
        <ele>104.4</ele>
        <time>2018-08-21T09:58:24Z</time>
      </trkpt>
      <trkpt lat="43.97939" lon="1.21622">
        <ele>104.2</ele>
        <time>2018-08-21T09:58:25Z</time>
      </trkpt>
      <trkpt lat="43.97935" lon="1.2163">
        <ele>104</ele>
        <time>2018-08-21T09:58:26Z</time>
      </trkpt>
      <trkpt lat="43.9793" lon="1.21639">
        <ele>103.7</ele>
        <time>2018-08-21T09:58:27Z</time>
      </trkpt>
      <trkpt lat="43.97926" lon="1.21647">
        <ele>103.3</ele>
        <time>2018-08-21T09:58:28Z</time>
      </trkpt>
      <trkpt lat="43.97917" lon="1.21662">
        <ele>102.8</ele>
        <time>2018-08-21T09:58:30Z</time>
      </trkpt>
      <trkpt lat="43.97909" lon="1.21677">
        <ele>102</ele>
        <time>2018-08-21T09:58:32Z</time>
      </trkpt>
      <trkpt lat="43.97902" lon="1.21694">
        <ele>101.5</ele>
        <time>2018-08-21T09:58:34Z</time>
      </trkpt>
      <trkpt lat="43.97898" lon="1.21702">
        <ele>101.1</ele>
        <time>2018-08-21T09:58:35Z</time>
      </trkpt>
      <trkpt lat="43.9789" lon="1.21719">
        <ele>100.6</ele>
        <time>2018-08-21T09:58:37Z</time>
      </trkpt>
      <trkpt lat="43.97886" lon="1.21727">
        <ele>100.4</ele>
        <time>2018-08-21T09:58:38Z</time>
      </trkpt>
      <trkpt lat="43.97882" lon="1.21736">
        <ele>100.2</ele>
        <time>2018-08-21T09:58:39Z</time>
      </trkpt>
      <trkpt lat="43.97877" lon="1.21744">
        <ele>99.9</ele>
        <time>2018-08-21T09:58:40Z</time>
      </trkpt>
      <trkpt lat="43.97873" lon="1.21753">
        <ele>99.6</ele>
        <time>2018-08-21T09:58:41Z</time>
      </trkpt>
      <trkpt lat="43.97868" lon="1.21761">
        <ele>99.2</ele>
        <time>2018-08-21T09:58:42Z</time>
      </trkpt>
      <trkpt lat="43.97864" lon="1.2177">
        <ele>99</ele>
        <time>2018-08-21T09:58:43Z</time>
      </trkpt>
      <trkpt lat="43.9786" lon="1.21778">
        <ele>98.8</ele>
        <time>2018-08-21T09:58:44Z</time>
      </trkpt>
      <trkpt lat="43.97855" lon="1.21786">
        <ele>98.4</ele>
        <time>2018-08-21T09:58:45Z</time>
      </trkpt>
      <trkpt lat="43.9785" lon="1.21794">
        <ele>98.2</ele>
        <time>2018-08-21T09:58:46Z</time>
      </trkpt>
      <trkpt lat="43.97845" lon="1.21802">
        <ele>97.9</ele>
        <time>2018-08-21T09:58:47Z</time>
      </trkpt>
      <trkpt lat="43.9784" lon="1.21809">
        <ele>97.6</ele>
        <time>2018-08-21T09:58:48Z</time>
      </trkpt>
      <trkpt lat="43.9783" lon="1.21824">
        <ele>96.8</ele>
        <time>2018-08-21T09:58:50Z</time>
      </trkpt>
      <trkpt lat="43.97825" lon="1.21831">
        <ele>96.5</ele>
        <time>2018-08-21T09:58:51Z</time>
      </trkpt>
      <trkpt lat="43.9782" lon="1.21838">
        <ele>96.2</ele>
        <time>2018-08-21T09:58:52Z</time>
      </trkpt>
      <trkpt lat="43.97814" lon="1.21844">
        <ele>95.9</ele>
        <time>2018-08-21T09:58:53Z</time>
      </trkpt>
      <trkpt lat="43.97809" lon="1.21851">
        <ele>95.6</ele>
        <time>2018-08-21T09:58:54Z</time>
      </trkpt>
      <trkpt lat="43.97803" lon="1.21857">
        <ele>95.4</ele>
        <time>2018-08-21T09:58:55Z</time>
      </trkpt>
      <trkpt lat="43.97798" lon="1.21864">
        <ele>95</ele>
        <time>2018-08-21T09:58:56Z</time>
      </trkpt>
      <trkpt lat="43.97788" lon="1.21878">
        <ele>94.5</ele>
        <time>2018-08-21T09:58:58Z</time>
      </trkpt>
      <trkpt lat="43.97777" lon="1.21891">
        <ele>93.8</ele>
        <time>2018-08-21T09:59:00Z</time>
      </trkpt>
      <trkpt lat="43.97771" lon="1.21897">
        <ele>93.8</ele>
        <time>2018-08-21T09:59:01Z</time>
      </trkpt>
      <trkpt lat="43.97766" lon="1.21904">
        <ele>93.5</ele>
        <time>2018-08-21T09:59:02Z</time>
      </trkpt>
      <trkpt lat="43.9776" lon="1.2191">
        <ele>93.7</ele>
        <time>2018-08-21T09:59:03Z</time>
      </trkpt>
      <trkpt lat="43.97755" lon="1.21917">
        <ele>93.6</ele>
        <time>2018-08-21T09:59:04Z</time>
      </trkpt>
      <trkpt lat="43.97749" lon="1.21924">
        <ele>93.5</ele>
        <time>2018-08-21T09:59:05Z</time>
      </trkpt>
      <trkpt lat="43.97744" lon="1.2193">
        <ele>93.3</ele>
        <time>2018-08-21T09:59:06Z</time>
      </trkpt>
      <trkpt lat="43.97738" lon="1.21937">
        <ele>93.1</ele>
        <time>2018-08-21T09:59:07Z</time>
      </trkpt>
      <trkpt lat="43.97733" lon="1.21944">
        <ele>92.7</ele>
        <time>2018-08-21T09:59:08Z</time>
      </trkpt>
      <trkpt lat="43.97727" lon="1.21951">
        <ele>92.7</ele>
        <time>2018-08-21T09:59:09Z</time>
      </trkpt>
      <trkpt lat="43.97722" lon="1.21958">
        <ele>92.8</ele>
        <time>2018-08-21T09:59:10Z</time>
      </trkpt>
      <trkpt lat="43.97717" lon="1.21964">
        <ele>92.6</ele>
        <time>2018-08-21T09:59:11Z</time>
      </trkpt>
      <trkpt lat="43.97711" lon="1.21971">
        <ele>92.4</ele>
        <time>2018-08-21T09:59:12Z</time>
      </trkpt>
      <trkpt lat="43.97706" lon="1.21978">
        <ele>92.4</ele>
        <time>2018-08-21T09:59:13Z</time>
      </trkpt>
      <trkpt lat="43.977" lon="1.21986">
        <ele>92.3</ele>
        <time>2018-08-21T09:59:14Z</time>
      </trkpt>
      <trkpt lat="43.97695" lon="1.21993">
        <ele>92.4</ele>
        <time>2018-08-21T09:59:16Z</time>
      </trkpt>
      <trkpt lat="43.9769" lon="1.21999">
        <ele>92.6</ele>
        <time>2018-08-21T09:59:16Z</time>
      </trkpt>
      <trkpt lat="43.97684" lon="1.22006">
        <ele>92.6</ele>
        <time>2018-08-21T09:59:17Z</time>
      </trkpt>
      <trkpt lat="43.97674" lon="1.2202">
        <ele>92.1</ele>
        <time>2018-08-21T09:59:19Z</time>
      </trkpt>
      <trkpt lat="43.97664" lon="1.22032">
        <ele>91.9</ele>
        <time>2018-08-21T09:59:21Z</time>
      </trkpt>
      <trkpt lat="43.97654" lon="1.22045">
        <ele>91.6</ele>
        <time>2018-08-21T09:59:23Z</time>
      </trkpt>
      <trkpt lat="43.97645" lon="1.22058">
        <ele>91.3</ele>
        <time>2018-08-21T09:59:25Z</time>
      </trkpt>
      <trkpt lat="43.97636" lon="1.22069">
        <ele>91.1</ele>
        <time>2018-08-21T09:59:27Z</time>
      </trkpt>
      <trkpt lat="43.97628" lon="1.22081">
        <ele>90.8</ele>
        <time>2018-08-21T09:59:29Z</time>
      </trkpt>
      <trkpt lat="43.97619" lon="1.22093">
        <ele>90.7</ele>
        <time>2018-08-21T09:59:31Z</time>
      </trkpt>
      <trkpt lat="43.9761" lon="1.22105">
        <ele>90.6</ele>
        <time>2018-08-21T09:59:33Z</time>
      </trkpt>
      <trkpt lat="43.97601" lon="1.22117">
        <ele>90.6</ele>
        <time>2018-08-21T09:59:35Z</time>
      </trkpt>
      <trkpt lat="43.97592" lon="1.22129">
        <ele>90.5</ele>
        <time>2018-08-21T09:59:37Z</time>
      </trkpt>
      <trkpt lat="43.97581" lon="1.2214">
        <ele>90.4</ele>
        <time>2018-08-21T09:59:39Z</time>
      </trkpt>
      <trkpt lat="43.97572" lon="1.22151">
        <ele>90.1</ele>
        <time>2018-08-21T09:59:41Z</time>
      </trkpt>
      <trkpt lat="43.97563" lon="1.22163">
        <ele>90</ele>
        <time>2018-08-21T09:59:43Z</time>
      </trkpt>
      <trkpt lat="43.97553" lon="1.22174">
        <ele>90</ele>
        <time>2018-08-21T09:59:45Z</time>
      </trkpt>
      <trkpt lat="43.97543" lon="1.22186">
        <ele>90.2</ele>
        <time>2018-08-21T09:59:47Z</time>
      </trkpt>
      <trkpt lat="43.97535" lon="1.22198">
        <ele>90.3</ele>
        <time>2018-08-21T09:59:49Z</time>
      </trkpt>
      <trkpt lat="43.97526" lon="1.22209">
        <ele>90.2</ele>
        <time>2018-08-21T09:59:51Z</time>
      </trkpt>
      <trkpt lat="43.97516" lon="1.22221">
        <ele>90.3</ele>
        <time>2018-08-21T09:59:53Z</time>
      </trkpt>
      <trkpt lat="43.97507" lon="1.22233">
        <ele>90.2</ele>
        <time>2018-08-21T09:59:55Z</time>
      </trkpt>
      <trkpt lat="43.97498" lon="1.22245">
        <ele>90.4</ele>
        <time>2018-08-21T09:59:57Z</time>
      </trkpt>
      <trkpt lat="43.97488" lon="1.22256">
        <ele>90.3</ele>
        <time>2018-08-21T09:59:59Z</time>
      </trkpt>
      <trkpt lat="43.97479" lon="1.22268">
        <ele>90.6</ele>
        <time>2018-08-21T10:00:01Z</time>
      </trkpt>
      <trkpt lat="43.9747" lon="1.22279">
        <ele>90.4</ele>
        <time>2018-08-21T10:00:03Z</time>
      </trkpt>
      <trkpt lat="43.97461" lon="1.22291">
        <ele>89.9</ele>
        <time>2018-08-21T10:00:05Z</time>
      </trkpt>
      <trkpt lat="43.97452" lon="1.22303">
        <ele>90</ele>
        <time>2018-08-21T10:00:07Z</time>
      </trkpt>
      <trkpt lat="43.97444" lon="1.22315">
        <ele>90.1</ele>
        <time>2018-08-21T10:00:09Z</time>
      </trkpt>
      <trkpt lat="43.97435" lon="1.22327">
        <ele>90.1</ele>
        <time>2018-08-21T10:00:11Z</time>
      </trkpt>
      <trkpt lat="43.97426" lon="1.22339">
        <ele>90.2</ele>
        <time>2018-08-21T10:00:13Z</time>
      </trkpt>
      <trkpt lat="43.97417" lon="1.2235">
        <ele>90.4</ele>
        <time>2018-08-21T10:00:15Z</time>
      </trkpt>
      <trkpt lat="43.97408" lon="1.22361">
        <ele>90.7</ele>
        <time>2018-08-21T10:00:17Z</time>
      </trkpt>
      <trkpt lat="43.97399" lon="1.22373">
        <ele>90.3</ele>
        <time>2018-08-21T10:00:19Z</time>
      </trkpt>
      <trkpt lat="43.9739" lon="1.22384">
        <ele>90.5</ele>
        <time>2018-08-21T10:00:21Z</time>
      </trkpt>
      <trkpt lat="43.9738" lon="1.22396">
        <ele>90.5</ele>
        <time>2018-08-21T10:00:23Z</time>
      </trkpt>
      <trkpt lat="43.97371" lon="1.22408">
        <ele>90.9</ele>
        <time>2018-08-21T10:00:25Z</time>
      </trkpt>
      <trkpt lat="43.97362" lon="1.22421">
        <ele>90.7</ele>
        <time>2018-08-21T10:00:27Z</time>
      </trkpt>
      <trkpt lat="43.97353" lon="1.22434">
        <ele>91</ele>
        <time>2018-08-21T10:00:29Z</time>
      </trkpt>
      <trkpt lat="43.97345" lon="1.22446">
        <ele>91.1</ele>
        <time>2018-08-21T10:00:31Z</time>
      </trkpt>
      <trkpt lat="43.97337" lon="1.22459">
        <ele>91.2</ele>
        <time>2018-08-21T10:00:33Z</time>
      </trkpt>
      <trkpt lat="43.97328" lon="1.2247">
        <ele>91.3</ele>
        <time>2018-08-21T10:00:35Z</time>
      </trkpt>
      <trkpt lat="43.9732" lon="1.2248">
        <ele>91.4</ele>
        <time>2018-08-21T10:00:37Z</time>
      </trkpt>
      <trkpt lat="43.97312" lon="1.22489">
        <ele>91.7</ele>
        <time>2018-08-21T10:00:39Z</time>
      </trkpt>
      <trkpt lat="43.97305" lon="1.22497">
        <ele>91.2</ele>
        <time>2018-08-21T10:00:41Z</time>
      </trkpt>
      <trkpt lat="43.97299" lon="1.22506">
        <ele>91.1</ele>
        <time>2018-08-21T10:00:43Z</time>
      </trkpt>
      <trkpt lat="43.97292" lon="1.22513">
        <ele>90.8</ele>
        <time>2018-08-21T10:00:45Z</time>
      </trkpt>
      <trkpt lat="43.97284" lon="1.2252">
        <ele>90.8</ele>
        <time>2018-08-21T10:00:48Z</time>
      </trkpt>
      <trkpt lat="43.97276" lon="1.2252">
        <ele>90.6</ele>
        <time>2018-08-21T10:00:52Z</time>
      </trkpt>
      <trkpt lat="43.97274" lon="1.22517">
        <ele>90.8</ele>
        <time>2018-08-21T10:00:59Z</time>
      </trkpt>
      <trkpt lat="43.97267" lon="1.22505">
        <ele>91.2</ele>
        <time>2018-08-21T10:01:18Z</time>
      </trkpt>
      <trkpt lat="43.97261" lon="1.22492">
        <ele>91.7</ele>
        <time>2018-08-21T10:01:22Z</time>
      </trkpt>
      <trkpt lat="43.97255" lon="1.22485">
        <ele>92.3</ele>
        <time>2018-08-21T10:01:24Z</time>
      </trkpt>
      <trkpt lat="43.9725" lon="1.22476">
        <ele>92.8</ele>
        <time>2018-08-21T10:01:26Z</time>
      </trkpt>
      <trkpt lat="43.97244" lon="1.22469">
        <ele>93.2</ele>
        <time>2018-08-21T10:01:28Z</time>
      </trkpt>
      <trkpt lat="43.97236" lon="1.22462">
        <ele>93.7</ele>
        <time>2018-08-21T10:01:31Z</time>
      </trkpt>
      <trkpt lat="43.97229" lon="1.22459">
        <ele>94.1</ele>
        <time>2018-08-21T10:01:34Z</time>
      </trkpt>
      <trkpt lat="43.97221" lon="1.22462">
        <ele>94.8</ele>
        <time>2018-08-21T10:01:40Z</time>
      </trkpt>
      <trkpt lat="43.97215" lon="1.22468">
        <ele>95.3</ele>
        <time>2018-08-21T10:01:43Z</time>
      </trkpt>
      <trkpt lat="43.97209" lon="1.22475">
        <ele>95.8</ele>
        <time>2018-08-21T10:01:46Z</time>
      </trkpt>
      <trkpt lat="43.97202" lon="1.22483">
        <ele>96.1</ele>
        <time>2018-08-21T10:01:49Z</time>
      </trkpt>
      <trkpt lat="43.97194" lon="1.22489">
        <ele>96.5</ele>
        <time>2018-08-21T10:01:52Z</time>
      </trkpt>
      <trkpt lat="43.97189" lon="1.22495">
        <ele>96.7</ele>
        <time>2018-08-21T10:01:54Z</time>
      </trkpt>
      <trkpt lat="43.97183" lon="1.225">
        <ele>97</ele>
        <time>2018-08-21T10:01:56Z</time>
      </trkpt>
      <trkpt lat="43.97176" lon="1.22507">
        <ele>96.9</ele>
        <time>2018-08-21T10:01:58Z</time>
      </trkpt>
      <trkpt lat="43.97168" lon="1.22515">
        <ele>96.9</ele>
        <time>2018-08-21T10:02:00Z</time>
      </trkpt>
      <trkpt lat="43.97161" lon="1.22522">
        <ele>96.9</ele>
        <time>2018-08-21T10:02:02Z</time>
      </trkpt>
      <trkpt lat="43.97155" lon="1.22529">
        <ele>96.9</ele>
        <time>2018-08-21T10:02:04Z</time>
      </trkpt>
      <trkpt lat="43.97149" lon="1.22537">
        <ele>96.8</ele>
        <time>2018-08-21T10:02:06Z</time>
      </trkpt>
      <trkpt lat="43.97144" lon="1.22544">
        <ele>96.8</ele>
        <time>2018-08-21T10:02:08Z</time>
      </trkpt>
      <trkpt lat="43.97138" lon="1.2255">
        <ele>96.9</ele>
        <time>2018-08-21T10:02:10Z</time>
      </trkpt>
      <trkpt lat="43.97132" lon="1.22557">
        <ele>97</ele>
        <time>2018-08-21T10:02:12Z</time>
      </trkpt>
      <trkpt lat="43.97126" lon="1.22564">
        <ele>97.2</ele>
        <time>2018-08-21T10:02:14Z</time>
      </trkpt>
      <trkpt lat="43.97121" lon="1.22572">
        <ele>97.4</ele>
        <time>2018-08-21T10:02:16Z</time>
      </trkpt>
      <trkpt lat="43.97115" lon="1.2258">
        <ele>97.6</ele>
        <time>2018-08-21T10:02:18Z</time>
      </trkpt>
      <trkpt lat="43.97108" lon="1.2259">
        <ele>98.2</ele>
        <time>2018-08-21T10:02:20Z</time>
      </trkpt>
      <trkpt lat="43.97102" lon="1.22598">
        <ele>98.8</ele>
        <time>2018-08-21T10:02:22Z</time>
      </trkpt>
      <trkpt lat="43.97096" lon="1.22608">
        <ele>99.5</ele>
        <time>2018-08-21T10:02:24Z</time>
      </trkpt>
      <trkpt lat="43.9709" lon="1.22619">
        <ele>100.1</ele>
        <time>2018-08-21T10:02:26Z</time>
      </trkpt>
      <trkpt lat="43.97084" lon="1.22628">
        <ele>100.6</ele>
        <time>2018-08-21T10:02:28Z</time>
      </trkpt>
      <trkpt lat="43.97077" lon="1.22637">
        <ele>101.3</ele>
        <time>2018-08-21T10:02:30Z</time>
      </trkpt>
      <trkpt lat="43.97069" lon="1.22646">
        <ele>101.9</ele>
        <time>2018-08-21T10:02:32Z</time>
      </trkpt>
      <trkpt lat="43.97062" lon="1.22655">
        <ele>102.6</ele>
        <time>2018-08-21T10:02:34Z</time>
      </trkpt>
      <trkpt lat="43.97055" lon="1.22663">
        <ele>103.1</ele>
        <time>2018-08-21T10:02:36Z</time>
      </trkpt>
      <trkpt lat="43.97048" lon="1.22671">
        <ele>103.6</ele>
        <time>2018-08-21T10:02:38Z</time>
      </trkpt>
      <trkpt lat="43.97041" lon="1.22678">
        <ele>104.1</ele>
        <time>2018-08-21T10:02:40Z</time>
      </trkpt>
      <trkpt lat="43.97034" lon="1.22686">
        <ele>104.4</ele>
        <time>2018-08-21T10:02:42Z</time>
      </trkpt>
      <trkpt lat="43.97027" lon="1.22693">
        <ele>104.6</ele>
        <time>2018-08-21T10:02:44Z</time>
      </trkpt>
      <trkpt lat="43.9702" lon="1.22701">
        <ele>104.5</ele>
        <time>2018-08-21T10:02:46Z</time>
      </trkpt>
      <trkpt lat="43.97013" lon="1.22709">
        <ele>104.5</ele>
        <time>2018-08-21T10:02:48Z</time>
      </trkpt>
      <trkpt lat="43.97006" lon="1.22718">
        <ele>104.7</ele>
        <time>2018-08-21T10:02:50Z</time>
      </trkpt>
      <trkpt lat="43.96999" lon="1.22728">
        <ele>104.8</ele>
        <time>2018-08-21T10:02:52Z</time>
      </trkpt>
      <trkpt lat="43.96992" lon="1.22737">
        <ele>105</ele>
        <time>2018-08-21T10:02:54Z</time>
      </trkpt>
      <trkpt lat="43.96983" lon="1.22746">
        <ele>104.7</ele>
        <time>2018-08-21T10:02:56Z</time>
      </trkpt>
      <trkpt lat="43.96976" lon="1.22754">
        <ele>104.5</ele>
        <time>2018-08-21T10:02:58Z</time>
      </trkpt>
      <trkpt lat="43.96969" lon="1.22764">
        <ele>103.5</ele>
        <time>2018-08-21T10:03:00Z</time>
      </trkpt>
      <trkpt lat="43.96962" lon="1.22773">
        <ele>102.8</ele>
        <time>2018-08-21T10:03:02Z</time>
      </trkpt>
      <trkpt lat="43.96954" lon="1.22781">
        <ele>102.4</ele>
        <time>2018-08-21T10:03:04Z</time>
      </trkpt>
      <trkpt lat="43.96947" lon="1.22789">
        <ele>102.8</ele>
        <time>2018-08-21T10:03:06Z</time>
      </trkpt>
      <trkpt lat="43.96941" lon="1.22797">
        <ele>102.9</ele>
        <time>2018-08-21T10:03:08Z</time>
      </trkpt>
      <trkpt lat="43.96937" lon="1.22805">
        <ele>102.7</ele>
        <time>2018-08-21T10:03:10Z</time>
      </trkpt>
      <trkpt lat="43.96931" lon="1.22813">
        <ele>102.8</ele>
        <time>2018-08-21T10:03:12Z</time>
      </trkpt>
      <trkpt lat="43.96925" lon="1.22821">
        <ele>102.9</ele>
        <time>2018-08-21T10:03:14Z</time>
      </trkpt>
      <trkpt lat="43.96918" lon="1.22829">
        <ele>102.7</ele>
        <time>2018-08-21T10:03:16Z</time>
      </trkpt>
      <trkpt lat="43.96912" lon="1.22837">
        <ele>102.5</ele>
        <time>2018-08-21T10:03:18Z</time>
      </trkpt>
      <trkpt lat="43.96907" lon="1.22845">
        <ele>102.5</ele>
        <time>2018-08-21T10:03:20Z</time>
      </trkpt>
      <trkpt lat="43.96899" lon="1.22854">
        <ele>102.3</ele>
        <time>2018-08-21T10:03:23Z</time>
      </trkpt>
      <trkpt lat="43.96893" lon="1.2286">
        <ele>102.4</ele>
        <time>2018-08-21T10:03:26Z</time>
      </trkpt>
      <trkpt lat="43.96885" lon="1.22856">
        <ele>103.7</ele>
        <time>2018-08-21T10:03:30Z</time>
      </trkpt>
      <trkpt lat="43.9688" lon="1.22849">
        <ele>105</ele>
        <time>2018-08-21T10:03:33Z</time>
      </trkpt>
      <trkpt lat="43.96873" lon="1.22841">
        <ele>105.9</ele>
        <time>2018-08-21T10:03:36Z</time>
      </trkpt>
      <trkpt lat="43.96865" lon="1.2284">
        <ele>105.8</ele>
        <time>2018-08-21T10:03:39Z</time>
      </trkpt>
      <trkpt lat="43.96858" lon="1.22847">
        <ele>105.7</ele>
        <time>2018-08-21T10:03:41Z</time>
      </trkpt>
      <trkpt lat="43.96851" lon="1.22855">
        <ele>105.9</ele>
        <time>2018-08-21T10:03:43Z</time>
      </trkpt>
      <trkpt lat="43.96844" lon="1.22865">
        <ele>106.1</ele>
        <time>2018-08-21T10:03:45Z</time>
      </trkpt>
      <trkpt lat="43.96838" lon="1.22873">
        <ele>106.2</ele>
        <time>2018-08-21T10:03:47Z</time>
      </trkpt>
      <trkpt lat="43.96833" lon="1.22881">
        <ele>106.2</ele>
        <time>2018-08-21T10:03:49Z</time>
      </trkpt>
      <trkpt lat="43.96827" lon="1.22888">
        <ele>106.8</ele>
        <time>2018-08-21T10:03:51Z</time>
      </trkpt>
      <trkpt lat="43.96821" lon="1.22895">
        <ele>107.2</ele>
        <time>2018-08-21T10:03:53Z</time>
      </trkpt>
      <trkpt lat="43.96815" lon="1.22901">
        <ele>107.4</ele>
        <time>2018-08-21T10:03:55Z</time>
      </trkpt>
      <trkpt lat="43.96808" lon="1.22908">
        <ele>107.4</ele>
        <time>2018-08-21T10:03:58Z</time>
      </trkpt>
      <trkpt lat="43.968" lon="1.22917">
        <ele>107.7</ele>
        <time>2018-08-21T10:03:59Z</time>
      </trkpt>
      <trkpt lat="43.96794" lon="1.22926">
        <ele>108</ele>
        <time>2018-08-21T10:04:01Z</time>
      </trkpt>
      <trkpt lat="43.96787" lon="1.22933">
        <ele>108.2</ele>
        <time>2018-08-21T10:04:03Z</time>
      </trkpt>
      <trkpt lat="43.9678" lon="1.2294">
        <ele>108.2</ele>
        <time>2018-08-21T10:04:05Z</time>
      </trkpt>
      <trkpt lat="43.96773" lon="1.22948">
        <ele>108</ele>
        <time>2018-08-21T10:04:07Z</time>
      </trkpt>
      <trkpt lat="43.96767" lon="1.22957">
        <ele>107.4</ele>
        <time>2018-08-21T10:04:09Z</time>
      </trkpt>
      <trkpt lat="43.9676" lon="1.22965">
        <ele>107.1</ele>
        <time>2018-08-21T10:04:11Z</time>
      </trkpt>
      <trkpt lat="43.96753" lon="1.22972">
        <ele>107.2</ele>
        <time>2018-08-21T10:04:13Z</time>
      </trkpt>
      <trkpt lat="43.96746" lon="1.22981">
        <ele>106.7</ele>
        <time>2018-08-21T10:04:15Z</time>
      </trkpt>
      <trkpt lat="43.9674" lon="1.22989">
        <ele>105.7</ele>
        <time>2018-08-21T10:04:17Z</time>
      </trkpt>
      <trkpt lat="43.96734" lon="1.22997">
        <ele>105.3</ele>
        <time>2018-08-21T10:04:19Z</time>
      </trkpt>
      <trkpt lat="43.96727" lon="1.23006">
        <ele>104.9</ele>
        <time>2018-08-21T10:04:21Z</time>
      </trkpt>
      <trkpt lat="43.96719" lon="1.23014">
        <ele>104.6</ele>
        <time>2018-08-21T10:04:23Z</time>
      </trkpt>
      <trkpt lat="43.96712" lon="1.23023">
        <ele>104.5</ele>
        <time>2018-08-21T10:04:25Z</time>
      </trkpt>
      <trkpt lat="43.96705" lon="1.23031">
        <ele>104.6</ele>
        <time>2018-08-21T10:04:27Z</time>
      </trkpt>
      <trkpt lat="43.96698" lon="1.23039">
        <ele>104.7</ele>
        <time>2018-08-21T10:04:29Z</time>
      </trkpt>
      <trkpt lat="43.96691" lon="1.23048">
        <ele>105.2</ele>
        <time>2018-08-21T10:04:31Z</time>
      </trkpt>
      <trkpt lat="43.96683" lon="1.23058">
        <ele>105.3</ele>
        <time>2018-08-21T10:04:33Z</time>
      </trkpt>
      <trkpt lat="43.96675" lon="1.23066">
        <ele>105.3</ele>
        <time>2018-08-21T10:04:35Z</time>
      </trkpt>
      <trkpt lat="43.96668" lon="1.23075">
        <ele>105.4</ele>
        <time>2018-08-21T10:04:37Z</time>
      </trkpt>
      <trkpt lat="43.9666" lon="1.23084">
        <ele>105.4</ele>
        <time>2018-08-21T10:04:39Z</time>
      </trkpt>
      <trkpt lat="43.96653" lon="1.23093">
        <ele>105.7</ele>
        <time>2018-08-21T10:04:42Z</time>
      </trkpt>
      <trkpt lat="43.96646" lon="1.23102">
        <ele>105.7</ele>
        <time>2018-08-21T10:04:43Z</time>
      </trkpt>
      <trkpt lat="43.96639" lon="1.23111">
        <ele>105.5</ele>
        <time>2018-08-21T10:04:45Z</time>
      </trkpt>
      <trkpt lat="43.96632" lon="1.23119">
        <ele>105.9</ele>
        <time>2018-08-21T10:04:47Z</time>
      </trkpt>
      <trkpt lat="43.96625" lon="1.23128">
        <ele>106.2</ele>
        <time>2018-08-21T10:04:49Z</time>
      </trkpt>
      <trkpt lat="43.96618" lon="1.23137">
        <ele>106.6</ele>
        <time>2018-08-21T10:04:51Z</time>
      </trkpt>
      <trkpt lat="43.96611" lon="1.23145">
        <ele>106.6</ele>
        <time>2018-08-21T10:04:53Z</time>
      </trkpt>
      <trkpt lat="43.96603" lon="1.23153">
        <ele>106.5</ele>
        <time>2018-08-21T10:04:55Z</time>
      </trkpt>
      <trkpt lat="43.96596" lon="1.23163">
        <ele>106.4</ele>
        <time>2018-08-21T10:04:57Z</time>
      </trkpt>
      <trkpt lat="43.96589" lon="1.23172">
        <ele>106.4</ele>
        <time>2018-08-21T10:04:59Z</time>
      </trkpt>
      <trkpt lat="43.96581" lon="1.23181">
        <ele>106.4</ele>
        <time>2018-08-21T10:05:01Z</time>
      </trkpt>
      <trkpt lat="43.96573" lon="1.2319">
        <ele>106.4</ele>
        <time>2018-08-21T10:05:03Z</time>
      </trkpt>
      <trkpt lat="43.96566" lon="1.23199">
        <ele>106.5</ele>
        <time>2018-08-21T10:05:05Z</time>
      </trkpt>
      <trkpt lat="43.96558" lon="1.23208">
        <ele>106.7</ele>
        <time>2018-08-21T10:05:07Z</time>
      </trkpt>
      <trkpt lat="43.96552" lon="1.23216">
        <ele>107.1</ele>
        <time>2018-08-21T10:05:09Z</time>
      </trkpt>
      <trkpt lat="43.96544" lon="1.23225">
        <ele>107.5</ele>
        <time>2018-08-21T10:05:11Z</time>
      </trkpt>
      <trkpt lat="43.96537" lon="1.23235">
        <ele>107.6</ele>
        <time>2018-08-21T10:05:13Z</time>
      </trkpt>
      <trkpt lat="43.96528" lon="1.23245">
        <ele>107</ele>
        <time>2018-08-21T10:05:15Z</time>
      </trkpt>
      <trkpt lat="43.9652" lon="1.23255">
        <ele>106.8</ele>
        <time>2018-08-21T10:05:17Z</time>
      </trkpt>
      <trkpt lat="43.96513" lon="1.23264">
        <ele>106.8</ele>
        <time>2018-08-21T10:05:19Z</time>
      </trkpt>
      <trkpt lat="43.96504" lon="1.23273">
        <ele>106.8</ele>
        <time>2018-08-21T10:05:21Z</time>
      </trkpt>
      <trkpt lat="43.96497" lon="1.23282">
        <ele>106.8</ele>
        <time>2018-08-21T10:05:23Z</time>
      </trkpt>
      <trkpt lat="43.96489" lon="1.23291">
        <ele>106.8</ele>
        <time>2018-08-21T10:05:25Z</time>
      </trkpt>
      <trkpt lat="43.96482" lon="1.23301">
        <ele>107</ele>
        <time>2018-08-21T10:05:27Z</time>
      </trkpt>
      <trkpt lat="43.96475" lon="1.2331">
        <ele>107</ele>
        <time>2018-08-21T10:05:29Z</time>
      </trkpt>
      <trkpt lat="43.96467" lon="1.2332">
        <ele>107.3</ele>
        <time>2018-08-21T10:05:31Z</time>
      </trkpt>
      <trkpt lat="43.96458" lon="1.23329">
        <ele>107.6</ele>
        <time>2018-08-21T10:05:33Z</time>
      </trkpt>
      <trkpt lat="43.96451" lon="1.23337">
        <ele>107.9</ele>
        <time>2018-08-21T10:05:35Z</time>
      </trkpt>
      <trkpt lat="43.96444" lon="1.23346">
        <ele>108.2</ele>
        <time>2018-08-21T10:05:37Z</time>
      </trkpt>
      <trkpt lat="43.96437" lon="1.23353">
        <ele>108.3</ele>
        <time>2018-08-21T10:05:39Z</time>
      </trkpt>
      <trkpt lat="43.96431" lon="1.23358">
        <ele>108.4</ele>
        <time>2018-08-21T10:05:41Z</time>
      </trkpt>
      <trkpt lat="43.96423" lon="1.23368">
        <ele>108.4</ele>
        <time>2018-08-21T10:05:44Z</time>
      </trkpt>
      <trkpt lat="43.96416" lon="1.23377">
        <ele>106.8</ele>
        <time>2018-08-21T10:05:47Z</time>
      </trkpt>
      <trkpt lat="43.9641" lon="1.23383">
        <ele>106</ele>
        <time>2018-08-21T10:05:49Z</time>
      </trkpt>
      <trkpt lat="43.96403" lon="1.23393">
        <ele>105.5</ele>
        <time>2018-08-21T10:05:51Z</time>
      </trkpt>
      <trkpt lat="43.96395" lon="1.23404">
        <ele>104.9</ele>
        <time>2018-08-21T10:05:53Z</time>
      </trkpt>
      <trkpt lat="43.96387" lon="1.23415">
        <ele>104.4</ele>
        <time>2018-08-21T10:05:55Z</time>
      </trkpt>
      <trkpt lat="43.96379" lon="1.23426">
        <ele>103.9</ele>
        <time>2018-08-21T10:05:57Z</time>
      </trkpt>
      <trkpt lat="43.96371" lon="1.23436">
        <ele>103.6</ele>
        <time>2018-08-21T10:05:59Z</time>
      </trkpt>
      <trkpt lat="43.96364" lon="1.23445">
        <ele>103.7</ele>
        <time>2018-08-21T10:06:01Z</time>
      </trkpt>
      <trkpt lat="43.96356" lon="1.23454">
        <ele>103.6</ele>
        <time>2018-08-21T10:06:03Z</time>
      </trkpt>
      <trkpt lat="43.9635" lon="1.23462">
        <ele>103.7</ele>
        <time>2018-08-21T10:06:05Z</time>
      </trkpt>
      <trkpt lat="43.96343" lon="1.23469">
        <ele>103.6</ele>
        <time>2018-08-21T10:06:07Z</time>
      </trkpt>
      <trkpt lat="43.96336" lon="1.23476">
        <ele>103.1</ele>
        <time>2018-08-21T10:06:09Z</time>
      </trkpt>
      <trkpt lat="43.96329" lon="1.23484">
        <ele>102.8</ele>
        <time>2018-08-21T10:06:11Z</time>
      </trkpt>
      <trkpt lat="43.96323" lon="1.23491">
        <ele>102.6</ele>
        <time>2018-08-21T10:06:13Z</time>
      </trkpt>
      <trkpt lat="43.96316" lon="1.23497">
        <ele>102.3</ele>
        <time>2018-08-21T10:06:15Z</time>
      </trkpt>
      <trkpt lat="43.9631" lon="1.23505">
        <ele>101.9</ele>
        <time>2018-08-21T10:06:17Z</time>
      </trkpt>
      <trkpt lat="43.96304" lon="1.23512">
        <ele>101.8</ele>
        <time>2018-08-21T10:06:19Z</time>
      </trkpt>
      <trkpt lat="43.96297" lon="1.2352">
        <ele>102.1</ele>
        <time>2018-08-21T10:06:21Z</time>
      </trkpt>
      <trkpt lat="43.9629" lon="1.23528">
        <ele>102.1</ele>
        <time>2018-08-21T10:06:23Z</time>
      </trkpt>
      <trkpt lat="43.96284" lon="1.23536">
        <ele>102.3</ele>
        <time>2018-08-21T10:06:25Z</time>
      </trkpt>
      <trkpt lat="43.96277" lon="1.23543">
        <ele>102.4</ele>
        <time>2018-08-21T10:06:27Z</time>
      </trkpt>
      <trkpt lat="43.96271" lon="1.2355">
        <ele>102.5</ele>
        <time>2018-08-21T10:06:29Z</time>
      </trkpt>
      <trkpt lat="43.96263" lon="1.23555">
        <ele>102.7</ele>
        <time>2018-08-21T10:06:31Z</time>
      </trkpt>
      <trkpt lat="43.96256" lon="1.23559">
        <ele>102.4</ele>
        <time>2018-08-21T10:06:33Z</time>
      </trkpt>
      <trkpt lat="43.96248" lon="1.23564">
        <ele>102.3</ele>
        <time>2018-08-21T10:06:35Z</time>
      </trkpt>
      <trkpt lat="43.9624" lon="1.23569">
        <ele>101.8</ele>
        <time>2018-08-21T10:06:37Z</time>
      </trkpt>
      <trkpt lat="43.96232" lon="1.23574">
        <ele>101.5</ele>
        <time>2018-08-21T10:06:39Z</time>
      </trkpt>
      <trkpt lat="43.96223" lon="1.2358">
        <ele>101.4</ele>
        <time>2018-08-21T10:06:41Z</time>
      </trkpt>
      <trkpt lat="43.96215" lon="1.23584">
        <ele>101.1</ele>
        <time>2018-08-21T10:06:43Z</time>
      </trkpt>
      <trkpt lat="43.96207" lon="1.2359">
        <ele>101</ele>
        <time>2018-08-21T10:06:45Z</time>
      </trkpt>
      <trkpt lat="43.96198" lon="1.23595">
        <ele>100.5</ele>
        <time>2018-08-21T10:06:47Z</time>
      </trkpt>
      <trkpt lat="43.9619" lon="1.23601">
        <ele>100.3</ele>
        <time>2018-08-21T10:06:49Z</time>
      </trkpt>
      <trkpt lat="43.96181" lon="1.23606">
        <ele>100.2</ele>
        <time>2018-08-21T10:06:51Z</time>
      </trkpt>
      <trkpt lat="43.96173" lon="1.23611">
        <ele>100.3</ele>
        <time>2018-08-21T10:06:53Z</time>
      </trkpt>
      <trkpt lat="43.96164" lon="1.23616">
        <ele>100.2</ele>
        <time>2018-08-21T10:06:55Z</time>
      </trkpt>
      <trkpt lat="43.96156" lon="1.23621">
        <ele>100.2</ele>
        <time>2018-08-21T10:06:57Z</time>
      </trkpt>
      <trkpt lat="43.96148" lon="1.23626">
        <ele>100.8</ele>
        <time>2018-08-21T10:06:59Z</time>
      </trkpt>
      <trkpt lat="43.9614" lon="1.23631">
        <ele>100.8</ele>
        <time>2018-08-21T10:07:01Z</time>
      </trkpt>
      <trkpt lat="43.96132" lon="1.23635">
        <ele>101.8</ele>
        <time>2018-08-21T10:07:03Z</time>
      </trkpt>
      <trkpt lat="43.96121" lon="1.23634">
        <ele>102.5</ele>
        <time>2018-08-21T10:07:06Z</time>
      </trkpt>
      <trkpt lat="43.96113" lon="1.23628">
        <ele>102.4</ele>
        <time>2018-08-21T10:07:08Z</time>
      </trkpt>
      <trkpt lat="43.96105" lon="1.23623">
        <ele>102.3</ele>
        <time>2018-08-21T10:07:10Z</time>
      </trkpt>
      <trkpt lat="43.96097" lon="1.23618">
        <ele>103</ele>
        <time>2018-08-21T10:07:12Z</time>
      </trkpt>
      <trkpt lat="43.96088" lon="1.23617">
        <ele>103.3</ele>
        <time>2018-08-21T10:07:14Z</time>
      </trkpt>
      <trkpt lat="43.96079" lon="1.23615">
        <ele>103.4</ele>
        <time>2018-08-21T10:07:16Z</time>
      </trkpt>
      <trkpt lat="43.9607" lon="1.23616">
        <ele>103.8</ele>
        <time>2018-08-21T10:07:18Z</time>
      </trkpt>
      <trkpt lat="43.96061" lon="1.23621">
        <ele>104</ele>
        <time>2018-08-21T10:07:20Z</time>
      </trkpt>
      <trkpt lat="43.96052" lon="1.23627">
        <ele>104.3</ele>
        <time>2018-08-21T10:07:22Z</time>
      </trkpt>
      <trkpt lat="43.96043" lon="1.23633">
        <ele>104.4</ele>
        <time>2018-08-21T10:07:24Z</time>
      </trkpt>
      <trkpt lat="43.96035" lon="1.23639">
        <ele>104.4</ele>
        <time>2018-08-21T10:07:26Z</time>
      </trkpt>
      <trkpt lat="43.96027" lon="1.23644">
        <ele>104.4</ele>
        <time>2018-08-21T10:07:28Z</time>
      </trkpt>
      <trkpt lat="43.96019" lon="1.2365">
        <ele>104.2</ele>
        <time>2018-08-21T10:07:30Z</time>
      </trkpt>
      <trkpt lat="43.96012" lon="1.23659">
        <ele>104.2</ele>
        <time>2018-08-21T10:07:32Z</time>
      </trkpt>
      <trkpt lat="43.96007" lon="1.23668">
        <ele>104.1</ele>
        <time>2018-08-21T10:07:35Z</time>
      </trkpt>
      <trkpt lat="43.95999" lon="1.23677">
        <ele>104</ele>
        <time>2018-08-21T10:07:36Z</time>
      </trkpt>
      <trkpt lat="43.95994" lon="1.23686">
        <ele>103.9</ele>
        <time>2018-08-21T10:07:38Z</time>
      </trkpt>
      <trkpt lat="43.9599" lon="1.23697">
        <ele>104</ele>
        <time>2018-08-21T10:07:40Z</time>
      </trkpt>
      <trkpt lat="43.95985" lon="1.23709">
        <ele>103.9</ele>
        <time>2018-08-21T10:07:42Z</time>
      </trkpt>
      <trkpt lat="43.95984" lon="1.23719">
        <ele>103.8</ele>
        <time>2018-08-21T10:07:44Z</time>
      </trkpt>
      <trkpt lat="43.95987" lon="1.23732">
        <ele>103.2</ele>
        <time>2018-08-21T10:07:47Z</time>
      </trkpt>
      <trkpt lat="43.95982" lon="1.23741">
        <ele>102.7</ele>
        <time>2018-08-21T10:07:51Z</time>
      </trkpt>
      <trkpt lat="43.95975" lon="1.23746">
        <ele>102.9</ele>
        <time>2018-08-21T10:07:54Z</time>
      </trkpt>
      <trkpt lat="43.95967" lon="1.23749">
        <ele>102.5</ele>
        <time>2018-08-21T10:07:56Z</time>
      </trkpt>
      <trkpt lat="43.95958" lon="1.2375">
        <ele>102.3</ele>
        <time>2018-08-21T10:07:58Z</time>
      </trkpt>
      <trkpt lat="43.9595" lon="1.23748">
        <ele>102</ele>
        <time>2018-08-21T10:08:00Z</time>
      </trkpt>
      <trkpt lat="43.95942" lon="1.23744">
        <ele>102.1</ele>
        <time>2018-08-21T10:08:02Z</time>
      </trkpt>
      <trkpt lat="43.95934" lon="1.23744">
        <ele>102.3</ele>
        <time>2018-08-21T10:08:04Z</time>
      </trkpt>
      <trkpt lat="43.95924" lon="1.2375">
        <ele>102.6</ele>
        <time>2018-08-21T10:08:07Z</time>
      </trkpt>
      <trkpt lat="43.95915" lon="1.23753">
        <ele>102.9</ele>
        <time>2018-08-21T10:08:10Z</time>
      </trkpt>
      <trkpt lat="43.95906" lon="1.23749">
        <ele>102.8</ele>
        <time>2018-08-21T10:08:13Z</time>
      </trkpt>
    </trkseg>
  </trk>
</gpx>